<?xml version="1.0" encoding="UTF-8" standalone="no" ?>
<gpx xmlns="http://www.topografix.com/GPX/1/1" xmlns:xsi="http://www.w3.org/2001/XMLSchema-instance" xsi:schemaLocation="http://www.topografix.com/GPX/1/1 http://www.topografix.com/GPX/1/1/gpx.xsd" version="1.1" creator="VisuGPX - https://www.visugpx.com">
  <metadata>
    <name>Autour ramatuelle</name>
  </metadata>
  <trk>
    <name><![CDATA[Sortie à vélo dans l'après-midi]]></name>
    <trkseg>
      <trkpt lat="43.21467" lon="6.60522">
        <ele>265</ele>
        <time>1970-01-01T00:00:00.000Z</time>
      </trkpt>
      <trkpt lat="43.21471" lon="6.60517">
        <ele>265.9</ele>
        <time>1970-01-01T00:00:02.000Z</time>
      </trkpt>
      <trkpt lat="43.21474" lon="6.60514">
        <ele>266.6</ele>
        <time>1970-01-01T00:00:04.000Z</time>
      </trkpt>
      <trkpt lat="43.21477" lon="6.60511">
        <ele>267.4</ele>
        <time>1970-01-01T00:00:06.000Z</time>
      </trkpt>
      <trkpt lat="43.21481" lon="6.60507">
        <ele>268.2</ele>
        <time>1970-01-01T00:00:08.000Z</time>
      </trkpt>
      <trkpt lat="43.21484" lon="6.60504">
        <ele>268.8</ele>
        <time>1970-01-01T00:00:10.000Z</time>
      </trkpt>
      <trkpt lat="43.21488" lon="6.60502">
        <ele>269.4</ele>
        <time>1970-01-01T00:00:12.000Z</time>
      </trkpt>
      <trkpt lat="43.21492" lon="6.605">
        <ele>270</ele>
        <time>1970-01-01T00:00:14.000Z</time>
      </trkpt>
      <trkpt lat="43.21496" lon="6.60498">
        <ele>270.5</ele>
        <time>1970-01-01T00:00:16.000Z</time>
      </trkpt>
      <trkpt lat="43.215" lon="6.60499">
        <ele>271</ele>
        <time>1970-01-01T00:00:18.000Z</time>
      </trkpt>
      <trkpt lat="43.21503" lon="6.605">
        <ele>271.3</ele>
        <time>1970-01-01T00:00:20.000Z</time>
      </trkpt>
      <trkpt lat="43.21507" lon="6.60501">
        <ele>271.7</ele>
        <time>1970-01-01T00:00:22.000Z</time>
      </trkpt>
      <trkpt lat="43.21511" lon="6.60504">
        <ele>272.2</ele>
        <time>1970-01-01T00:00:24.000Z</time>
      </trkpt>
      <trkpt lat="43.21516" lon="6.60505">
        <ele>272.8</ele>
        <time>1970-01-01T00:00:26.000Z</time>
      </trkpt>
      <trkpt lat="43.21519" lon="6.60505">
        <ele>273.1</ele>
        <time>1970-01-01T00:00:27.000Z</time>
      </trkpt>
      <trkpt lat="43.21524" lon="6.60507">
        <ele>273.6</ele>
        <time>1970-01-01T00:00:29.000Z</time>
      </trkpt>
      <trkpt lat="43.21529" lon="6.60508">
        <ele>274.1</ele>
        <time>1970-01-01T00:00:31.000Z</time>
      </trkpt>
      <trkpt lat="43.21533" lon="6.6051">
        <ele>274.5</ele>
        <time>1970-01-01T00:00:33.000Z</time>
      </trkpt>
      <trkpt lat="43.21536" lon="6.60512">
        <ele>274.8</ele>
        <time>1970-01-01T00:00:34.000Z</time>
      </trkpt>
      <trkpt lat="43.21539" lon="6.60513">
        <ele>275.2</ele>
        <time>1970-01-01T00:00:36.000Z</time>
      </trkpt>
      <trkpt lat="43.21544" lon="6.60514">
        <ele>275.6</ele>
        <time>1970-01-01T00:00:38.000Z</time>
      </trkpt>
      <trkpt lat="43.21547" lon="6.60513">
        <ele>275.9</ele>
        <time>1970-01-01T00:00:40.000Z</time>
      </trkpt>
      <trkpt lat="43.2155" lon="6.6051">
        <ele>276.2</ele>
        <time>1970-01-01T00:00:42.000Z</time>
      </trkpt>
      <trkpt lat="43.21554" lon="6.60507">
        <ele>276.6</ele>
        <time>1970-01-01T00:00:44.000Z</time>
      </trkpt>
      <trkpt lat="43.21559" lon="6.60504">
        <ele>277.1</ele>
        <time>1970-01-01T00:00:46.000Z</time>
      </trkpt>
      <trkpt lat="43.21563" lon="6.605">
        <ele>277.5</ele>
        <time>1970-01-01T00:00:48.000Z</time>
      </trkpt>
      <trkpt lat="43.21567" lon="6.60495">
        <ele>277.9</ele>
        <time>1970-01-01T00:00:50.000Z</time>
      </trkpt>
      <trkpt lat="43.2157" lon="6.6049">
        <ele>278.3</ele>
        <time>1970-01-01T00:00:52.000Z</time>
      </trkpt>
      <trkpt lat="43.21572" lon="6.60486">
        <ele>278.5</ele>
        <time>1970-01-01T00:00:54.000Z</time>
      </trkpt>
      <trkpt lat="43.21576" lon="6.60481">
        <ele>278.8</ele>
        <time>1970-01-01T00:00:56.000Z</time>
      </trkpt>
      <trkpt lat="43.21579" lon="6.60477">
        <ele>279.1</ele>
        <time>1970-01-01T00:00:58.000Z</time>
      </trkpt>
      <trkpt lat="43.21581" lon="6.60471">
        <ele>279.3</ele>
        <time>1970-01-01T00:01:00.000Z</time>
      </trkpt>
      <trkpt lat="43.21585" lon="6.60467">
        <ele>279.6</ele>
        <time>1970-01-01T00:01:02.000Z</time>
      </trkpt>
      <trkpt lat="43.21588" lon="6.60461">
        <ele>279.8</ele>
        <time>1970-01-01T00:01:04.000Z</time>
      </trkpt>
      <trkpt lat="43.21591" lon="6.60456">
        <ele>280</ele>
        <time>1970-01-01T00:01:06.000Z</time>
      </trkpt>
      <trkpt lat="43.21593" lon="6.60452">
        <ele>280.1</ele>
        <time>1970-01-01T00:01:08.000Z</time>
      </trkpt>
      <trkpt lat="43.21594" lon="6.60449">
        <ele>280.2</ele>
        <time>1970-01-01T00:01:09.000Z</time>
      </trkpt>
      <trkpt lat="43.21598" lon="6.60445">
        <ele>280.4</ele>
        <time>1970-01-01T00:01:11.000Z</time>
      </trkpt>
      <trkpt lat="43.216" lon="6.60442">
        <ele>280.6</ele>
        <time>1970-01-01T00:01:12.000Z</time>
      </trkpt>
      <trkpt lat="43.21603" lon="6.60439">
        <ele>280.7</ele>
        <time>1970-01-01T00:01:13.000Z</time>
      </trkpt>
      <trkpt lat="43.21606" lon="6.60436">
        <ele>280.9</ele>
        <time>1970-01-01T00:01:14.000Z</time>
      </trkpt>
      <trkpt lat="43.21609" lon="6.60434">
        <ele>281.1</ele>
        <time>1970-01-01T00:01:15.000Z</time>
      </trkpt>
      <trkpt lat="43.21613" lon="6.60429">
        <ele>281.3</ele>
        <time>1970-01-01T00:01:17.000Z</time>
      </trkpt>
      <trkpt lat="43.21617" lon="6.60426">
        <ele>281.7</ele>
        <time>1970-01-01T00:01:19.000Z</time>
      </trkpt>
      <trkpt lat="43.21621" lon="6.60422">
        <ele>282.1</ele>
        <time>1970-01-01T00:01:21.000Z</time>
      </trkpt>
      <trkpt lat="43.21625" lon="6.60418">
        <ele>282.6</ele>
        <time>1970-01-01T00:01:23.000Z</time>
      </trkpt>
      <trkpt lat="43.2163" lon="6.60415">
        <ele>283.1</ele>
        <time>1970-01-01T00:01:25.000Z</time>
      </trkpt>
      <trkpt lat="43.21633" lon="6.60413">
        <ele>283.4</ele>
        <time>1970-01-01T00:01:26.000Z</time>
      </trkpt>
      <trkpt lat="43.21636" lon="6.60409">
        <ele>284</ele>
        <time>1970-01-01T00:01:28.000Z</time>
      </trkpt>
      <trkpt lat="43.21641" lon="6.60406">
        <ele>284.7</ele>
        <time>1970-01-01T00:01:30.000Z</time>
      </trkpt>
      <trkpt lat="43.21644" lon="6.60404">
        <ele>285.1</ele>
        <time>1970-01-01T00:01:31.000Z</time>
      </trkpt>
      <trkpt lat="43.21646" lon="6.60402">
        <ele>285.5</ele>
        <time>1970-01-01T00:01:32.000Z</time>
      </trkpt>
      <trkpt lat="43.21649" lon="6.604">
        <ele>285.9</ele>
        <time>1970-01-01T00:01:33.000Z</time>
      </trkpt>
      <trkpt lat="43.21651" lon="6.60397">
        <ele>286.3</ele>
        <time>1970-01-01T00:01:34.000Z</time>
      </trkpt>
      <trkpt lat="43.21654" lon="6.60395">
        <ele>286.7</ele>
        <time>1970-01-01T00:01:35.000Z</time>
      </trkpt>
      <trkpt lat="43.21657" lon="6.60392">
        <ele>287.2</ele>
        <time>1970-01-01T00:01:36.000Z</time>
      </trkpt>
      <trkpt lat="43.2166" lon="6.60389">
        <ele>287.7</ele>
        <time>1970-01-01T00:01:37.000Z</time>
      </trkpt>
      <trkpt lat="43.21662" lon="6.60387">
        <ele>288.1</ele>
        <time>1970-01-01T00:01:38.000Z</time>
      </trkpt>
      <trkpt lat="43.21665" lon="6.60386">
        <ele>288.6</ele>
        <time>1970-01-01T00:01:39.000Z</time>
      </trkpt>
      <trkpt lat="43.21668" lon="6.60383">
        <ele>289</ele>
        <time>1970-01-01T00:01:40.000Z</time>
      </trkpt>
      <trkpt lat="43.21671" lon="6.60381">
        <ele>289.5</ele>
        <time>1970-01-01T00:01:41.000Z</time>
      </trkpt>
      <trkpt lat="43.21674" lon="6.60379">
        <ele>289.9</ele>
        <time>1970-01-01T00:01:42.000Z</time>
      </trkpt>
      <trkpt lat="43.21677" lon="6.60376">
        <ele>290.3</ele>
        <time>1970-01-01T00:01:43.000Z</time>
      </trkpt>
      <trkpt lat="43.21681" lon="6.60374">
        <ele>290.8</ele>
        <time>1970-01-01T00:01:44.000Z</time>
      </trkpt>
      <trkpt lat="43.21684" lon="6.60372">
        <ele>291.1</ele>
        <time>1970-01-01T00:01:45.000Z</time>
      </trkpt>
      <trkpt lat="43.21688" lon="6.60368">
        <ele>291.7</ele>
        <time>1970-01-01T00:01:47.000Z</time>
      </trkpt>
      <trkpt lat="43.2169" lon="6.60367">
        <ele>292</ele>
        <time>1970-01-01T00:01:48.000Z</time>
      </trkpt>
      <trkpt lat="43.21694" lon="6.60365">
        <ele>292.3</ele>
        <time>1970-01-01T00:01:50.000Z</time>
      </trkpt>
      <trkpt lat="43.21699" lon="6.60361">
        <ele>292.8</ele>
        <time>1970-01-01T00:01:52.000Z</time>
      </trkpt>
      <trkpt lat="43.21703" lon="6.60358">
        <ele>293.2</ele>
        <time>1970-01-01T00:01:54.000Z</time>
      </trkpt>
      <trkpt lat="43.21705" lon="6.60356">
        <ele>293.4</ele>
        <time>1970-01-01T00:01:55.000Z</time>
      </trkpt>
      <trkpt lat="43.21708" lon="6.60354">
        <ele>293.6</ele>
        <time>1970-01-01T00:01:56.000Z</time>
      </trkpt>
      <trkpt lat="43.21711" lon="6.60352">
        <ele>293.9</ele>
        <time>1970-01-01T00:01:57.000Z</time>
      </trkpt>
      <trkpt lat="43.21713" lon="6.6035">
        <ele>294.1</ele>
        <time>1970-01-01T00:01:58.000Z</time>
      </trkpt>
      <trkpt lat="43.21715" lon="6.60349">
        <ele>294.3</ele>
        <time>1970-01-01T00:01:59.000Z</time>
      </trkpt>
      <trkpt lat="43.21718" lon="6.60348">
        <ele>294.5</ele>
        <time>1970-01-01T00:02:00.000Z</time>
      </trkpt>
      <trkpt lat="43.21721" lon="6.60346">
        <ele>294.6</ele>
        <time>1970-01-01T00:02:01.000Z</time>
      </trkpt>
      <trkpt lat="43.21726" lon="6.60345">
        <ele>295</ele>
        <time>1970-01-01T00:02:03.000Z</time>
      </trkpt>
      <trkpt lat="43.21731" lon="6.60343">
        <ele>295.2</ele>
        <time>1970-01-01T00:02:05.000Z</time>
      </trkpt>
      <trkpt lat="43.21736" lon="6.60342">
        <ele>295.5</ele>
        <time>1970-01-01T00:02:07.000Z</time>
      </trkpt>
      <trkpt lat="43.21739" lon="6.60342">
        <ele>295.6</ele>
        <time>1970-01-01T00:02:08.000Z</time>
      </trkpt>
      <trkpt lat="43.21742" lon="6.60341">
        <ele>295.7</ele>
        <time>1970-01-01T00:02:09.000Z</time>
      </trkpt>
      <trkpt lat="43.21747" lon="6.60339">
        <ele>296</ele>
        <time>1970-01-01T00:02:11.000Z</time>
      </trkpt>
      <trkpt lat="43.21752" lon="6.60338">
        <ele>296.3</ele>
        <time>1970-01-01T00:02:13.000Z</time>
      </trkpt>
      <trkpt lat="43.21755" lon="6.60337">
        <ele>296.5</ele>
        <time>1970-01-01T00:02:14.000Z</time>
      </trkpt>
      <trkpt lat="43.21758" lon="6.60335">
        <ele>296.6</ele>
        <time>1970-01-01T00:02:15.000Z</time>
      </trkpt>
      <trkpt lat="43.21762" lon="6.60333">
        <ele>296.9</ele>
        <time>1970-01-01T00:02:17.000Z</time>
      </trkpt>
      <trkpt lat="43.21766" lon="6.60329">
        <ele>297.3</ele>
        <time>1970-01-01T00:02:19.000Z</time>
      </trkpt>
      <trkpt lat="43.21768" lon="6.60328">
        <ele>297.5</ele>
        <time>1970-01-01T00:02:20.000Z</time>
      </trkpt>
      <trkpt lat="43.21771" lon="6.60326">
        <ele>297.7</ele>
        <time>1970-01-01T00:02:21.000Z</time>
      </trkpt>
      <trkpt lat="43.21774" lon="6.60325">
        <ele>297.9</ele>
        <time>1970-01-01T00:02:22.000Z</time>
      </trkpt>
      <trkpt lat="43.21777" lon="6.60323">
        <ele>298.2</ele>
        <time>1970-01-01T00:02:23.000Z</time>
      </trkpt>
      <trkpt lat="43.21781" lon="6.60322">
        <ele>298.5</ele>
        <time>1970-01-01T00:02:24.000Z</time>
      </trkpt>
      <trkpt lat="43.21785" lon="6.60321">
        <ele>298.8</ele>
        <time>1970-01-01T00:02:25.000Z</time>
      </trkpt>
      <trkpt lat="43.21789" lon="6.6032">
        <ele>299.1</ele>
        <time>1970-01-01T00:02:26.000Z</time>
      </trkpt>
      <trkpt lat="43.21792" lon="6.6032">
        <ele>299.4</ele>
        <time>1970-01-01T00:02:27.000Z</time>
      </trkpt>
      <trkpt lat="43.21795" lon="6.6032">
        <ele>299.6</ele>
        <time>1970-01-01T00:02:28.000Z</time>
      </trkpt>
      <trkpt lat="43.21799" lon="6.60319">
        <ele>299.9</ele>
        <time>1970-01-01T00:02:29.000Z</time>
      </trkpt>
      <trkpt lat="43.21804" lon="6.60317">
        <ele>300.3</ele>
        <time>1970-01-01T00:02:31.000Z</time>
      </trkpt>
      <trkpt lat="43.21806" lon="6.60316">
        <ele>300.5</ele>
        <time>1970-01-01T00:02:32.000Z</time>
      </trkpt>
      <trkpt lat="43.21809" lon="6.60315">
        <ele>300.7</ele>
        <time>1970-01-01T00:02:33.000Z</time>
      </trkpt>
      <trkpt lat="43.21812" lon="6.60314">
        <ele>300.9</ele>
        <time>1970-01-01T00:02:34.000Z</time>
      </trkpt>
      <trkpt lat="43.21815" lon="6.60313">
        <ele>301.2</ele>
        <time>1970-01-01T00:02:35.000Z</time>
      </trkpt>
      <trkpt lat="43.21818" lon="6.60311">
        <ele>301.4</ele>
        <time>1970-01-01T00:02:36.000Z</time>
      </trkpt>
      <trkpt lat="43.21821" lon="6.60311">
        <ele>301.6</ele>
        <time>1970-01-01T00:02:37.000Z</time>
      </trkpt>
      <trkpt lat="43.21824" lon="6.6031">
        <ele>301.8</ele>
        <time>1970-01-01T00:02:38.000Z</time>
      </trkpt>
      <trkpt lat="43.21827" lon="6.60309">
        <ele>302</ele>
        <time>1970-01-01T00:02:39.000Z</time>
      </trkpt>
      <trkpt lat="43.2183" lon="6.60308">
        <ele>302.2</ele>
        <time>1970-01-01T00:02:40.000Z</time>
      </trkpt>
      <trkpt lat="43.21833" lon="6.60308">
        <ele>302.4</ele>
        <time>1970-01-01T00:02:41.000Z</time>
      </trkpt>
      <trkpt lat="43.21836" lon="6.60307">
        <ele>302.5</ele>
        <time>1970-01-01T00:02:42.000Z</time>
      </trkpt>
      <trkpt lat="43.2184" lon="6.60306">
        <ele>302.7</ele>
        <time>1970-01-01T00:02:43.000Z</time>
      </trkpt>
      <trkpt lat="43.21843" lon="6.60305">
        <ele>302.9</ele>
        <time>1970-01-01T00:02:44.000Z</time>
      </trkpt>
      <trkpt lat="43.21846" lon="6.60305">
        <ele>303</ele>
        <time>1970-01-01T00:02:45.000Z</time>
      </trkpt>
      <trkpt lat="43.21849" lon="6.60304">
        <ele>303.2</ele>
        <time>1970-01-01T00:02:46.000Z</time>
      </trkpt>
      <trkpt lat="43.21852" lon="6.60302">
        <ele>303.3</ele>
        <time>1970-01-01T00:02:47.000Z</time>
      </trkpt>
      <trkpt lat="43.21855" lon="6.603">
        <ele>303.4</ele>
        <time>1970-01-01T00:02:48.000Z</time>
      </trkpt>
      <trkpt lat="43.21858" lon="6.603">
        <ele>303.6</ele>
        <time>1970-01-01T00:02:49.000Z</time>
      </trkpt>
      <trkpt lat="43.21861" lon="6.60298">
        <ele>303.8</ele>
        <time>1970-01-01T00:02:50.000Z</time>
      </trkpt>
      <trkpt lat="43.21864" lon="6.60297">
        <ele>304</ele>
        <time>1970-01-01T00:02:51.000Z</time>
      </trkpt>
      <trkpt lat="43.21868" lon="6.60296">
        <ele>304.2</ele>
        <time>1970-01-01T00:02:52.000Z</time>
      </trkpt>
      <trkpt lat="43.21872" lon="6.60294">
        <ele>304.4</ele>
        <time>1970-01-01T00:02:53.000Z</time>
      </trkpt>
      <trkpt lat="43.21875" lon="6.60293">
        <ele>304.7</ele>
        <time>1970-01-01T00:02:54.000Z</time>
      </trkpt>
      <trkpt lat="43.21878" lon="6.60292">
        <ele>305</ele>
        <time>1970-01-01T00:02:55.000Z</time>
      </trkpt>
      <trkpt lat="43.21882" lon="6.6029">
        <ele>305.3</ele>
        <time>1970-01-01T00:02:56.000Z</time>
      </trkpt>
      <trkpt lat="43.21885" lon="6.60289">
        <ele>305.7</ele>
        <time>1970-01-01T00:02:57.000Z</time>
      </trkpt>
      <trkpt lat="43.21888" lon="6.60287">
        <ele>306</ele>
        <time>1970-01-01T00:02:58.000Z</time>
      </trkpt>
      <trkpt lat="43.21891" lon="6.60285">
        <ele>306.5</ele>
        <time>1970-01-01T00:02:59.000Z</time>
      </trkpt>
      <trkpt lat="43.21894" lon="6.60283">
        <ele>306.8</ele>
        <time>1970-01-01T00:03:00.000Z</time>
      </trkpt>
      <trkpt lat="43.21898" lon="6.60283">
        <ele>307.1</ele>
        <time>1970-01-01T00:03:01.000Z</time>
      </trkpt>
      <trkpt lat="43.21901" lon="6.60282">
        <ele>307.5</ele>
        <time>1970-01-01T00:03:02.000Z</time>
      </trkpt>
      <trkpt lat="43.21903" lon="6.60281">
        <ele>307.8</ele>
        <time>1970-01-01T00:03:03.000Z</time>
      </trkpt>
      <trkpt lat="43.21906" lon="6.6028">
        <ele>308.1</ele>
        <time>1970-01-01T00:03:04.000Z</time>
      </trkpt>
      <trkpt lat="43.2191" lon="6.60278">
        <ele>308.5</ele>
        <time>1970-01-01T00:03:05.000Z</time>
      </trkpt>
      <trkpt lat="43.21913" lon="6.60276">
        <ele>308.9</ele>
        <time>1970-01-01T00:03:06.000Z</time>
      </trkpt>
      <trkpt lat="43.21918" lon="6.60274">
        <ele>309.5</ele>
        <time>1970-01-01T00:03:08.000Z</time>
      </trkpt>
      <trkpt lat="43.21922" lon="6.60272">
        <ele>309.9</ele>
        <time>1970-01-01T00:03:09.000Z</time>
      </trkpt>
      <trkpt lat="43.21926" lon="6.6027">
        <ele>310.3</ele>
        <time>1970-01-01T00:03:10.000Z</time>
      </trkpt>
      <trkpt lat="43.21929" lon="6.60268">
        <ele>310.7</ele>
        <time>1970-01-01T00:03:11.000Z</time>
      </trkpt>
      <trkpt lat="43.21933" lon="6.60266">
        <ele>311.1</ele>
        <time>1970-01-01T00:03:12.000Z</time>
      </trkpt>
      <trkpt lat="43.21936" lon="6.60264">
        <ele>311.4</ele>
        <time>1970-01-01T00:03:13.000Z</time>
      </trkpt>
      <trkpt lat="43.21939" lon="6.60263">
        <ele>311.7</ele>
        <time>1970-01-01T00:03:14.000Z</time>
      </trkpt>
      <trkpt lat="43.21942" lon="6.60261">
        <ele>312</ele>
        <time>1970-01-01T00:03:15.000Z</time>
      </trkpt>
      <trkpt lat="43.21945" lon="6.60259">
        <ele>312.3</ele>
        <time>1970-01-01T00:03:16.000Z</time>
      </trkpt>
      <trkpt lat="43.21948" lon="6.60257">
        <ele>312.6</ele>
        <time>1970-01-01T00:03:17.000Z</time>
      </trkpt>
      <trkpt lat="43.2195" lon="6.60256">
        <ele>312.9</ele>
        <time>1970-01-01T00:03:18.000Z</time>
      </trkpt>
      <trkpt lat="43.21953" lon="6.60254">
        <ele>313.1</ele>
        <time>1970-01-01T00:03:19.000Z</time>
      </trkpt>
      <trkpt lat="43.21955" lon="6.60253">
        <ele>313.4</ele>
        <time>1970-01-01T00:03:20.000Z</time>
      </trkpt>
      <trkpt lat="43.2196" lon="6.60249">
        <ele>313.9</ele>
        <time>1970-01-01T00:03:22.000Z</time>
      </trkpt>
      <trkpt lat="43.21963" lon="6.60247">
        <ele>314.2</ele>
        <time>1970-01-01T00:03:23.000Z</time>
      </trkpt>
      <trkpt lat="43.21965" lon="6.60245">
        <ele>314.5</ele>
        <time>1970-01-01T00:03:24.000Z</time>
      </trkpt>
      <trkpt lat="43.21968" lon="6.60242">
        <ele>314.8</ele>
        <time>1970-01-01T00:03:25.000Z</time>
      </trkpt>
      <trkpt lat="43.2197" lon="6.6024">
        <ele>315.1</ele>
        <time>1970-01-01T00:03:26.000Z</time>
      </trkpt>
      <trkpt lat="43.21973" lon="6.60238">
        <ele>315.4</ele>
        <time>1970-01-01T00:03:27.000Z</time>
      </trkpt>
      <trkpt lat="43.21975" lon="6.60235">
        <ele>315.7</ele>
        <time>1970-01-01T00:03:28.000Z</time>
      </trkpt>
      <trkpt lat="43.21978" lon="6.60233">
        <ele>316</ele>
        <time>1970-01-01T00:03:29.000Z</time>
      </trkpt>
      <trkpt lat="43.2198" lon="6.60231">
        <ele>316.3</ele>
        <time>1970-01-01T00:03:30.000Z</time>
      </trkpt>
      <trkpt lat="43.21985" lon="6.60228">
        <ele>316.7</ele>
        <time>1970-01-01T00:03:32.000Z</time>
      </trkpt>
      <trkpt lat="43.21989" lon="6.60225">
        <ele>316.9</ele>
        <time>1970-01-01T00:03:34.000Z</time>
      </trkpt>
      <trkpt lat="43.21994" lon="6.60225">
        <ele>316.8</ele>
        <time>1970-01-01T00:03:36.000Z</time>
      </trkpt>
      <trkpt lat="43.21997" lon="6.60223">
        <ele>316.7</ele>
        <time>1970-01-01T00:03:37.000Z</time>
      </trkpt>
      <trkpt lat="43.21999" lon="6.6022">
        <ele>316.6</ele>
        <time>1970-01-01T00:03:38.000Z</time>
      </trkpt>
      <trkpt lat="43.22001" lon="6.60218">
        <ele>316.5</ele>
        <time>1970-01-01T00:03:39.000Z</time>
      </trkpt>
      <trkpt lat="43.22004" lon="6.60213">
        <ele>316.3</ele>
        <time>1970-01-01T00:03:41.000Z</time>
      </trkpt>
      <trkpt lat="43.22005" lon="6.60209">
        <ele>316.2</ele>
        <time>1970-01-01T00:03:42.000Z</time>
      </trkpt>
      <trkpt lat="43.22009" lon="6.60204">
        <ele>316</ele>
        <time>1970-01-01T00:03:44.000Z</time>
      </trkpt>
      <trkpt lat="43.2201" lon="6.602">
        <ele>315.9</ele>
        <time>1970-01-01T00:03:45.000Z</time>
      </trkpt>
      <trkpt lat="43.22012" lon="6.60196">
        <ele>315.7</ele>
        <time>1970-01-01T00:03:46.000Z</time>
      </trkpt>
      <trkpt lat="43.22013" lon="6.60193">
        <ele>315.5</ele>
        <time>1970-01-01T00:03:47.000Z</time>
      </trkpt>
      <trkpt lat="43.22017" lon="6.60188">
        <ele>315.2</ele>
        <time>1970-01-01T00:03:49.000Z</time>
      </trkpt>
      <trkpt lat="43.2202" lon="6.60186">
        <ele>315</ele>
        <time>1970-01-01T00:03:51.000Z</time>
      </trkpt>
      <trkpt lat="43.22023" lon="6.60184">
        <ele>314.8</ele>
        <time>1970-01-01T00:03:54.000Z</time>
      </trkpt>
      <trkpt lat="43.22025" lon="6.60181">
        <ele>314.6</ele>
        <time>1970-01-01T00:04:58.000Z</time>
      </trkpt>
      <trkpt lat="43.22027" lon="6.60178">
        <ele>314.5</ele>
        <time>1970-01-01T00:05:02.000Z</time>
      </trkpt>
      <trkpt lat="43.2203" lon="6.60178">
        <ele>314.3</ele>
        <time>1970-01-01T00:05:03.000Z</time>
      </trkpt>
      <trkpt lat="43.22033" lon="6.60179">
        <ele>314.2</ele>
        <time>1970-01-01T00:05:04.000Z</time>
      </trkpt>
      <trkpt lat="43.22037" lon="6.60181">
        <ele>314.1</ele>
        <time>1970-01-01T00:05:05.000Z</time>
      </trkpt>
      <trkpt lat="43.22044" lon="6.6018">
        <ele>313.2</ele>
        <time>1970-01-01T00:05:06.000Z</time>
      </trkpt>
      <trkpt lat="43.2205" lon="6.6018">
        <ele>312.4</ele>
        <time>1970-01-01T00:05:07.000Z</time>
      </trkpt>
      <trkpt lat="43.22057" lon="6.60181">
        <ele>311.6</ele>
        <time>1970-01-01T00:05:08.000Z</time>
      </trkpt>
      <trkpt lat="43.22064" lon="6.60187">
        <ele>311.3</ele>
        <time>1970-01-01T00:05:09.000Z</time>
      </trkpt>
      <trkpt lat="43.22076" lon="6.60193">
        <ele>311</ele>
        <time>1970-01-01T00:05:10.000Z</time>
      </trkpt>
      <trkpt lat="43.22088" lon="6.60197">
        <ele>311.3</ele>
        <time>1970-01-01T00:05:11.000Z</time>
      </trkpt>
      <trkpt lat="43.22099" lon="6.60203">
        <ele>311.4</ele>
        <time>1970-01-01T00:05:12.000Z</time>
      </trkpt>
      <trkpt lat="43.22108" lon="6.60209">
        <ele>311.1</ele>
        <time>1970-01-01T00:05:13.000Z</time>
      </trkpt>
      <trkpt lat="43.22117" lon="6.60213">
        <ele>310.6</ele>
        <time>1970-01-01T00:05:14.000Z</time>
      </trkpt>
      <trkpt lat="43.22124" lon="6.60217">
        <ele>310.1</ele>
        <time>1970-01-01T00:05:15.000Z</time>
      </trkpt>
      <trkpt lat="43.22129" lon="6.60219">
        <ele>309.4</ele>
        <time>1970-01-01T00:05:16.000Z</time>
      </trkpt>
      <trkpt lat="43.22135" lon="6.60221">
        <ele>308.5</ele>
        <time>1970-01-01T00:05:17.000Z</time>
      </trkpt>
      <trkpt lat="43.2214" lon="6.60222">
        <ele>308</ele>
        <time>1970-01-01T00:05:18.000Z</time>
      </trkpt>
      <trkpt lat="43.22143" lon="6.60222">
        <ele>307.5</ele>
        <time>1970-01-01T00:05:19.000Z</time>
      </trkpt>
      <trkpt lat="43.22144" lon="6.60226">
        <ele>307</ele>
        <time>1970-01-01T00:05:20.000Z</time>
      </trkpt>
      <trkpt lat="43.22144" lon="6.60231">
        <ele>306.8</ele>
        <time>1970-01-01T00:05:21.000Z</time>
      </trkpt>
      <trkpt lat="43.22144" lon="6.60238">
        <ele>307.1</ele>
        <time>1970-01-01T00:05:22.000Z</time>
      </trkpt>
      <trkpt lat="43.22144" lon="6.60243">
        <ele>306.1</ele>
        <time>1970-01-01T00:05:23.000Z</time>
      </trkpt>
      <trkpt lat="43.22148" lon="6.60246">
        <ele>305.2</ele>
        <time>1970-01-01T00:05:24.000Z</time>
      </trkpt>
      <trkpt lat="43.22154" lon="6.60246">
        <ele>304.2</ele>
        <time>1970-01-01T00:05:25.000Z</time>
      </trkpt>
      <trkpt lat="43.22159" lon="6.60246">
        <ele>303.7</ele>
        <time>1970-01-01T00:05:26.000Z</time>
      </trkpt>
      <trkpt lat="43.22164" lon="6.60249">
        <ele>302.6</ele>
        <time>1970-01-01T00:05:27.000Z</time>
      </trkpt>
      <trkpt lat="43.22167" lon="6.60255">
        <ele>301.9</ele>
        <time>1970-01-01T00:05:28.000Z</time>
      </trkpt>
      <trkpt lat="43.22168" lon="6.60261">
        <ele>301.6</ele>
        <time>1970-01-01T00:05:29.000Z</time>
      </trkpt>
      <trkpt lat="43.22168" lon="6.60267">
        <ele>300.7</ele>
        <time>1970-01-01T00:05:30.000Z</time>
      </trkpt>
      <trkpt lat="43.22168" lon="6.60272">
        <ele>300.2</ele>
        <time>1970-01-01T00:05:31.000Z</time>
      </trkpt>
      <trkpt lat="43.22171" lon="6.60277">
        <ele>298.9</ele>
        <time>1970-01-01T00:05:32.000Z</time>
      </trkpt>
      <trkpt lat="43.22173" lon="6.6028">
        <ele>297.5</ele>
        <time>1970-01-01T00:05:33.000Z</time>
      </trkpt>
      <trkpt lat="43.22175" lon="6.60278">
        <ele>297.4</ele>
        <time>1970-01-01T00:05:34.000Z</time>
      </trkpt>
      <trkpt lat="43.22179" lon="6.60276">
        <ele>296.6</ele>
        <time>1970-01-01T00:05:35.000Z</time>
      </trkpt>
      <trkpt lat="43.22184" lon="6.60275">
        <ele>295.7</ele>
        <time>1970-01-01T00:05:36.000Z</time>
      </trkpt>
      <trkpt lat="43.2219" lon="6.60272">
        <ele>294.7</ele>
        <time>1970-01-01T00:05:37.000Z</time>
      </trkpt>
      <trkpt lat="43.22194" lon="6.60266">
        <ele>294</ele>
        <time>1970-01-01T00:05:38.000Z</time>
      </trkpt>
      <trkpt lat="43.222" lon="6.60267">
        <ele>293.3</ele>
        <time>1970-01-01T00:05:42.000Z</time>
      </trkpt>
      <trkpt lat="43.22203" lon="6.60267">
        <ele>292.5</ele>
        <time>1970-01-01T00:05:43.000Z</time>
      </trkpt>
      <trkpt lat="43.22205" lon="6.60269">
        <ele>291.7</ele>
        <time>1970-01-01T00:05:44.000Z</time>
      </trkpt>
      <trkpt lat="43.22209" lon="6.60274">
        <ele>289.9</ele>
        <time>1970-01-01T00:05:45.000Z</time>
      </trkpt>
      <trkpt lat="43.22215" lon="6.60282">
        <ele>288.1</ele>
        <time>1970-01-01T00:05:46.000Z</time>
      </trkpt>
      <trkpt lat="43.22223" lon="6.60293">
        <ele>284.3</ele>
        <time>1970-01-01T00:05:47.000Z</time>
      </trkpt>
      <trkpt lat="43.22231" lon="6.60305">
        <ele>280.2</ele>
        <time>1970-01-01T00:05:48.000Z</time>
      </trkpt>
      <trkpt lat="43.22239" lon="6.6032">
        <ele>275</ele>
        <time>1970-01-01T00:05:49.000Z</time>
      </trkpt>
      <trkpt lat="43.22248" lon="6.60336">
        <ele>271.6</ele>
        <time>1970-01-01T00:05:50.000Z</time>
      </trkpt>
      <trkpt lat="43.22256" lon="6.60354">
        <ele>270.2</ele>
        <time>1970-01-01T00:05:51.000Z</time>
      </trkpt>
      <trkpt lat="43.22265" lon="6.6037">
        <ele>268.3</ele>
        <time>1970-01-01T00:05:52.000Z</time>
      </trkpt>
      <trkpt lat="43.22274" lon="6.60385">
        <ele>267.7</ele>
        <time>1970-01-01T00:05:53.000Z</time>
      </trkpt>
      <trkpt lat="43.22283" lon="6.60397">
        <ele>267.7</ele>
        <time>1970-01-01T00:05:54.000Z</time>
      </trkpt>
      <trkpt lat="43.22294" lon="6.60402">
        <ele>266.3</ele>
        <time>1970-01-01T00:05:55.000Z</time>
      </trkpt>
      <trkpt lat="43.22304" lon="6.60407">
        <ele>265.7</ele>
        <time>1970-01-01T00:05:56.000Z</time>
      </trkpt>
      <trkpt lat="43.22311" lon="6.60412">
        <ele>266.2</ele>
        <time>1970-01-01T00:05:57.000Z</time>
      </trkpt>
      <trkpt lat="43.2232" lon="6.60417">
        <ele>266.3</ele>
        <time>1970-01-01T00:05:58.000Z</time>
      </trkpt>
      <trkpt lat="43.22329" lon="6.60418">
        <ele>266</ele>
        <time>1970-01-01T00:05:59.000Z</time>
      </trkpt>
      <trkpt lat="43.22338" lon="6.60414">
        <ele>265.3</ele>
        <time>1970-01-01T00:06:00.000Z</time>
      </trkpt>
      <trkpt lat="43.22346" lon="6.60411">
        <ele>264.7</ele>
        <time>1970-01-01T00:06:01.000Z</time>
      </trkpt>
      <trkpt lat="43.22354" lon="6.60408">
        <ele>264</ele>
        <time>1970-01-01T00:06:02.000Z</time>
      </trkpt>
      <trkpt lat="43.22361" lon="6.60405">
        <ele>263.3</ele>
        <time>1970-01-01T00:06:03.000Z</time>
      </trkpt>
      <trkpt lat="43.22367" lon="6.60404">
        <ele>262.8</ele>
        <time>1970-01-01T00:06:04.000Z</time>
      </trkpt>
      <trkpt lat="43.22374" lon="6.60405">
        <ele>262.2</ele>
        <time>1970-01-01T00:06:05.000Z</time>
      </trkpt>
      <trkpt lat="43.2238" lon="6.60409">
        <ele>261.7</ele>
        <time>1970-01-01T00:06:06.000Z</time>
      </trkpt>
      <trkpt lat="43.22386" lon="6.60416">
        <ele>261.2</ele>
        <time>1970-01-01T00:06:07.000Z</time>
      </trkpt>
      <trkpt lat="43.22389" lon="6.60424">
        <ele>260.8</ele>
        <time>1970-01-01T00:06:08.000Z</time>
      </trkpt>
      <trkpt lat="43.2239" lon="6.60433">
        <ele>260.5</ele>
        <time>1970-01-01T00:06:09.000Z</time>
      </trkpt>
      <trkpt lat="43.22393" lon="6.60437">
        <ele>260.2</ele>
        <time>1970-01-01T00:06:10.000Z</time>
      </trkpt>
      <trkpt lat="43.22397" lon="6.60438">
        <ele>259.4</ele>
        <time>1970-01-01T00:06:11.000Z</time>
      </trkpt>
      <trkpt lat="43.22403" lon="6.60436">
        <ele>259.4</ele>
        <time>1970-01-01T00:06:12.000Z</time>
      </trkpt>
      <trkpt lat="43.22409" lon="6.60438">
        <ele>258.7</ele>
        <time>1970-01-01T00:06:13.000Z</time>
      </trkpt>
      <trkpt lat="43.22416" lon="6.60441">
        <ele>258.4</ele>
        <time>1970-01-01T00:06:14.000Z</time>
      </trkpt>
      <trkpt lat="43.22421" lon="6.60449">
        <ele>257.7</ele>
        <time>1970-01-01T00:06:15.000Z</time>
      </trkpt>
      <trkpt lat="43.22426" lon="6.60455">
        <ele>256.6</ele>
        <time>1970-01-01T00:06:16.000Z</time>
      </trkpt>
      <trkpt lat="43.22432" lon="6.60457">
        <ele>255.8</ele>
        <time>1970-01-01T00:06:17.000Z</time>
      </trkpt>
      <trkpt lat="43.22437" lon="6.60453">
        <ele>255.7</ele>
        <time>1970-01-01T00:06:18.000Z</time>
      </trkpt>
      <trkpt lat="43.22442" lon="6.60445">
        <ele>255.4</ele>
        <time>1970-01-01T00:06:19.000Z</time>
      </trkpt>
      <trkpt lat="43.22447" lon="6.6044">
        <ele>254.9</ele>
        <time>1970-01-01T00:06:20.000Z</time>
      </trkpt>
      <trkpt lat="43.22453" lon="6.6044">
        <ele>254.6</ele>
        <time>1970-01-01T00:06:21.000Z</time>
      </trkpt>
      <trkpt lat="43.2246" lon="6.60444">
        <ele>253.8</ele>
        <time>1970-01-01T00:06:22.000Z</time>
      </trkpt>
      <trkpt lat="43.22468" lon="6.60447">
        <ele>252.9</ele>
        <time>1970-01-01T00:06:23.000Z</time>
      </trkpt>
      <trkpt lat="43.22476" lon="6.60448">
        <ele>251.8</ele>
        <time>1970-01-01T00:06:24.000Z</time>
      </trkpt>
      <trkpt lat="43.22483" lon="6.60446">
        <ele>250.7</ele>
        <time>1970-01-01T00:06:25.000Z</time>
      </trkpt>
      <trkpt lat="43.22488" lon="6.60446">
        <ele>250.1</ele>
        <time>1970-01-01T00:06:26.000Z</time>
      </trkpt>
      <trkpt lat="43.22492" lon="6.60451">
        <ele>248.9</ele>
        <time>1970-01-01T00:06:27.000Z</time>
      </trkpt>
      <trkpt lat="43.22495" lon="6.60461">
        <ele>248.3</ele>
        <time>1970-01-01T00:06:28.000Z</time>
      </trkpt>
      <trkpt lat="43.22495" lon="6.6047">
        <ele>248.2</ele>
        <time>1970-01-01T00:06:29.000Z</time>
      </trkpt>
      <trkpt lat="43.22499" lon="6.60478">
        <ele>247.6</ele>
        <time>1970-01-01T00:06:30.000Z</time>
      </trkpt>
      <trkpt lat="43.22506" lon="6.60483">
        <ele>246.5</ele>
        <time>1970-01-01T00:06:31.000Z</time>
      </trkpt>
      <trkpt lat="43.22513" lon="6.60484">
        <ele>245.4</ele>
        <time>1970-01-01T00:06:32.000Z</time>
      </trkpt>
      <trkpt lat="43.22516" lon="6.60483">
        <ele>244.8</ele>
        <time>1970-01-01T00:06:33.000Z</time>
      </trkpt>
      <trkpt lat="43.22518" lon="6.60488">
        <ele>244</ele>
        <time>1970-01-01T00:06:35.000Z</time>
      </trkpt>
      <trkpt lat="43.22522" lon="6.60491">
        <ele>243</ele>
        <time>1970-01-01T00:06:37.000Z</time>
      </trkpt>
      <trkpt lat="43.22527" lon="6.6049">
        <ele>241.5</ele>
        <time>1970-01-01T00:06:38.000Z</time>
      </trkpt>
      <trkpt lat="43.22531" lon="6.6049">
        <ele>240.7</ele>
        <time>1970-01-01T00:06:39.000Z</time>
      </trkpt>
      <trkpt lat="43.22539" lon="6.6049">
        <ele>237.7</ele>
        <time>1970-01-01T00:06:41.000Z</time>
      </trkpt>
      <trkpt lat="43.22546" lon="6.60488">
        <ele>235.8</ele>
        <time>1970-01-01T00:06:42.000Z</time>
      </trkpt>
      <trkpt lat="43.22553" lon="6.60484">
        <ele>234.1</ele>
        <time>1970-01-01T00:06:43.000Z</time>
      </trkpt>
      <trkpt lat="43.22559" lon="6.6048">
        <ele>232.6</ele>
        <time>1970-01-01T00:06:44.000Z</time>
      </trkpt>
      <trkpt lat="43.22564" lon="6.60478">
        <ele>230.9</ele>
        <time>1970-01-01T00:06:45.000Z</time>
      </trkpt>
      <trkpt lat="43.2257" lon="6.60477">
        <ele>229.4</ele>
        <time>1970-01-01T00:06:46.000Z</time>
      </trkpt>
      <trkpt lat="43.22576" lon="6.60475">
        <ele>227.9</ele>
        <time>1970-01-01T00:06:47.000Z</time>
      </trkpt>
      <trkpt lat="43.22582" lon="6.60471">
        <ele>227.1</ele>
        <time>1970-01-01T00:06:48.000Z</time>
      </trkpt>
      <trkpt lat="43.22586" lon="6.60472">
        <ele>226.2</ele>
        <time>1970-01-01T00:06:49.000Z</time>
      </trkpt>
      <trkpt lat="43.22591" lon="6.60471">
        <ele>225.4</ele>
        <time>1970-01-01T00:06:50.000Z</time>
      </trkpt>
      <trkpt lat="43.22594" lon="6.60469">
        <ele>224.8</ele>
        <time>1970-01-01T00:06:51.000Z</time>
      </trkpt>
      <trkpt lat="43.22594" lon="6.60464">
        <ele>224.6</ele>
        <time>1970-01-01T00:06:52.000Z</time>
      </trkpt>
      <trkpt lat="43.22598" lon="6.60458">
        <ele>223</ele>
        <time>1970-01-01T00:06:53.000Z</time>
      </trkpt>
      <trkpt lat="43.22601" lon="6.60453">
        <ele>222.3</ele>
        <time>1970-01-01T00:06:54.000Z</time>
      </trkpt>
      <trkpt lat="43.22603" lon="6.60445">
        <ele>222</ele>
        <time>1970-01-01T00:06:55.000Z</time>
      </trkpt>
      <trkpt lat="43.22606" lon="6.60439">
        <ele>221.4</ele>
        <time>1970-01-01T00:06:56.000Z</time>
      </trkpt>
      <trkpt lat="43.2261" lon="6.60436">
        <ele>220.2</ele>
        <time>1970-01-01T00:06:57.000Z</time>
      </trkpt>
      <trkpt lat="43.22616" lon="6.60431">
        <ele>219.3</ele>
        <time>1970-01-01T00:06:58.000Z</time>
      </trkpt>
      <trkpt lat="43.22623" lon="6.60428">
        <ele>217.4</ele>
        <time>1970-01-01T00:06:59.000Z</time>
      </trkpt>
      <trkpt lat="43.22629" lon="6.60426">
        <ele>216.6</ele>
        <time>1970-01-01T00:07:00.000Z</time>
      </trkpt>
      <trkpt lat="43.22632" lon="6.60421">
        <ele>215.9</ele>
        <time>1970-01-01T00:07:01.000Z</time>
      </trkpt>
      <trkpt lat="43.22635" lon="6.60413">
        <ele>214.8</ele>
        <time>1970-01-01T00:07:02.000Z</time>
      </trkpt>
      <trkpt lat="43.22642" lon="6.60409">
        <ele>213.6</ele>
        <time>1970-01-01T00:07:03.000Z</time>
      </trkpt>
      <trkpt lat="43.22645" lon="6.60406">
        <ele>212.6</ele>
        <time>1970-01-01T00:07:04.000Z</time>
      </trkpt>
      <trkpt lat="43.22646" lon="6.604">
        <ele>211.8</ele>
        <time>1970-01-01T00:07:05.000Z</time>
      </trkpt>
      <trkpt lat="43.22646" lon="6.60393">
        <ele>210.4</ele>
        <time>1970-01-01T00:07:06.000Z</time>
      </trkpt>
      <trkpt lat="43.22648" lon="6.60385">
        <ele>208.5</ele>
        <time>1970-01-01T00:07:07.000Z</time>
      </trkpt>
      <trkpt lat="43.22651" lon="6.60379">
        <ele>207.3</ele>
        <time>1970-01-01T00:07:08.000Z</time>
      </trkpt>
      <trkpt lat="43.22655" lon="6.60379">
        <ele>206.8</ele>
        <time>1970-01-01T00:07:09.000Z</time>
      </trkpt>
      <trkpt lat="43.22662" lon="6.6038">
        <ele>206</ele>
        <time>1970-01-01T00:07:10.000Z</time>
      </trkpt>
      <trkpt lat="43.22669" lon="6.60381">
        <ele>205.3</ele>
        <time>1970-01-01T00:07:11.000Z</time>
      </trkpt>
      <trkpt lat="43.22674" lon="6.60379">
        <ele>204.6</ele>
        <time>1970-01-01T00:07:12.000Z</time>
      </trkpt>
      <trkpt lat="43.22676" lon="6.60375">
        <ele>203.2</ele>
        <time>1970-01-01T00:07:14.000Z</time>
      </trkpt>
      <trkpt lat="43.22679" lon="6.60371">
        <ele>202.2</ele>
        <time>1970-01-01T00:07:15.000Z</time>
      </trkpt>
      <trkpt lat="43.22679" lon="6.60366">
        <ele>201.3</ele>
        <time>1970-01-01T00:07:16.000Z</time>
      </trkpt>
      <trkpt lat="43.22676" lon="6.60359">
        <ele>200.2</ele>
        <time>1970-01-01T00:07:17.000Z</time>
      </trkpt>
      <trkpt lat="43.22674" lon="6.6035">
        <ele>198.4</ele>
        <time>1970-01-01T00:07:18.000Z</time>
      </trkpt>
      <trkpt lat="43.22676" lon="6.60339">
        <ele>195.9</ele>
        <time>1970-01-01T00:07:19.000Z</time>
      </trkpt>
      <trkpt lat="43.22676" lon="6.60329">
        <ele>193.2</ele>
        <time>1970-01-01T00:07:20.000Z</time>
      </trkpt>
      <trkpt lat="43.22676" lon="6.6032">
        <ele>191.2</ele>
        <time>1970-01-01T00:07:21.000Z</time>
      </trkpt>
      <trkpt lat="43.22679" lon="6.60314">
        <ele>190.1</ele>
        <time>1970-01-01T00:07:22.000Z</time>
      </trkpt>
      <trkpt lat="43.22683" lon="6.60311">
        <ele>187.8</ele>
        <time>1970-01-01T00:07:23.000Z</time>
      </trkpt>
      <trkpt lat="43.22689" lon="6.60308">
        <ele>185.9</ele>
        <time>1970-01-01T00:07:24.000Z</time>
      </trkpt>
      <trkpt lat="43.22697" lon="6.60306">
        <ele>185.3</ele>
        <time>1970-01-01T00:07:25.000Z</time>
      </trkpt>
      <trkpt lat="43.22706" lon="6.60303">
        <ele>184.1</ele>
        <time>1970-01-01T00:07:26.000Z</time>
      </trkpt>
      <trkpt lat="43.22714" lon="6.60297">
        <ele>183.3</ele>
        <time>1970-01-01T00:07:27.000Z</time>
      </trkpt>
      <trkpt lat="43.22721" lon="6.60292">
        <ele>182.4</ele>
        <time>1970-01-01T00:07:28.000Z</time>
      </trkpt>
      <trkpt lat="43.22728" lon="6.60288">
        <ele>181.2</ele>
        <time>1970-01-01T00:07:29.000Z</time>
      </trkpt>
      <trkpt lat="43.22734" lon="6.60285">
        <ele>180</ele>
        <time>1970-01-01T00:07:30.000Z</time>
      </trkpt>
      <trkpt lat="43.22738" lon="6.60283">
        <ele>179.9</ele>
        <time>1970-01-01T00:07:31.000Z</time>
      </trkpt>
      <trkpt lat="43.2274" lon="6.6028">
        <ele>179</ele>
        <time>1970-01-01T00:07:32.000Z</time>
      </trkpt>
      <trkpt lat="43.22734" lon="6.60278">
        <ele>178.2</ele>
        <time>1970-01-01T00:07:34.000Z</time>
      </trkpt>
      <trkpt lat="43.22735" lon="6.60271">
        <ele>177.4</ele>
        <time>1970-01-01T00:07:36.000Z</time>
      </trkpt>
      <trkpt lat="43.22738" lon="6.6027">
        <ele>177.4</ele>
        <time>1970-01-01T00:07:37.000Z</time>
      </trkpt>
      <trkpt lat="43.22738" lon="6.60262">
        <ele>175.6</ele>
        <time>1970-01-01T00:07:39.000Z</time>
      </trkpt>
      <trkpt lat="43.22734" lon="6.60262">
        <ele>175.7</ele>
        <time>1970-01-01T00:07:40.000Z</time>
      </trkpt>
      <trkpt lat="43.22733" lon="6.60258">
        <ele>174.9</ele>
        <time>1970-01-01T00:07:41.000Z</time>
      </trkpt>
      <trkpt lat="43.22733" lon="6.6025">
        <ele>173.4</ele>
        <time>1970-01-01T00:07:42.000Z</time>
      </trkpt>
      <trkpt lat="43.22733" lon="6.60243">
        <ele>171.8</ele>
        <time>1970-01-01T00:07:43.000Z</time>
      </trkpt>
      <trkpt lat="43.22731" lon="6.60234">
        <ele>170.1</ele>
        <time>1970-01-01T00:07:44.000Z</time>
      </trkpt>
      <trkpt lat="43.22729" lon="6.60222">
        <ele>168.1</ele>
        <time>1970-01-01T00:07:45.000Z</time>
      </trkpt>
      <trkpt lat="43.2273" lon="6.60214">
        <ele>167.7</ele>
        <time>1970-01-01T00:07:46.000Z</time>
      </trkpt>
      <trkpt lat="43.22731" lon="6.6021">
        <ele>167.4</ele>
        <time>1970-01-01T00:07:47.000Z</time>
      </trkpt>
      <trkpt lat="43.22735" lon="6.60208">
        <ele>166.8</ele>
        <time>1970-01-01T00:07:48.000Z</time>
      </trkpt>
      <trkpt lat="43.2274" lon="6.60207">
        <ele>166.6</ele>
        <time>1970-01-01T00:07:49.000Z</time>
      </trkpt>
      <trkpt lat="43.22747" lon="6.60207">
        <ele>166.3</ele>
        <time>1970-01-01T00:07:50.000Z</time>
      </trkpt>
      <trkpt lat="43.22755" lon="6.60206">
        <ele>165.8</ele>
        <time>1970-01-01T00:07:51.000Z</time>
      </trkpt>
      <trkpt lat="43.22764" lon="6.60206">
        <ele>165</ele>
        <time>1970-01-01T00:07:52.000Z</time>
      </trkpt>
      <trkpt lat="43.22773" lon="6.60205">
        <ele>164.6</ele>
        <time>1970-01-01T00:07:53.000Z</time>
      </trkpt>
      <trkpt lat="43.22781" lon="6.60203">
        <ele>163.6</ele>
        <time>1970-01-01T00:07:54.000Z</time>
      </trkpt>
      <trkpt lat="43.2279" lon="6.60201">
        <ele>162.1</ele>
        <time>1970-01-01T00:07:55.000Z</time>
      </trkpt>
      <trkpt lat="43.228" lon="6.602">
        <ele>161</ele>
        <time>1970-01-01T00:07:56.000Z</time>
      </trkpt>
      <trkpt lat="43.22809" lon="6.60198">
        <ele>160.1</ele>
        <time>1970-01-01T00:07:57.000Z</time>
      </trkpt>
      <trkpt lat="43.22817" lon="6.60195">
        <ele>159.5</ele>
        <time>1970-01-01T00:07:58.000Z</time>
      </trkpt>
      <trkpt lat="43.22826" lon="6.60193">
        <ele>158.3</ele>
        <time>1970-01-01T00:07:59.000Z</time>
      </trkpt>
      <trkpt lat="43.22834" lon="6.60192">
        <ele>157.1</ele>
        <time>1970-01-01T00:08:00.000Z</time>
      </trkpt>
      <trkpt lat="43.22843" lon="6.60191">
        <ele>155.7</ele>
        <time>1970-01-01T00:08:01.000Z</time>
      </trkpt>
      <trkpt lat="43.22853" lon="6.60192">
        <ele>154.1</ele>
        <time>1970-01-01T00:08:02.000Z</time>
      </trkpt>
      <trkpt lat="43.22863" lon="6.60192">
        <ele>152.6</ele>
        <time>1970-01-01T00:08:03.000Z</time>
      </trkpt>
      <trkpt lat="43.22872" lon="6.6019">
        <ele>151.1</ele>
        <time>1970-01-01T00:08:04.000Z</time>
      </trkpt>
      <trkpt lat="43.22881" lon="6.60187">
        <ele>149.3</ele>
        <time>1970-01-01T00:08:05.000Z</time>
      </trkpt>
      <trkpt lat="43.22889" lon="6.60187">
        <ele>148</ele>
        <time>1970-01-01T00:08:06.000Z</time>
      </trkpt>
      <trkpt lat="43.22899" lon="6.60189">
        <ele>147.1</ele>
        <time>1970-01-01T00:08:07.000Z</time>
      </trkpt>
      <trkpt lat="43.22908" lon="6.6019">
        <ele>145.9</ele>
        <time>1970-01-01T00:08:08.000Z</time>
      </trkpt>
      <trkpt lat="43.22917" lon="6.60187">
        <ele>145</ele>
        <time>1970-01-01T00:08:09.000Z</time>
      </trkpt>
      <trkpt lat="43.22927" lon="6.60185">
        <ele>143.9</ele>
        <time>1970-01-01T00:08:10.000Z</time>
      </trkpt>
      <trkpt lat="43.22936" lon="6.60187">
        <ele>141.9</ele>
        <time>1970-01-01T00:08:11.000Z</time>
      </trkpt>
      <trkpt lat="43.22943" lon="6.60191">
        <ele>140.2</ele>
        <time>1970-01-01T00:08:12.000Z</time>
      </trkpt>
      <trkpt lat="43.22952" lon="6.60194">
        <ele>139.2</ele>
        <time>1970-01-01T00:08:13.000Z</time>
      </trkpt>
      <trkpt lat="43.22962" lon="6.60194">
        <ele>138.5</ele>
        <time>1970-01-01T00:08:14.000Z</time>
      </trkpt>
      <trkpt lat="43.2297" lon="6.60192">
        <ele>137.7</ele>
        <time>1970-01-01T00:08:15.000Z</time>
      </trkpt>
      <trkpt lat="43.2298" lon="6.60188">
        <ele>136.7</ele>
        <time>1970-01-01T00:08:16.000Z</time>
      </trkpt>
      <trkpt lat="43.2299" lon="6.60185">
        <ele>136.2</ele>
        <time>1970-01-01T00:08:17.000Z</time>
      </trkpt>
      <trkpt lat="43.22998" lon="6.60186">
        <ele>136.2</ele>
        <time>1970-01-01T00:08:18.000Z</time>
      </trkpt>
      <trkpt lat="43.23007" lon="6.60184">
        <ele>136.9</ele>
        <time>1970-01-01T00:08:19.000Z</time>
      </trkpt>
      <trkpt lat="43.23015" lon="6.60178">
        <ele>138.1</ele>
        <time>1970-01-01T00:08:20.000Z</time>
      </trkpt>
      <trkpt lat="43.23023" lon="6.60169">
        <ele>139</ele>
        <time>1970-01-01T00:08:21.000Z</time>
      </trkpt>
      <trkpt lat="43.2303" lon="6.60162">
        <ele>139.8</ele>
        <time>1970-01-01T00:08:22.000Z</time>
      </trkpt>
      <trkpt lat="43.23036" lon="6.60156">
        <ele>140.4</ele>
        <time>1970-01-01T00:08:23.000Z</time>
      </trkpt>
      <trkpt lat="43.23044" lon="6.6015">
        <ele>140.9</ele>
        <time>1970-01-01T00:08:24.000Z</time>
      </trkpt>
      <trkpt lat="43.23051" lon="6.60143">
        <ele>140.8</ele>
        <time>1970-01-01T00:08:25.000Z</time>
      </trkpt>
      <trkpt lat="43.23058" lon="6.60137">
        <ele>140.4</ele>
        <time>1970-01-01T00:08:26.000Z</time>
      </trkpt>
      <trkpt lat="43.23066" lon="6.60134">
        <ele>139.6</ele>
        <time>1970-01-01T00:08:27.000Z</time>
      </trkpt>
      <trkpt lat="43.23075" lon="6.60128">
        <ele>138.4</ele>
        <time>1970-01-01T00:08:28.000Z</time>
      </trkpt>
      <trkpt lat="43.23083" lon="6.60122">
        <ele>136.9</ele>
        <time>1970-01-01T00:08:29.000Z</time>
      </trkpt>
      <trkpt lat="43.23089" lon="6.60112">
        <ele>135.1</ele>
        <time>1970-01-01T00:08:30.000Z</time>
      </trkpt>
      <trkpt lat="43.23095" lon="6.60111">
        <ele>133.9</ele>
        <time>1970-01-01T00:08:31.000Z</time>
      </trkpt>
      <trkpt lat="43.23101" lon="6.60116">
        <ele>132.5</ele>
        <time>1970-01-01T00:08:32.000Z</time>
      </trkpt>
      <trkpt lat="43.2311" lon="6.60121">
        <ele>130</ele>
        <time>1970-01-01T00:08:33.000Z</time>
      </trkpt>
      <trkpt lat="43.23118" lon="6.6012">
        <ele>127.5</ele>
        <time>1970-01-01T00:08:34.000Z</time>
      </trkpt>
      <trkpt lat="43.23127" lon="6.60122">
        <ele>124.6</ele>
        <time>1970-01-01T00:08:35.000Z</time>
      </trkpt>
      <trkpt lat="43.23137" lon="6.60127">
        <ele>122.1</ele>
        <time>1970-01-01T00:08:36.000Z</time>
      </trkpt>
      <trkpt lat="43.23149" lon="6.60128">
        <ele>119.6</ele>
        <time>1970-01-01T00:08:37.000Z</time>
      </trkpt>
      <trkpt lat="43.2316" lon="6.60129">
        <ele>117.7</ele>
        <time>1970-01-01T00:08:38.000Z</time>
      </trkpt>
      <trkpt lat="43.2317" lon="6.60129">
        <ele>116</ele>
        <time>1970-01-01T00:08:39.000Z</time>
      </trkpt>
      <trkpt lat="43.23178" lon="6.60125">
        <ele>115.4</ele>
        <time>1970-01-01T00:08:40.000Z</time>
      </trkpt>
      <trkpt lat="43.23185" lon="6.60118">
        <ele>113.7</ele>
        <time>1970-01-01T00:08:41.000Z</time>
      </trkpt>
      <trkpt lat="43.23189" lon="6.60111">
        <ele>113</ele>
        <time>1970-01-01T00:08:42.000Z</time>
      </trkpt>
      <trkpt lat="43.23193" lon="6.60103">
        <ele>112.3</ele>
        <time>1970-01-01T00:08:43.000Z</time>
      </trkpt>
      <trkpt lat="43.23198" lon="6.60093">
        <ele>111.8</ele>
        <time>1970-01-01T00:08:44.000Z</time>
      </trkpt>
      <trkpt lat="43.23204" lon="6.60082">
        <ele>111</ele>
        <time>1970-01-01T00:08:45.000Z</time>
      </trkpt>
      <trkpt lat="43.2321" lon="6.60069">
        <ele>110.6</ele>
        <time>1970-01-01T00:08:46.000Z</time>
      </trkpt>
      <trkpt lat="43.23217" lon="6.60057">
        <ele>110.5</ele>
        <time>1970-01-01T00:08:47.000Z</time>
      </trkpt>
      <trkpt lat="43.23225" lon="6.60046">
        <ele>110.8</ele>
        <time>1970-01-01T00:08:48.000Z</time>
      </trkpt>
      <trkpt lat="43.23232" lon="6.60036">
        <ele>110.3</ele>
        <time>1970-01-01T00:08:49.000Z</time>
      </trkpt>
      <trkpt lat="43.23235" lon="6.60021">
        <ele>109.2</ele>
        <time>1970-01-01T00:08:50.000Z</time>
      </trkpt>
      <trkpt lat="43.23239" lon="6.60007">
        <ele>108.1</ele>
        <time>1970-01-01T00:08:51.000Z</time>
      </trkpt>
      <trkpt lat="43.23244" lon="6.59995">
        <ele>106.6</ele>
        <time>1970-01-01T00:08:52.000Z</time>
      </trkpt>
      <trkpt lat="43.23252" lon="6.59985">
        <ele>105.4</ele>
        <time>1970-01-01T00:08:53.000Z</time>
      </trkpt>
      <trkpt lat="43.23259" lon="6.59976">
        <ele>104.6</ele>
        <time>1970-01-01T00:08:54.000Z</time>
      </trkpt>
      <trkpt lat="43.23265" lon="6.59965">
        <ele>104</ele>
        <time>1970-01-01T00:08:55.000Z</time>
      </trkpt>
      <trkpt lat="43.23272" lon="6.59957">
        <ele>103</ele>
        <time>1970-01-01T00:08:56.000Z</time>
      </trkpt>
      <trkpt lat="43.23278" lon="6.59948">
        <ele>102</ele>
        <time>1970-01-01T00:08:57.000Z</time>
      </trkpt>
      <trkpt lat="43.23283" lon="6.59937">
        <ele>101.1</ele>
        <time>1970-01-01T00:08:58.000Z</time>
      </trkpt>
      <trkpt lat="43.23288" lon="6.59926">
        <ele>100</ele>
        <time>1970-01-01T00:08:59.000Z</time>
      </trkpt>
      <trkpt lat="43.23293" lon="6.59916">
        <ele>98.4</ele>
        <time>1970-01-01T00:09:00.000Z</time>
      </trkpt>
      <trkpt lat="43.23299" lon="6.59907">
        <ele>96.9</ele>
        <time>1970-01-01T00:09:01.000Z</time>
      </trkpt>
      <trkpt lat="43.23306" lon="6.59898">
        <ele>94.9</ele>
        <time>1970-01-01T00:09:02.000Z</time>
      </trkpt>
      <trkpt lat="43.23313" lon="6.59889">
        <ele>92.6</ele>
        <time>1970-01-01T00:09:03.000Z</time>
      </trkpt>
      <trkpt lat="43.2332" lon="6.59878">
        <ele>90.1</ele>
        <time>1970-01-01T00:09:04.000Z</time>
      </trkpt>
      <trkpt lat="43.23326" lon="6.59869">
        <ele>88.1</ele>
        <time>1970-01-01T00:09:05.000Z</time>
      </trkpt>
      <trkpt lat="43.23335" lon="6.59861">
        <ele>86.4</ele>
        <time>1970-01-01T00:09:06.000Z</time>
      </trkpt>
      <trkpt lat="43.23343" lon="6.59856">
        <ele>85</ele>
        <time>1970-01-01T00:09:07.000Z</time>
      </trkpt>
      <trkpt lat="43.23348" lon="6.59848">
        <ele>83.3</ele>
        <time>1970-01-01T00:09:08.000Z</time>
      </trkpt>
      <trkpt lat="43.23355" lon="6.59838">
        <ele>81.2</ele>
        <time>1970-01-01T00:09:09.000Z</time>
      </trkpt>
      <trkpt lat="43.23364" lon="6.59827">
        <ele>78.9</ele>
        <time>1970-01-01T00:09:10.000Z</time>
      </trkpt>
      <trkpt lat="43.23373" lon="6.5982">
        <ele>77.1</ele>
        <time>1970-01-01T00:09:11.000Z</time>
      </trkpt>
      <trkpt lat="43.23381" lon="6.59812">
        <ele>75.4</ele>
        <time>1970-01-01T00:09:12.000Z</time>
      </trkpt>
      <trkpt lat="43.23388" lon="6.59806">
        <ele>73.7</ele>
        <time>1970-01-01T00:09:13.000Z</time>
      </trkpt>
      <trkpt lat="43.23392" lon="6.59798">
        <ele>72.7</ele>
        <time>1970-01-01T00:09:14.000Z</time>
      </trkpt>
      <trkpt lat="43.23395" lon="6.59788">
        <ele>71.3</ele>
        <time>1970-01-01T00:09:15.000Z</time>
      </trkpt>
      <trkpt lat="43.23401" lon="6.59781">
        <ele>69.8</ele>
        <time>1970-01-01T00:09:16.000Z</time>
      </trkpt>
      <trkpt lat="43.23408" lon="6.59774">
        <ele>68.7</ele>
        <time>1970-01-01T00:09:17.000Z</time>
      </trkpt>
      <trkpt lat="43.23414" lon="6.59764">
        <ele>67.3</ele>
        <time>1970-01-01T00:09:18.000Z</time>
      </trkpt>
      <trkpt lat="43.23421" lon="6.59754">
        <ele>66</ele>
        <time>1970-01-01T00:09:19.000Z</time>
      </trkpt>
      <trkpt lat="43.23429" lon="6.59746">
        <ele>64.7</ele>
        <time>1970-01-01T00:09:20.000Z</time>
      </trkpt>
      <trkpt lat="43.2344" lon="6.5974">
        <ele>63.9</ele>
        <time>1970-01-01T00:09:21.000Z</time>
      </trkpt>
      <trkpt lat="43.2345" lon="6.59735">
        <ele>63.5</ele>
        <time>1970-01-01T00:09:22.000Z</time>
      </trkpt>
      <trkpt lat="43.23459" lon="6.59729">
        <ele>62.6</ele>
        <time>1970-01-01T00:09:23.000Z</time>
      </trkpt>
      <trkpt lat="43.23468" lon="6.59724">
        <ele>62.3</ele>
        <time>1970-01-01T00:09:24.000Z</time>
      </trkpt>
      <trkpt lat="43.23477" lon="6.59719">
        <ele>61.8</ele>
        <time>1970-01-01T00:09:25.000Z</time>
      </trkpt>
      <trkpt lat="43.23485" lon="6.59714">
        <ele>61.6</ele>
        <time>1970-01-01T00:09:26.000Z</time>
      </trkpt>
      <trkpt lat="43.23493" lon="6.59708">
        <ele>61.5</ele>
        <time>1970-01-01T00:09:27.000Z</time>
      </trkpt>
      <trkpt lat="43.235" lon="6.59702">
        <ele>61.3</ele>
        <time>1970-01-01T00:09:28.000Z</time>
      </trkpt>
      <trkpt lat="43.23508" lon="6.59696">
        <ele>60.8</ele>
        <time>1970-01-01T00:09:29.000Z</time>
      </trkpt>
      <trkpt lat="43.23515" lon="6.59692">
        <ele>60.5</ele>
        <time>1970-01-01T00:09:30.000Z</time>
      </trkpt>
      <trkpt lat="43.23519" lon="6.59688">
        <ele>60.2</ele>
        <time>1970-01-01T00:09:31.000Z</time>
      </trkpt>
      <trkpt lat="43.2352" lon="6.59682">
        <ele>59.8</ele>
        <time>1970-01-01T00:09:32.000Z</time>
      </trkpt>
      <trkpt lat="43.23521" lon="6.59676">
        <ele>59.5</ele>
        <time>1970-01-01T00:09:33.000Z</time>
      </trkpt>
      <trkpt lat="43.23522" lon="6.5967">
        <ele>59.1</ele>
        <time>1970-01-01T00:09:34.000Z</time>
      </trkpt>
      <trkpt lat="43.2352" lon="6.59664">
        <ele>57.4</ele>
        <time>1970-01-01T00:09:35.000Z</time>
      </trkpt>
      <trkpt lat="43.23518" lon="6.59657">
        <ele>56</ele>
        <time>1970-01-01T00:09:36.000Z</time>
      </trkpt>
      <trkpt lat="43.23514" lon="6.5965">
        <ele>53.5</ele>
        <time>1970-01-01T00:09:37.000Z</time>
      </trkpt>
      <trkpt lat="43.23511" lon="6.59645">
        <ele>51.9</ele>
        <time>1970-01-01T00:09:38.000Z</time>
      </trkpt>
      <trkpt lat="43.23507" lon="6.59645">
        <ele>51.1</ele>
        <time>1970-01-01T00:09:39.000Z</time>
      </trkpt>
      <trkpt lat="43.23503" lon="6.59642">
        <ele>49.7</ele>
        <time>1970-01-01T00:09:40.000Z</time>
      </trkpt>
      <trkpt lat="43.23499" lon="6.59637">
        <ele>48.4</ele>
        <time>1970-01-01T00:09:41.000Z</time>
      </trkpt>
      <trkpt lat="43.23493" lon="6.5963">
        <ele>46.5</ele>
        <time>1970-01-01T00:09:42.000Z</time>
      </trkpt>
      <trkpt lat="43.23487" lon="6.59623">
        <ele>45.7</ele>
        <time>1970-01-01T00:09:43.000Z</time>
      </trkpt>
      <trkpt lat="43.23479" lon="6.59617">
        <ele>44.9</ele>
        <time>1970-01-01T00:09:44.000Z</time>
      </trkpt>
      <trkpt lat="43.2347" lon="6.5961">
        <ele>44.8</ele>
        <time>1970-01-01T00:09:45.000Z</time>
      </trkpt>
      <trkpt lat="43.23464" lon="6.59606">
        <ele>44.9</ele>
        <time>1970-01-01T00:09:46.000Z</time>
      </trkpt>
      <trkpt lat="43.23458" lon="6.59605">
        <ele>44.9</ele>
        <time>1970-01-01T00:09:47.000Z</time>
      </trkpt>
      <trkpt lat="43.23452" lon="6.59606">
        <ele>45</ele>
        <time>1970-01-01T00:09:48.000Z</time>
      </trkpt>
      <trkpt lat="43.23445" lon="6.59607">
        <ele>45.1</ele>
        <time>1970-01-01T00:09:49.000Z</time>
      </trkpt>
      <trkpt lat="43.23438" lon="6.59606">
        <ele>45.2</ele>
        <time>1970-01-01T00:09:50.000Z</time>
      </trkpt>
      <trkpt lat="43.23434" lon="6.59604">
        <ele>45.2</ele>
        <time>1970-01-01T00:09:51.000Z</time>
      </trkpt>
      <trkpt lat="43.23432" lon="6.596">
        <ele>45.2</ele>
        <time>1970-01-01T00:09:52.000Z</time>
      </trkpt>
      <trkpt lat="43.23434" lon="6.59595">
        <ele>45.3</ele>
        <time>1970-01-01T00:09:54.000Z</time>
      </trkpt>
      <trkpt lat="43.23437" lon="6.59596">
        <ele>45.3</ele>
        <time>1970-01-01T00:09:56.000Z</time>
      </trkpt>
      <trkpt lat="43.23434" lon="6.59596">
        <ele>45.4</ele>
        <time>1970-01-01T00:10:07.000Z</time>
      </trkpt>
      <trkpt lat="43.2343" lon="6.59598">
        <ele>45.4</ele>
        <time>1970-01-01T00:10:10.000Z</time>
      </trkpt>
      <trkpt lat="43.23427" lon="6.59595">
        <ele>45.5</ele>
        <time>1970-01-01T00:10:14.000Z</time>
      </trkpt>
      <trkpt lat="43.23424" lon="6.59593">
        <ele>45.5</ele>
        <time>1970-01-01T00:10:16.000Z</time>
      </trkpt>
      <trkpt lat="43.23423" lon="6.5959">
        <ele>45.6</ele>
        <time>1970-01-01T00:10:18.000Z</time>
      </trkpt>
      <trkpt lat="43.23425" lon="6.59587">
        <ele>45.6</ele>
        <time>1970-01-01T00:10:20.000Z</time>
      </trkpt>
      <trkpt lat="43.23428" lon="6.5959">
        <ele>45.5</ele>
        <time>1970-01-01T00:10:22.000Z</time>
      </trkpt>
      <trkpt lat="43.23429" lon="6.59593">
        <ele>45.4</ele>
        <time>1970-01-01T00:10:24.000Z</time>
      </trkpt>
      <trkpt lat="43.23433" lon="6.59593">
        <ele>45.4</ele>
        <time>1970-01-01T00:10:27.000Z</time>
      </trkpt>
      <trkpt lat="43.23435" lon="6.59591">
        <ele>45.4</ele>
        <time>1970-01-01T00:12:05.000Z</time>
      </trkpt>
      <trkpt lat="43.23432" lon="6.59589">
        <ele>45.4</ele>
        <time>1970-01-01T00:12:28.000Z</time>
      </trkpt>
      <trkpt lat="43.23435" lon="6.59589">
        <ele>45.3</ele>
        <time>1970-01-01T00:14:14.000Z</time>
      </trkpt>
      <trkpt lat="43.23431" lon="6.59588">
        <ele>45.4</ele>
        <time>1970-01-01T00:14:19.000Z</time>
      </trkpt>
      <trkpt lat="43.23426" lon="6.59586">
        <ele>45.5</ele>
        <time>1970-01-01T00:14:21.000Z</time>
      </trkpt>
      <trkpt lat="43.23422" lon="6.59583">
        <ele>45.7</ele>
        <time>1970-01-01T00:14:23.000Z</time>
      </trkpt>
      <trkpt lat="43.23419" lon="6.59582">
        <ele>45.8</ele>
        <time>1970-01-01T00:14:24.000Z</time>
      </trkpt>
      <trkpt lat="43.23416" lon="6.59581">
        <ele>45.9</ele>
        <time>1970-01-01T00:14:25.000Z</time>
      </trkpt>
      <trkpt lat="43.23413" lon="6.59579">
        <ele>46.1</ele>
        <time>1970-01-01T00:14:26.000Z</time>
      </trkpt>
      <trkpt lat="43.2341" lon="6.59578">
        <ele>46.2</ele>
        <time>1970-01-01T00:14:27.000Z</time>
      </trkpt>
      <trkpt lat="43.23407" lon="6.59576">
        <ele>46.4</ele>
        <time>1970-01-01T00:14:28.000Z</time>
      </trkpt>
      <trkpt lat="43.23404" lon="6.59575">
        <ele>46.6</ele>
        <time>1970-01-01T00:14:29.000Z</time>
      </trkpt>
      <trkpt lat="43.23401" lon="6.59574">
        <ele>46.9</ele>
        <time>1970-01-01T00:14:30.000Z</time>
      </trkpt>
      <trkpt lat="43.23398" lon="6.59573">
        <ele>47.1</ele>
        <time>1970-01-01T00:14:31.000Z</time>
      </trkpt>
      <trkpt lat="43.23393" lon="6.59571">
        <ele>47.5</ele>
        <time>1970-01-01T00:14:33.000Z</time>
      </trkpt>
      <trkpt lat="43.2339" lon="6.5957">
        <ele>47.8</ele>
        <time>1970-01-01T00:14:34.000Z</time>
      </trkpt>
      <trkpt lat="43.23387" lon="6.5957">
        <ele>48</ele>
        <time>1970-01-01T00:14:35.000Z</time>
      </trkpt>
      <trkpt lat="43.23384" lon="6.59569">
        <ele>48.3</ele>
        <time>1970-01-01T00:14:36.000Z</time>
      </trkpt>
      <trkpt lat="43.23379" lon="6.59566">
        <ele>48.8</ele>
        <time>1970-01-01T00:14:38.000Z</time>
      </trkpt>
      <trkpt lat="43.23376" lon="6.59563">
        <ele>49.1</ele>
        <time>1970-01-01T00:14:39.000Z</time>
      </trkpt>
      <trkpt lat="43.23373" lon="6.59561">
        <ele>49.4</ele>
        <time>1970-01-01T00:14:40.000Z</time>
      </trkpt>
      <trkpt lat="43.23369" lon="6.59558">
        <ele>49.7</ele>
        <time>1970-01-01T00:14:41.000Z</time>
      </trkpt>
      <trkpt lat="43.23366" lon="6.59555">
        <ele>50</ele>
        <time>1970-01-01T00:14:42.000Z</time>
      </trkpt>
      <trkpt lat="43.23363" lon="6.59552">
        <ele>50.3</ele>
        <time>1970-01-01T00:14:43.000Z</time>
      </trkpt>
      <trkpt lat="43.2336" lon="6.59549">
        <ele>50.6</ele>
        <time>1970-01-01T00:14:44.000Z</time>
      </trkpt>
      <trkpt lat="43.23357" lon="6.59545">
        <ele>50.9</ele>
        <time>1970-01-01T00:14:45.000Z</time>
      </trkpt>
      <trkpt lat="43.23354" lon="6.59543">
        <ele>51.1</ele>
        <time>1970-01-01T00:14:46.000Z</time>
      </trkpt>
      <trkpt lat="43.23351" lon="6.5954">
        <ele>51.4</ele>
        <time>1970-01-01T00:14:47.000Z</time>
      </trkpt>
      <trkpt lat="43.23349" lon="6.59538">
        <ele>51.6</ele>
        <time>1970-01-01T00:14:48.000Z</time>
      </trkpt>
      <trkpt lat="43.23346" lon="6.59536">
        <ele>51.9</ele>
        <time>1970-01-01T00:14:49.000Z</time>
      </trkpt>
      <trkpt lat="43.23343" lon="6.59533">
        <ele>52.2</ele>
        <time>1970-01-01T00:14:50.000Z</time>
      </trkpt>
      <trkpt lat="43.2334" lon="6.59532">
        <ele>52.4</ele>
        <time>1970-01-01T00:14:51.000Z</time>
      </trkpt>
      <trkpt lat="43.23337" lon="6.5953">
        <ele>52.6</ele>
        <time>1970-01-01T00:14:52.000Z</time>
      </trkpt>
      <trkpt lat="43.23335" lon="6.59528">
        <ele>52.8</ele>
        <time>1970-01-01T00:14:53.000Z</time>
      </trkpt>
      <trkpt lat="43.23332" lon="6.59526">
        <ele>53</ele>
        <time>1970-01-01T00:14:54.000Z</time>
      </trkpt>
      <trkpt lat="43.2333" lon="6.59525">
        <ele>53.2</ele>
        <time>1970-01-01T00:14:55.000Z</time>
      </trkpt>
      <trkpt lat="43.23327" lon="6.59524">
        <ele>53.4</ele>
        <time>1970-01-01T00:14:56.000Z</time>
      </trkpt>
      <trkpt lat="43.23324" lon="6.59523">
        <ele>53.7</ele>
        <time>1970-01-01T00:14:57.000Z</time>
      </trkpt>
      <trkpt lat="43.23319" lon="6.5952">
        <ele>54</ele>
        <time>1970-01-01T00:14:59.000Z</time>
      </trkpt>
      <trkpt lat="43.23315" lon="6.59518">
        <ele>54.3</ele>
        <time>1970-01-01T00:15:01.000Z</time>
      </trkpt>
      <trkpt lat="43.23311" lon="6.59516">
        <ele>54.7</ele>
        <time>1970-01-01T00:15:03.000Z</time>
      </trkpt>
      <trkpt lat="43.23306" lon="6.59513">
        <ele>55.1</ele>
        <time>1970-01-01T00:15:05.000Z</time>
      </trkpt>
      <trkpt lat="43.23302" lon="6.59511">
        <ele>55.4</ele>
        <time>1970-01-01T00:15:07.000Z</time>
      </trkpt>
      <trkpt lat="43.23298" lon="6.59509">
        <ele>55.7</ele>
        <time>1970-01-01T00:15:09.000Z</time>
      </trkpt>
      <trkpt lat="43.23295" lon="6.59507">
        <ele>56</ele>
        <time>1970-01-01T00:15:11.000Z</time>
      </trkpt>
      <trkpt lat="43.23291" lon="6.59505">
        <ele>56.3</ele>
        <time>1970-01-01T00:15:13.000Z</time>
      </trkpt>
      <trkpt lat="43.23286" lon="6.59503">
        <ele>56.7</ele>
        <time>1970-01-01T00:15:15.000Z</time>
      </trkpt>
      <trkpt lat="43.23282" lon="6.595">
        <ele>57</ele>
        <time>1970-01-01T00:15:17.000Z</time>
      </trkpt>
      <trkpt lat="43.23279" lon="6.59499">
        <ele>57.3</ele>
        <time>1970-01-01T00:15:19.000Z</time>
      </trkpt>
      <trkpt lat="43.23275" lon="6.59497">
        <ele>57.7</ele>
        <time>1970-01-01T00:15:21.000Z</time>
      </trkpt>
      <trkpt lat="43.23271" lon="6.59494">
        <ele>58</ele>
        <time>1970-01-01T00:15:23.000Z</time>
      </trkpt>
      <trkpt lat="43.23267" lon="6.59492">
        <ele>58.4</ele>
        <time>1970-01-01T00:15:25.000Z</time>
      </trkpt>
      <trkpt lat="43.23262" lon="6.59489">
        <ele>58.8</ele>
        <time>1970-01-01T00:15:27.000Z</time>
      </trkpt>
      <trkpt lat="43.23259" lon="6.59486">
        <ele>59.1</ele>
        <time>1970-01-01T00:15:29.000Z</time>
      </trkpt>
      <trkpt lat="43.23255" lon="6.59482">
        <ele>59.5</ele>
        <time>1970-01-01T00:15:31.000Z</time>
      </trkpt>
      <trkpt lat="43.23253" lon="6.59477">
        <ele>59.8</ele>
        <time>1970-01-01T00:15:33.000Z</time>
      </trkpt>
      <trkpt lat="43.2325" lon="6.59473">
        <ele>60</ele>
        <time>1970-01-01T00:15:35.000Z</time>
      </trkpt>
      <trkpt lat="43.23247" lon="6.59468">
        <ele>60.3</ele>
        <time>1970-01-01T00:15:37.000Z</time>
      </trkpt>
      <trkpt lat="43.23246" lon="6.59464">
        <ele>60.4</ele>
        <time>1970-01-01T00:15:38.000Z</time>
      </trkpt>
      <trkpt lat="43.23243" lon="6.5946">
        <ele>60.6</ele>
        <time>1970-01-01T00:15:40.000Z</time>
      </trkpt>
      <trkpt lat="43.23241" lon="6.59455">
        <ele>60.6</ele>
        <time>1970-01-01T00:15:42.000Z</time>
      </trkpt>
      <trkpt lat="43.23239" lon="6.59449">
        <ele>60.7</ele>
        <time>1970-01-01T00:15:44.000Z</time>
      </trkpt>
      <trkpt lat="43.23236" lon="6.59443">
        <ele>60.8</ele>
        <time>1970-01-01T00:15:46.000Z</time>
      </trkpt>
      <trkpt lat="43.23235" lon="6.5944">
        <ele>60.8</ele>
        <time>1970-01-01T00:15:47.000Z</time>
      </trkpt>
      <trkpt lat="43.23231" lon="6.59434">
        <ele>60.8</ele>
        <time>1970-01-01T00:15:49.000Z</time>
      </trkpt>
      <trkpt lat="43.2323" lon="6.5943">
        <ele>60.9</ele>
        <time>1970-01-01T00:15:50.000Z</time>
      </trkpt>
      <trkpt lat="43.23226" lon="6.59426">
        <ele>60.9</ele>
        <time>1970-01-01T00:15:52.000Z</time>
      </trkpt>
      <trkpt lat="43.23223" lon="6.59424">
        <ele>60.9</ele>
        <time>1970-01-01T00:15:53.000Z</time>
      </trkpt>
      <trkpt lat="43.2322" lon="6.59422">
        <ele>60.9</ele>
        <time>1970-01-01T00:15:54.000Z</time>
      </trkpt>
      <trkpt lat="43.23216" lon="6.59419">
        <ele>61</ele>
        <time>1970-01-01T00:15:56.000Z</time>
      </trkpt>
      <trkpt lat="43.23211" lon="6.59418">
        <ele>61</ele>
        <time>1970-01-01T00:15:58.000Z</time>
      </trkpt>
      <trkpt lat="43.23206" lon="6.59418">
        <ele>61.3</ele>
        <time>1970-01-01T00:16:00.000Z</time>
      </trkpt>
      <trkpt lat="43.23201" lon="6.59418">
        <ele>61.5</ele>
        <time>1970-01-01T00:16:02.000Z</time>
      </trkpt>
      <trkpt lat="43.23198" lon="6.59417">
        <ele>61.6</ele>
        <time>1970-01-01T00:16:03.000Z</time>
      </trkpt>
      <trkpt lat="43.23194" lon="6.59417">
        <ele>61.6</ele>
        <time>1970-01-01T00:16:04.000Z</time>
      </trkpt>
      <trkpt lat="43.23191" lon="6.59416">
        <ele>61.6</ele>
        <time>1970-01-01T00:16:05.000Z</time>
      </trkpt>
      <trkpt lat="43.23189" lon="6.59416">
        <ele>61.6</ele>
        <time>1970-01-01T00:16:06.000Z</time>
      </trkpt>
      <trkpt lat="43.23184" lon="6.59415">
        <ele>61.7</ele>
        <time>1970-01-01T00:16:08.000Z</time>
      </trkpt>
      <trkpt lat="43.23181" lon="6.59415">
        <ele>61.7</ele>
        <time>1970-01-01T00:16:09.000Z</time>
      </trkpt>
      <trkpt lat="43.23177" lon="6.59414">
        <ele>61.7</ele>
        <time>1970-01-01T00:16:10.000Z</time>
      </trkpt>
      <trkpt lat="43.23174" lon="6.59413">
        <ele>61.7</ele>
        <time>1970-01-01T00:16:11.000Z</time>
      </trkpt>
      <trkpt lat="43.23171" lon="6.59412">
        <ele>61.7</ele>
        <time>1970-01-01T00:16:12.000Z</time>
      </trkpt>
      <trkpt lat="43.23165" lon="6.59411">
        <ele>61.9</ele>
        <time>1970-01-01T00:16:14.000Z</time>
      </trkpt>
      <trkpt lat="43.23162" lon="6.59411">
        <ele>61.9</ele>
        <time>1970-01-01T00:16:15.000Z</time>
      </trkpt>
      <trkpt lat="43.23159" lon="6.59411">
        <ele>61.9</ele>
        <time>1970-01-01T00:16:16.000Z</time>
      </trkpt>
      <trkpt lat="43.23156" lon="6.59411">
        <ele>62</ele>
        <time>1970-01-01T00:16:17.000Z</time>
      </trkpt>
      <trkpt lat="43.23153" lon="6.5941">
        <ele>62</ele>
        <time>1970-01-01T00:16:18.000Z</time>
      </trkpt>
      <trkpt lat="43.2315" lon="6.5941">
        <ele>62.1</ele>
        <time>1970-01-01T00:16:19.000Z</time>
      </trkpt>
      <trkpt lat="43.23146" lon="6.5941">
        <ele>62.2</ele>
        <time>1970-01-01T00:16:20.000Z</time>
      </trkpt>
      <trkpt lat="43.23143" lon="6.59411">
        <ele>62.3</ele>
        <time>1970-01-01T00:16:21.000Z</time>
      </trkpt>
      <trkpt lat="43.2314" lon="6.59411">
        <ele>62.4</ele>
        <time>1970-01-01T00:16:22.000Z</time>
      </trkpt>
      <trkpt lat="43.23136" lon="6.5941">
        <ele>62.5</ele>
        <time>1970-01-01T00:16:23.000Z</time>
      </trkpt>
      <trkpt lat="43.23133" lon="6.5941">
        <ele>62.6</ele>
        <time>1970-01-01T00:16:24.000Z</time>
      </trkpt>
      <trkpt lat="43.23129" lon="6.5941">
        <ele>62.8</ele>
        <time>1970-01-01T00:16:25.000Z</time>
      </trkpt>
      <trkpt lat="43.23126" lon="6.5941">
        <ele>63</ele>
        <time>1970-01-01T00:16:26.000Z</time>
      </trkpt>
      <trkpt lat="43.23121" lon="6.59409">
        <ele>63.1</ele>
        <time>1970-01-01T00:16:27.000Z</time>
      </trkpt>
      <trkpt lat="43.23117" lon="6.59409">
        <ele>63.2</ele>
        <time>1970-01-01T00:16:28.000Z</time>
      </trkpt>
      <trkpt lat="43.23112" lon="6.59409">
        <ele>63.2</ele>
        <time>1970-01-01T00:16:29.000Z</time>
      </trkpt>
      <trkpt lat="43.23106" lon="6.5941">
        <ele>63</ele>
        <time>1970-01-01T00:16:30.000Z</time>
      </trkpt>
      <trkpt lat="43.23102" lon="6.59409">
        <ele>62.9</ele>
        <time>1970-01-01T00:16:31.000Z</time>
      </trkpt>
      <trkpt lat="43.23097" lon="6.59409">
        <ele>62.6</ele>
        <time>1970-01-01T00:16:32.000Z</time>
      </trkpt>
      <trkpt lat="43.23093" lon="6.59409">
        <ele>62.4</ele>
        <time>1970-01-01T00:16:33.000Z</time>
      </trkpt>
      <trkpt lat="43.23089" lon="6.59409">
        <ele>62.2</ele>
        <time>1970-01-01T00:16:34.000Z</time>
      </trkpt>
      <trkpt lat="43.23083" lon="6.5941">
        <ele>62</ele>
        <time>1970-01-01T00:16:35.000Z</time>
      </trkpt>
      <trkpt lat="43.23078" lon="6.59411">
        <ele>62</ele>
        <time>1970-01-01T00:16:36.000Z</time>
      </trkpt>
      <trkpt lat="43.23072" lon="6.59413">
        <ele>61.9</ele>
        <time>1970-01-01T00:16:37.000Z</time>
      </trkpt>
      <trkpt lat="43.23067" lon="6.59415">
        <ele>62.1</ele>
        <time>1970-01-01T00:16:38.000Z</time>
      </trkpt>
      <trkpt lat="43.23063" lon="6.59419">
        <ele>62.4</ele>
        <time>1970-01-01T00:16:39.000Z</time>
      </trkpt>
      <trkpt lat="43.23059" lon="6.59422">
        <ele>62.5</ele>
        <time>1970-01-01T00:16:40.000Z</time>
      </trkpt>
      <trkpt lat="43.23055" lon="6.59425">
        <ele>62.7</ele>
        <time>1970-01-01T00:16:41.000Z</time>
      </trkpt>
      <trkpt lat="43.23051" lon="6.59426">
        <ele>62.8</ele>
        <time>1970-01-01T00:16:42.000Z</time>
      </trkpt>
      <trkpt lat="43.23047" lon="6.59428">
        <ele>62.9</ele>
        <time>1970-01-01T00:16:43.000Z</time>
      </trkpt>
      <trkpt lat="43.23043" lon="6.59429">
        <ele>63</ele>
        <time>1970-01-01T00:16:44.000Z</time>
      </trkpt>
      <trkpt lat="43.23039" lon="6.5943">
        <ele>63.1</ele>
        <time>1970-01-01T00:16:45.000Z</time>
      </trkpt>
      <trkpt lat="43.23034" lon="6.59431">
        <ele>63.3</ele>
        <time>1970-01-01T00:16:46.000Z</time>
      </trkpt>
      <trkpt lat="43.23029" lon="6.59431">
        <ele>63.6</ele>
        <time>1970-01-01T00:16:47.000Z</time>
      </trkpt>
      <trkpt lat="43.23025" lon="6.59428">
        <ele>63.8</ele>
        <time>1970-01-01T00:16:48.000Z</time>
      </trkpt>
      <trkpt lat="43.23021" lon="6.59426">
        <ele>64</ele>
        <time>1970-01-01T00:16:49.000Z</time>
      </trkpt>
      <trkpt lat="43.23018" lon="6.59424">
        <ele>64.4</ele>
        <time>1970-01-01T00:16:50.000Z</time>
      </trkpt>
      <trkpt lat="43.23014" lon="6.59422">
        <ele>64.8</ele>
        <time>1970-01-01T00:16:51.000Z</time>
      </trkpt>
      <trkpt lat="43.23012" lon="6.59419">
        <ele>65.3</ele>
        <time>1970-01-01T00:16:52.000Z</time>
      </trkpt>
      <trkpt lat="43.2301" lon="6.59416">
        <ele>65.7</ele>
        <time>1970-01-01T00:16:53.000Z</time>
      </trkpt>
      <trkpt lat="43.23006" lon="6.59412">
        <ele>66.2</ele>
        <time>1970-01-01T00:16:55.000Z</time>
      </trkpt>
      <trkpt lat="43.23003" lon="6.59409">
        <ele>66.7</ele>
        <time>1970-01-01T00:16:56.000Z</time>
      </trkpt>
      <trkpt lat="43.23" lon="6.59407">
        <ele>67.3</ele>
        <time>1970-01-01T00:16:57.000Z</time>
      </trkpt>
      <trkpt lat="43.22997" lon="6.59404">
        <ele>67.6</ele>
        <time>1970-01-01T00:16:59.000Z</time>
      </trkpt>
      <trkpt lat="43.22994" lon="6.59402">
        <ele>68.1</ele>
        <time>1970-01-01T00:17:00.000Z</time>
      </trkpt>
      <trkpt lat="43.22992" lon="6.594">
        <ele>68.1</ele>
        <time>1970-01-01T00:17:01.000Z</time>
      </trkpt>
      <trkpt lat="43.22987" lon="6.59396">
        <ele>69</ele>
        <time>1970-01-01T00:17:03.000Z</time>
      </trkpt>
      <trkpt lat="43.22982" lon="6.59394">
        <ele>69.6</ele>
        <time>1970-01-01T00:17:05.000Z</time>
      </trkpt>
      <trkpt lat="43.22978" lon="6.59393">
        <ele>70.2</ele>
        <time>1970-01-01T00:17:06.000Z</time>
      </trkpt>
      <trkpt lat="43.22976" lon="6.59391">
        <ele>70.2</ele>
        <time>1970-01-01T00:17:07.000Z</time>
      </trkpt>
      <trkpt lat="43.22973" lon="6.59389">
        <ele>70.8</ele>
        <time>1970-01-01T00:17:08.000Z</time>
      </trkpt>
      <trkpt lat="43.22969" lon="6.59388">
        <ele>71</ele>
        <time>1970-01-01T00:17:09.000Z</time>
      </trkpt>
      <trkpt lat="43.22966" lon="6.59388">
        <ele>71.1</ele>
        <time>1970-01-01T00:17:10.000Z</time>
      </trkpt>
      <trkpt lat="43.22963" lon="6.59389">
        <ele>71.2</ele>
        <time>1970-01-01T00:17:11.000Z</time>
      </trkpt>
      <trkpt lat="43.22957" lon="6.59387">
        <ele>71.2</ele>
        <time>1970-01-01T00:17:13.000Z</time>
      </trkpt>
      <trkpt lat="43.22954" lon="6.59387">
        <ele>71.2</ele>
        <time>1970-01-01T00:17:14.000Z</time>
      </trkpt>
      <trkpt lat="43.2295" lon="6.59387">
        <ele>70.9</ele>
        <time>1970-01-01T00:17:15.000Z</time>
      </trkpt>
      <trkpt lat="43.22946" lon="6.59387">
        <ele>70.8</ele>
        <time>1970-01-01T00:17:16.000Z</time>
      </trkpt>
      <trkpt lat="43.22943" lon="6.59386">
        <ele>70.6</ele>
        <time>1970-01-01T00:17:17.000Z</time>
      </trkpt>
      <trkpt lat="43.22938" lon="6.59384">
        <ele>70.4</ele>
        <time>1970-01-01T00:17:18.000Z</time>
      </trkpt>
      <trkpt lat="43.22934" lon="6.59383">
        <ele>70.1</ele>
        <time>1970-01-01T00:17:19.000Z</time>
      </trkpt>
      <trkpt lat="43.22929" lon="6.59383">
        <ele>69.9</ele>
        <time>1970-01-01T00:17:20.000Z</time>
      </trkpt>
      <trkpt lat="43.22925" lon="6.59382">
        <ele>69.5</ele>
        <time>1970-01-01T00:17:21.000Z</time>
      </trkpt>
      <trkpt lat="43.22921" lon="6.5938">
        <ele>69.4</ele>
        <time>1970-01-01T00:17:22.000Z</time>
      </trkpt>
      <trkpt lat="43.22918" lon="6.59379">
        <ele>69.2</ele>
        <time>1970-01-01T00:17:23.000Z</time>
      </trkpt>
      <trkpt lat="43.22914" lon="6.59378">
        <ele>69</ele>
        <time>1970-01-01T00:17:24.000Z</time>
      </trkpt>
      <trkpt lat="43.22911" lon="6.59376">
        <ele>69</ele>
        <time>1970-01-01T00:17:25.000Z</time>
      </trkpt>
      <trkpt lat="43.22908" lon="6.59374">
        <ele>68.8</ele>
        <time>1970-01-01T00:17:26.000Z</time>
      </trkpt>
      <trkpt lat="43.22904" lon="6.59372">
        <ele>68.8</ele>
        <time>1970-01-01T00:17:27.000Z</time>
      </trkpt>
      <trkpt lat="43.22901" lon="6.59371">
        <ele>68.8</ele>
        <time>1970-01-01T00:17:28.000Z</time>
      </trkpt>
      <trkpt lat="43.22898" lon="6.59369">
        <ele>68.8</ele>
        <time>1970-01-01T00:17:29.000Z</time>
      </trkpt>
      <trkpt lat="43.22894" lon="6.59366">
        <ele>69.1</ele>
        <time>1970-01-01T00:17:30.000Z</time>
      </trkpt>
      <trkpt lat="43.22891" lon="6.59364">
        <ele>69.6</ele>
        <time>1970-01-01T00:17:31.000Z</time>
      </trkpt>
      <trkpt lat="43.22888" lon="6.59362">
        <ele>69.7</ele>
        <time>1970-01-01T00:17:32.000Z</time>
      </trkpt>
      <trkpt lat="43.22886" lon="6.59359">
        <ele>70.1</ele>
        <time>1970-01-01T00:17:33.000Z</time>
      </trkpt>
      <trkpt lat="43.22883" lon="6.59357">
        <ele>70.2</ele>
        <time>1970-01-01T00:17:34.000Z</time>
      </trkpt>
      <trkpt lat="43.2288" lon="6.59355">
        <ele>70.7</ele>
        <time>1970-01-01T00:17:35.000Z</time>
      </trkpt>
      <trkpt lat="43.22878" lon="6.59353">
        <ele>70.8</ele>
        <time>1970-01-01T00:17:36.000Z</time>
      </trkpt>
      <trkpt lat="43.22876" lon="6.59351">
        <ele>70.9</ele>
        <time>1970-01-01T00:17:37.000Z</time>
      </trkpt>
      <trkpt lat="43.22873" lon="6.5935">
        <ele>71.4</ele>
        <time>1970-01-01T00:17:38.000Z</time>
      </trkpt>
      <trkpt lat="43.22868" lon="6.59348">
        <ele>71.5</ele>
        <time>1970-01-01T00:17:40.000Z</time>
      </trkpt>
      <trkpt lat="43.22864" lon="6.59346">
        <ele>72.1</ele>
        <time>1970-01-01T00:17:42.000Z</time>
      </trkpt>
      <trkpt lat="43.22859" lon="6.59343">
        <ele>72.3</ele>
        <time>1970-01-01T00:17:44.000Z</time>
      </trkpt>
      <trkpt lat="43.22856" lon="6.59342">
        <ele>73</ele>
        <time>1970-01-01T00:17:45.000Z</time>
      </trkpt>
      <trkpt lat="43.22852" lon="6.59339">
        <ele>73.1</ele>
        <time>1970-01-01T00:17:47.000Z</time>
      </trkpt>
      <trkpt lat="43.22849" lon="6.59338">
        <ele>73.8</ele>
        <time>1970-01-01T00:17:48.000Z</time>
      </trkpt>
      <trkpt lat="43.22846" lon="6.59337">
        <ele>73.9</ele>
        <time>1970-01-01T00:17:49.000Z</time>
      </trkpt>
      <trkpt lat="43.22844" lon="6.59336">
        <ele>74.1</ele>
        <time>1970-01-01T00:17:50.000Z</time>
      </trkpt>
      <trkpt lat="43.22839" lon="6.59335">
        <ele>74.2</ele>
        <time>1970-01-01T00:17:52.000Z</time>
      </trkpt>
      <trkpt lat="43.22835" lon="6.59334">
        <ele>74.9</ele>
        <time>1970-01-01T00:17:54.000Z</time>
      </trkpt>
      <trkpt lat="43.22832" lon="6.59332">
        <ele>75</ele>
        <time>1970-01-01T00:17:55.000Z</time>
      </trkpt>
      <trkpt lat="43.2283" lon="6.5933">
        <ele>75.5</ele>
        <time>1970-01-01T00:17:56.000Z</time>
      </trkpt>
      <trkpt lat="43.22827" lon="6.59327">
        <ele>75.6</ele>
        <time>1970-01-01T00:17:57.000Z</time>
      </trkpt>
      <trkpt lat="43.22823" lon="6.59322">
        <ele>76.3</ele>
        <time>1970-01-01T00:17:59.000Z</time>
      </trkpt>
      <trkpt lat="43.2282" lon="6.59317">
        <ele>77</ele>
        <time>1970-01-01T00:18:01.000Z</time>
      </trkpt>
      <trkpt lat="43.22815" lon="6.59314">
        <ele>77.7</ele>
        <time>1970-01-01T00:18:03.000Z</time>
      </trkpt>
      <trkpt lat="43.22813" lon="6.59312">
        <ele>78.3</ele>
        <time>1970-01-01T00:18:04.000Z</time>
      </trkpt>
      <trkpt lat="43.22808" lon="6.59307">
        <ele>78.6</ele>
        <time>1970-01-01T00:18:06.000Z</time>
      </trkpt>
      <trkpt lat="43.22805" lon="6.59304">
        <ele>78.9</ele>
        <time>1970-01-01T00:18:08.000Z</time>
      </trkpt>
      <trkpt lat="43.22801" lon="6.59301">
        <ele>79</ele>
        <time>1970-01-01T00:18:10.000Z</time>
      </trkpt>
      <trkpt lat="43.22796" lon="6.593">
        <ele>79.4</ele>
        <time>1970-01-01T00:18:12.000Z</time>
      </trkpt>
      <trkpt lat="43.22791" lon="6.59298">
        <ele>79.7</ele>
        <time>1970-01-01T00:18:14.000Z</time>
      </trkpt>
      <trkpt lat="43.22788" lon="6.59297">
        <ele>79.8</ele>
        <time>1970-01-01T00:18:16.000Z</time>
      </trkpt>
      <trkpt lat="43.22785" lon="6.59296">
        <ele>79.9</ele>
        <time>1970-01-01T00:18:17.000Z</time>
      </trkpt>
      <trkpt lat="43.22782" lon="6.59295">
        <ele>80</ele>
        <time>1970-01-01T00:18:18.000Z</time>
      </trkpt>
      <trkpt lat="43.22778" lon="6.59294">
        <ele>80</ele>
        <time>1970-01-01T00:18:20.000Z</time>
      </trkpt>
      <trkpt lat="43.22774" lon="6.59293">
        <ele>80</ele>
        <time>1970-01-01T00:18:22.000Z</time>
      </trkpt>
      <trkpt lat="43.2277" lon="6.59291">
        <ele>80</ele>
        <time>1970-01-01T00:18:24.000Z</time>
      </trkpt>
      <trkpt lat="43.22765" lon="6.59291">
        <ele>79.8</ele>
        <time>1970-01-01T00:18:26.000Z</time>
      </trkpt>
      <trkpt lat="43.22761" lon="6.5929">
        <ele>79.8</ele>
        <time>1970-01-01T00:18:28.000Z</time>
      </trkpt>
      <trkpt lat="43.22757" lon="6.59289">
        <ele>80</ele>
        <time>1970-01-01T00:18:30.000Z</time>
      </trkpt>
      <trkpt lat="43.22752" lon="6.59289">
        <ele>80.1</ele>
        <time>1970-01-01T00:18:32.000Z</time>
      </trkpt>
      <trkpt lat="43.22748" lon="6.59288">
        <ele>80.4</ele>
        <time>1970-01-01T00:18:34.000Z</time>
      </trkpt>
      <trkpt lat="43.22744" lon="6.59287">
        <ele>81.1</ele>
        <time>1970-01-01T00:18:36.000Z</time>
      </trkpt>
      <trkpt lat="43.22739" lon="6.59287">
        <ele>81.3</ele>
        <time>1970-01-01T00:18:38.000Z</time>
      </trkpt>
      <trkpt lat="43.22736" lon="6.59287">
        <ele>81.8</ele>
        <time>1970-01-01T00:18:39.000Z</time>
      </trkpt>
      <trkpt lat="43.22733" lon="6.59286">
        <ele>82.3</ele>
        <time>1970-01-01T00:18:40.000Z</time>
      </trkpt>
      <trkpt lat="43.22731" lon="6.59286">
        <ele>82.9</ele>
        <time>1970-01-01T00:18:41.000Z</time>
      </trkpt>
      <trkpt lat="43.22726" lon="6.59285">
        <ele>83.4</ele>
        <time>1970-01-01T00:18:43.000Z</time>
      </trkpt>
      <trkpt lat="43.22722" lon="6.59284">
        <ele>84.4</ele>
        <time>1970-01-01T00:18:45.000Z</time>
      </trkpt>
      <trkpt lat="43.22719" lon="6.59284">
        <ele>84.9</ele>
        <time>1970-01-01T00:18:46.000Z</time>
      </trkpt>
      <trkpt lat="43.22713" lon="6.59284">
        <ele>85.3</ele>
        <time>1970-01-01T00:18:48.000Z</time>
      </trkpt>
      <trkpt lat="43.2271" lon="6.59283">
        <ele>85.7</ele>
        <time>1970-01-01T00:18:49.000Z</time>
      </trkpt>
      <trkpt lat="43.22707" lon="6.59282">
        <ele>86.2</ele>
        <time>1970-01-01T00:18:51.000Z</time>
      </trkpt>
      <trkpt lat="43.22702" lon="6.59282">
        <ele>86.4</ele>
        <time>1970-01-01T00:18:53.000Z</time>
      </trkpt>
      <trkpt lat="43.22698" lon="6.59282">
        <ele>86.6</ele>
        <time>1970-01-01T00:18:55.000Z</time>
      </trkpt>
      <trkpt lat="43.22695" lon="6.59282">
        <ele>86.8</ele>
        <time>1970-01-01T00:18:56.000Z</time>
      </trkpt>
      <trkpt lat="43.22692" lon="6.59282">
        <ele>86.9</ele>
        <time>1970-01-01T00:18:57.000Z</time>
      </trkpt>
      <trkpt lat="43.22688" lon="6.59281">
        <ele>87</ele>
        <time>1970-01-01T00:18:59.000Z</time>
      </trkpt>
      <trkpt lat="43.22684" lon="6.59279">
        <ele>87</ele>
        <time>1970-01-01T00:19:01.000Z</time>
      </trkpt>
      <trkpt lat="43.2268" lon="6.59279">
        <ele>87</ele>
        <time>1970-01-01T00:19:03.000Z</time>
      </trkpt>
      <trkpt lat="43.22676" lon="6.59278">
        <ele>87.1</ele>
        <time>1970-01-01T00:19:05.000Z</time>
      </trkpt>
      <trkpt lat="43.22671" lon="6.59277">
        <ele>87</ele>
        <time>1970-01-01T00:19:07.000Z</time>
      </trkpt>
      <trkpt lat="43.22667" lon="6.59276">
        <ele>86.9</ele>
        <time>1970-01-01T00:19:09.000Z</time>
      </trkpt>
      <trkpt lat="43.22663" lon="6.59274">
        <ele>86.8</ele>
        <time>1970-01-01T00:19:11.000Z</time>
      </trkpt>
      <trkpt lat="43.22658" lon="6.59272">
        <ele>87</ele>
        <time>1970-01-01T00:19:13.000Z</time>
      </trkpt>
      <trkpt lat="43.22655" lon="6.59269">
        <ele>87.3</ele>
        <time>1970-01-01T00:19:15.000Z</time>
      </trkpt>
      <trkpt lat="43.22651" lon="6.59266">
        <ele>87.3</ele>
        <time>1970-01-01T00:19:17.000Z</time>
      </trkpt>
      <trkpt lat="43.22648" lon="6.59262">
        <ele>87.7</ele>
        <time>1970-01-01T00:19:19.000Z</time>
      </trkpt>
      <trkpt lat="43.22644" lon="6.59257">
        <ele>88.1</ele>
        <time>1970-01-01T00:19:21.000Z</time>
      </trkpt>
      <trkpt lat="43.22642" lon="6.59251">
        <ele>88.9</ele>
        <time>1970-01-01T00:19:23.000Z</time>
      </trkpt>
      <trkpt lat="43.22642" lon="6.59247">
        <ele>89.3</ele>
        <time>1970-01-01T00:19:24.000Z</time>
      </trkpt>
      <trkpt lat="43.22642" lon="6.59243">
        <ele>89.7</ele>
        <time>1970-01-01T00:19:25.000Z</time>
      </trkpt>
      <trkpt lat="43.22642" lon="6.59238">
        <ele>90.1</ele>
        <time>1970-01-01T00:19:26.000Z</time>
      </trkpt>
      <trkpt lat="43.22642" lon="6.59234">
        <ele>90.6</ele>
        <time>1970-01-01T00:19:27.000Z</time>
      </trkpt>
      <trkpt lat="43.22642" lon="6.59231">
        <ele>91.1</ele>
        <time>1970-01-01T00:19:28.000Z</time>
      </trkpt>
      <trkpt lat="43.22642" lon="6.59226">
        <ele>91.5</ele>
        <time>1970-01-01T00:19:29.000Z</time>
      </trkpt>
      <trkpt lat="43.22644" lon="6.59219">
        <ele>91.8</ele>
        <time>1970-01-01T00:19:31.000Z</time>
      </trkpt>
      <trkpt lat="43.22644" lon="6.59213">
        <ele>92.6</ele>
        <time>1970-01-01T00:19:33.000Z</time>
      </trkpt>
      <trkpt lat="43.22643" lon="6.59207">
        <ele>93.1</ele>
        <time>1970-01-01T00:19:35.000Z</time>
      </trkpt>
      <trkpt lat="43.22642" lon="6.59202">
        <ele>93.6</ele>
        <time>1970-01-01T00:19:36.000Z</time>
      </trkpt>
      <trkpt lat="43.2264" lon="6.59197">
        <ele>94.3</ele>
        <time>1970-01-01T00:19:38.000Z</time>
      </trkpt>
      <trkpt lat="43.22638" lon="6.59191">
        <ele>95.3</ele>
        <time>1970-01-01T00:19:40.000Z</time>
      </trkpt>
      <trkpt lat="43.22636" lon="6.59187">
        <ele>96.2</ele>
        <time>1970-01-01T00:19:42.000Z</time>
      </trkpt>
      <trkpt lat="43.22633" lon="6.59183">
        <ele>97.4</ele>
        <time>1970-01-01T00:19:44.000Z</time>
      </trkpt>
      <trkpt lat="43.2263" lon="6.5918">
        <ele>97.8</ele>
        <time>1970-01-01T00:19:46.000Z</time>
      </trkpt>
      <trkpt lat="43.22628" lon="6.59176">
        <ele>99.3</ele>
        <time>1970-01-01T00:19:48.000Z</time>
      </trkpt>
      <trkpt lat="43.22626" lon="6.59174">
        <ele>100.4</ele>
        <time>1970-01-01T00:19:50.000Z</time>
      </trkpt>
      <trkpt lat="43.22623" lon="6.59171">
        <ele>100.9</ele>
        <time>1970-01-01T00:19:51.000Z</time>
      </trkpt>
      <trkpt lat="43.2262" lon="6.59169">
        <ele>102.5</ele>
        <time>1970-01-01T00:19:53.000Z</time>
      </trkpt>
      <trkpt lat="43.22616" lon="6.59167">
        <ele>103.2</ele>
        <time>1970-01-01T00:19:55.000Z</time>
      </trkpt>
      <trkpt lat="43.22613" lon="6.59165">
        <ele>104.3</ele>
        <time>1970-01-01T00:19:57.000Z</time>
      </trkpt>
      <trkpt lat="43.22609" lon="6.59162">
        <ele>105.4</ele>
        <time>1970-01-01T00:19:59.000Z</time>
      </trkpt>
      <trkpt lat="43.22605" lon="6.59159">
        <ele>105.3</ele>
        <time>1970-01-01T00:20:01.000Z</time>
      </trkpt>
      <trkpt lat="43.22602" lon="6.59157">
        <ele>106.3</ele>
        <time>1970-01-01T00:20:03.000Z</time>
      </trkpt>
      <trkpt lat="43.22599" lon="6.59153">
        <ele>107.3</ele>
        <time>1970-01-01T00:20:05.000Z</time>
      </trkpt>
      <trkpt lat="43.22596" lon="6.59151">
        <ele>107.2</ele>
        <time>1970-01-01T00:20:07.000Z</time>
      </trkpt>
      <trkpt lat="43.22593" lon="6.59149">
        <ele>108.3</ele>
        <time>1970-01-01T00:20:09.000Z</time>
      </trkpt>
      <trkpt lat="43.22589" lon="6.59145">
        <ele>109.5</ele>
        <time>1970-01-01T00:20:11.000Z</time>
      </trkpt>
      <trkpt lat="43.22585" lon="6.59143">
        <ele>109.5</ele>
        <time>1970-01-01T00:20:13.000Z</time>
      </trkpt>
      <trkpt lat="43.22582" lon="6.59139">
        <ele>110.9</ele>
        <time>1970-01-01T00:20:15.000Z</time>
      </trkpt>
      <trkpt lat="43.22578" lon="6.59137">
        <ele>112.6</ele>
        <time>1970-01-01T00:20:17.000Z</time>
      </trkpt>
      <trkpt lat="43.22574" lon="6.59135">
        <ele>112.9</ele>
        <time>1970-01-01T00:20:19.000Z</time>
      </trkpt>
      <trkpt lat="43.2257" lon="6.59132">
        <ele>114.8</ele>
        <time>1970-01-01T00:20:21.000Z</time>
      </trkpt>
      <trkpt lat="43.22567" lon="6.59129">
        <ele>115.1</ele>
        <time>1970-01-01T00:20:22.000Z</time>
      </trkpt>
      <trkpt lat="43.22564" lon="6.59127">
        <ele>116.9</ele>
        <time>1970-01-01T00:20:24.000Z</time>
      </trkpt>
      <trkpt lat="43.2256" lon="6.59125">
        <ele>117.4</ele>
        <time>1970-01-01T00:20:26.000Z</time>
      </trkpt>
      <trkpt lat="43.22556" lon="6.59124">
        <ele>117.6</ele>
        <time>1970-01-01T00:20:28.000Z</time>
      </trkpt>
      <trkpt lat="43.22553" lon="6.59124">
        <ele>119.1</ele>
        <time>1970-01-01T00:20:30.000Z</time>
      </trkpt>
      <trkpt lat="43.22549" lon="6.5912">
        <ele>119.2</ele>
        <time>1970-01-01T00:20:32.000Z</time>
      </trkpt>
      <trkpt lat="43.22545" lon="6.5912">
        <ele>120.5</ele>
        <time>1970-01-01T00:20:34.000Z</time>
      </trkpt>
      <trkpt lat="43.22541" lon="6.59119">
        <ele>120.6</ele>
        <time>1970-01-01T00:20:36.000Z</time>
      </trkpt>
      <trkpt lat="43.22538" lon="6.59118">
        <ele>120.8</ele>
        <time>1970-01-01T00:20:38.000Z</time>
      </trkpt>
      <trkpt lat="43.22535" lon="6.59118">
        <ele>120.8</ele>
        <time>1970-01-01T00:20:40.000Z</time>
      </trkpt>
      <trkpt lat="43.22531" lon="6.59119">
        <ele>120.7</ele>
        <time>1970-01-01T00:20:42.000Z</time>
      </trkpt>
      <trkpt lat="43.22527" lon="6.59118">
        <ele>120.7</ele>
        <time>1970-01-01T00:20:44.000Z</time>
      </trkpt>
      <trkpt lat="43.22523" lon="6.59121">
        <ele>119.7</ele>
        <time>1970-01-01T00:20:46.000Z</time>
      </trkpt>
      <trkpt lat="43.2252" lon="6.59119">
        <ele>120.5</ele>
        <time>1970-01-01T00:20:47.000Z</time>
      </trkpt>
      <trkpt lat="43.22518" lon="6.59117">
        <ele>120.3</ele>
        <time>1970-01-01T00:20:48.000Z</time>
      </trkpt>
      <trkpt lat="43.22514" lon="6.59113">
        <ele>120.9</ele>
        <time>1970-01-01T00:20:50.000Z</time>
      </trkpt>
      <trkpt lat="43.22513" lon="6.59108">
        <ele>121.2</ele>
        <time>1970-01-01T00:20:52.000Z</time>
      </trkpt>
      <trkpt lat="43.22514" lon="6.59103">
        <ele>122.2</ele>
        <time>1970-01-01T00:20:54.000Z</time>
      </trkpt>
      <trkpt lat="43.22516" lon="6.591">
        <ele>122.9</ele>
        <time>1970-01-01T00:20:56.000Z</time>
      </trkpt>
      <trkpt lat="43.22519" lon="6.59095">
        <ele>124</ele>
        <time>1970-01-01T00:20:58.000Z</time>
      </trkpt>
      <trkpt lat="43.22522" lon="6.59092">
        <ele>125</ele>
        <time>1970-01-01T00:21:00.000Z</time>
      </trkpt>
      <trkpt lat="43.22527" lon="6.5909">
        <ele>126.3</ele>
        <time>1970-01-01T00:21:02.000Z</time>
      </trkpt>
      <trkpt lat="43.22531" lon="6.59088">
        <ele>126.6</ele>
        <time>1970-01-01T00:21:04.000Z</time>
      </trkpt>
      <trkpt lat="43.22535" lon="6.59087">
        <ele>127.1</ele>
        <time>1970-01-01T00:21:06.000Z</time>
      </trkpt>
      <trkpt lat="43.22539" lon="6.59086">
        <ele>127.4</ele>
        <time>1970-01-01T00:21:08.000Z</time>
      </trkpt>
      <trkpt lat="43.22542" lon="6.59083">
        <ele>128.4</ele>
        <time>1970-01-01T00:21:10.000Z</time>
      </trkpt>
      <trkpt lat="43.22545" lon="6.59082">
        <ele>128.6</ele>
        <time>1970-01-01T00:21:12.000Z</time>
      </trkpt>
      <trkpt lat="43.22548" lon="6.5908">
        <ele>129.6</ele>
        <time>1970-01-01T00:21:14.000Z</time>
      </trkpt>
      <trkpt lat="43.22548" lon="6.59076">
        <ele>130.6</ele>
        <time>1970-01-01T00:21:16.000Z</time>
      </trkpt>
      <trkpt lat="43.22547" lon="6.59071">
        <ele>131.3</ele>
        <time>1970-01-01T00:21:18.000Z</time>
      </trkpt>
      <trkpt lat="43.22545" lon="6.59068">
        <ele>131.3</ele>
        <time>1970-01-01T00:21:20.000Z</time>
      </trkpt>
      <trkpt lat="43.22542" lon="6.59067">
        <ele>132</ele>
        <time>1970-01-01T00:21:22.000Z</time>
      </trkpt>
      <trkpt lat="43.22539" lon="6.59065">
        <ele>131.6</ele>
        <time>1970-01-01T00:21:25.000Z</time>
      </trkpt>
      <trkpt lat="43.22536" lon="6.59063">
        <ele>132.1</ele>
        <time>1970-01-01T00:21:28.000Z</time>
      </trkpt>
      <trkpt lat="43.22534" lon="6.59061">
        <ele>131.7</ele>
        <time>1970-01-01T00:21:30.000Z</time>
      </trkpt>
      <trkpt lat="43.22531" lon="6.59059">
        <ele>132</ele>
        <time>1970-01-01T00:21:32.000Z</time>
      </trkpt>
      <trkpt lat="43.2253" lon="6.59053">
        <ele>132.7</ele>
        <time>1970-01-01T00:21:34.000Z</time>
      </trkpt>
      <trkpt lat="43.22528" lon="6.59049">
        <ele>133</ele>
        <time>1970-01-01T00:21:36.000Z</time>
      </trkpt>
      <trkpt lat="43.22526" lon="6.59047">
        <ele>133.8</ele>
        <time>1970-01-01T00:21:38.000Z</time>
      </trkpt>
      <trkpt lat="43.22524" lon="6.59041">
        <ele>134.4</ele>
        <time>1970-01-01T00:21:40.000Z</time>
      </trkpt>
      <trkpt lat="43.22523" lon="6.59037">
        <ele>135.3</ele>
        <time>1970-01-01T00:21:41.000Z</time>
      </trkpt>
      <trkpt lat="43.22521" lon="6.59032">
        <ele>135.9</ele>
        <time>1970-01-01T00:21:43.000Z</time>
      </trkpt>
      <trkpt lat="43.2252" lon="6.59028">
        <ele>136.7</ele>
        <time>1970-01-01T00:21:45.000Z</time>
      </trkpt>
      <trkpt lat="43.22519" lon="6.59023">
        <ele>137.4</ele>
        <time>1970-01-01T00:21:47.000Z</time>
      </trkpt>
      <trkpt lat="43.22518" lon="6.59019">
        <ele>138.2</ele>
        <time>1970-01-01T00:21:48.000Z</time>
      </trkpt>
      <trkpt lat="43.22517" lon="6.59014">
        <ele>139</ele>
        <time>1970-01-01T00:21:50.000Z</time>
      </trkpt>
      <trkpt lat="43.22516" lon="6.59008">
        <ele>139.7</ele>
        <time>1970-01-01T00:21:52.000Z</time>
      </trkpt>
      <trkpt lat="43.22517" lon="6.59003">
        <ele>140.7</ele>
        <time>1970-01-01T00:21:54.000Z</time>
      </trkpt>
      <trkpt lat="43.22515" lon="6.58997">
        <ele>141</ele>
        <time>1970-01-01T00:21:56.000Z</time>
      </trkpt>
      <trkpt lat="43.22514" lon="6.58991">
        <ele>141.3</ele>
        <time>1970-01-01T00:21:58.000Z</time>
      </trkpt>
      <trkpt lat="43.22514" lon="6.58985">
        <ele>141.9</ele>
        <time>1970-01-01T00:22:00.000Z</time>
      </trkpt>
      <trkpt lat="43.22515" lon="6.5898">
        <ele>142.2</ele>
        <time>1970-01-01T00:22:02.000Z</time>
      </trkpt>
      <trkpt lat="43.22516" lon="6.58976">
        <ele>142.2</ele>
        <time>1970-01-01T00:22:04.000Z</time>
      </trkpt>
      <trkpt lat="43.22517" lon="6.58971">
        <ele>142.3</ele>
        <time>1970-01-01T00:22:06.000Z</time>
      </trkpt>
      <trkpt lat="43.22518" lon="6.58967">
        <ele>142.4</ele>
        <time>1970-01-01T00:22:08.000Z</time>
      </trkpt>
      <trkpt lat="43.22519" lon="6.58962">
        <ele>142.7</ele>
        <time>1970-01-01T00:22:10.000Z</time>
      </trkpt>
      <trkpt lat="43.22521" lon="6.58958">
        <ele>142.9</ele>
        <time>1970-01-01T00:22:12.000Z</time>
      </trkpt>
      <trkpt lat="43.22521" lon="6.58952">
        <ele>143.7</ele>
        <time>1970-01-01T00:22:14.000Z</time>
      </trkpt>
      <trkpt lat="43.22521" lon="6.58946">
        <ele>144.1</ele>
        <time>1970-01-01T00:22:16.000Z</time>
      </trkpt>
      <trkpt lat="43.22523" lon="6.5894">
        <ele>144.3</ele>
        <time>1970-01-01T00:22:18.000Z</time>
      </trkpt>
      <trkpt lat="43.22524" lon="6.58937">
        <ele>144.6</ele>
        <time>1970-01-01T00:22:28.000Z</time>
      </trkpt>
      <trkpt lat="43.22523" lon="6.58931">
        <ele>145</ele>
        <time>1970-01-01T00:22:31.000Z</time>
      </trkpt>
      <trkpt lat="43.22522" lon="6.58926">
        <ele>146.1</ele>
        <time>1970-01-01T00:22:33.000Z</time>
      </trkpt>
      <trkpt lat="43.22522" lon="6.5892">
        <ele>146.2</ele>
        <time>1970-01-01T00:22:35.000Z</time>
      </trkpt>
      <trkpt lat="43.22522" lon="6.58915">
        <ele>147.1</ele>
        <time>1970-01-01T00:22:36.000Z</time>
      </trkpt>
      <trkpt lat="43.22521" lon="6.58911">
        <ele>147.6</ele>
        <time>1970-01-01T00:22:38.000Z</time>
      </trkpt>
      <trkpt lat="43.2252" lon="6.58905">
        <ele>148.9</ele>
        <time>1970-01-01T00:22:40.000Z</time>
      </trkpt>
      <trkpt lat="43.22519" lon="6.58899">
        <ele>150.4</ele>
        <time>1970-01-01T00:22:42.000Z</time>
      </trkpt>
      <trkpt lat="43.22519" lon="6.58892">
        <ele>151.7</ele>
        <time>1970-01-01T00:22:44.000Z</time>
      </trkpt>
      <trkpt lat="43.2252" lon="6.58888">
        <ele>150.8</ele>
        <time>1970-01-01T00:22:45.000Z</time>
      </trkpt>
      <trkpt lat="43.2252" lon="6.58882">
        <ele>151.8</ele>
        <time>1970-01-01T00:22:47.000Z</time>
      </trkpt>
      <trkpt lat="43.2252" lon="6.58876">
        <ele>152.3</ele>
        <time>1970-01-01T00:22:49.000Z</time>
      </trkpt>
      <trkpt lat="43.2252" lon="6.5887">
        <ele>153.3</ele>
        <time>1970-01-01T00:22:51.000Z</time>
      </trkpt>
      <trkpt lat="43.22521" lon="6.58866">
        <ele>153.6</ele>
        <time>1970-01-01T00:22:53.000Z</time>
      </trkpt>
      <trkpt lat="43.22522" lon="6.58859">
        <ele>153.9</ele>
        <time>1970-01-01T00:22:55.000Z</time>
      </trkpt>
      <trkpt lat="43.22522" lon="6.58855">
        <ele>154.2</ele>
        <time>1970-01-01T00:22:57.000Z</time>
      </trkpt>
      <trkpt lat="43.22523" lon="6.5885">
        <ele>153.7</ele>
        <time>1970-01-01T00:23:00.000Z</time>
      </trkpt>
      <trkpt lat="43.22526" lon="6.58846">
        <ele>153.3</ele>
        <time>1970-01-01T00:23:02.000Z</time>
      </trkpt>
      <trkpt lat="43.22528" lon="6.5884">
        <ele>153.9</ele>
        <time>1970-01-01T00:23:04.000Z</time>
      </trkpt>
      <trkpt lat="43.2253" lon="6.58837">
        <ele>153.2</ele>
        <time>1970-01-01T00:23:05.000Z</time>
      </trkpt>
      <trkpt lat="43.22533" lon="6.58833">
        <ele>152.9</ele>
        <time>1970-01-01T00:23:07.000Z</time>
      </trkpt>
      <trkpt lat="43.22536" lon="6.58829">
        <ele>152.5</ele>
        <time>1970-01-01T00:23:09.000Z</time>
      </trkpt>
      <trkpt lat="43.22539" lon="6.58824">
        <ele>152.2</ele>
        <time>1970-01-01T00:23:11.000Z</time>
      </trkpt>
      <trkpt lat="43.22542" lon="6.58819">
        <ele>152.6</ele>
        <time>1970-01-01T00:23:13.000Z</time>
      </trkpt>
      <trkpt lat="43.22544" lon="6.58815">
        <ele>152.6</ele>
        <time>1970-01-01T00:23:15.000Z</time>
      </trkpt>
      <trkpt lat="43.22546" lon="6.58809">
        <ele>153</ele>
        <time>1970-01-01T00:23:17.000Z</time>
      </trkpt>
      <trkpt lat="43.22548" lon="6.58805">
        <ele>153</ele>
        <time>1970-01-01T00:23:18.000Z</time>
      </trkpt>
      <trkpt lat="43.2255" lon="6.58799">
        <ele>153.6</ele>
        <time>1970-01-01T00:23:20.000Z</time>
      </trkpt>
      <trkpt lat="43.22552" lon="6.58793">
        <ele>154.5</ele>
        <time>1970-01-01T00:23:22.000Z</time>
      </trkpt>
      <trkpt lat="43.22553" lon="6.58789">
        <ele>155.2</ele>
        <time>1970-01-01T00:23:24.000Z</time>
      </trkpt>
      <trkpt lat="43.22555" lon="6.58783">
        <ele>155.6</ele>
        <time>1970-01-01T00:23:26.000Z</time>
      </trkpt>
      <trkpt lat="43.22556" lon="6.58777">
        <ele>156</ele>
        <time>1970-01-01T00:23:28.000Z</time>
      </trkpt>
      <trkpt lat="43.22557" lon="6.58773">
        <ele>156.2</ele>
        <time>1970-01-01T00:23:30.000Z</time>
      </trkpt>
      <trkpt lat="43.22557" lon="6.58766">
        <ele>157</ele>
        <time>1970-01-01T00:23:32.000Z</time>
      </trkpt>
      <trkpt lat="43.22558" lon="6.58761">
        <ele>157.3</ele>
        <time>1970-01-01T00:23:34.000Z</time>
      </trkpt>
      <trkpt lat="43.22559" lon="6.58756">
        <ele>157.6</ele>
        <time>1970-01-01T00:23:36.000Z</time>
      </trkpt>
      <trkpt lat="43.22559" lon="6.58751">
        <ele>158</ele>
        <time>1970-01-01T00:23:38.000Z</time>
      </trkpt>
      <trkpt lat="43.22561" lon="6.58744">
        <ele>158.2</ele>
        <time>1970-01-01T00:23:40.000Z</time>
      </trkpt>
      <trkpt lat="43.22563" lon="6.58737">
        <ele>158.9</ele>
        <time>1970-01-01T00:23:42.000Z</time>
      </trkpt>
      <trkpt lat="43.22565" lon="6.58733">
        <ele>159.3</ele>
        <time>1970-01-01T00:23:44.000Z</time>
      </trkpt>
      <trkpt lat="43.22566" lon="6.58729">
        <ele>159.3</ele>
        <time>1970-01-01T00:23:45.000Z</time>
      </trkpt>
      <trkpt lat="43.22568" lon="6.58726">
        <ele>159.7</ele>
        <time>1970-01-01T00:23:46.000Z</time>
      </trkpt>
      <trkpt lat="43.22573" lon="6.5872">
        <ele>160.2</ele>
        <time>1970-01-01T00:23:48.000Z</time>
      </trkpt>
      <trkpt lat="43.22575" lon="6.58718">
        <ele>160.2</ele>
        <time>1970-01-01T00:23:49.000Z</time>
      </trkpt>
      <trkpt lat="43.22577" lon="6.58715">
        <ele>160.4</ele>
        <time>1970-01-01T00:23:50.000Z</time>
      </trkpt>
      <trkpt lat="43.22579" lon="6.58712">
        <ele>160.3</ele>
        <time>1970-01-01T00:23:51.000Z</time>
      </trkpt>
      <trkpt lat="43.22582" lon="6.58708">
        <ele>160.8</ele>
        <time>1970-01-01T00:23:53.000Z</time>
      </trkpt>
      <trkpt lat="43.22584" lon="6.58706">
        <ele>161.4</ele>
        <time>1970-01-01T00:23:54.000Z</time>
      </trkpt>
      <trkpt lat="43.22587" lon="6.58704">
        <ele>161.5</ele>
        <time>1970-01-01T00:23:55.000Z</time>
      </trkpt>
      <trkpt lat="43.22591" lon="6.58702">
        <ele>162.3</ele>
        <time>1970-01-01T00:23:57.000Z</time>
      </trkpt>
      <trkpt lat="43.22595" lon="6.58698">
        <ele>163.6</ele>
        <time>1970-01-01T00:23:59.000Z</time>
      </trkpt>
      <trkpt lat="43.226" lon="6.58695">
        <ele>163.9</ele>
        <time>1970-01-01T00:24:01.000Z</time>
      </trkpt>
      <trkpt lat="43.22602" lon="6.58692">
        <ele>165</ele>
        <time>1970-01-01T00:24:02.000Z</time>
      </trkpt>
      <trkpt lat="43.22604" lon="6.58689">
        <ele>165</ele>
        <time>1970-01-01T00:24:03.000Z</time>
      </trkpt>
      <trkpt lat="43.22607" lon="6.58685">
        <ele>163.9</ele>
        <time>1970-01-01T00:24:05.000Z</time>
      </trkpt>
      <trkpt lat="43.22605" lon="6.5868">
        <ele>163.4</ele>
        <time>1970-01-01T00:24:07.000Z</time>
      </trkpt>
      <trkpt lat="43.22603" lon="6.58678">
        <ele>163</ele>
        <time>1970-01-01T00:24:08.000Z</time>
      </trkpt>
      <trkpt lat="43.22598" lon="6.58676">
        <ele>162.6</ele>
        <time>1970-01-01T00:24:10.000Z</time>
      </trkpt>
      <trkpt lat="43.22594" lon="6.58675">
        <ele>162.2</ele>
        <time>1970-01-01T00:24:12.000Z</time>
      </trkpt>
      <trkpt lat="43.22588" lon="6.58677">
        <ele>161.6</ele>
        <time>1970-01-01T00:24:14.000Z</time>
      </trkpt>
      <trkpt lat="43.22586" lon="6.58679">
        <ele>161.3</ele>
        <time>1970-01-01T00:24:15.000Z</time>
      </trkpt>
      <trkpt lat="43.22583" lon="6.58681">
        <ele>161</ele>
        <time>1970-01-01T00:24:16.000Z</time>
      </trkpt>
      <trkpt lat="43.22578" lon="6.58684">
        <ele>160.6</ele>
        <time>1970-01-01T00:24:18.000Z</time>
      </trkpt>
      <trkpt lat="43.22573" lon="6.58687">
        <ele>160.1</ele>
        <time>1970-01-01T00:24:20.000Z</time>
      </trkpt>
      <trkpt lat="43.2257" lon="6.58688">
        <ele>159.6</ele>
        <time>1970-01-01T00:24:21.000Z</time>
      </trkpt>
      <trkpt lat="43.22566" lon="6.5869">
        <ele>158.6</ele>
        <time>1970-01-01T00:24:23.000Z</time>
      </trkpt>
      <trkpt lat="43.22562" lon="6.58691">
        <ele>157.9</ele>
        <time>1970-01-01T00:24:25.000Z</time>
      </trkpt>
      <trkpt lat="43.22558" lon="6.58693">
        <ele>156.9</ele>
        <time>1970-01-01T00:24:27.000Z</time>
      </trkpt>
      <trkpt lat="43.22556" lon="6.58695">
        <ele>156.2</ele>
        <time>1970-01-01T00:24:56.000Z</time>
      </trkpt>
      <trkpt lat="43.22553" lon="6.58698">
        <ele>155.4</ele>
        <time>1970-01-01T00:25:00.000Z</time>
      </trkpt>
      <trkpt lat="43.22549" lon="6.587">
        <ele>154.3</ele>
        <time>1970-01-01T00:25:02.000Z</time>
      </trkpt>
      <trkpt lat="43.22544" lon="6.58704">
        <ele>152.7</ele>
        <time>1970-01-01T00:25:04.000Z</time>
      </trkpt>
      <trkpt lat="43.22542" lon="6.58706">
        <ele>152</ele>
        <time>1970-01-01T00:25:05.000Z</time>
      </trkpt>
      <trkpt lat="43.22539" lon="6.5871">
        <ele>152</ele>
        <time>1970-01-01T00:25:06.000Z</time>
      </trkpt>
      <trkpt lat="43.22537" lon="6.58713">
        <ele>152</ele>
        <time>1970-01-01T00:25:07.000Z</time>
      </trkpt>
      <trkpt lat="43.22534" lon="6.58718">
        <ele>152</ele>
        <time>1970-01-01T00:25:08.000Z</time>
      </trkpt>
      <trkpt lat="43.22531" lon="6.58721">
        <ele>151.9</ele>
        <time>1970-01-01T00:25:09.000Z</time>
      </trkpt>
      <trkpt lat="43.22527" lon="6.58726">
        <ele>151.9</ele>
        <time>1970-01-01T00:25:10.000Z</time>
      </trkpt>
      <trkpt lat="43.22523" lon="6.58731">
        <ele>151.9</ele>
        <time>1970-01-01T00:25:11.000Z</time>
      </trkpt>
      <trkpt lat="43.22518" lon="6.58738">
        <ele>151.9</ele>
        <time>1970-01-01T00:25:12.000Z</time>
      </trkpt>
      <trkpt lat="43.22513" lon="6.58744">
        <ele>151.9</ele>
        <time>1970-01-01T00:25:13.000Z</time>
      </trkpt>
      <trkpt lat="43.22508" lon="6.58751">
        <ele>151.9</ele>
        <time>1970-01-01T00:25:14.000Z</time>
      </trkpt>
      <trkpt lat="43.22502" lon="6.58758">
        <ele>151.9</ele>
        <time>1970-01-01T00:25:15.000Z</time>
      </trkpt>
      <trkpt lat="43.22498" lon="6.58767">
        <ele>151.9</ele>
        <time>1970-01-01T00:25:16.000Z</time>
      </trkpt>
      <trkpt lat="43.22492" lon="6.58776">
        <ele>151.9</ele>
        <time>1970-01-01T00:25:17.000Z</time>
      </trkpt>
      <trkpt lat="43.22487" lon="6.58784">
        <ele>152</ele>
        <time>1970-01-01T00:25:18.000Z</time>
      </trkpt>
      <trkpt lat="43.22482" lon="6.58792">
        <ele>152.2</ele>
        <time>1970-01-01T00:25:19.000Z</time>
      </trkpt>
      <trkpt lat="43.22476" lon="6.588">
        <ele>152.5</ele>
        <time>1970-01-01T00:25:20.000Z</time>
      </trkpt>
      <trkpt lat="43.2247" lon="6.58807">
        <ele>152.9</ele>
        <time>1970-01-01T00:25:21.000Z</time>
      </trkpt>
      <trkpt lat="43.22464" lon="6.58813">
        <ele>153.3</ele>
        <time>1970-01-01T00:25:22.000Z</time>
      </trkpt>
      <trkpt lat="43.2246" lon="6.58819">
        <ele>153.7</ele>
        <time>1970-01-01T00:25:23.000Z</time>
      </trkpt>
      <trkpt lat="43.22456" lon="6.58824">
        <ele>154.1</ele>
        <time>1970-01-01T00:25:24.000Z</time>
      </trkpt>
      <trkpt lat="43.22452" lon="6.58829">
        <ele>154.5</ele>
        <time>1970-01-01T00:25:25.000Z</time>
      </trkpt>
      <trkpt lat="43.22448" lon="6.58834">
        <ele>154.8</ele>
        <time>1970-01-01T00:25:26.000Z</time>
      </trkpt>
      <trkpt lat="43.22445" lon="6.58837">
        <ele>155.1</ele>
        <time>1970-01-01T00:25:27.000Z</time>
      </trkpt>
      <trkpt lat="43.22443" lon="6.58841">
        <ele>155.3</ele>
        <time>1970-01-01T00:25:28.000Z</time>
      </trkpt>
      <trkpt lat="43.2244" lon="6.58843">
        <ele>155.6</ele>
        <time>1970-01-01T00:25:29.000Z</time>
      </trkpt>
      <trkpt lat="43.22436" lon="6.58846">
        <ele>155.8</ele>
        <time>1970-01-01T00:25:30.000Z</time>
      </trkpt>
      <trkpt lat="43.22433" lon="6.58849">
        <ele>156</ele>
        <time>1970-01-01T00:25:31.000Z</time>
      </trkpt>
      <trkpt lat="43.22431" lon="6.58851">
        <ele>156.2</ele>
        <time>1970-01-01T00:25:32.000Z</time>
      </trkpt>
      <trkpt lat="43.22428" lon="6.58853">
        <ele>156.4</ele>
        <time>1970-01-01T00:25:33.000Z</time>
      </trkpt>
      <trkpt lat="43.22424" lon="6.58854">
        <ele>156.8</ele>
        <time>1970-01-01T00:25:35.000Z</time>
      </trkpt>
      <trkpt lat="43.22419" lon="6.58856">
        <ele>157.1</ele>
        <time>1970-01-01T00:25:37.000Z</time>
      </trkpt>
      <trkpt lat="43.22415" lon="6.58859">
        <ele>157.4</ele>
        <time>1970-01-01T00:25:39.000Z</time>
      </trkpt>
      <trkpt lat="43.22411" lon="6.58861">
        <ele>157.7</ele>
        <time>1970-01-01T00:25:41.000Z</time>
      </trkpt>
      <trkpt lat="43.22407" lon="6.58864">
        <ele>157.8</ele>
        <time>1970-01-01T00:25:43.000Z</time>
      </trkpt>
      <trkpt lat="43.22402" lon="6.58866">
        <ele>158</ele>
        <time>1970-01-01T00:25:45.000Z</time>
      </trkpt>
      <trkpt lat="43.22397" lon="6.58869">
        <ele>158</ele>
        <time>1970-01-01T00:25:47.000Z</time>
      </trkpt>
      <trkpt lat="43.22394" lon="6.58872">
        <ele>158.1</ele>
        <time>1970-01-01T00:25:49.000Z</time>
      </trkpt>
      <trkpt lat="43.22391" lon="6.58876">
        <ele>158.1</ele>
        <time>1970-01-01T00:25:51.000Z</time>
      </trkpt>
      <trkpt lat="43.22387" lon="6.58879">
        <ele>158.1</ele>
        <time>1970-01-01T00:25:53.000Z</time>
      </trkpt>
      <trkpt lat="43.22384" lon="6.58882">
        <ele>158.2</ele>
        <time>1970-01-01T00:25:55.000Z</time>
      </trkpt>
      <trkpt lat="43.22379" lon="6.58885">
        <ele>158.2</ele>
        <time>1970-01-01T00:25:57.000Z</time>
      </trkpt>
      <trkpt lat="43.22376" lon="6.58889">
        <ele>158.2</ele>
        <time>1970-01-01T00:25:59.000Z</time>
      </trkpt>
      <trkpt lat="43.22373" lon="6.58893">
        <ele>158.2</ele>
        <time>1970-01-01T00:26:01.000Z</time>
      </trkpt>
      <trkpt lat="43.22369" lon="6.58897">
        <ele>158.2</ele>
        <time>1970-01-01T00:26:03.000Z</time>
      </trkpt>
      <trkpt lat="43.22367" lon="6.58903">
        <ele>158.2</ele>
        <time>1970-01-01T00:26:05.000Z</time>
      </trkpt>
      <trkpt lat="43.22364" lon="6.58909">
        <ele>158.1</ele>
        <time>1970-01-01T00:26:07.000Z</time>
      </trkpt>
      <trkpt lat="43.22362" lon="6.58913">
        <ele>158</ele>
        <time>1970-01-01T00:26:09.000Z</time>
      </trkpt>
      <trkpt lat="43.22359" lon="6.58917">
        <ele>157.9</ele>
        <time>1970-01-01T00:26:11.000Z</time>
      </trkpt>
      <trkpt lat="43.22356" lon="6.58923">
        <ele>157.7</ele>
        <time>1970-01-01T00:26:13.000Z</time>
      </trkpt>
      <trkpt lat="43.22355" lon="6.58926">
        <ele>157.5</ele>
        <time>1970-01-01T00:26:14.000Z</time>
      </trkpt>
      <trkpt lat="43.22353" lon="6.58929">
        <ele>157.4</ele>
        <time>1970-01-01T00:26:15.000Z</time>
      </trkpt>
      <trkpt lat="43.2235" lon="6.58933">
        <ele>157.2</ele>
        <time>1970-01-01T00:26:16.000Z</time>
      </trkpt>
      <trkpt lat="43.22347" lon="6.58937">
        <ele>157</ele>
        <time>1970-01-01T00:26:17.000Z</time>
      </trkpt>
      <trkpt lat="43.22345" lon="6.5894">
        <ele>156.9</ele>
        <time>1970-01-01T00:26:18.000Z</time>
      </trkpt>
      <trkpt lat="43.22342" lon="6.58945">
        <ele>156.8</ele>
        <time>1970-01-01T00:26:20.000Z</time>
      </trkpt>
      <trkpt lat="43.22339" lon="6.58947">
        <ele>156.7</ele>
        <time>1970-01-01T00:26:21.000Z</time>
      </trkpt>
      <trkpt lat="43.22336" lon="6.58951">
        <ele>156.7</ele>
        <time>1970-01-01T00:26:22.000Z</time>
      </trkpt>
      <trkpt lat="43.22333" lon="6.58953">
        <ele>156.6</ele>
        <time>1970-01-01T00:26:23.000Z</time>
      </trkpt>
      <trkpt lat="43.22329" lon="6.58955">
        <ele>156.6</ele>
        <time>1970-01-01T00:26:24.000Z</time>
      </trkpt>
      <trkpt lat="43.22324" lon="6.58957">
        <ele>156.6</ele>
        <time>1970-01-01T00:26:25.000Z</time>
      </trkpt>
      <trkpt lat="43.22319" lon="6.5896">
        <ele>156.5</ele>
        <time>1970-01-01T00:26:26.000Z</time>
      </trkpt>
      <trkpt lat="43.22313" lon="6.58964">
        <ele>156.5</ele>
        <time>1970-01-01T00:26:27.000Z</time>
      </trkpt>
      <trkpt lat="43.22307" lon="6.58967">
        <ele>156.4</ele>
        <time>1970-01-01T00:26:28.000Z</time>
      </trkpt>
      <trkpt lat="43.22299" lon="6.5897">
        <ele>156.4</ele>
        <time>1970-01-01T00:26:29.000Z</time>
      </trkpt>
      <trkpt lat="43.22291" lon="6.58973">
        <ele>156.4</ele>
        <time>1970-01-01T00:26:30.000Z</time>
      </trkpt>
      <trkpt lat="43.22283" lon="6.58974">
        <ele>156.4</ele>
        <time>1970-01-01T00:26:31.000Z</time>
      </trkpt>
      <trkpt lat="43.22275" lon="6.58973">
        <ele>156.4</ele>
        <time>1970-01-01T00:26:32.000Z</time>
      </trkpt>
      <trkpt lat="43.22266" lon="6.58972">
        <ele>156.5</ele>
        <time>1970-01-01T00:26:33.000Z</time>
      </trkpt>
      <trkpt lat="43.22258" lon="6.58971">
        <ele>156.6</ele>
        <time>1970-01-01T00:26:34.000Z</time>
      </trkpt>
      <trkpt lat="43.2225" lon="6.58969">
        <ele>156.7</ele>
        <time>1970-01-01T00:26:35.000Z</time>
      </trkpt>
      <trkpt lat="43.22243" lon="6.58967">
        <ele>156.9</ele>
        <time>1970-01-01T00:26:36.000Z</time>
      </trkpt>
      <trkpt lat="43.22236" lon="6.58967">
        <ele>157.2</ele>
        <time>1970-01-01T00:26:37.000Z</time>
      </trkpt>
      <trkpt lat="43.2223" lon="6.58972">
        <ele>157.6</ele>
        <time>1970-01-01T00:26:38.000Z</time>
      </trkpt>
      <trkpt lat="43.22223" lon="6.58978">
        <ele>158.2</ele>
        <time>1970-01-01T00:26:39.000Z</time>
      </trkpt>
      <trkpt lat="43.22219" lon="6.58985">
        <ele>158.7</ele>
        <time>1970-01-01T00:26:40.000Z</time>
      </trkpt>
      <trkpt lat="43.22216" lon="6.58993">
        <ele>159.3</ele>
        <time>1970-01-01T00:26:41.000Z</time>
      </trkpt>
      <trkpt lat="43.22214" lon="6.59">
        <ele>159.8</ele>
        <time>1970-01-01T00:26:42.000Z</time>
      </trkpt>
      <trkpt lat="43.22211" lon="6.59006">
        <ele>160.4</ele>
        <time>1970-01-01T00:26:43.000Z</time>
      </trkpt>
      <trkpt lat="43.2221" lon="6.59012">
        <ele>160.9</ele>
        <time>1970-01-01T00:26:44.000Z</time>
      </trkpt>
      <trkpt lat="43.22208" lon="6.59017">
        <ele>161.3</ele>
        <time>1970-01-01T00:26:45.000Z</time>
      </trkpt>
      <trkpt lat="43.22207" lon="6.59024">
        <ele>161.8</ele>
        <time>1970-01-01T00:26:46.000Z</time>
      </trkpt>
      <trkpt lat="43.22207" lon="6.59029">
        <ele>162.2</ele>
        <time>1970-01-01T00:26:47.000Z</time>
      </trkpt>
      <trkpt lat="43.22208" lon="6.59035">
        <ele>162.7</ele>
        <time>1970-01-01T00:26:48.000Z</time>
      </trkpt>
      <trkpt lat="43.2221" lon="6.5904">
        <ele>163.2</ele>
        <time>1970-01-01T00:26:49.000Z</time>
      </trkpt>
      <trkpt lat="43.22211" lon="6.59046">
        <ele>163.7</ele>
        <time>1970-01-01T00:26:50.000Z</time>
      </trkpt>
      <trkpt lat="43.22212" lon="6.59051">
        <ele>164.1</ele>
        <time>1970-01-01T00:26:51.000Z</time>
      </trkpt>
      <trkpt lat="43.22214" lon="6.59056">
        <ele>164.6</ele>
        <time>1970-01-01T00:26:52.000Z</time>
      </trkpt>
      <trkpt lat="43.22217" lon="6.5906">
        <ele>165.1</ele>
        <time>1970-01-01T00:26:53.000Z</time>
      </trkpt>
      <trkpt lat="43.22221" lon="6.59064">
        <ele>165.7</ele>
        <time>1970-01-01T00:26:54.000Z</time>
      </trkpt>
      <trkpt lat="43.22223" lon="6.59068">
        <ele>166.2</ele>
        <time>1970-01-01T00:26:55.000Z</time>
      </trkpt>
      <trkpt lat="43.22225" lon="6.59072">
        <ele>166.7</ele>
        <time>1970-01-01T00:26:56.000Z</time>
      </trkpt>
      <trkpt lat="43.22227" lon="6.59077">
        <ele>167.2</ele>
        <time>1970-01-01T00:26:57.000Z</time>
      </trkpt>
      <trkpt lat="43.22228" lon="6.59081">
        <ele>167.7</ele>
        <time>1970-01-01T00:26:58.000Z</time>
      </trkpt>
      <trkpt lat="43.22229" lon="6.59085">
        <ele>168.2</ele>
        <time>1970-01-01T00:26:59.000Z</time>
      </trkpt>
      <trkpt lat="43.2223" lon="6.59089">
        <ele>168.6</ele>
        <time>1970-01-01T00:27:00.000Z</time>
      </trkpt>
      <trkpt lat="43.22231" lon="6.59094">
        <ele>169.1</ele>
        <time>1970-01-01T00:27:01.000Z</time>
      </trkpt>
      <trkpt lat="43.22231" lon="6.59101">
        <ele>169.9</ele>
        <time>1970-01-01T00:27:03.000Z</time>
      </trkpt>
      <trkpt lat="43.22231" lon="6.59105">
        <ele>170.3</ele>
        <time>1970-01-01T00:27:04.000Z</time>
      </trkpt>
      <trkpt lat="43.2223" lon="6.59111">
        <ele>171</ele>
        <time>1970-01-01T00:27:06.000Z</time>
      </trkpt>
      <trkpt lat="43.22229" lon="6.59115">
        <ele>171.4</ele>
        <time>1970-01-01T00:27:07.000Z</time>
      </trkpt>
      <trkpt lat="43.22226" lon="6.59121">
        <ele>172.2</ele>
        <time>1970-01-01T00:27:09.000Z</time>
      </trkpt>
      <trkpt lat="43.22223" lon="6.59125">
        <ele>172.8</ele>
        <time>1970-01-01T00:27:11.000Z</time>
      </trkpt>
      <trkpt lat="43.22222" lon="6.59129">
        <ele>173.2</ele>
        <time>1970-01-01T00:27:12.000Z</time>
      </trkpt>
      <trkpt lat="43.2222" lon="6.59132">
        <ele>173.5</ele>
        <time>1970-01-01T00:27:13.000Z</time>
      </trkpt>
      <trkpt lat="43.22217" lon="6.59136">
        <ele>174.1</ele>
        <time>1970-01-01T00:27:15.000Z</time>
      </trkpt>
      <trkpt lat="43.22215" lon="6.59138">
        <ele>174.5</ele>
        <time>1970-01-01T00:27:16.000Z</time>
      </trkpt>
      <trkpt lat="43.2221" lon="6.59143">
        <ele>175.1</ele>
        <time>1970-01-01T00:27:18.000Z</time>
      </trkpt>
      <trkpt lat="43.22207" lon="6.59146">
        <ele>175.6</ele>
        <time>1970-01-01T00:27:20.000Z</time>
      </trkpt>
      <trkpt lat="43.22204" lon="6.59149">
        <ele>175.9</ele>
        <time>1970-01-01T00:27:22.000Z</time>
      </trkpt>
      <trkpt lat="43.22201" lon="6.59151">
        <ele>176.3</ele>
        <time>1970-01-01T00:27:24.000Z</time>
      </trkpt>
      <trkpt lat="43.22196" lon="6.59154">
        <ele>176.8</ele>
        <time>1970-01-01T00:27:26.000Z</time>
      </trkpt>
      <trkpt lat="43.22193" lon="6.59157">
        <ele>177.1</ele>
        <time>1970-01-01T00:27:28.000Z</time>
      </trkpt>
      <trkpt lat="43.2219" lon="6.59159">
        <ele>177.5</ele>
        <time>1970-01-01T00:27:30.000Z</time>
      </trkpt>
      <trkpt lat="43.22186" lon="6.59161">
        <ele>177.8</ele>
        <time>1970-01-01T00:27:32.000Z</time>
      </trkpt>
      <trkpt lat="43.22183" lon="6.59163">
        <ele>178.1</ele>
        <time>1970-01-01T00:27:34.000Z</time>
      </trkpt>
      <trkpt lat="43.2218" lon="6.59165">
        <ele>178.4</ele>
        <time>1970-01-01T00:27:36.000Z</time>
      </trkpt>
      <trkpt lat="43.22177" lon="6.59166">
        <ele>178.7</ele>
        <time>1970-01-01T00:27:37.000Z</time>
      </trkpt>
      <trkpt lat="43.22174" lon="6.59168">
        <ele>178.9</ele>
        <time>1970-01-01T00:27:38.000Z</time>
      </trkpt>
      <trkpt lat="43.22172" lon="6.5917">
        <ele>179.2</ele>
        <time>1970-01-01T00:27:39.000Z</time>
      </trkpt>
      <trkpt lat="43.22169" lon="6.59173">
        <ele>179.5</ele>
        <time>1970-01-01T00:27:41.000Z</time>
      </trkpt>
      <trkpt lat="43.22165" lon="6.59175">
        <ele>179.7</ele>
        <time>1970-01-01T00:27:42.000Z</time>
      </trkpt>
      <trkpt lat="43.22163" lon="6.59177">
        <ele>179.9</ele>
        <time>1970-01-01T00:27:43.000Z</time>
      </trkpt>
      <trkpt lat="43.22159" lon="6.5918">
        <ele>180.2</ele>
        <time>1970-01-01T00:27:46.000Z</time>
      </trkpt>
      <trkpt lat="43.22156" lon="6.59184">
        <ele>180.5</ele>
        <time>1970-01-01T00:27:48.000Z</time>
      </trkpt>
      <trkpt lat="43.22152" lon="6.59186">
        <ele>180.8</ele>
        <time>1970-01-01T00:27:50.000Z</time>
      </trkpt>
      <trkpt lat="43.22149" lon="6.59192">
        <ele>181.1</ele>
        <time>1970-01-01T00:27:52.000Z</time>
      </trkpt>
      <trkpt lat="43.22145" lon="6.59195">
        <ele>181.4</ele>
        <time>1970-01-01T00:27:54.000Z</time>
      </trkpt>
      <trkpt lat="43.2214" lon="6.59199">
        <ele>181.6</ele>
        <time>1970-01-01T00:27:56.000Z</time>
      </trkpt>
      <trkpt lat="43.22139" lon="6.59203">
        <ele>181.8</ele>
        <time>1970-01-01T00:27:57.000Z</time>
      </trkpt>
      <trkpt lat="43.22136" lon="6.59205">
        <ele>181.9</ele>
        <time>1970-01-01T00:27:58.000Z</time>
      </trkpt>
      <trkpt lat="43.22133" lon="6.59207">
        <ele>182.1</ele>
        <time>1970-01-01T00:27:59.000Z</time>
      </trkpt>
      <trkpt lat="43.22129" lon="6.59212">
        <ele>182.3</ele>
        <time>1970-01-01T00:28:01.000Z</time>
      </trkpt>
      <trkpt lat="43.22127" lon="6.59214">
        <ele>182.4</ele>
        <time>1970-01-01T00:28:02.000Z</time>
      </trkpt>
      <trkpt lat="43.22123" lon="6.59218">
        <ele>182.5</ele>
        <time>1970-01-01T00:28:04.000Z</time>
      </trkpt>
      <trkpt lat="43.2212" lon="6.59222">
        <ele>182.5</ele>
        <time>1970-01-01T00:28:06.000Z</time>
      </trkpt>
      <trkpt lat="43.22117" lon="6.59227">
        <ele>182.6</ele>
        <time>1970-01-01T00:28:08.000Z</time>
      </trkpt>
      <trkpt lat="43.22116" lon="6.59231">
        <ele>182.7</ele>
        <time>1970-01-01T00:28:09.000Z</time>
      </trkpt>
      <trkpt lat="43.22114" lon="6.59235">
        <ele>182.8</ele>
        <time>1970-01-01T00:28:11.000Z</time>
      </trkpt>
      <trkpt lat="43.22111" lon="6.5924">
        <ele>182.9</ele>
        <time>1970-01-01T00:28:13.000Z</time>
      </trkpt>
      <trkpt lat="43.22107" lon="6.59244">
        <ele>182.9</ele>
        <time>1970-01-01T00:28:15.000Z</time>
      </trkpt>
      <trkpt lat="43.22104" lon="6.59247">
        <ele>183</ele>
        <time>1970-01-01T00:28:17.000Z</time>
      </trkpt>
      <trkpt lat="43.221" lon="6.59249">
        <ele>183.1</ele>
        <time>1970-01-01T00:28:19.000Z</time>
      </trkpt>
      <trkpt lat="43.22096" lon="6.59251">
        <ele>183.1</ele>
        <time>1970-01-01T00:28:21.000Z</time>
      </trkpt>
      <trkpt lat="43.2209" lon="6.59252">
        <ele>183.2</ele>
        <time>1970-01-01T00:28:23.000Z</time>
      </trkpt>
      <trkpt lat="43.22086" lon="6.59254">
        <ele>183.2</ele>
        <time>1970-01-01T00:28:25.000Z</time>
      </trkpt>
      <trkpt lat="43.22083" lon="6.59256">
        <ele>183.2</ele>
        <time>1970-01-01T00:28:27.000Z</time>
      </trkpt>
      <trkpt lat="43.22079" lon="6.59258">
        <ele>183.2</ele>
        <time>1970-01-01T00:28:28.000Z</time>
      </trkpt>
      <trkpt lat="43.22077" lon="6.59259">
        <ele>183.2</ele>
        <time>1970-01-01T00:28:29.000Z</time>
      </trkpt>
      <trkpt lat="43.22074" lon="6.59261">
        <ele>183.3</ele>
        <time>1970-01-01T00:28:30.000Z</time>
      </trkpt>
      <trkpt lat="43.22071" lon="6.59263">
        <ele>183.3</ele>
        <time>1970-01-01T00:28:31.000Z</time>
      </trkpt>
      <trkpt lat="43.22068" lon="6.59266">
        <ele>183.3</ele>
        <time>1970-01-01T00:28:33.000Z</time>
      </trkpt>
      <trkpt lat="43.22064" lon="6.5927">
        <ele>183.3</ele>
        <time>1970-01-01T00:28:35.000Z</time>
      </trkpt>
      <trkpt lat="43.22061" lon="6.59273">
        <ele>183.4</ele>
        <time>1970-01-01T00:28:37.000Z</time>
      </trkpt>
      <trkpt lat="43.22058" lon="6.59276">
        <ele>183.4</ele>
        <time>1970-01-01T00:28:38.000Z</time>
      </trkpt>
      <trkpt lat="43.22054" lon="6.59281">
        <ele>183.4</ele>
        <time>1970-01-01T00:28:40.000Z</time>
      </trkpt>
      <trkpt lat="43.22052" lon="6.59284">
        <ele>183.4</ele>
        <time>1970-01-01T00:28:41.000Z</time>
      </trkpt>
      <trkpt lat="43.2205" lon="6.59288">
        <ele>183.4</ele>
        <time>1970-01-01T00:28:42.000Z</time>
      </trkpt>
      <trkpt lat="43.22047" lon="6.59293">
        <ele>183.4</ele>
        <time>1970-01-01T00:28:43.000Z</time>
      </trkpt>
      <trkpt lat="43.22044" lon="6.59297">
        <ele>183.5</ele>
        <time>1970-01-01T00:28:44.000Z</time>
      </trkpt>
      <trkpt lat="43.22041" lon="6.59301">
        <ele>183.5</ele>
        <time>1970-01-01T00:28:45.000Z</time>
      </trkpt>
      <trkpt lat="43.22039" lon="6.59305">
        <ele>183.5</ele>
        <time>1970-01-01T00:28:46.000Z</time>
      </trkpt>
      <trkpt lat="43.22037" lon="6.5931">
        <ele>183.6</ele>
        <time>1970-01-01T00:28:47.000Z</time>
      </trkpt>
      <trkpt lat="43.22034" lon="6.59314">
        <ele>183.6</ele>
        <time>1970-01-01T00:28:48.000Z</time>
      </trkpt>
      <trkpt lat="43.22032" lon="6.59319">
        <ele>183.6</ele>
        <time>1970-01-01T00:28:49.000Z</time>
      </trkpt>
      <trkpt lat="43.2203" lon="6.59324">
        <ele>183.7</ele>
        <time>1970-01-01T00:28:50.000Z</time>
      </trkpt>
      <trkpt lat="43.22029" lon="6.59329">
        <ele>183.7</ele>
        <time>1970-01-01T00:28:51.000Z</time>
      </trkpt>
      <trkpt lat="43.22029" lon="6.59334">
        <ele>183.8</ele>
        <time>1970-01-01T00:28:52.000Z</time>
      </trkpt>
      <trkpt lat="43.22029" lon="6.59339">
        <ele>183.8</ele>
        <time>1970-01-01T00:28:53.000Z</time>
      </trkpt>
      <trkpt lat="43.22029" lon="6.59345">
        <ele>183.9</ele>
        <time>1970-01-01T00:28:54.000Z</time>
      </trkpt>
      <trkpt lat="43.2203" lon="6.5935">
        <ele>183.9</ele>
        <time>1970-01-01T00:28:55.000Z</time>
      </trkpt>
      <trkpt lat="43.22031" lon="6.59357">
        <ele>184</ele>
        <time>1970-01-01T00:28:56.000Z</time>
      </trkpt>
      <trkpt lat="43.22032" lon="6.59363">
        <ele>184.1</ele>
        <time>1970-01-01T00:28:57.000Z</time>
      </trkpt>
      <trkpt lat="43.22034" lon="6.59369">
        <ele>184.1</ele>
        <time>1970-01-01T00:28:58.000Z</time>
      </trkpt>
      <trkpt lat="43.22035" lon="6.59375">
        <ele>184.2</ele>
        <time>1970-01-01T00:28:59.000Z</time>
      </trkpt>
      <trkpt lat="43.22036" lon="6.5938">
        <ele>184.3</ele>
        <time>1970-01-01T00:29:00.000Z</time>
      </trkpt>
      <trkpt lat="43.22037" lon="6.59386">
        <ele>184.6</ele>
        <time>1970-01-01T00:29:01.000Z</time>
      </trkpt>
      <trkpt lat="43.22038" lon="6.59392">
        <ele>184.9</ele>
        <time>1970-01-01T00:29:02.000Z</time>
      </trkpt>
      <trkpt lat="43.22041" lon="6.59399">
        <ele>185.3</ele>
        <time>1970-01-01T00:29:03.000Z</time>
      </trkpt>
      <trkpt lat="43.22043" lon="6.59406">
        <ele>185.9</ele>
        <time>1970-01-01T00:29:04.000Z</time>
      </trkpt>
      <trkpt lat="43.22044" lon="6.59413">
        <ele>186.5</ele>
        <time>1970-01-01T00:29:05.000Z</time>
      </trkpt>
      <trkpt lat="43.22045" lon="6.59421">
        <ele>187.1</ele>
        <time>1970-01-01T00:29:06.000Z</time>
      </trkpt>
      <trkpt lat="43.22045" lon="6.59428">
        <ele>187.7</ele>
        <time>1970-01-01T00:29:07.000Z</time>
      </trkpt>
      <trkpt lat="43.22044" lon="6.59435">
        <ele>188.3</ele>
        <time>1970-01-01T00:29:08.000Z</time>
      </trkpt>
      <trkpt lat="43.22046" lon="6.59442">
        <ele>188.8</ele>
        <time>1970-01-01T00:29:09.000Z</time>
      </trkpt>
      <trkpt lat="43.22046" lon="6.59449">
        <ele>189.4</ele>
        <time>1970-01-01T00:29:10.000Z</time>
      </trkpt>
      <trkpt lat="43.22045" lon="6.59455">
        <ele>189.8</ele>
        <time>1970-01-01T00:29:11.000Z</time>
      </trkpt>
      <trkpt lat="43.22041" lon="6.5946">
        <ele>190.4</ele>
        <time>1970-01-01T00:29:12.000Z</time>
      </trkpt>
      <trkpt lat="43.22035" lon="6.59464">
        <ele>191</ele>
        <time>1970-01-01T00:29:13.000Z</time>
      </trkpt>
      <trkpt lat="43.2203" lon="6.59464">
        <ele>191.5</ele>
        <time>1970-01-01T00:29:14.000Z</time>
      </trkpt>
      <trkpt lat="43.22026" lon="6.59463">
        <ele>191.8</ele>
        <time>1970-01-01T00:29:15.000Z</time>
      </trkpt>
      <trkpt lat="43.22023" lon="6.59462">
        <ele>192.2</ele>
        <time>1970-01-01T00:29:16.000Z</time>
      </trkpt>
      <trkpt lat="43.22019" lon="6.59462">
        <ele>192.5</ele>
        <time>1970-01-01T00:29:17.000Z</time>
      </trkpt>
      <trkpt lat="43.22015" lon="6.59462">
        <ele>192.9</ele>
        <time>1970-01-01T00:29:18.000Z</time>
      </trkpt>
      <trkpt lat="43.22012" lon="6.5946">
        <ele>193.2</ele>
        <time>1970-01-01T00:29:19.000Z</time>
      </trkpt>
      <trkpt lat="43.22008" lon="6.59459">
        <ele>193.5</ele>
        <time>1970-01-01T00:29:20.000Z</time>
      </trkpt>
      <trkpt lat="43.22006" lon="6.59458">
        <ele>193.8</ele>
        <time>1970-01-01T00:29:21.000Z</time>
      </trkpt>
      <trkpt lat="43.22003" lon="6.59457">
        <ele>194</ele>
        <time>1970-01-01T00:29:22.000Z</time>
      </trkpt>
      <trkpt lat="43.21999" lon="6.59457">
        <ele>194.3</ele>
        <time>1970-01-01T00:29:23.000Z</time>
      </trkpt>
      <trkpt lat="43.21996" lon="6.59456">
        <ele>194.7</ele>
        <time>1970-01-01T00:29:24.000Z</time>
      </trkpt>
      <trkpt lat="43.21993" lon="6.59455">
        <ele>195</ele>
        <time>1970-01-01T00:29:25.000Z</time>
      </trkpt>
      <trkpt lat="43.21989" lon="6.59453">
        <ele>195.3</ele>
        <time>1970-01-01T00:29:26.000Z</time>
      </trkpt>
      <trkpt lat="43.21986" lon="6.59453">
        <ele>195.6</ele>
        <time>1970-01-01T00:29:27.000Z</time>
      </trkpt>
      <trkpt lat="43.21982" lon="6.59454">
        <ele>195.9</ele>
        <time>1970-01-01T00:29:28.000Z</time>
      </trkpt>
      <trkpt lat="43.21978" lon="6.59455">
        <ele>196.3</ele>
        <time>1970-01-01T00:29:29.000Z</time>
      </trkpt>
      <trkpt lat="43.21975" lon="6.59456">
        <ele>196.6</ele>
        <time>1970-01-01T00:29:30.000Z</time>
      </trkpt>
      <trkpt lat="43.21972" lon="6.59458">
        <ele>197</ele>
        <time>1970-01-01T00:29:31.000Z</time>
      </trkpt>
      <trkpt lat="43.21969" lon="6.5946">
        <ele>197.3</ele>
        <time>1970-01-01T00:29:32.000Z</time>
      </trkpt>
      <trkpt lat="43.21965" lon="6.59463">
        <ele>197.7</ele>
        <time>1970-01-01T00:29:33.000Z</time>
      </trkpt>
      <trkpt lat="43.21962" lon="6.59465">
        <ele>198.1</ele>
        <time>1970-01-01T00:29:34.000Z</time>
      </trkpt>
      <trkpt lat="43.21959" lon="6.59468">
        <ele>198.5</ele>
        <time>1970-01-01T00:29:35.000Z</time>
      </trkpt>
      <trkpt lat="43.21956" lon="6.59472">
        <ele>198.8</ele>
        <time>1970-01-01T00:29:36.000Z</time>
      </trkpt>
      <trkpt lat="43.21952" lon="6.59477">
        <ele>199.3</ele>
        <time>1970-01-01T00:29:37.000Z</time>
      </trkpt>
      <trkpt lat="43.21949" lon="6.59483">
        <ele>199.8</ele>
        <time>1970-01-01T00:29:38.000Z</time>
      </trkpt>
      <trkpt lat="43.21946" lon="6.59487">
        <ele>200.1</ele>
        <time>1970-01-01T00:29:39.000Z</time>
      </trkpt>
      <trkpt lat="43.21943" lon="6.5949">
        <ele>200.4</ele>
        <time>1970-01-01T00:29:40.000Z</time>
      </trkpt>
      <trkpt lat="43.21941" lon="6.59492">
        <ele>200.7</ele>
        <time>1970-01-01T00:29:41.000Z</time>
      </trkpt>
      <trkpt lat="43.2194" lon="6.59496">
        <ele>200.9</ele>
        <time>1970-01-01T00:29:42.000Z</time>
      </trkpt>
      <trkpt lat="43.21939" lon="6.59499">
        <ele>201.1</ele>
        <time>1970-01-01T00:29:43.000Z</time>
      </trkpt>
      <trkpt lat="43.21936" lon="6.59504">
        <ele>201.4</ele>
        <time>1970-01-01T00:29:45.000Z</time>
      </trkpt>
      <trkpt lat="43.21932" lon="6.59505">
        <ele>201.8</ele>
        <time>1970-01-01T00:29:47.000Z</time>
      </trkpt>
      <trkpt lat="43.21929" lon="6.59507">
        <ele>202</ele>
        <time>1970-01-01T00:29:49.000Z</time>
      </trkpt>
      <trkpt lat="43.21927" lon="6.59511">
        <ele>202.2</ele>
        <time>1970-01-01T00:29:51.000Z</time>
      </trkpt>
      <trkpt lat="43.21923" lon="6.59513">
        <ele>202.5</ele>
        <time>1970-01-01T00:29:53.000Z</time>
      </trkpt>
      <trkpt lat="43.2192" lon="6.59515">
        <ele>202.8</ele>
        <time>1970-01-01T00:29:55.000Z</time>
      </trkpt>
      <trkpt lat="43.21918" lon="6.59519">
        <ele>203</ele>
        <time>1970-01-01T00:29:57.000Z</time>
      </trkpt>
      <trkpt lat="43.21915" lon="6.59521">
        <ele>203.3</ele>
        <time>1970-01-01T00:29:59.000Z</time>
      </trkpt>
      <trkpt lat="43.21912" lon="6.59523">
        <ele>203.5</ele>
        <time>1970-01-01T00:30:01.000Z</time>
      </trkpt>
      <trkpt lat="43.21909" lon="6.59526">
        <ele>203.8</ele>
        <time>1970-01-01T00:30:03.000Z</time>
      </trkpt>
      <trkpt lat="43.21905" lon="6.59528">
        <ele>204</ele>
        <time>1970-01-01T00:30:05.000Z</time>
      </trkpt>
      <trkpt lat="43.21902" lon="6.59531">
        <ele>204.3</ele>
        <time>1970-01-01T00:30:07.000Z</time>
      </trkpt>
      <trkpt lat="43.21898" lon="6.59535">
        <ele>204.6</ele>
        <time>1970-01-01T00:30:09.000Z</time>
      </trkpt>
      <trkpt lat="43.21896" lon="6.59538">
        <ele>204.8</ele>
        <time>1970-01-01T00:30:10.000Z</time>
      </trkpt>
      <trkpt lat="43.21892" lon="6.59542">
        <ele>205.1</ele>
        <time>1970-01-01T00:30:12.000Z</time>
      </trkpt>
      <trkpt lat="43.21888" lon="6.59546">
        <ele>205.4</ele>
        <time>1970-01-01T00:30:14.000Z</time>
      </trkpt>
      <trkpt lat="43.21884" lon="6.59551">
        <ele>205.8</ele>
        <time>1970-01-01T00:30:16.000Z</time>
      </trkpt>
      <trkpt lat="43.21882" lon="6.59553">
        <ele>206</ele>
        <time>1970-01-01T00:30:17.000Z</time>
      </trkpt>
      <trkpt lat="43.21879" lon="6.59555">
        <ele>206.2</ele>
        <time>1970-01-01T00:30:19.000Z</time>
      </trkpt>
      <trkpt lat="43.21876" lon="6.59558">
        <ele>206.4</ele>
        <time>1970-01-01T00:30:21.000Z</time>
      </trkpt>
      <trkpt lat="43.21874" lon="6.5956">
        <ele>206.6</ele>
        <time>1970-01-01T00:30:22.000Z</time>
      </trkpt>
      <trkpt lat="43.2187" lon="6.59564">
        <ele>206.9</ele>
        <time>1970-01-01T00:30:24.000Z</time>
      </trkpt>
      <trkpt lat="43.21868" lon="6.59566">
        <ele>207.1</ele>
        <time>1970-01-01T00:30:25.000Z</time>
      </trkpt>
      <trkpt lat="43.21865" lon="6.5957">
        <ele>207.4</ele>
        <time>1970-01-01T00:30:27.000Z</time>
      </trkpt>
      <trkpt lat="43.21861" lon="6.59575">
        <ele>207.8</ele>
        <time>1970-01-01T00:30:29.000Z</time>
      </trkpt>
      <trkpt lat="43.21859" lon="6.59578">
        <ele>208</ele>
        <time>1970-01-01T00:30:30.000Z</time>
      </trkpt>
      <trkpt lat="43.21857" lon="6.59581">
        <ele>208.2</ele>
        <time>1970-01-01T00:30:31.000Z</time>
      </trkpt>
      <trkpt lat="43.21854" lon="6.59586">
        <ele>208.6</ele>
        <time>1970-01-01T00:30:33.000Z</time>
      </trkpt>
      <trkpt lat="43.21853" lon="6.59589">
        <ele>208.8</ele>
        <time>1970-01-01T00:30:34.000Z</time>
      </trkpt>
      <trkpt lat="43.2185" lon="6.59595">
        <ele>209.2</ele>
        <time>1970-01-01T00:30:36.000Z</time>
      </trkpt>
      <trkpt lat="43.21848" lon="6.59602">
        <ele>209.6</ele>
        <time>1970-01-01T00:30:38.000Z</time>
      </trkpt>
      <trkpt lat="43.21847" lon="6.59605">
        <ele>209.8</ele>
        <time>1970-01-01T00:30:39.000Z</time>
      </trkpt>
      <trkpt lat="43.21846" lon="6.59609">
        <ele>210.1</ele>
        <time>1970-01-01T00:30:40.000Z</time>
      </trkpt>
      <trkpt lat="43.21844" lon="6.59615">
        <ele>210.5</ele>
        <time>1970-01-01T00:30:42.000Z</time>
      </trkpt>
      <trkpt lat="43.21843" lon="6.59621">
        <ele>210.9</ele>
        <time>1970-01-01T00:30:44.000Z</time>
      </trkpt>
      <trkpt lat="43.21842" lon="6.59629">
        <ele>211.4</ele>
        <time>1970-01-01T00:30:46.000Z</time>
      </trkpt>
      <trkpt lat="43.21841" lon="6.59633">
        <ele>211.6</ele>
        <time>1970-01-01T00:30:47.000Z</time>
      </trkpt>
      <trkpt lat="43.21839" lon="6.59636">
        <ele>211.8</ele>
        <time>1970-01-01T00:30:48.000Z</time>
      </trkpt>
      <trkpt lat="43.21838" lon="6.59643">
        <ele>212.3</ele>
        <time>1970-01-01T00:30:50.000Z</time>
      </trkpt>
      <trkpt lat="43.21837" lon="6.59647">
        <ele>212.6</ele>
        <time>1970-01-01T00:30:51.000Z</time>
      </trkpt>
      <trkpt lat="43.21836" lon="6.59652">
        <ele>212.9</ele>
        <time>1970-01-01T00:30:52.000Z</time>
      </trkpt>
      <trkpt lat="43.21835" lon="6.59657">
        <ele>213.2</ele>
        <time>1970-01-01T00:30:53.000Z</time>
      </trkpt>
      <trkpt lat="43.21834" lon="6.59662">
        <ele>213.5</ele>
        <time>1970-01-01T00:30:54.000Z</time>
      </trkpt>
      <trkpt lat="43.21834" lon="6.59666">
        <ele>213.8</ele>
        <time>1970-01-01T00:30:55.000Z</time>
      </trkpt>
      <trkpt lat="43.21833" lon="6.5967">
        <ele>214</ele>
        <time>1970-01-01T00:30:56.000Z</time>
      </trkpt>
      <trkpt lat="43.21832" lon="6.59676">
        <ele>214.4</ele>
        <time>1970-01-01T00:30:57.000Z</time>
      </trkpt>
      <trkpt lat="43.21832" lon="6.59681">
        <ele>214.7</ele>
        <time>1970-01-01T00:30:58.000Z</time>
      </trkpt>
      <trkpt lat="43.21832" lon="6.59685">
        <ele>214.9</ele>
        <time>1970-01-01T00:30:59.000Z</time>
      </trkpt>
      <trkpt lat="43.2183" lon="6.59689">
        <ele>215.2</ele>
        <time>1970-01-01T00:31:00.000Z</time>
      </trkpt>
      <trkpt lat="43.21829" lon="6.59694">
        <ele>215.5</ele>
        <time>1970-01-01T00:31:01.000Z</time>
      </trkpt>
      <trkpt lat="43.21828" lon="6.59698">
        <ele>215.8</ele>
        <time>1970-01-01T00:31:02.000Z</time>
      </trkpt>
      <trkpt lat="43.21826" lon="6.59701">
        <ele>216</ele>
        <time>1970-01-01T00:31:03.000Z</time>
      </trkpt>
      <trkpt lat="43.21825" lon="6.59705">
        <ele>216.3</ele>
        <time>1970-01-01T00:31:04.000Z</time>
      </trkpt>
      <trkpt lat="43.21824" lon="6.59709">
        <ele>216.5</ele>
        <time>1970-01-01T00:31:05.000Z</time>
      </trkpt>
      <trkpt lat="43.21824" lon="6.59713">
        <ele>216.8</ele>
        <time>1970-01-01T00:31:06.000Z</time>
      </trkpt>
      <trkpt lat="43.21822" lon="6.59719">
        <ele>217.2</ele>
        <time>1970-01-01T00:31:08.000Z</time>
      </trkpt>
      <trkpt lat="43.2182" lon="6.59722">
        <ele>217.4</ele>
        <time>1970-01-01T00:31:09.000Z</time>
      </trkpt>
      <trkpt lat="43.21818" lon="6.59724">
        <ele>217.7</ele>
        <time>1970-01-01T00:31:10.000Z</time>
      </trkpt>
      <trkpt lat="43.21816" lon="6.59727">
        <ele>217.9</ele>
        <time>1970-01-01T00:31:11.000Z</time>
      </trkpt>
      <trkpt lat="43.21813" lon="6.5973">
        <ele>218.2</ele>
        <time>1970-01-01T00:31:12.000Z</time>
      </trkpt>
      <trkpt lat="43.21811" lon="6.59733">
        <ele>218.5</ele>
        <time>1970-01-01T00:31:13.000Z</time>
      </trkpt>
      <trkpt lat="43.21808" lon="6.59735">
        <ele>218.8</ele>
        <time>1970-01-01T00:31:14.000Z</time>
      </trkpt>
      <trkpt lat="43.21807" lon="6.59739">
        <ele>219</ele>
        <time>1970-01-01T00:31:15.000Z</time>
      </trkpt>
      <trkpt lat="43.21804" lon="6.59741">
        <ele>219.4</ele>
        <time>1970-01-01T00:31:17.000Z</time>
      </trkpt>
      <trkpt lat="43.21802" lon="6.59746">
        <ele>219.7</ele>
        <time>1970-01-01T00:31:19.000Z</time>
      </trkpt>
      <trkpt lat="43.21798" lon="6.5975">
        <ele>220.2</ele>
        <time>1970-01-01T00:31:21.000Z</time>
      </trkpt>
      <trkpt lat="43.21796" lon="6.59753">
        <ele>220.4</ele>
        <time>1970-01-01T00:31:23.000Z</time>
      </trkpt>
      <trkpt lat="43.21792" lon="6.59754">
        <ele>220.8</ele>
        <time>1970-01-01T00:31:25.000Z</time>
      </trkpt>
      <trkpt lat="43.21788" lon="6.59756">
        <ele>221.1</ele>
        <time>1970-01-01T00:31:27.000Z</time>
      </trkpt>
      <trkpt lat="43.21784" lon="6.59759">
        <ele>221.6</ele>
        <time>1970-01-01T00:31:29.000Z</time>
      </trkpt>
      <trkpt lat="43.21779" lon="6.59761">
        <ele>222</ele>
        <time>1970-01-01T00:31:31.000Z</time>
      </trkpt>
      <trkpt lat="43.21776" lon="6.59765">
        <ele>222.4</ele>
        <time>1970-01-01T00:31:33.000Z</time>
      </trkpt>
      <trkpt lat="43.21772" lon="6.59768">
        <ele>222.8</ele>
        <time>1970-01-01T00:31:35.000Z</time>
      </trkpt>
      <trkpt lat="43.2177" lon="6.59771">
        <ele>223</ele>
        <time>1970-01-01T00:31:36.000Z</time>
      </trkpt>
      <trkpt lat="43.21766" lon="6.59776">
        <ele>223.5</ele>
        <time>1970-01-01T00:31:38.000Z</time>
      </trkpt>
      <trkpt lat="43.21762" lon="6.59782">
        <ele>224</ele>
        <time>1970-01-01T00:31:40.000Z</time>
      </trkpt>
      <trkpt lat="43.21762" lon="6.59786">
        <ele>224.2</ele>
        <time>1970-01-01T00:31:41.000Z</time>
      </trkpt>
      <trkpt lat="43.2176" lon="6.59791">
        <ele>224.5</ele>
        <time>1970-01-01T00:31:43.000Z</time>
      </trkpt>
      <trkpt lat="43.21759" lon="6.59795">
        <ele>224.8</ele>
        <time>1970-01-01T00:31:45.000Z</time>
      </trkpt>
      <trkpt lat="43.21758" lon="6.598">
        <ele>225.1</ele>
        <time>1970-01-01T00:31:47.000Z</time>
      </trkpt>
      <trkpt lat="43.21758" lon="6.59805">
        <ele>225.3</ele>
        <time>1970-01-01T00:31:49.000Z</time>
      </trkpt>
      <trkpt lat="43.21757" lon="6.5981">
        <ele>225.6</ele>
        <time>1970-01-01T00:31:51.000Z</time>
      </trkpt>
      <trkpt lat="43.21756" lon="6.59816">
        <ele>225.9</ele>
        <time>1970-01-01T00:31:53.000Z</time>
      </trkpt>
      <trkpt lat="43.21756" lon="6.59821">
        <ele>226.2</ele>
        <time>1970-01-01T00:31:55.000Z</time>
      </trkpt>
      <trkpt lat="43.21757" lon="6.59828">
        <ele>226.5</ele>
        <time>1970-01-01T00:31:58.000Z</time>
      </trkpt>
      <trkpt lat="43.21757" lon="6.59834">
        <ele>226.8</ele>
        <time>1970-01-01T00:32:00.000Z</time>
      </trkpt>
      <trkpt lat="43.21756" lon="6.5984">
        <ele>227</ele>
        <time>1970-01-01T00:32:02.000Z</time>
      </trkpt>
      <trkpt lat="43.21756" lon="6.59844">
        <ele>227.2</ele>
        <time>1970-01-01T00:32:03.000Z</time>
      </trkpt>
      <trkpt lat="43.21757" lon="6.5985">
        <ele>227.4</ele>
        <time>1970-01-01T00:32:05.000Z</time>
      </trkpt>
      <trkpt lat="43.21758" lon="6.59855">
        <ele>227.6</ele>
        <time>1970-01-01T00:32:07.000Z</time>
      </trkpt>
      <trkpt lat="43.2176" lon="6.5986">
        <ele>227.8</ele>
        <time>1970-01-01T00:32:09.000Z</time>
      </trkpt>
      <trkpt lat="43.21762" lon="6.59864">
        <ele>227.9</ele>
        <time>1970-01-01T00:32:11.000Z</time>
      </trkpt>
      <trkpt lat="43.21758" lon="6.59862">
        <ele>228.1</ele>
        <time>1970-01-01T00:32:19.000Z</time>
      </trkpt>
      <trkpt lat="43.21755" lon="6.59858">
        <ele>228.2</ele>
        <time>1970-01-01T00:32:21.000Z</time>
      </trkpt>
      <trkpt lat="43.21754" lon="6.59855">
        <ele>228.3</ele>
        <time>1970-01-01T00:32:23.000Z</time>
      </trkpt>
      <trkpt lat="43.21756" lon="6.59853">
        <ele>228.3</ele>
        <time>1970-01-01T00:32:26.000Z</time>
      </trkpt>
      <trkpt lat="43.21758" lon="6.59857">
        <ele>228.4</ele>
        <time>1970-01-01T00:32:27.000Z</time>
      </trkpt>
      <trkpt lat="43.21758" lon="6.59864">
        <ele>228.5</ele>
        <time>1970-01-01T00:32:29.000Z</time>
      </trkpt>
      <trkpt lat="43.2176" lon="6.59868">
        <ele>228.5</ele>
        <time>1970-01-01T00:32:31.000Z</time>
      </trkpt>
      <trkpt lat="43.21763" lon="6.59869">
        <ele>228.6</ele>
        <time>1970-01-01T00:32:33.000Z</time>
      </trkpt>
      <trkpt lat="43.21766" lon="6.59872">
        <ele>228.7</ele>
        <time>1970-01-01T00:32:35.000Z</time>
      </trkpt>
      <trkpt lat="43.2177" lon="6.59875">
        <ele>228.7</ele>
        <time>1970-01-01T00:32:38.000Z</time>
      </trkpt>
      <trkpt lat="43.21773" lon="6.59878">
        <ele>228.8</ele>
        <time>1970-01-01T00:32:40.000Z</time>
      </trkpt>
      <trkpt lat="43.21777" lon="6.59882">
        <ele>229</ele>
        <time>1970-01-01T00:32:42.000Z</time>
      </trkpt>
      <trkpt lat="43.21779" lon="6.59884">
        <ele>229.2</ele>
        <time>1970-01-01T00:32:43.000Z</time>
      </trkpt>
      <trkpt lat="43.21783" lon="6.59888">
        <ele>229.5</ele>
        <time>1970-01-01T00:32:45.000Z</time>
      </trkpt>
      <trkpt lat="43.21786" lon="6.59892">
        <ele>229.8</ele>
        <time>1970-01-01T00:32:47.000Z</time>
      </trkpt>
      <trkpt lat="43.2179" lon="6.59893">
        <ele>230.1</ele>
        <time>1970-01-01T00:32:49.000Z</time>
      </trkpt>
      <trkpt lat="43.21791" lon="6.59896">
        <ele>230.3</ele>
        <time>1970-01-01T00:32:52.000Z</time>
      </trkpt>
      <trkpt lat="43.21792" lon="6.59902">
        <ele>230.7</ele>
        <time>1970-01-01T00:32:55.000Z</time>
      </trkpt>
      <trkpt lat="43.21792" lon="6.59908">
        <ele>231.2</ele>
        <time>1970-01-01T00:32:57.000Z</time>
      </trkpt>
      <trkpt lat="43.21792" lon="6.59912">
        <ele>231.4</ele>
        <time>1970-01-01T00:32:58.000Z</time>
      </trkpt>
      <trkpt lat="43.21791" lon="6.59915">
        <ele>231.7</ele>
        <time>1970-01-01T00:32:59.000Z</time>
      </trkpt>
      <trkpt lat="43.2179" lon="6.59919">
        <ele>232</ele>
        <time>1970-01-01T00:33:00.000Z</time>
      </trkpt>
      <trkpt lat="43.21787" lon="6.59926">
        <ele>232.6</ele>
        <time>1970-01-01T00:33:02.000Z</time>
      </trkpt>
      <trkpt lat="43.21785" lon="6.5993">
        <ele>232.9</ele>
        <time>1970-01-01T00:33:03.000Z</time>
      </trkpt>
      <trkpt lat="43.21783" lon="6.59933">
        <ele>233.2</ele>
        <time>1970-01-01T00:33:04.000Z</time>
      </trkpt>
      <trkpt lat="43.2178" lon="6.59939">
        <ele>233.6</ele>
        <time>1970-01-01T00:33:06.000Z</time>
      </trkpt>
      <trkpt lat="43.21778" lon="6.59943">
        <ele>233.8</ele>
        <time>1970-01-01T00:33:07.000Z</time>
      </trkpt>
      <trkpt lat="43.21776" lon="6.59946">
        <ele>234</ele>
        <time>1970-01-01T00:33:08.000Z</time>
      </trkpt>
      <trkpt lat="43.21773" lon="6.5995">
        <ele>234.3</ele>
        <time>1970-01-01T00:33:10.000Z</time>
      </trkpt>
      <trkpt lat="43.21772" lon="6.59953">
        <ele>234.4</ele>
        <time>1970-01-01T00:33:42.000Z</time>
      </trkpt>
      <trkpt lat="43.21769" lon="6.59956">
        <ele>234.6</ele>
        <time>1970-01-01T00:33:53.000Z</time>
      </trkpt>
      <trkpt lat="43.21765" lon="6.59961">
        <ele>234.8</ele>
        <time>1970-01-01T00:33:55.000Z</time>
      </trkpt>
      <trkpt lat="43.21762" lon="6.59966">
        <ele>235.1</ele>
        <time>1970-01-01T00:33:57.000Z</time>
      </trkpt>
      <trkpt lat="43.21759" lon="6.59971">
        <ele>235.2</ele>
        <time>1970-01-01T00:33:59.000Z</time>
      </trkpt>
      <trkpt lat="43.21755" lon="6.59973">
        <ele>235.4</ele>
        <time>1970-01-01T00:34:01.000Z</time>
      </trkpt>
      <trkpt lat="43.21751" lon="6.59978">
        <ele>235.6</ele>
        <time>1970-01-01T00:34:03.000Z</time>
      </trkpt>
      <trkpt lat="43.21748" lon="6.59981">
        <ele>235.6</ele>
        <time>1970-01-01T00:34:05.000Z</time>
      </trkpt>
      <trkpt lat="43.21745" lon="6.59986">
        <ele>235.7</ele>
        <time>1970-01-01T00:34:07.000Z</time>
      </trkpt>
      <trkpt lat="43.21743" lon="6.59989">
        <ele>235.8</ele>
        <time>1970-01-01T00:34:08.000Z</time>
      </trkpt>
      <trkpt lat="43.21738" lon="6.59993">
        <ele>235.8</ele>
        <time>1970-01-01T00:34:10.000Z</time>
      </trkpt>
      <trkpt lat="43.21734" lon="6.59998">
        <ele>235.9</ele>
        <time>1970-01-01T00:34:12.000Z</time>
      </trkpt>
      <trkpt lat="43.21731" lon="6.60003">
        <ele>236</ele>
        <time>1970-01-01T00:34:14.000Z</time>
      </trkpt>
      <trkpt lat="43.21727" lon="6.60008">
        <ele>236</ele>
        <time>1970-01-01T00:34:16.000Z</time>
      </trkpt>
      <trkpt lat="43.21723" lon="6.60013">
        <ele>236.1</ele>
        <time>1970-01-01T00:34:18.000Z</time>
      </trkpt>
      <trkpt lat="43.21719" lon="6.60017">
        <ele>236.1</ele>
        <time>1970-01-01T00:34:20.000Z</time>
      </trkpt>
      <trkpt lat="43.21716" lon="6.60022">
        <ele>236.2</ele>
        <time>1970-01-01T00:34:22.000Z</time>
      </trkpt>
      <trkpt lat="43.21713" lon="6.60025">
        <ele>236.2</ele>
        <time>1970-01-01T00:34:23.000Z</time>
      </trkpt>
      <trkpt lat="43.21709" lon="6.6003">
        <ele>236.2</ele>
        <time>1970-01-01T00:34:25.000Z</time>
      </trkpt>
      <trkpt lat="43.21707" lon="6.60032">
        <ele>236.2</ele>
        <time>1970-01-01T00:34:26.000Z</time>
      </trkpt>
      <trkpt lat="43.21705" lon="6.60035">
        <ele>236.3</ele>
        <time>1970-01-01T00:34:27.000Z</time>
      </trkpt>
      <trkpt lat="43.21703" lon="6.60038">
        <ele>236.3</ele>
        <time>1970-01-01T00:34:28.000Z</time>
      </trkpt>
      <trkpt lat="43.21701" lon="6.60041">
        <ele>236.3</ele>
        <time>1970-01-01T00:34:29.000Z</time>
      </trkpt>
      <trkpt lat="43.21699" lon="6.60044">
        <ele>236.3</ele>
        <time>1970-01-01T00:34:30.000Z</time>
      </trkpt>
      <trkpt lat="43.21697" lon="6.60047">
        <ele>236.3</ele>
        <time>1970-01-01T00:34:31.000Z</time>
      </trkpt>
      <trkpt lat="43.21695" lon="6.60049">
        <ele>236.3</ele>
        <time>1970-01-01T00:34:32.000Z</time>
      </trkpt>
      <trkpt lat="43.21693" lon="6.60052">
        <ele>236.4</ele>
        <time>1970-01-01T00:34:33.000Z</time>
      </trkpt>
      <trkpt lat="43.2169" lon="6.60055">
        <ele>236.4</ele>
        <time>1970-01-01T00:34:34.000Z</time>
      </trkpt>
      <trkpt lat="43.21688" lon="6.60057">
        <ele>236.4</ele>
        <time>1970-01-01T00:34:35.000Z</time>
      </trkpt>
      <trkpt lat="43.21684" lon="6.60062">
        <ele>236.5</ele>
        <time>1970-01-01T00:34:37.000Z</time>
      </trkpt>
      <trkpt lat="43.21683" lon="6.60066">
        <ele>236.5</ele>
        <time>1970-01-01T00:34:38.000Z</time>
      </trkpt>
      <trkpt lat="43.21682" lon="6.60069">
        <ele>236.5</ele>
        <time>1970-01-01T00:34:39.000Z</time>
      </trkpt>
      <trkpt lat="43.2168" lon="6.60073">
        <ele>236.5</ele>
        <time>1970-01-01T00:34:40.000Z</time>
      </trkpt>
      <trkpt lat="43.21678" lon="6.60076">
        <ele>236.6</ele>
        <time>1970-01-01T00:34:41.000Z</time>
      </trkpt>
      <trkpt lat="43.21676" lon="6.60079">
        <ele>236.6</ele>
        <time>1970-01-01T00:34:42.000Z</time>
      </trkpt>
      <trkpt lat="43.21674" lon="6.60082">
        <ele>236.7</ele>
        <time>1970-01-01T00:34:43.000Z</time>
      </trkpt>
      <trkpt lat="43.21672" lon="6.60084">
        <ele>236.7</ele>
        <time>1970-01-01T00:34:44.000Z</time>
      </trkpt>
      <trkpt lat="43.21669" lon="6.60086">
        <ele>236.7</ele>
        <time>1970-01-01T00:34:45.000Z</time>
      </trkpt>
      <trkpt lat="43.21667" lon="6.60089">
        <ele>236.8</ele>
        <time>1970-01-01T00:34:46.000Z</time>
      </trkpt>
      <trkpt lat="43.21664" lon="6.60091">
        <ele>236.8</ele>
        <time>1970-01-01T00:34:47.000Z</time>
      </trkpt>
      <trkpt lat="43.21661" lon="6.60094">
        <ele>236.9</ele>
        <time>1970-01-01T00:34:48.000Z</time>
      </trkpt>
      <trkpt lat="43.21657" lon="6.60097">
        <ele>237</ele>
        <time>1970-01-01T00:34:50.000Z</time>
      </trkpt>
      <trkpt lat="43.21655" lon="6.601">
        <ele>237.1</ele>
        <time>1970-01-01T00:34:52.000Z</time>
      </trkpt>
      <trkpt lat="43.21651" lon="6.60104">
        <ele>237.3</ele>
        <time>1970-01-01T00:34:54.000Z</time>
      </trkpt>
      <trkpt lat="43.21649" lon="6.60106">
        <ele>237.3</ele>
        <time>1970-01-01T00:34:55.000Z</time>
      </trkpt>
      <trkpt lat="43.21646" lon="6.60108">
        <ele>237.4</ele>
        <time>1970-01-01T00:34:56.000Z</time>
      </trkpt>
      <trkpt lat="43.21643" lon="6.60111">
        <ele>237.7</ele>
        <time>1970-01-01T00:34:57.000Z</time>
      </trkpt>
      <trkpt lat="43.2164" lon="6.60114">
        <ele>237.9</ele>
        <time>1970-01-01T00:34:58.000Z</time>
      </trkpt>
      <trkpt lat="43.21637" lon="6.60117">
        <ele>238.1</ele>
        <time>1970-01-01T00:34:59.000Z</time>
      </trkpt>
      <trkpt lat="43.21634" lon="6.60121">
        <ele>238.4</ele>
        <time>1970-01-01T00:35:00.000Z</time>
      </trkpt>
      <trkpt lat="43.21631" lon="6.60125">
        <ele>238.8</ele>
        <time>1970-01-01T00:35:01.000Z</time>
      </trkpt>
      <trkpt lat="43.21627" lon="6.6013">
        <ele>239.3</ele>
        <time>1970-01-01T00:35:02.000Z</time>
      </trkpt>
      <trkpt lat="43.21623" lon="6.60135">
        <ele>239.9</ele>
        <time>1970-01-01T00:35:03.000Z</time>
      </trkpt>
      <trkpt lat="43.2162" lon="6.6014">
        <ele>240.3</ele>
        <time>1970-01-01T00:35:04.000Z</time>
      </trkpt>
      <trkpt lat="43.21616" lon="6.60145">
        <ele>240.9</ele>
        <time>1970-01-01T00:35:05.000Z</time>
      </trkpt>
      <trkpt lat="43.21611" lon="6.6015">
        <ele>241.6</ele>
        <time>1970-01-01T00:35:06.000Z</time>
      </trkpt>
      <trkpt lat="43.21607" lon="6.60155">
        <ele>242.2</ele>
        <time>1970-01-01T00:35:07.000Z</time>
      </trkpt>
      <trkpt lat="43.21604" lon="6.60158">
        <ele>242.7</ele>
        <time>1970-01-01T00:35:08.000Z</time>
      </trkpt>
      <trkpt lat="43.21601" lon="6.60161">
        <ele>243.1</ele>
        <time>1970-01-01T00:35:09.000Z</time>
      </trkpt>
      <trkpt lat="43.21597" lon="6.60164">
        <ele>243.6</ele>
        <time>1970-01-01T00:35:10.000Z</time>
      </trkpt>
      <trkpt lat="43.21594" lon="6.60168">
        <ele>244.1</ele>
        <time>1970-01-01T00:35:11.000Z</time>
      </trkpt>
      <trkpt lat="43.21591" lon="6.60171">
        <ele>244.6</ele>
        <time>1970-01-01T00:35:12.000Z</time>
      </trkpt>
      <trkpt lat="43.21586" lon="6.60174">
        <ele>245.2</ele>
        <time>1970-01-01T00:35:13.000Z</time>
      </trkpt>
      <trkpt lat="43.21582" lon="6.60177">
        <ele>245.7</ele>
        <time>1970-01-01T00:35:14.000Z</time>
      </trkpt>
      <trkpt lat="43.21579" lon="6.60182">
        <ele>246.3</ele>
        <time>1970-01-01T00:35:15.000Z</time>
      </trkpt>
      <trkpt lat="43.21576" lon="6.60186">
        <ele>246.9</ele>
        <time>1970-01-01T00:35:16.000Z</time>
      </trkpt>
      <trkpt lat="43.21573" lon="6.6019">
        <ele>247.3</ele>
        <time>1970-01-01T00:35:17.000Z</time>
      </trkpt>
      <trkpt lat="43.21572" lon="6.60194">
        <ele>247.7</ele>
        <time>1970-01-01T00:35:18.000Z</time>
      </trkpt>
      <trkpt lat="43.21569" lon="6.602">
        <ele>248.3</ele>
        <time>1970-01-01T00:35:20.000Z</time>
      </trkpt>
      <trkpt lat="43.21568" lon="6.60204">
        <ele>248.6</ele>
        <time>1970-01-01T00:35:21.000Z</time>
      </trkpt>
      <trkpt lat="43.21567" lon="6.60208">
        <ele>249</ele>
        <time>1970-01-01T00:35:22.000Z</time>
      </trkpt>
      <trkpt lat="43.21566" lon="6.60212">
        <ele>249.3</ele>
        <time>1970-01-01T00:35:23.000Z</time>
      </trkpt>
      <trkpt lat="43.21566" lon="6.60219">
        <ele>249.8</ele>
        <time>1970-01-01T00:35:25.000Z</time>
      </trkpt>
      <trkpt lat="43.21565" lon="6.60224">
        <ele>250.2</ele>
        <time>1970-01-01T00:35:26.000Z</time>
      </trkpt>
      <trkpt lat="43.21563" lon="6.60231">
        <ele>250.7</ele>
        <time>1970-01-01T00:35:28.000Z</time>
      </trkpt>
      <trkpt lat="43.21563" lon="6.60237">
        <ele>251.2</ele>
        <time>1970-01-01T00:35:30.000Z</time>
      </trkpt>
      <trkpt lat="43.21561" lon="6.60244">
        <ele>251.7</ele>
        <time>1970-01-01T00:35:32.000Z</time>
      </trkpt>
      <trkpt lat="43.21561" lon="6.60249">
        <ele>252</ele>
        <time>1970-01-01T00:35:33.000Z</time>
      </trkpt>
      <trkpt lat="43.21561" lon="6.60254">
        <ele>252.3</ele>
        <time>1970-01-01T00:35:34.000Z</time>
      </trkpt>
      <trkpt lat="43.2156" lon="6.60258">
        <ele>252.5</ele>
        <time>1970-01-01T00:35:35.000Z</time>
      </trkpt>
      <trkpt lat="43.2156" lon="6.60262">
        <ele>252.8</ele>
        <time>1970-01-01T00:35:36.000Z</time>
      </trkpt>
      <trkpt lat="43.2156" lon="6.60269">
        <ele>253.2</ele>
        <time>1970-01-01T00:35:38.000Z</time>
      </trkpt>
      <trkpt lat="43.21561" lon="6.60272">
        <ele>253.4</ele>
        <time>1970-01-01T00:35:39.000Z</time>
      </trkpt>
      <trkpt lat="43.21562" lon="6.60277">
        <ele>253.6</ele>
        <time>1970-01-01T00:35:40.000Z</time>
      </trkpt>
      <trkpt lat="43.21562" lon="6.60281">
        <ele>253.8</ele>
        <time>1970-01-01T00:35:41.000Z</time>
      </trkpt>
      <trkpt lat="43.21562" lon="6.60285">
        <ele>254</ele>
        <time>1970-01-01T00:35:42.000Z</time>
      </trkpt>
      <trkpt lat="43.21559" lon="6.60292">
        <ele>254.4</ele>
        <time>1970-01-01T00:35:44.000Z</time>
      </trkpt>
      <trkpt lat="43.21558" lon="6.60296">
        <ele>254.6</ele>
        <time>1970-01-01T00:35:45.000Z</time>
      </trkpt>
      <trkpt lat="43.21557" lon="6.60299">
        <ele>254.8</ele>
        <time>1970-01-01T00:35:46.000Z</time>
      </trkpt>
      <trkpt lat="43.21556" lon="6.60303">
        <ele>255</ele>
        <time>1970-01-01T00:35:47.000Z</time>
      </trkpt>
      <trkpt lat="43.21555" lon="6.60307">
        <ele>255.2</ele>
        <time>1970-01-01T00:35:48.000Z</time>
      </trkpt>
      <trkpt lat="43.21553" lon="6.60312">
        <ele>255.5</ele>
        <time>1970-01-01T00:35:50.000Z</time>
      </trkpt>
      <trkpt lat="43.21552" lon="6.60315">
        <ele>255.7</ele>
        <time>1970-01-01T00:35:51.000Z</time>
      </trkpt>
      <trkpt lat="43.21551" lon="6.60319">
        <ele>255.8</ele>
        <time>1970-01-01T00:35:52.000Z</time>
      </trkpt>
      <trkpt lat="43.21549" lon="6.60322">
        <ele>256</ele>
        <time>1970-01-01T00:35:53.000Z</time>
      </trkpt>
      <trkpt lat="43.21548" lon="6.60326">
        <ele>256.2</ele>
        <time>1970-01-01T00:35:54.000Z</time>
      </trkpt>
      <trkpt lat="43.21546" lon="6.60329">
        <ele>256.4</ele>
        <time>1970-01-01T00:35:55.000Z</time>
      </trkpt>
      <trkpt lat="43.21545" lon="6.60333">
        <ele>256.5</ele>
        <time>1970-01-01T00:35:56.000Z</time>
      </trkpt>
      <trkpt lat="43.21543" lon="6.60336">
        <ele>256.7</ele>
        <time>1970-01-01T00:35:57.000Z</time>
      </trkpt>
      <trkpt lat="43.21541" lon="6.6034">
        <ele>256.8</ele>
        <time>1970-01-01T00:35:58.000Z</time>
      </trkpt>
      <trkpt lat="43.21539" lon="6.60347">
        <ele>257.1</ele>
        <time>1970-01-01T00:36:00.000Z</time>
      </trkpt>
      <trkpt lat="43.21537" lon="6.60351">
        <ele>257.3</ele>
        <time>1970-01-01T00:36:01.000Z</time>
      </trkpt>
      <trkpt lat="43.21536" lon="6.60354">
        <ele>257.4</ele>
        <time>1970-01-01T00:36:02.000Z</time>
      </trkpt>
      <trkpt lat="43.21533" lon="6.6036">
        <ele>257.7</ele>
        <time>1970-01-01T00:36:04.000Z</time>
      </trkpt>
      <trkpt lat="43.21532" lon="6.60364">
        <ele>257.8</ele>
        <time>1970-01-01T00:36:05.000Z</time>
      </trkpt>
      <trkpt lat="43.2153" lon="6.60368">
        <ele>258</ele>
        <time>1970-01-01T00:36:06.000Z</time>
      </trkpt>
      <trkpt lat="43.21529" lon="6.60372">
        <ele>258.1</ele>
        <time>1970-01-01T00:36:07.000Z</time>
      </trkpt>
      <trkpt lat="43.21527" lon="6.60375">
        <ele>258.2</ele>
        <time>1970-01-01T00:36:08.000Z</time>
      </trkpt>
      <trkpt lat="43.21526" lon="6.60378">
        <ele>258.4</ele>
        <time>1970-01-01T00:36:09.000Z</time>
      </trkpt>
      <trkpt lat="43.21524" lon="6.60384">
        <ele>258.6</ele>
        <time>1970-01-01T00:36:11.000Z</time>
      </trkpt>
      <trkpt lat="43.2152" lon="6.60388">
        <ele>258.8</ele>
        <time>1970-01-01T00:36:13.000Z</time>
      </trkpt>
      <trkpt lat="43.21518" lon="6.60391">
        <ele>258.9</ele>
        <time>1970-01-01T00:36:14.000Z</time>
      </trkpt>
      <trkpt lat="43.21515" lon="6.60393">
        <ele>259</ele>
        <time>1970-01-01T00:36:15.000Z</time>
      </trkpt>
      <trkpt lat="43.21511" lon="6.60397">
        <ele>259.1</ele>
        <time>1970-01-01T00:36:17.000Z</time>
      </trkpt>
      <trkpt lat="43.21509" lon="6.60399">
        <ele>259.2</ele>
        <time>1970-01-01T00:36:18.000Z</time>
      </trkpt>
      <trkpt lat="43.21504" lon="6.60403">
        <ele>259.5</ele>
        <time>1970-01-01T00:36:20.000Z</time>
      </trkpt>
      <trkpt lat="43.21501" lon="6.60405">
        <ele>259.6</ele>
        <time>1970-01-01T00:36:21.000Z</time>
      </trkpt>
      <trkpt lat="43.21499" lon="6.60409">
        <ele>259.8</ele>
        <time>1970-01-01T00:36:22.000Z</time>
      </trkpt>
      <trkpt lat="43.21497" lon="6.60412">
        <ele>260</ele>
        <time>1970-01-01T00:36:23.000Z</time>
      </trkpt>
      <trkpt lat="43.21495" lon="6.60414">
        <ele>260.1</ele>
        <time>1970-01-01T00:36:24.000Z</time>
      </trkpt>
      <trkpt lat="43.21492" lon="6.60417">
        <ele>260.3</ele>
        <time>1970-01-01T00:36:25.000Z</time>
      </trkpt>
      <trkpt lat="43.21489" lon="6.60419">
        <ele>260.5</ele>
        <time>1970-01-01T00:36:26.000Z</time>
      </trkpt>
      <trkpt lat="43.21486" lon="6.60423">
        <ele>260.7</ele>
        <time>1970-01-01T00:36:28.000Z</time>
      </trkpt>
      <trkpt lat="43.21483" lon="6.60429">
        <ele>260.9</ele>
        <time>1970-01-01T00:36:30.000Z</time>
      </trkpt>
      <trkpt lat="43.21481" lon="6.60431">
        <ele>261</ele>
        <time>1970-01-01T00:36:31.000Z</time>
      </trkpt>
      <trkpt lat="43.21479" lon="6.60434">
        <ele>261.1</ele>
        <time>1970-01-01T00:36:32.000Z</time>
      </trkpt>
      <trkpt lat="43.21477" lon="6.60437">
        <ele>261.1</ele>
        <time>1970-01-01T00:36:33.000Z</time>
      </trkpt>
      <trkpt lat="43.21474" lon="6.6044">
        <ele>261.2</ele>
        <time>1970-01-01T00:36:34.000Z</time>
      </trkpt>
      <trkpt lat="43.21472" lon="6.60444">
        <ele>261.2</ele>
        <time>1970-01-01T00:36:35.000Z</time>
      </trkpt>
      <trkpt lat="43.2147" lon="6.60447">
        <ele>261.3</ele>
        <time>1970-01-01T00:36:36.000Z</time>
      </trkpt>
      <trkpt lat="43.21469" lon="6.6045">
        <ele>261.3</ele>
        <time>1970-01-01T00:36:37.000Z</time>
      </trkpt>
      <trkpt lat="43.21466" lon="6.60453">
        <ele>261.3</ele>
        <time>1970-01-01T00:36:38.000Z</time>
      </trkpt>
      <trkpt lat="43.21464" lon="6.60456">
        <ele>261.4</ele>
        <time>1970-01-01T00:36:39.000Z</time>
      </trkpt>
      <trkpt lat="43.21462" lon="6.60458">
        <ele>261.4</ele>
        <time>1970-01-01T00:36:40.000Z</time>
      </trkpt>
      <trkpt lat="43.21459" lon="6.60461">
        <ele>261.4</ele>
        <time>1970-01-01T00:36:41.000Z</time>
      </trkpt>
      <trkpt lat="43.21457" lon="6.60463">
        <ele>261.5</ele>
        <time>1970-01-01T00:36:42.000Z</time>
      </trkpt>
      <trkpt lat="43.21454" lon="6.60465">
        <ele>261.5</ele>
        <time>1970-01-01T00:36:43.000Z</time>
      </trkpt>
      <trkpt lat="43.21452" lon="6.60468">
        <ele>261.6</ele>
        <time>1970-01-01T00:36:44.000Z</time>
      </trkpt>
      <trkpt lat="43.21449" lon="6.60469">
        <ele>261.6</ele>
        <time>1970-01-01T00:36:45.000Z</time>
      </trkpt>
      <trkpt lat="43.21446" lon="6.60471">
        <ele>261.7</ele>
        <time>1970-01-01T00:36:46.000Z</time>
      </trkpt>
      <trkpt lat="43.21444" lon="6.60473">
        <ele>261.7</ele>
        <time>1970-01-01T00:36:47.000Z</time>
      </trkpt>
      <trkpt lat="43.21438" lon="6.60476">
        <ele>261.7</ele>
        <time>1970-01-01T00:36:49.000Z</time>
      </trkpt>
      <trkpt lat="43.21435" lon="6.60477">
        <ele>261.7</ele>
        <time>1970-01-01T00:36:50.000Z</time>
      </trkpt>
      <trkpt lat="43.21432" lon="6.60478">
        <ele>261.7</ele>
        <time>1970-01-01T00:36:51.000Z</time>
      </trkpt>
      <trkpt lat="43.21429" lon="6.6048">
        <ele>261.7</ele>
        <time>1970-01-01T00:36:52.000Z</time>
      </trkpt>
      <trkpt lat="43.21424" lon="6.60482">
        <ele>261.8</ele>
        <time>1970-01-01T00:36:54.000Z</time>
      </trkpt>
      <trkpt lat="43.21421" lon="6.60483">
        <ele>261.8</ele>
        <time>1970-01-01T00:36:55.000Z</time>
      </trkpt>
      <trkpt lat="43.21418" lon="6.60484">
        <ele>261.8</ele>
        <time>1970-01-01T00:36:56.000Z</time>
      </trkpt>
      <trkpt lat="43.21414" lon="6.60484">
        <ele>261.8</ele>
        <time>1970-01-01T00:36:57.000Z</time>
      </trkpt>
      <trkpt lat="43.21411" lon="6.60486">
        <ele>261.8</ele>
        <time>1970-01-01T00:36:58.000Z</time>
      </trkpt>
      <trkpt lat="43.21408" lon="6.60488">
        <ele>261.8</ele>
        <time>1970-01-01T00:36:59.000Z</time>
      </trkpt>
      <trkpt lat="43.21405" lon="6.6049">
        <ele>261.8</ele>
        <time>1970-01-01T00:37:00.000Z</time>
      </trkpt>
      <trkpt lat="43.21401" lon="6.60492">
        <ele>261.8</ele>
        <time>1970-01-01T00:37:01.000Z</time>
      </trkpt>
      <trkpt lat="43.21398" lon="6.60493">
        <ele>261.8</ele>
        <time>1970-01-01T00:37:02.000Z</time>
      </trkpt>
      <trkpt lat="43.21395" lon="6.60495">
        <ele>261.8</ele>
        <time>1970-01-01T00:37:03.000Z</time>
      </trkpt>
      <trkpt lat="43.21391" lon="6.60497">
        <ele>261.8</ele>
        <time>1970-01-01T00:37:04.000Z</time>
      </trkpt>
      <trkpt lat="43.21388" lon="6.60499">
        <ele>261.9</ele>
        <time>1970-01-01T00:37:05.000Z</time>
      </trkpt>
      <trkpt lat="43.21385" lon="6.605">
        <ele>261.9</ele>
        <time>1970-01-01T00:37:06.000Z</time>
      </trkpt>
      <trkpt lat="43.21382" lon="6.60501">
        <ele>261.9</ele>
        <time>1970-01-01T00:37:07.000Z</time>
      </trkpt>
      <trkpt lat="43.21379" lon="6.60503">
        <ele>261.9</ele>
        <time>1970-01-01T00:37:08.000Z</time>
      </trkpt>
      <trkpt lat="43.21376" lon="6.60505">
        <ele>261.9</ele>
        <time>1970-01-01T00:37:09.000Z</time>
      </trkpt>
      <trkpt lat="43.21372" lon="6.60508">
        <ele>261.9</ele>
        <time>1970-01-01T00:37:11.000Z</time>
      </trkpt>
      <trkpt lat="43.21369" lon="6.6051">
        <ele>261.9</ele>
        <time>1970-01-01T00:37:13.000Z</time>
      </trkpt>
      <trkpt lat="43.21365" lon="6.60509">
        <ele>262</ele>
        <time>1970-01-01T00:40:11.000Z</time>
      </trkpt>
      <trkpt lat="43.21367" lon="6.60505">
        <ele>262</ele>
        <time>1970-01-01T00:40:14.000Z</time>
      </trkpt>
      <trkpt lat="43.21372" lon="6.60509">
        <ele>261.4</ele>
        <time>1970-01-01T00:40:16.000Z</time>
      </trkpt>
      <trkpt lat="43.21368" lon="6.60511">
        <ele>260.9</ele>
        <time>1970-01-01T00:40:19.000Z</time>
      </trkpt>
      <trkpt lat="43.21365" lon="6.60509">
        <ele>260.4</ele>
        <time>1970-01-01T00:40:20.000Z</time>
      </trkpt>
      <trkpt lat="43.2136" lon="6.60505">
        <ele>259.8</ele>
        <time>1970-01-01T00:40:22.000Z</time>
      </trkpt>
      <trkpt lat="43.21355" lon="6.605">
        <ele>259.2</ele>
        <time>1970-01-01T00:40:23.000Z</time>
      </trkpt>
      <trkpt lat="43.2135" lon="6.60495">
        <ele>258.9</ele>
        <time>1970-01-01T00:40:24.000Z</time>
      </trkpt>
      <trkpt lat="43.21346" lon="6.60491">
        <ele>258.5</ele>
        <time>1970-01-01T00:40:25.000Z</time>
      </trkpt>
      <trkpt lat="43.2134" lon="6.60487">
        <ele>258</ele>
        <time>1970-01-01T00:40:26.000Z</time>
      </trkpt>
      <trkpt lat="43.21332" lon="6.60491">
        <ele>257.2</ele>
        <time>1970-01-01T00:40:27.000Z</time>
      </trkpt>
      <trkpt lat="43.21323" lon="6.60497">
        <ele>256.3</ele>
        <time>1970-01-01T00:40:28.000Z</time>
      </trkpt>
      <trkpt lat="43.21315" lon="6.60506">
        <ele>255.7</ele>
        <time>1970-01-01T00:40:29.000Z</time>
      </trkpt>
      <trkpt lat="43.21306" lon="6.60513">
        <ele>255.2</ele>
        <time>1970-01-01T00:40:30.000Z</time>
      </trkpt>
      <trkpt lat="43.21297" lon="6.60514">
        <ele>254.8</ele>
        <time>1970-01-01T00:40:31.000Z</time>
      </trkpt>
      <trkpt lat="43.21286" lon="6.60512">
        <ele>254</ele>
        <time>1970-01-01T00:40:32.000Z</time>
      </trkpt>
      <trkpt lat="43.21276" lon="6.60512">
        <ele>252.9</ele>
        <time>1970-01-01T00:40:33.000Z</time>
      </trkpt>
      <trkpt lat="43.21266" lon="6.60512">
        <ele>251.7</ele>
        <time>1970-01-01T00:40:34.000Z</time>
      </trkpt>
      <trkpt lat="43.21255" lon="6.60512">
        <ele>250.6</ele>
        <time>1970-01-01T00:40:35.000Z</time>
      </trkpt>
      <trkpt lat="43.21245" lon="6.60515">
        <ele>249.5</ele>
        <time>1970-01-01T00:40:36.000Z</time>
      </trkpt>
      <trkpt lat="43.21237" lon="6.6052">
        <ele>248.5</ele>
        <time>1970-01-01T00:40:37.000Z</time>
      </trkpt>
      <trkpt lat="43.2123" lon="6.60527">
        <ele>247.7</ele>
        <time>1970-01-01T00:40:38.000Z</time>
      </trkpt>
      <trkpt lat="43.21225" lon="6.60535">
        <ele>247.2</ele>
        <time>1970-01-01T00:40:39.000Z</time>
      </trkpt>
      <trkpt lat="43.21222" lon="6.60545">
        <ele>246.9</ele>
        <time>1970-01-01T00:40:40.000Z</time>
      </trkpt>
      <trkpt lat="43.21218" lon="6.60556">
        <ele>246.6</ele>
        <time>1970-01-01T00:40:41.000Z</time>
      </trkpt>
      <trkpt lat="43.21212" lon="6.60566">
        <ele>246.3</ele>
        <time>1970-01-01T00:40:42.000Z</time>
      </trkpt>
      <trkpt lat="43.21206" lon="6.60575">
        <ele>246.1</ele>
        <time>1970-01-01T00:40:43.000Z</time>
      </trkpt>
      <trkpt lat="43.21199" lon="6.60584">
        <ele>245.9</ele>
        <time>1970-01-01T00:40:44.000Z</time>
      </trkpt>
      <trkpt lat="43.21191" lon="6.60592">
        <ele>245.8</ele>
        <time>1970-01-01T00:40:45.000Z</time>
      </trkpt>
      <trkpt lat="43.21184" lon="6.60601">
        <ele>245.6</ele>
        <time>1970-01-01T00:40:46.000Z</time>
      </trkpt>
      <trkpt lat="43.21176" lon="6.6061">
        <ele>245.5</ele>
        <time>1970-01-01T00:40:47.000Z</time>
      </trkpt>
      <trkpt lat="43.21167" lon="6.60617">
        <ele>245.4</ele>
        <time>1970-01-01T00:40:48.000Z</time>
      </trkpt>
      <trkpt lat="43.21158" lon="6.60619">
        <ele>245.3</ele>
        <time>1970-01-01T00:40:49.000Z</time>
      </trkpt>
      <trkpt lat="43.21149" lon="6.60621">
        <ele>245.2</ele>
        <time>1970-01-01T00:40:50.000Z</time>
      </trkpt>
      <trkpt lat="43.21142" lon="6.60617">
        <ele>245.1</ele>
        <time>1970-01-01T00:40:51.000Z</time>
      </trkpt>
      <trkpt lat="43.21136" lon="6.60611">
        <ele>245</ele>
        <time>1970-01-01T00:40:52.000Z</time>
      </trkpt>
      <trkpt lat="43.2113" lon="6.60606">
        <ele>245</ele>
        <time>1970-01-01T00:40:53.000Z</time>
      </trkpt>
      <trkpt lat="43.21123" lon="6.60601">
        <ele>244.9</ele>
        <time>1970-01-01T00:40:54.000Z</time>
      </trkpt>
      <trkpt lat="43.21118" lon="6.60596">
        <ele>244.9</ele>
        <time>1970-01-01T00:40:55.000Z</time>
      </trkpt>
      <trkpt lat="43.21114" lon="6.60588">
        <ele>244.8</ele>
        <time>1970-01-01T00:40:56.000Z</time>
      </trkpt>
      <trkpt lat="43.2111" lon="6.60581">
        <ele>244.7</ele>
        <time>1970-01-01T00:40:57.000Z</time>
      </trkpt>
      <trkpt lat="43.21104" lon="6.60575">
        <ele>244.7</ele>
        <time>1970-01-01T00:40:58.000Z</time>
      </trkpt>
      <trkpt lat="43.21098" lon="6.60568">
        <ele>244.5</ele>
        <time>1970-01-01T00:40:59.000Z</time>
      </trkpt>
      <trkpt lat="43.21093" lon="6.60561">
        <ele>244.3</ele>
        <time>1970-01-01T00:41:00.000Z</time>
      </trkpt>
      <trkpt lat="43.21089" lon="6.60554">
        <ele>243.9</ele>
        <time>1970-01-01T00:41:01.000Z</time>
      </trkpt>
      <trkpt lat="43.21084" lon="6.60547">
        <ele>243.4</ele>
        <time>1970-01-01T00:41:02.000Z</time>
      </trkpt>
      <trkpt lat="43.21079" lon="6.60544">
        <ele>242.9</ele>
        <time>1970-01-01T00:41:03.000Z</time>
      </trkpt>
      <trkpt lat="43.21072" lon="6.60545">
        <ele>242.5</ele>
        <time>1970-01-01T00:41:04.000Z</time>
      </trkpt>
      <trkpt lat="43.21064" lon="6.60545">
        <ele>242.1</ele>
        <time>1970-01-01T00:41:05.000Z</time>
      </trkpt>
      <trkpt lat="43.21057" lon="6.60548">
        <ele>241.5</ele>
        <time>1970-01-01T00:41:06.000Z</time>
      </trkpt>
      <trkpt lat="43.2105" lon="6.60554">
        <ele>240.8</ele>
        <time>1970-01-01T00:41:07.000Z</time>
      </trkpt>
      <trkpt lat="43.21043" lon="6.6056">
        <ele>239.8</ele>
        <time>1970-01-01T00:41:08.000Z</time>
      </trkpt>
      <trkpt lat="43.21036" lon="6.60567">
        <ele>238.9</ele>
        <time>1970-01-01T00:41:09.000Z</time>
      </trkpt>
      <trkpt lat="43.2103" lon="6.60575">
        <ele>238.1</ele>
        <time>1970-01-01T00:41:10.000Z</time>
      </trkpt>
      <trkpt lat="43.21022" lon="6.60581">
        <ele>237</ele>
        <time>1970-01-01T00:41:11.000Z</time>
      </trkpt>
      <trkpt lat="43.21014" lon="6.60588">
        <ele>236.2</ele>
        <time>1970-01-01T00:41:12.000Z</time>
      </trkpt>
      <trkpt lat="43.21005" lon="6.60596">
        <ele>235.3</ele>
        <time>1970-01-01T00:41:13.000Z</time>
      </trkpt>
      <trkpt lat="43.20999" lon="6.60605">
        <ele>234</ele>
        <time>1970-01-01T00:41:14.000Z</time>
      </trkpt>
      <trkpt lat="43.20993" lon="6.60614">
        <ele>233.5</ele>
        <time>1970-01-01T00:41:15.000Z</time>
      </trkpt>
      <trkpt lat="43.20986" lon="6.60623">
        <ele>232.6</ele>
        <time>1970-01-01T00:41:16.000Z</time>
      </trkpt>
      <trkpt lat="43.20979" lon="6.60631">
        <ele>231.3</ele>
        <time>1970-01-01T00:41:17.000Z</time>
      </trkpt>
      <trkpt lat="43.2097" lon="6.60635">
        <ele>230.3</ele>
        <time>1970-01-01T00:41:18.000Z</time>
      </trkpt>
      <trkpt lat="43.20961" lon="6.60636">
        <ele>229.4</ele>
        <time>1970-01-01T00:41:19.000Z</time>
      </trkpt>
      <trkpt lat="43.20953" lon="6.60641">
        <ele>228.3</ele>
        <time>1970-01-01T00:41:20.000Z</time>
      </trkpt>
      <trkpt lat="43.20945" lon="6.60646">
        <ele>227.3</ele>
        <time>1970-01-01T00:41:21.000Z</time>
      </trkpt>
      <trkpt lat="43.20937" lon="6.60651">
        <ele>226.3</ele>
        <time>1970-01-01T00:41:22.000Z</time>
      </trkpt>
      <trkpt lat="43.20928" lon="6.60657">
        <ele>224.8</ele>
        <time>1970-01-01T00:41:23.000Z</time>
      </trkpt>
      <trkpt lat="43.2092" lon="6.60664">
        <ele>223.6</ele>
        <time>1970-01-01T00:41:24.000Z</time>
      </trkpt>
      <trkpt lat="43.2091" lon="6.60668">
        <ele>222.2</ele>
        <time>1970-01-01T00:41:25.000Z</time>
      </trkpt>
      <trkpt lat="43.209" lon="6.60672">
        <ele>221.2</ele>
        <time>1970-01-01T00:41:26.000Z</time>
      </trkpt>
      <trkpt lat="43.2089" lon="6.60677">
        <ele>220</ele>
        <time>1970-01-01T00:41:27.000Z</time>
      </trkpt>
      <trkpt lat="43.2088" lon="6.60683">
        <ele>219.2</ele>
        <time>1970-01-01T00:41:28.000Z</time>
      </trkpt>
      <trkpt lat="43.20871" lon="6.60688">
        <ele>218.5</ele>
        <time>1970-01-01T00:41:29.000Z</time>
      </trkpt>
      <trkpt lat="43.20864" lon="6.60693">
        <ele>217.9</ele>
        <time>1970-01-01T00:41:30.000Z</time>
      </trkpt>
      <trkpt lat="43.20858" lon="6.60698">
        <ele>217.4</ele>
        <time>1970-01-01T00:41:31.000Z</time>
      </trkpt>
      <trkpt lat="43.20852" lon="6.60703">
        <ele>217</ele>
        <time>1970-01-01T00:41:32.000Z</time>
      </trkpt>
      <trkpt lat="43.20846" lon="6.60708">
        <ele>216.6</ele>
        <time>1970-01-01T00:41:33.000Z</time>
      </trkpt>
      <trkpt lat="43.20841" lon="6.60714">
        <ele>216.3</ele>
        <time>1970-01-01T00:41:34.000Z</time>
      </trkpt>
      <trkpt lat="43.20837" lon="6.60719">
        <ele>214.9</ele>
        <time>1970-01-01T00:41:35.000Z</time>
      </trkpt>
      <trkpt lat="43.20831" lon="6.60724">
        <ele>214</ele>
        <time>1970-01-01T00:41:36.000Z</time>
      </trkpt>
      <trkpt lat="43.20826" lon="6.60727">
        <ele>211.7</ele>
        <time>1970-01-01T00:41:37.000Z</time>
      </trkpt>
      <trkpt lat="43.2082" lon="6.60725">
        <ele>209.1</ele>
        <time>1970-01-01T00:41:38.000Z</time>
      </trkpt>
      <trkpt lat="43.20815" lon="6.6072">
        <ele>208.7</ele>
        <time>1970-01-01T00:41:39.000Z</time>
      </trkpt>
      <trkpt lat="43.20813" lon="6.60713">
        <ele>207.8</ele>
        <time>1970-01-01T00:41:40.000Z</time>
      </trkpt>
      <trkpt lat="43.20815" lon="6.60707">
        <ele>209.5</ele>
        <time>1970-01-01T00:41:41.000Z</time>
      </trkpt>
      <trkpt lat="43.20815" lon="6.60701">
        <ele>209.6</ele>
        <time>1970-01-01T00:41:42.000Z</time>
      </trkpt>
      <trkpt lat="43.20813" lon="6.60699">
        <ele>208.7</ele>
        <time>1970-01-01T00:41:43.000Z</time>
      </trkpt>
      <trkpt lat="43.20803" lon="6.60699">
        <ele>206.2</ele>
        <time>1970-01-01T00:41:45.000Z</time>
      </trkpt>
      <trkpt lat="43.20796" lon="6.607">
        <ele>204.4</ele>
        <time>1970-01-01T00:41:46.000Z</time>
      </trkpt>
      <trkpt lat="43.20789" lon="6.607">
        <ele>201.3</ele>
        <time>1970-01-01T00:41:47.000Z</time>
      </trkpt>
      <trkpt lat="43.20782" lon="6.607">
        <ele>199.3</ele>
        <time>1970-01-01T00:41:48.000Z</time>
      </trkpt>
      <trkpt lat="43.20777" lon="6.60703">
        <ele>197.5</ele>
        <time>1970-01-01T00:41:49.000Z</time>
      </trkpt>
      <trkpt lat="43.20771" lon="6.60707">
        <ele>194.7</ele>
        <time>1970-01-01T00:41:50.000Z</time>
      </trkpt>
      <trkpt lat="43.20764" lon="6.60711">
        <ele>191.8</ele>
        <time>1970-01-01T00:41:51.000Z</time>
      </trkpt>
      <trkpt lat="43.20758" lon="6.60714">
        <ele>189.3</ele>
        <time>1970-01-01T00:41:52.000Z</time>
      </trkpt>
      <trkpt lat="43.20753" lon="6.60712">
        <ele>188.6</ele>
        <time>1970-01-01T00:41:53.000Z</time>
      </trkpt>
      <trkpt lat="43.20746" lon="6.60709">
        <ele>187.4</ele>
        <time>1970-01-01T00:41:54.000Z</time>
      </trkpt>
      <trkpt lat="43.20739" lon="6.60708">
        <ele>186</ele>
        <time>1970-01-01T00:41:55.000Z</time>
      </trkpt>
      <trkpt lat="43.20733" lon="6.60708">
        <ele>184.7</ele>
        <time>1970-01-01T00:41:56.000Z</time>
      </trkpt>
      <trkpt lat="43.20727" lon="6.60711">
        <ele>183.8</ele>
        <time>1970-01-01T00:41:57.000Z</time>
      </trkpt>
      <trkpt lat="43.2072" lon="6.60714">
        <ele>182.2</ele>
        <time>1970-01-01T00:41:58.000Z</time>
      </trkpt>
      <trkpt lat="43.20716" lon="6.60717">
        <ele>181</ele>
        <time>1970-01-01T00:41:59.000Z</time>
      </trkpt>
      <trkpt lat="43.20713" lon="6.60715">
        <ele>181.6</ele>
        <time>1970-01-01T00:42:00.000Z</time>
      </trkpt>
      <trkpt lat="43.20711" lon="6.60713">
        <ele>181.2</ele>
        <time>1970-01-01T00:42:01.000Z</time>
      </trkpt>
      <trkpt lat="43.2071" lon="6.60706">
        <ele>183.1</ele>
        <time>1970-01-01T00:42:02.000Z</time>
      </trkpt>
      <trkpt lat="43.2071" lon="6.60701">
        <ele>183.8</ele>
        <time>1970-01-01T00:42:03.000Z</time>
      </trkpt>
      <trkpt lat="43.20708" lon="6.60698">
        <ele>183.9</ele>
        <time>1970-01-01T00:42:04.000Z</time>
      </trkpt>
      <trkpt lat="43.20706" lon="6.60695">
        <ele>183.9</ele>
        <time>1970-01-01T00:42:05.000Z</time>
      </trkpt>
      <trkpt lat="43.20701" lon="6.60692">
        <ele>183.2</ele>
        <time>1970-01-01T00:42:06.000Z</time>
      </trkpt>
      <trkpt lat="43.20699" lon="6.60688">
        <ele>183.3</ele>
        <time>1970-01-01T00:42:07.000Z</time>
      </trkpt>
      <trkpt lat="43.20701" lon="6.60683">
        <ele>183.2</ele>
        <time>1970-01-01T00:42:08.000Z</time>
      </trkpt>
      <trkpt lat="43.20705" lon="6.60678">
        <ele>183.6</ele>
        <time>1970-01-01T00:42:09.000Z</time>
      </trkpt>
      <trkpt lat="43.2071" lon="6.60673">
        <ele>185</ele>
        <time>1970-01-01T00:42:10.000Z</time>
      </trkpt>
      <trkpt lat="43.20714" lon="6.6067">
        <ele>185.6</ele>
        <time>1970-01-01T00:42:11.000Z</time>
      </trkpt>
      <trkpt lat="43.20715" lon="6.60664">
        <ele>186</ele>
        <time>1970-01-01T00:42:12.000Z</time>
      </trkpt>
      <trkpt lat="43.20715" lon="6.60657">
        <ele>185.8</ele>
        <time>1970-01-01T00:42:13.000Z</time>
      </trkpt>
      <trkpt lat="43.20715" lon="6.6065">
        <ele>185.1</ele>
        <time>1970-01-01T00:42:14.000Z</time>
      </trkpt>
      <trkpt lat="43.20715" lon="6.60643">
        <ele>184.2</ele>
        <time>1970-01-01T00:42:15.000Z</time>
      </trkpt>
      <trkpt lat="43.20715" lon="6.60636">
        <ele>184.1</ele>
        <time>1970-01-01T00:42:16.000Z</time>
      </trkpt>
      <trkpt lat="43.20717" lon="6.60626">
        <ele>183.3</ele>
        <time>1970-01-01T00:42:17.000Z</time>
      </trkpt>
      <trkpt lat="43.20719" lon="6.60617">
        <ele>182.4</ele>
        <time>1970-01-01T00:42:18.000Z</time>
      </trkpt>
      <trkpt lat="43.20722" lon="6.60609">
        <ele>182.4</ele>
        <time>1970-01-01T00:42:19.000Z</time>
      </trkpt>
      <trkpt lat="43.20722" lon="6.606">
        <ele>181.4</ele>
        <time>1970-01-01T00:42:20.000Z</time>
      </trkpt>
      <trkpt lat="43.20723" lon="6.60592">
        <ele>179.9</ele>
        <time>1970-01-01T00:42:21.000Z</time>
      </trkpt>
      <trkpt lat="43.20722" lon="6.60588">
        <ele>179.1</ele>
        <time>1970-01-01T00:42:22.000Z</time>
      </trkpt>
      <trkpt lat="43.20717" lon="6.60585">
        <ele>176.9</ele>
        <time>1970-01-01T00:42:23.000Z</time>
      </trkpt>
      <trkpt lat="43.2071" lon="6.60582">
        <ele>174.4</ele>
        <time>1970-01-01T00:42:24.000Z</time>
      </trkpt>
      <trkpt lat="43.20702" lon="6.60582">
        <ele>172.8</ele>
        <time>1970-01-01T00:42:25.000Z</time>
      </trkpt>
      <trkpt lat="43.20697" lon="6.60579">
        <ele>171.3</ele>
        <time>1970-01-01T00:42:26.000Z</time>
      </trkpt>
      <trkpt lat="43.20694" lon="6.6058">
        <ele>170.6</ele>
        <time>1970-01-01T00:42:27.000Z</time>
      </trkpt>
      <trkpt lat="43.20693" lon="6.60586">
        <ele>171.3</ele>
        <time>1970-01-01T00:42:28.000Z</time>
      </trkpt>
      <trkpt lat="43.20689" lon="6.60592">
        <ele>170.5</ele>
        <time>1970-01-01T00:42:29.000Z</time>
      </trkpt>
      <trkpt lat="43.20684" lon="6.60597">
        <ele>170.9</ele>
        <time>1970-01-01T00:42:30.000Z</time>
      </trkpt>
      <trkpt lat="43.20679" lon="6.60602">
        <ele>169.7</ele>
        <time>1970-01-01T00:42:31.000Z</time>
      </trkpt>
      <trkpt lat="43.20673" lon="6.60608">
        <ele>168.4</ele>
        <time>1970-01-01T00:42:32.000Z</time>
      </trkpt>
      <trkpt lat="43.20668" lon="6.60615">
        <ele>168.8</ele>
        <time>1970-01-01T00:42:33.000Z</time>
      </trkpt>
      <trkpt lat="43.20663" lon="6.60623">
        <ele>168.5</ele>
        <time>1970-01-01T00:42:34.000Z</time>
      </trkpt>
      <trkpt lat="43.2066" lon="6.6063">
        <ele>168.3</ele>
        <time>1970-01-01T00:42:35.000Z</time>
      </trkpt>
      <trkpt lat="43.20655" lon="6.60632">
        <ele>166.6</ele>
        <time>1970-01-01T00:42:36.000Z</time>
      </trkpt>
      <trkpt lat="43.20648" lon="6.60632">
        <ele>164.3</ele>
        <time>1970-01-01T00:42:37.000Z</time>
      </trkpt>
      <trkpt lat="43.20642" lon="6.60633">
        <ele>162.4</ele>
        <time>1970-01-01T00:42:38.000Z</time>
      </trkpt>
      <trkpt lat="43.20635" lon="6.60635">
        <ele>161.5</ele>
        <time>1970-01-01T00:42:39.000Z</time>
      </trkpt>
      <trkpt lat="43.2063" lon="6.60634">
        <ele>159.5</ele>
        <time>1970-01-01T00:42:40.000Z</time>
      </trkpt>
      <trkpt lat="43.20623" lon="6.60633">
        <ele>158.1</ele>
        <time>1970-01-01T00:42:41.000Z</time>
      </trkpt>
      <trkpt lat="43.20617" lon="6.60636">
        <ele>157.1</ele>
        <time>1970-01-01T00:42:42.000Z</time>
      </trkpt>
      <trkpt lat="43.20613" lon="6.6064">
        <ele>156.7</ele>
        <time>1970-01-01T00:42:43.000Z</time>
      </trkpt>
      <trkpt lat="43.2061" lon="6.60644">
        <ele>156.3</ele>
        <time>1970-01-01T00:42:44.000Z</time>
      </trkpt>
      <trkpt lat="43.20608" lon="6.60649">
        <ele>155.7</ele>
        <time>1970-01-01T00:42:45.000Z</time>
      </trkpt>
      <trkpt lat="43.20604" lon="6.60652">
        <ele>155.1</ele>
        <time>1970-01-01T00:42:46.000Z</time>
      </trkpt>
      <trkpt lat="43.20599" lon="6.60653">
        <ele>154.2</ele>
        <time>1970-01-01T00:42:47.000Z</time>
      </trkpt>
      <trkpt lat="43.20596" lon="6.60655">
        <ele>152.4</ele>
        <time>1970-01-01T00:42:48.000Z</time>
      </trkpt>
      <trkpt lat="43.20593" lon="6.60656">
        <ele>152.8</ele>
        <time>1970-01-01T00:42:49.000Z</time>
      </trkpt>
      <trkpt lat="43.20591" lon="6.60652">
        <ele>151.7</ele>
        <time>1970-01-01T00:42:50.000Z</time>
      </trkpt>
      <trkpt lat="43.20588" lon="6.60653">
        <ele>151</ele>
        <time>1970-01-01T00:42:51.000Z</time>
      </trkpt>
      <trkpt lat="43.20584" lon="6.60656">
        <ele>150.3</ele>
        <time>1970-01-01T00:42:52.000Z</time>
      </trkpt>
      <trkpt lat="43.2058" lon="6.60656">
        <ele>149</ele>
        <time>1970-01-01T00:42:53.000Z</time>
      </trkpt>
      <trkpt lat="43.20577" lon="6.60657">
        <ele>148.5</ele>
        <time>1970-01-01T00:42:54.000Z</time>
      </trkpt>
      <trkpt lat="43.20574" lon="6.60655">
        <ele>147.9</ele>
        <time>1970-01-01T00:42:56.000Z</time>
      </trkpt>
      <trkpt lat="43.2057" lon="6.60654">
        <ele>147.4</ele>
        <time>1970-01-01T00:42:57.000Z</time>
      </trkpt>
      <trkpt lat="43.20564" lon="6.60655">
        <ele>146.7</ele>
        <time>1970-01-01T00:42:58.000Z</time>
      </trkpt>
      <trkpt lat="43.2056" lon="6.60658">
        <ele>146.1</ele>
        <time>1970-01-01T00:42:59.000Z</time>
      </trkpt>
      <trkpt lat="43.20557" lon="6.60658">
        <ele>146</ele>
        <time>1970-01-01T00:43:00.000Z</time>
      </trkpt>
      <trkpt lat="43.20556" lon="6.60653">
        <ele>146.6</ele>
        <time>1970-01-01T00:43:01.000Z</time>
      </trkpt>
      <trkpt lat="43.20551" lon="6.60652">
        <ele>146.8</ele>
        <time>1970-01-01T00:43:02.000Z</time>
      </trkpt>
      <trkpt lat="43.20547" lon="6.60658">
        <ele>146.2</ele>
        <time>1970-01-01T00:43:03.000Z</time>
      </trkpt>
      <trkpt lat="43.20542" lon="6.60668">
        <ele>145.2</ele>
        <time>1970-01-01T00:43:04.000Z</time>
      </trkpt>
      <trkpt lat="43.2054" lon="6.60681">
        <ele>143.9</ele>
        <time>1970-01-01T00:43:05.000Z</time>
      </trkpt>
      <trkpt lat="43.20536" lon="6.60694">
        <ele>142.2</ele>
        <time>1970-01-01T00:43:06.000Z</time>
      </trkpt>
      <trkpt lat="43.20532" lon="6.60705">
        <ele>139</ele>
        <time>1970-01-01T00:43:07.000Z</time>
      </trkpt>
      <trkpt lat="43.20531" lon="6.60716">
        <ele>136.4</ele>
        <time>1970-01-01T00:43:08.000Z</time>
      </trkpt>
      <trkpt lat="43.20531" lon="6.60725">
        <ele>133</ele>
        <time>1970-01-01T00:43:09.000Z</time>
      </trkpt>
      <trkpt lat="43.20529" lon="6.60733">
        <ele>131.8</ele>
        <time>1970-01-01T00:43:10.000Z</time>
      </trkpt>
      <trkpt lat="43.20524" lon="6.60739">
        <ele>129.7</ele>
        <time>1970-01-01T00:43:11.000Z</time>
      </trkpt>
      <trkpt lat="43.20522" lon="6.60748">
        <ele>128.1</ele>
        <time>1970-01-01T00:43:12.000Z</time>
      </trkpt>
      <trkpt lat="43.20519" lon="6.60756">
        <ele>127.2</ele>
        <time>1970-01-01T00:43:13.000Z</time>
      </trkpt>
      <trkpt lat="43.20517" lon="6.60764">
        <ele>126.2</ele>
        <time>1970-01-01T00:43:14.000Z</time>
      </trkpt>
      <trkpt lat="43.20516" lon="6.60773">
        <ele>125.4</ele>
        <time>1970-01-01T00:43:15.000Z</time>
      </trkpt>
      <trkpt lat="43.20513" lon="6.60781">
        <ele>124.4</ele>
        <time>1970-01-01T00:43:16.000Z</time>
      </trkpt>
      <trkpt lat="43.20512" lon="6.60787">
        <ele>123.7</ele>
        <time>1970-01-01T00:43:17.000Z</time>
      </trkpt>
      <trkpt lat="43.20511" lon="6.60794">
        <ele>121.9</ele>
        <time>1970-01-01T00:43:18.000Z</time>
      </trkpt>
      <trkpt lat="43.20512" lon="6.60799">
        <ele>121.2</ele>
        <time>1970-01-01T00:43:19.000Z</time>
      </trkpt>
      <trkpt lat="43.20509" lon="6.60805">
        <ele>120.3</ele>
        <time>1970-01-01T00:43:20.000Z</time>
      </trkpt>
      <trkpt lat="43.20508" lon="6.6081">
        <ele>119.3</ele>
        <time>1970-01-01T00:43:21.000Z</time>
      </trkpt>
      <trkpt lat="43.20506" lon="6.60817">
        <ele>117.6</ele>
        <time>1970-01-01T00:43:22.000Z</time>
      </trkpt>
      <trkpt lat="43.20506" lon="6.60821">
        <ele>116.8</ele>
        <time>1970-01-01T00:43:23.000Z</time>
      </trkpt>
      <trkpt lat="43.20507" lon="6.60829">
        <ele>115.5</ele>
        <time>1970-01-01T00:43:25.000Z</time>
      </trkpt>
      <trkpt lat="43.20506" lon="6.60835">
        <ele>115.1</ele>
        <time>1970-01-01T00:43:26.000Z</time>
      </trkpt>
      <trkpt lat="43.20503" lon="6.6084">
        <ele>114.1</ele>
        <time>1970-01-01T00:43:27.000Z</time>
      </trkpt>
      <trkpt lat="43.20499" lon="6.60845">
        <ele>112.7</ele>
        <time>1970-01-01T00:43:28.000Z</time>
      </trkpt>
      <trkpt lat="43.20495" lon="6.60846">
        <ele>111.9</ele>
        <time>1970-01-01T00:43:29.000Z</time>
      </trkpt>
      <trkpt lat="43.20492" lon="6.60847">
        <ele>111.4</ele>
        <time>1970-01-01T00:43:30.000Z</time>
      </trkpt>
      <trkpt lat="43.20487" lon="6.60851">
        <ele>110.6</ele>
        <time>1970-01-01T00:43:32.000Z</time>
      </trkpt>
      <trkpt lat="43.20485" lon="6.60856">
        <ele>110</ele>
        <time>1970-01-01T00:43:33.000Z</time>
      </trkpt>
      <trkpt lat="43.20481" lon="6.60856">
        <ele>109.5</ele>
        <time>1970-01-01T00:43:34.000Z</time>
      </trkpt>
      <trkpt lat="43.20475" lon="6.60855">
        <ele>108.9</ele>
        <time>1970-01-01T00:43:35.000Z</time>
      </trkpt>
      <trkpt lat="43.20469" lon="6.60854">
        <ele>108.7</ele>
        <time>1970-01-01T00:43:36.000Z</time>
      </trkpt>
      <trkpt lat="43.20463" lon="6.60854">
        <ele>108.8</ele>
        <time>1970-01-01T00:43:37.000Z</time>
      </trkpt>
      <trkpt lat="43.20458" lon="6.60853">
        <ele>109.1</ele>
        <time>1970-01-01T00:43:38.000Z</time>
      </trkpt>
      <trkpt lat="43.20453" lon="6.60849">
        <ele>109.3</ele>
        <time>1970-01-01T00:43:39.000Z</time>
      </trkpt>
      <trkpt lat="43.20449" lon="6.60842">
        <ele>110.1</ele>
        <time>1970-01-01T00:43:40.000Z</time>
      </trkpt>
      <trkpt lat="43.20444" lon="6.60837">
        <ele>110.6</ele>
        <time>1970-01-01T00:43:41.000Z</time>
      </trkpt>
      <trkpt lat="43.2044" lon="6.60832">
        <ele>111.5</ele>
        <time>1970-01-01T00:43:42.000Z</time>
      </trkpt>
      <trkpt lat="43.20438" lon="6.60826">
        <ele>112.1</ele>
        <time>1970-01-01T00:43:43.000Z</time>
      </trkpt>
      <trkpt lat="43.20435" lon="6.60821">
        <ele>112.7</ele>
        <time>1970-01-01T00:43:44.000Z</time>
      </trkpt>
      <trkpt lat="43.2043" lon="6.60817">
        <ele>113.4</ele>
        <time>1970-01-01T00:43:45.000Z</time>
      </trkpt>
      <trkpt lat="43.20425" lon="6.60813">
        <ele>113.9</ele>
        <time>1970-01-01T00:43:46.000Z</time>
      </trkpt>
      <trkpt lat="43.2042" lon="6.60809">
        <ele>114.2</ele>
        <time>1970-01-01T00:43:47.000Z</time>
      </trkpt>
      <trkpt lat="43.20415" lon="6.60805">
        <ele>114.8</ele>
        <time>1970-01-01T00:43:48.000Z</time>
      </trkpt>
      <trkpt lat="43.2041" lon="6.60805">
        <ele>114.1</ele>
        <time>1970-01-01T00:43:49.000Z</time>
      </trkpt>
      <trkpt lat="43.20403" lon="6.60809">
        <ele>112.5</ele>
        <time>1970-01-01T00:43:50.000Z</time>
      </trkpt>
      <trkpt lat="43.20397" lon="6.60809">
        <ele>111.4</ele>
        <time>1970-01-01T00:43:51.000Z</time>
      </trkpt>
      <trkpt lat="43.20391" lon="6.6081">
        <ele>110</ele>
        <time>1970-01-01T00:43:52.000Z</time>
      </trkpt>
      <trkpt lat="43.20386" lon="6.60814">
        <ele>107.6</ele>
        <time>1970-01-01T00:43:53.000Z</time>
      </trkpt>
      <trkpt lat="43.20381" lon="6.60817">
        <ele>106.2</ele>
        <time>1970-01-01T00:43:54.000Z</time>
      </trkpt>
      <trkpt lat="43.20378" lon="6.60818">
        <ele>105.4</ele>
        <time>1970-01-01T00:43:55.000Z</time>
      </trkpt>
      <trkpt lat="43.20374" lon="6.60816">
        <ele>104.6</ele>
        <time>1970-01-01T00:43:57.000Z</time>
      </trkpt>
      <trkpt lat="43.2037" lon="6.60817">
        <ele>103.2</ele>
        <time>1970-01-01T00:43:58.000Z</time>
      </trkpt>
      <trkpt lat="43.20367" lon="6.60819">
        <ele>102.4</ele>
        <time>1970-01-01T00:43:59.000Z</time>
      </trkpt>
      <trkpt lat="43.20366" lon="6.60824">
        <ele>102.3</ele>
        <time>1970-01-01T00:44:00.000Z</time>
      </trkpt>
      <trkpt lat="43.20364" lon="6.60829">
        <ele>101.8</ele>
        <time>1970-01-01T00:44:01.000Z</time>
      </trkpt>
      <trkpt lat="43.20359" lon="6.60831">
        <ele>101.3</ele>
        <time>1970-01-01T00:44:02.000Z</time>
      </trkpt>
      <trkpt lat="43.20355" lon="6.60831">
        <ele>100.5</ele>
        <time>1970-01-01T00:44:03.000Z</time>
      </trkpt>
      <trkpt lat="43.20351" lon="6.60832">
        <ele>100.3</ele>
        <time>1970-01-01T00:44:04.000Z</time>
      </trkpt>
      <trkpt lat="43.20349" lon="6.60835">
        <ele>100.2</ele>
        <time>1970-01-01T00:44:05.000Z</time>
      </trkpt>
      <trkpt lat="43.20346" lon="6.60841">
        <ele>100</ele>
        <time>1970-01-01T00:44:06.000Z</time>
      </trkpt>
      <trkpt lat="43.20341" lon="6.60848">
        <ele>100</ele>
        <time>1970-01-01T00:44:07.000Z</time>
      </trkpt>
      <trkpt lat="43.20336" lon="6.6085">
        <ele>100.5</ele>
        <time>1970-01-01T00:44:08.000Z</time>
      </trkpt>
      <trkpt lat="43.20332" lon="6.60851">
        <ele>100.9</ele>
        <time>1970-01-01T00:44:09.000Z</time>
      </trkpt>
      <trkpt lat="43.20328" lon="6.60853">
        <ele>101.3</ele>
        <time>1970-01-01T00:44:10.000Z</time>
      </trkpt>
      <trkpt lat="43.20325" lon="6.60858">
        <ele>101.7</ele>
        <time>1970-01-01T00:44:11.000Z</time>
      </trkpt>
      <trkpt lat="43.20321" lon="6.60863">
        <ele>101.8</ele>
        <time>1970-01-01T00:44:12.000Z</time>
      </trkpt>
      <trkpt lat="43.20317" lon="6.60866">
        <ele>102.4</ele>
        <time>1970-01-01T00:44:13.000Z</time>
      </trkpt>
      <trkpt lat="43.20313" lon="6.60872">
        <ele>101.8</ele>
        <time>1970-01-01T00:44:14.000Z</time>
      </trkpt>
      <trkpt lat="43.20308" lon="6.6088">
        <ele>101.3</ele>
        <time>1970-01-01T00:44:15.000Z</time>
      </trkpt>
      <trkpt lat="43.20303" lon="6.60884">
        <ele>101.1</ele>
        <time>1970-01-01T00:44:16.000Z</time>
      </trkpt>
      <trkpt lat="43.20299" lon="6.6089">
        <ele>100.7</ele>
        <time>1970-01-01T00:44:17.000Z</time>
      </trkpt>
      <trkpt lat="43.20296" lon="6.60896">
        <ele>100.1</ele>
        <time>1970-01-01T00:44:18.000Z</time>
      </trkpt>
      <trkpt lat="43.20294" lon="6.60903">
        <ele>98.4</ele>
        <time>1970-01-01T00:44:19.000Z</time>
      </trkpt>
      <trkpt lat="43.20289" lon="6.60908">
        <ele>97.4</ele>
        <time>1970-01-01T00:44:20.000Z</time>
      </trkpt>
      <trkpt lat="43.20282" lon="6.60913">
        <ele>96.6</ele>
        <time>1970-01-01T00:44:21.000Z</time>
      </trkpt>
      <trkpt lat="43.20275" lon="6.60917">
        <ele>96.3</ele>
        <time>1970-01-01T00:44:22.000Z</time>
      </trkpt>
      <trkpt lat="43.20267" lon="6.60922">
        <ele>96</ele>
        <time>1970-01-01T00:44:23.000Z</time>
      </trkpt>
      <trkpt lat="43.20259" lon="6.60929">
        <ele>96</ele>
        <time>1970-01-01T00:44:24.000Z</time>
      </trkpt>
      <trkpt lat="43.20253" lon="6.60932">
        <ele>96</ele>
        <time>1970-01-01T00:44:25.000Z</time>
      </trkpt>
      <trkpt lat="43.20247" lon="6.6093">
        <ele>96</ele>
        <time>1970-01-01T00:44:26.000Z</time>
      </trkpt>
      <trkpt lat="43.20242" lon="6.60926">
        <ele>96</ele>
        <time>1970-01-01T00:44:27.000Z</time>
      </trkpt>
      <trkpt lat="43.20239" lon="6.60924">
        <ele>96</ele>
        <time>1970-01-01T00:44:28.000Z</time>
      </trkpt>
      <trkpt lat="43.20234" lon="6.60925">
        <ele>96</ele>
        <time>1970-01-01T00:44:29.000Z</time>
      </trkpt>
      <trkpt lat="43.20233" lon="6.60928">
        <ele>96</ele>
        <time>1970-01-01T00:44:30.000Z</time>
      </trkpt>
      <trkpt lat="43.20235" lon="6.60929">
        <ele>96</ele>
        <time>1970-01-01T00:44:33.000Z</time>
      </trkpt>
      <trkpt lat="43.20239" lon="6.60928">
        <ele>96</ele>
        <time>1970-01-01T00:44:35.000Z</time>
      </trkpt>
      <trkpt lat="43.20242" lon="6.60928">
        <ele>96.3</ele>
        <time>1970-01-01T00:44:37.000Z</time>
      </trkpt>
      <trkpt lat="43.20241" lon="6.60924">
        <ele>96.4</ele>
        <time>1970-01-01T00:44:43.000Z</time>
      </trkpt>
      <trkpt lat="43.20238" lon="6.60924">
        <ele>96.5</ele>
        <time>1970-01-01T00:44:45.000Z</time>
      </trkpt>
      <trkpt lat="43.20235" lon="6.60925">
        <ele>96.6</ele>
        <time>1970-01-01T00:44:47.000Z</time>
      </trkpt>
      <trkpt lat="43.20232" lon="6.60927">
        <ele>96.8</ele>
        <time>1970-01-01T00:44:49.000Z</time>
      </trkpt>
      <trkpt lat="43.20229" lon="6.60929">
        <ele>97</ele>
        <time>1970-01-01T00:44:51.000Z</time>
      </trkpt>
      <trkpt lat="43.20226" lon="6.60931">
        <ele>97.2</ele>
        <time>1970-01-01T00:44:53.000Z</time>
      </trkpt>
      <trkpt lat="43.20222" lon="6.6093">
        <ele>97.3</ele>
        <time>1970-01-01T00:44:56.000Z</time>
      </trkpt>
      <trkpt lat="43.2022" lon="6.60928">
        <ele>97.4</ele>
        <time>1970-01-01T00:45:00.000Z</time>
      </trkpt>
      <trkpt lat="43.20217" lon="6.60927">
        <ele>97.5</ele>
        <time>1970-01-01T00:45:15.000Z</time>
      </trkpt>
      <trkpt lat="43.20214" lon="6.60926">
        <ele>97.5</ele>
        <time>1970-01-01T00:45:17.000Z</time>
      </trkpt>
      <trkpt lat="43.20212" lon="6.60924">
        <ele>97.6</ele>
        <time>1970-01-01T00:45:21.000Z</time>
      </trkpt>
      <trkpt lat="43.20211" lon="6.60927">
        <ele>97.6</ele>
        <time>1970-01-01T00:46:09.000Z</time>
      </trkpt>
      <trkpt lat="43.20211" lon="6.60931">
        <ele>97.6</ele>
        <time>1970-01-01T00:47:46.000Z</time>
      </trkpt>
      <trkpt lat="43.20208" lon="6.60933">
        <ele>97.6</ele>
        <time>1970-01-01T00:48:11.000Z</time>
      </trkpt>
      <trkpt lat="43.20205" lon="6.60931">
        <ele>97.7</ele>
        <time>1970-01-01T00:48:13.000Z</time>
      </trkpt>
      <trkpt lat="43.20201" lon="6.60929">
        <ele>97.7</ele>
        <time>1970-01-01T00:48:15.000Z</time>
      </trkpt>
      <trkpt lat="43.20197" lon="6.60928">
        <ele>97.8</ele>
        <time>1970-01-01T00:48:17.000Z</time>
      </trkpt>
      <trkpt lat="43.20191" lon="6.60928">
        <ele>97.9</ele>
        <time>1970-01-01T00:48:19.000Z</time>
      </trkpt>
      <trkpt lat="43.20186" lon="6.60929">
        <ele>98.2</ele>
        <time>1970-01-01T00:48:21.000Z</time>
      </trkpt>
      <trkpt lat="43.20183" lon="6.60931">
        <ele>98.4</ele>
        <time>1970-01-01T00:48:22.000Z</time>
      </trkpt>
      <trkpt lat="43.20179" lon="6.60936">
        <ele>98.7</ele>
        <time>1970-01-01T00:48:24.000Z</time>
      </trkpt>
      <trkpt lat="43.20176" lon="6.60938">
        <ele>98.8</ele>
        <time>1970-01-01T00:48:25.000Z</time>
      </trkpt>
      <trkpt lat="43.20173" lon="6.60939">
        <ele>98.9</ele>
        <time>1970-01-01T00:48:26.000Z</time>
      </trkpt>
      <trkpt lat="43.20171" lon="6.60941">
        <ele>99</ele>
        <time>1970-01-01T00:48:27.000Z</time>
      </trkpt>
      <trkpt lat="43.20168" lon="6.60944">
        <ele>99</ele>
        <time>1970-01-01T00:48:28.000Z</time>
      </trkpt>
      <trkpt lat="43.20165" lon="6.60946">
        <ele>99.1</ele>
        <time>1970-01-01T00:48:29.000Z</time>
      </trkpt>
      <trkpt lat="43.20163" lon="6.60949">
        <ele>99.1</ele>
        <time>1970-01-01T00:48:30.000Z</time>
      </trkpt>
      <trkpt lat="43.20159" lon="6.60953">
        <ele>99.2</ele>
        <time>1970-01-01T00:48:32.000Z</time>
      </trkpt>
      <trkpt lat="43.20154" lon="6.60956">
        <ele>99.3</ele>
        <time>1970-01-01T00:48:34.000Z</time>
      </trkpt>
      <trkpt lat="43.20151" lon="6.60958">
        <ele>99.4</ele>
        <time>1970-01-01T00:48:35.000Z</time>
      </trkpt>
      <trkpt lat="43.20147" lon="6.60963">
        <ele>99.6</ele>
        <time>1970-01-01T00:48:37.000Z</time>
      </trkpt>
      <trkpt lat="43.20143" lon="6.60968">
        <ele>99.9</ele>
        <time>1970-01-01T00:48:39.000Z</time>
      </trkpt>
      <trkpt lat="43.20139" lon="6.60972">
        <ele>100.2</ele>
        <time>1970-01-01T00:48:41.000Z</time>
      </trkpt>
      <trkpt lat="43.20136" lon="6.60975">
        <ele>100.4</ele>
        <time>1970-01-01T00:48:42.000Z</time>
      </trkpt>
      <trkpt lat="43.20134" lon="6.60977">
        <ele>100.6</ele>
        <time>1970-01-01T00:48:43.000Z</time>
      </trkpt>
      <trkpt lat="43.20131" lon="6.6098">
        <ele>100.7</ele>
        <time>1970-01-01T00:48:44.000Z</time>
      </trkpt>
      <trkpt lat="43.20129" lon="6.60984">
        <ele>100.9</ele>
        <time>1970-01-01T00:48:46.000Z</time>
      </trkpt>
      <trkpt lat="43.20124" lon="6.60988">
        <ele>101</ele>
        <time>1970-01-01T00:48:48.000Z</time>
      </trkpt>
      <trkpt lat="43.20121" lon="6.60991">
        <ele>101.1</ele>
        <time>1970-01-01T00:48:49.000Z</time>
      </trkpt>
      <trkpt lat="43.20119" lon="6.60993">
        <ele>101.2</ele>
        <time>1970-01-01T00:48:50.000Z</time>
      </trkpt>
      <trkpt lat="43.20117" lon="6.60996">
        <ele>101.3</ele>
        <time>1970-01-01T00:48:51.000Z</time>
      </trkpt>
      <trkpt lat="43.20115" lon="6.60999">
        <ele>101.3</ele>
        <time>1970-01-01T00:48:52.000Z</time>
      </trkpt>
      <trkpt lat="43.20113" lon="6.61002">
        <ele>101.5</ele>
        <time>1970-01-01T00:48:53.000Z</time>
      </trkpt>
      <trkpt lat="43.20111" lon="6.61005">
        <ele>101.7</ele>
        <time>1970-01-01T00:48:54.000Z</time>
      </trkpt>
      <trkpt lat="43.20109" lon="6.61008">
        <ele>101.9</ele>
        <time>1970-01-01T00:48:55.000Z</time>
      </trkpt>
      <trkpt lat="43.20106" lon="6.61011">
        <ele>102.2</ele>
        <time>1970-01-01T00:48:56.000Z</time>
      </trkpt>
      <trkpt lat="43.20104" lon="6.61014">
        <ele>102.4</ele>
        <time>1970-01-01T00:48:57.000Z</time>
      </trkpt>
      <trkpt lat="43.20101" lon="6.61018">
        <ele>102.6</ele>
        <time>1970-01-01T00:48:59.000Z</time>
      </trkpt>
      <trkpt lat="43.20099" lon="6.61021">
        <ele>102.8</ele>
        <time>1970-01-01T00:49:00.000Z</time>
      </trkpt>
      <trkpt lat="43.20097" lon="6.61024">
        <ele>102.9</ele>
        <time>1970-01-01T00:49:01.000Z</time>
      </trkpt>
      <trkpt lat="43.20095" lon="6.61027">
        <ele>103.2</ele>
        <time>1970-01-01T00:49:02.000Z</time>
      </trkpt>
      <trkpt lat="43.20091" lon="6.61032">
        <ele>103.6</ele>
        <time>1970-01-01T00:49:04.000Z</time>
      </trkpt>
      <trkpt lat="43.20088" lon="6.61036">
        <ele>103.9</ele>
        <time>1970-01-01T00:49:06.000Z</time>
      </trkpt>
      <trkpt lat="43.20086" lon="6.61039">
        <ele>104</ele>
        <time>1970-01-01T00:49:07.000Z</time>
      </trkpt>
      <trkpt lat="43.20082" lon="6.61043">
        <ele>104.2</ele>
        <time>1970-01-01T00:49:09.000Z</time>
      </trkpt>
      <trkpt lat="43.20079" lon="6.61049">
        <ele>104.4</ele>
        <time>1970-01-01T00:49:11.000Z</time>
      </trkpt>
      <trkpt lat="43.20076" lon="6.61055">
        <ele>104.7</ele>
        <time>1970-01-01T00:49:13.000Z</time>
      </trkpt>
      <trkpt lat="43.20074" lon="6.61057">
        <ele>104.9</ele>
        <time>1970-01-01T00:49:14.000Z</time>
      </trkpt>
      <trkpt lat="43.20072" lon="6.61059">
        <ele>105.1</ele>
        <time>1970-01-01T00:49:15.000Z</time>
      </trkpt>
      <trkpt lat="43.20068" lon="6.61063">
        <ele>105.5</ele>
        <time>1970-01-01T00:49:17.000Z</time>
      </trkpt>
      <trkpt lat="43.20063" lon="6.61066">
        <ele>105.8</ele>
        <time>1970-01-01T00:49:19.000Z</time>
      </trkpt>
      <trkpt lat="43.2006" lon="6.61066">
        <ele>105.9</ele>
        <time>1970-01-01T00:49:20.000Z</time>
      </trkpt>
      <trkpt lat="43.20055" lon="6.61066">
        <ele>106.2</ele>
        <time>1970-01-01T00:49:22.000Z</time>
      </trkpt>
      <trkpt lat="43.20051" lon="6.61064">
        <ele>106.5</ele>
        <time>1970-01-01T00:49:24.000Z</time>
      </trkpt>
      <trkpt lat="43.20048" lon="6.61061">
        <ele>106.7</ele>
        <time>1970-01-01T00:49:26.000Z</time>
      </trkpt>
      <trkpt lat="43.20044" lon="6.61058">
        <ele>106.8</ele>
        <time>1970-01-01T00:49:28.000Z</time>
      </trkpt>
      <trkpt lat="43.20041" lon="6.61054">
        <ele>106.9</ele>
        <time>1970-01-01T00:49:30.000Z</time>
      </trkpt>
      <trkpt lat="43.20039" lon="6.61048">
        <ele>107</ele>
        <time>1970-01-01T00:49:32.000Z</time>
      </trkpt>
      <trkpt lat="43.20039" lon="6.61044">
        <ele>107.1</ele>
        <time>1970-01-01T00:49:33.000Z</time>
      </trkpt>
      <trkpt lat="43.20038" lon="6.6104">
        <ele>107.1</ele>
        <time>1970-01-01T00:49:34.000Z</time>
      </trkpt>
      <trkpt lat="43.20037" lon="6.61036">
        <ele>107.3</ele>
        <time>1970-01-01T00:49:35.000Z</time>
      </trkpt>
      <trkpt lat="43.20036" lon="6.61029">
        <ele>107.5</ele>
        <time>1970-01-01T00:49:37.000Z</time>
      </trkpt>
      <trkpt lat="43.20035" lon="6.61025">
        <ele>107.5</ele>
        <time>1970-01-01T00:49:38.000Z</time>
      </trkpt>
      <trkpt lat="43.20033" lon="6.61019">
        <ele>107.7</ele>
        <time>1970-01-01T00:49:40.000Z</time>
      </trkpt>
      <trkpt lat="43.20032" lon="6.61012">
        <ele>108</ele>
        <time>1970-01-01T00:49:42.000Z</time>
      </trkpt>
      <trkpt lat="43.2003" lon="6.61009">
        <ele>108.2</ele>
        <time>1970-01-01T00:49:43.000Z</time>
      </trkpt>
      <trkpt lat="43.20028" lon="6.61005">
        <ele>108.4</ele>
        <time>1970-01-01T00:49:45.000Z</time>
      </trkpt>
      <trkpt lat="43.20025" lon="6.60997">
        <ele>108.6</ele>
        <time>1970-01-01T00:49:47.000Z</time>
      </trkpt>
      <trkpt lat="43.20023" lon="6.60995">
        <ele>108.7</ele>
        <time>1970-01-01T00:49:48.000Z</time>
      </trkpt>
      <trkpt lat="43.20021" lon="6.60991">
        <ele>108.8</ele>
        <time>1970-01-01T00:49:49.000Z</time>
      </trkpt>
      <trkpt lat="43.20018" lon="6.60987">
        <ele>108.8</ele>
        <time>1970-01-01T00:49:50.000Z</time>
      </trkpt>
      <trkpt lat="43.20015" lon="6.60983">
        <ele>108.9</ele>
        <time>1970-01-01T00:49:51.000Z</time>
      </trkpt>
      <trkpt lat="43.20011" lon="6.6098">
        <ele>109</ele>
        <time>1970-01-01T00:49:52.000Z</time>
      </trkpt>
      <trkpt lat="43.20008" lon="6.60979">
        <ele>109.1</ele>
        <time>1970-01-01T00:49:53.000Z</time>
      </trkpt>
      <trkpt lat="43.20004" lon="6.60977">
        <ele>109.2</ele>
        <time>1970-01-01T00:49:55.000Z</time>
      </trkpt>
      <trkpt lat="43.20001" lon="6.60977">
        <ele>109.3</ele>
        <time>1970-01-01T00:49:56.000Z</time>
      </trkpt>
      <trkpt lat="43.19998" lon="6.60976">
        <ele>109.3</ele>
        <time>1970-01-01T00:49:57.000Z</time>
      </trkpt>
      <trkpt lat="43.19995" lon="6.60976">
        <ele>109.5</ele>
        <time>1970-01-01T00:49:58.000Z</time>
      </trkpt>
      <trkpt lat="43.19992" lon="6.60976">
        <ele>109.7</ele>
        <time>1970-01-01T00:49:59.000Z</time>
      </trkpt>
      <trkpt lat="43.19989" lon="6.60977">
        <ele>109.8</ele>
        <time>1970-01-01T00:50:00.000Z</time>
      </trkpt>
      <trkpt lat="43.19986" lon="6.60976">
        <ele>110</ele>
        <time>1970-01-01T00:50:01.000Z</time>
      </trkpt>
      <trkpt lat="43.19982" lon="6.60976">
        <ele>110.2</ele>
        <time>1970-01-01T00:50:02.000Z</time>
      </trkpt>
      <trkpt lat="43.19979" lon="6.60976">
        <ele>110.3</ele>
        <time>1970-01-01T00:50:03.000Z</time>
      </trkpt>
      <trkpt lat="43.19975" lon="6.60974">
        <ele>110.5</ele>
        <time>1970-01-01T00:50:05.000Z</time>
      </trkpt>
      <trkpt lat="43.19971" lon="6.60973">
        <ele>110.6</ele>
        <time>1970-01-01T00:50:07.000Z</time>
      </trkpt>
      <trkpt lat="43.19966" lon="6.60971">
        <ele>110.8</ele>
        <time>1970-01-01T00:50:09.000Z</time>
      </trkpt>
      <trkpt lat="43.19962" lon="6.60971">
        <ele>110.9</ele>
        <time>1970-01-01T00:50:10.000Z</time>
      </trkpt>
      <trkpt lat="43.19959" lon="6.60974">
        <ele>111.1</ele>
        <time>1970-01-01T00:50:12.000Z</time>
      </trkpt>
      <trkpt lat="43.19954" lon="6.60978">
        <ele>111.5</ele>
        <time>1970-01-01T00:50:14.000Z</time>
      </trkpt>
      <trkpt lat="43.19951" lon="6.60981">
        <ele>111.7</ele>
        <time>1970-01-01T00:50:15.000Z</time>
      </trkpt>
      <trkpt lat="43.19949" lon="6.60985">
        <ele>111.8</ele>
        <time>1970-01-01T00:50:16.000Z</time>
      </trkpt>
      <trkpt lat="43.19947" lon="6.60989">
        <ele>111.9</ele>
        <time>1970-01-01T00:50:17.000Z</time>
      </trkpt>
      <trkpt lat="43.19947" lon="6.60993">
        <ele>111.9</ele>
        <time>1970-01-01T00:50:18.000Z</time>
      </trkpt>
      <trkpt lat="43.19945" lon="6.60997">
        <ele>112</ele>
        <time>1970-01-01T00:50:19.000Z</time>
      </trkpt>
      <trkpt lat="43.19943" lon="6.61003">
        <ele>112</ele>
        <time>1970-01-01T00:50:20.000Z</time>
      </trkpt>
      <trkpt lat="43.19942" lon="6.61007">
        <ele>112</ele>
        <time>1970-01-01T00:50:21.000Z</time>
      </trkpt>
      <trkpt lat="43.19942" lon="6.61011">
        <ele>112</ele>
        <time>1970-01-01T00:50:22.000Z</time>
      </trkpt>
      <trkpt lat="43.1994" lon="6.61015">
        <ele>112</ele>
        <time>1970-01-01T00:50:23.000Z</time>
      </trkpt>
      <trkpt lat="43.19937" lon="6.6102">
        <ele>112</ele>
        <time>1970-01-01T00:50:24.000Z</time>
      </trkpt>
      <trkpt lat="43.19936" lon="6.61024">
        <ele>112</ele>
        <time>1970-01-01T00:50:25.000Z</time>
      </trkpt>
      <trkpt lat="43.19935" lon="6.61031">
        <ele>112.1</ele>
        <time>1970-01-01T00:50:27.000Z</time>
      </trkpt>
      <trkpt lat="43.19933" lon="6.61035">
        <ele>112.1</ele>
        <time>1970-01-01T00:50:28.000Z</time>
      </trkpt>
      <trkpt lat="43.19931" lon="6.6104">
        <ele>112.1</ele>
        <time>1970-01-01T00:50:29.000Z</time>
      </trkpt>
      <trkpt lat="43.1993" lon="6.61045">
        <ele>112.2</ele>
        <time>1970-01-01T00:50:30.000Z</time>
      </trkpt>
      <trkpt lat="43.19928" lon="6.61049">
        <ele>112.2</ele>
        <time>1970-01-01T00:50:31.000Z</time>
      </trkpt>
      <trkpt lat="43.19926" lon="6.61054">
        <ele>112.3</ele>
        <time>1970-01-01T00:50:32.000Z</time>
      </trkpt>
      <trkpt lat="43.19924" lon="6.61057">
        <ele>112.3</ele>
        <time>1970-01-01T00:50:33.000Z</time>
      </trkpt>
      <trkpt lat="43.1992" lon="6.61062">
        <ele>112.4</ele>
        <time>1970-01-01T00:50:35.000Z</time>
      </trkpt>
      <trkpt lat="43.19917" lon="6.61065">
        <ele>112.6</ele>
        <time>1970-01-01T00:50:36.000Z</time>
      </trkpt>
      <trkpt lat="43.19913" lon="6.61067">
        <ele>112.9</ele>
        <time>1970-01-01T00:50:38.000Z</time>
      </trkpt>
      <trkpt lat="43.19909" lon="6.61067">
        <ele>113.1</ele>
        <time>1970-01-01T00:50:39.000Z</time>
      </trkpt>
      <trkpt lat="43.19906" lon="6.61066">
        <ele>113.3</ele>
        <time>1970-01-01T00:50:40.000Z</time>
      </trkpt>
      <trkpt lat="43.19901" lon="6.61067">
        <ele>113.6</ele>
        <time>1970-01-01T00:50:42.000Z</time>
      </trkpt>
      <trkpt lat="43.19896" lon="6.61066">
        <ele>113.7</ele>
        <time>1970-01-01T00:50:44.000Z</time>
      </trkpt>
      <trkpt lat="43.19893" lon="6.61066">
        <ele>113.8</ele>
        <time>1970-01-01T00:50:45.000Z</time>
      </trkpt>
      <trkpt lat="43.1989" lon="6.61066">
        <ele>113.9</ele>
        <time>1970-01-01T00:50:46.000Z</time>
      </trkpt>
      <trkpt lat="43.19887" lon="6.61066">
        <ele>114</ele>
        <time>1970-01-01T00:50:47.000Z</time>
      </trkpt>
      <trkpt lat="43.19884" lon="6.61065">
        <ele>114.2</ele>
        <time>1970-01-01T00:50:48.000Z</time>
      </trkpt>
      <trkpt lat="43.19881" lon="6.61065">
        <ele>114.5</ele>
        <time>1970-01-01T00:50:49.000Z</time>
      </trkpt>
      <trkpt lat="43.19876" lon="6.61065">
        <ele>114.9</ele>
        <time>1970-01-01T00:50:51.000Z</time>
      </trkpt>
      <trkpt lat="43.1987" lon="6.61065">
        <ele>115.2</ele>
        <time>1970-01-01T00:50:53.000Z</time>
      </trkpt>
      <trkpt lat="43.19866" lon="6.61065">
        <ele>115.4</ele>
        <time>1970-01-01T00:50:54.000Z</time>
      </trkpt>
      <trkpt lat="43.19861" lon="6.61066">
        <ele>115.7</ele>
        <time>1970-01-01T00:50:56.000Z</time>
      </trkpt>
      <trkpt lat="43.19858" lon="6.61066">
        <ele>115.9</ele>
        <time>1970-01-01T00:50:57.000Z</time>
      </trkpt>
      <trkpt lat="43.19854" lon="6.61066">
        <ele>116.2</ele>
        <time>1970-01-01T00:50:58.000Z</time>
      </trkpt>
      <trkpt lat="43.19851" lon="6.61066">
        <ele>116.5</ele>
        <time>1970-01-01T00:50:59.000Z</time>
      </trkpt>
      <trkpt lat="43.19846" lon="6.61066">
        <ele>116.8</ele>
        <time>1970-01-01T00:51:01.000Z</time>
      </trkpt>
      <trkpt lat="43.19844" lon="6.61064">
        <ele>116.8</ele>
        <time>1970-01-01T00:51:02.000Z</time>
      </trkpt>
      <trkpt lat="43.19841" lon="6.61063">
        <ele>116.9</ele>
        <time>1970-01-01T00:51:03.000Z</time>
      </trkpt>
      <trkpt lat="43.19837" lon="6.61063">
        <ele>117</ele>
        <time>1970-01-01T00:51:04.000Z</time>
      </trkpt>
      <trkpt lat="43.19834" lon="6.61063">
        <ele>117.1</ele>
        <time>1970-01-01T00:51:05.000Z</time>
      </trkpt>
      <trkpt lat="43.19831" lon="6.61063">
        <ele>117.2</ele>
        <time>1970-01-01T00:51:06.000Z</time>
      </trkpt>
      <trkpt lat="43.19828" lon="6.61063">
        <ele>117.3</ele>
        <time>1970-01-01T00:51:07.000Z</time>
      </trkpt>
      <trkpt lat="43.19825" lon="6.61063">
        <ele>117.4</ele>
        <time>1970-01-01T00:51:08.000Z</time>
      </trkpt>
      <trkpt lat="43.19822" lon="6.61064">
        <ele>117.6</ele>
        <time>1970-01-01T00:51:09.000Z</time>
      </trkpt>
      <trkpt lat="43.19819" lon="6.61064">
        <ele>117.8</ele>
        <time>1970-01-01T00:51:10.000Z</time>
      </trkpt>
      <trkpt lat="43.19816" lon="6.61065">
        <ele>118</ele>
        <time>1970-01-01T00:51:11.000Z</time>
      </trkpt>
      <trkpt lat="43.19813" lon="6.61065">
        <ele>118.2</ele>
        <time>1970-01-01T00:51:12.000Z</time>
      </trkpt>
      <trkpt lat="43.1981" lon="6.61066">
        <ele>118.3</ele>
        <time>1970-01-01T00:51:13.000Z</time>
      </trkpt>
      <trkpt lat="43.19806" lon="6.61068">
        <ele>118.3</ele>
        <time>1970-01-01T00:51:14.000Z</time>
      </trkpt>
      <trkpt lat="43.19803" lon="6.61068">
        <ele>118.4</ele>
        <time>1970-01-01T00:51:15.000Z</time>
      </trkpt>
      <trkpt lat="43.198" lon="6.61069">
        <ele>118.4</ele>
        <time>1970-01-01T00:51:16.000Z</time>
      </trkpt>
      <trkpt lat="43.19797" lon="6.61071">
        <ele>118.5</ele>
        <time>1970-01-01T00:51:17.000Z</time>
      </trkpt>
      <trkpt lat="43.19794" lon="6.61071">
        <ele>118.6</ele>
        <time>1970-01-01T00:51:18.000Z</time>
      </trkpt>
      <trkpt lat="43.19791" lon="6.6107">
        <ele>118.6</ele>
        <time>1970-01-01T00:51:19.000Z</time>
      </trkpt>
      <trkpt lat="43.19788" lon="6.61065">
        <ele>118.7</ele>
        <time>1970-01-01T00:51:21.000Z</time>
      </trkpt>
      <trkpt lat="43.19784" lon="6.6106">
        <ele>118.9</ele>
        <time>1970-01-01T00:51:23.000Z</time>
      </trkpt>
      <trkpt lat="43.19782" lon="6.61056">
        <ele>119</ele>
        <time>1970-01-01T00:51:24.000Z</time>
      </trkpt>
      <trkpt lat="43.19779" lon="6.61053">
        <ele>119.1</ele>
        <time>1970-01-01T00:51:25.000Z</time>
      </trkpt>
      <trkpt lat="43.19776" lon="6.6105">
        <ele>119.2</ele>
        <time>1970-01-01T00:51:26.000Z</time>
      </trkpt>
      <trkpt lat="43.19774" lon="6.61047">
        <ele>119.4</ele>
        <time>1970-01-01T00:51:27.000Z</time>
      </trkpt>
      <trkpt lat="43.19771" lon="6.61043">
        <ele>119.5</ele>
        <time>1970-01-01T00:51:28.000Z</time>
      </trkpt>
      <trkpt lat="43.19769" lon="6.6104">
        <ele>119.7</ele>
        <time>1970-01-01T00:51:29.000Z</time>
      </trkpt>
      <trkpt lat="43.19767" lon="6.61036">
        <ele>119.8</ele>
        <time>1970-01-01T00:51:30.000Z</time>
      </trkpt>
      <trkpt lat="43.19765" lon="6.61033">
        <ele>119.8</ele>
        <time>1970-01-01T00:51:31.000Z</time>
      </trkpt>
      <trkpt lat="43.19763" lon="6.6103">
        <ele>119.9</ele>
        <time>1970-01-01T00:51:32.000Z</time>
      </trkpt>
      <trkpt lat="43.19761" lon="6.61027">
        <ele>119.9</ele>
        <time>1970-01-01T00:51:33.000Z</time>
      </trkpt>
      <trkpt lat="43.19757" lon="6.61023">
        <ele>120</ele>
        <time>1970-01-01T00:51:35.000Z</time>
      </trkpt>
      <trkpt lat="43.19754" lon="6.6102">
        <ele>120.1</ele>
        <time>1970-01-01T00:51:36.000Z</time>
      </trkpt>
      <trkpt lat="43.19749" lon="6.61018">
        <ele>120.1</ele>
        <time>1970-01-01T00:51:38.000Z</time>
      </trkpt>
      <trkpt lat="43.19746" lon="6.61016">
        <ele>120.2</ele>
        <time>1970-01-01T00:51:39.000Z</time>
      </trkpt>
      <trkpt lat="43.19743" lon="6.61017">
        <ele>120.2</ele>
        <time>1970-01-01T00:51:40.000Z</time>
      </trkpt>
      <trkpt lat="43.1974" lon="6.61018">
        <ele>120.3</ele>
        <time>1970-01-01T00:51:41.000Z</time>
      </trkpt>
      <trkpt lat="43.19737" lon="6.61018">
        <ele>120.4</ele>
        <time>1970-01-01T00:51:42.000Z</time>
      </trkpt>
      <trkpt lat="43.19734" lon="6.61019">
        <ele>120.5</ele>
        <time>1970-01-01T00:51:43.000Z</time>
      </trkpt>
      <trkpt lat="43.19731" lon="6.6102">
        <ele>120.5</ele>
        <time>1970-01-01T00:51:44.000Z</time>
      </trkpt>
      <trkpt lat="43.19728" lon="6.6102">
        <ele>120.6</ele>
        <time>1970-01-01T00:51:45.000Z</time>
      </trkpt>
      <trkpt lat="43.19725" lon="6.6102">
        <ele>120.9</ele>
        <time>1970-01-01T00:51:46.000Z</time>
      </trkpt>
      <trkpt lat="43.19722" lon="6.61019">
        <ele>121.1</ele>
        <time>1970-01-01T00:51:47.000Z</time>
      </trkpt>
      <trkpt lat="43.19717" lon="6.61016">
        <ele>121.5</ele>
        <time>1970-01-01T00:51:49.000Z</time>
      </trkpt>
      <trkpt lat="43.19715" lon="6.61014">
        <ele>121.7</ele>
        <time>1970-01-01T00:51:50.000Z</time>
      </trkpt>
      <trkpt lat="43.19713" lon="6.61011">
        <ele>121.9</ele>
        <time>1970-01-01T00:51:51.000Z</time>
      </trkpt>
      <trkpt lat="43.19711" lon="6.61007">
        <ele>122</ele>
        <time>1970-01-01T00:51:52.000Z</time>
      </trkpt>
      <trkpt lat="43.19709" lon="6.61003">
        <ele>122.1</ele>
        <time>1970-01-01T00:51:53.000Z</time>
      </trkpt>
      <trkpt lat="43.19707" lon="6.60999">
        <ele>122.2</ele>
        <time>1970-01-01T00:51:54.000Z</time>
      </trkpt>
      <trkpt lat="43.19703" lon="6.60994">
        <ele>122.4</ele>
        <time>1970-01-01T00:51:56.000Z</time>
      </trkpt>
      <trkpt lat="43.19699" lon="6.60989">
        <ele>122.8</ele>
        <time>1970-01-01T00:51:58.000Z</time>
      </trkpt>
      <trkpt lat="43.19697" lon="6.60987">
        <ele>123.1</ele>
        <time>1970-01-01T00:51:59.000Z</time>
      </trkpt>
      <trkpt lat="43.19695" lon="6.60984">
        <ele>123.3</ele>
        <time>1970-01-01T00:52:00.000Z</time>
      </trkpt>
      <trkpt lat="43.19692" lon="6.60981">
        <ele>123.5</ele>
        <time>1970-01-01T00:52:01.000Z</time>
      </trkpt>
      <trkpt lat="43.19687" lon="6.60979">
        <ele>123.8</ele>
        <time>1970-01-01T00:52:03.000Z</time>
      </trkpt>
      <trkpt lat="43.19684" lon="6.60979">
        <ele>124</ele>
        <time>1970-01-01T00:52:04.000Z</time>
      </trkpt>
      <trkpt lat="43.19681" lon="6.60979">
        <ele>124.3</ele>
        <time>1970-01-01T00:52:05.000Z</time>
      </trkpt>
      <trkpt lat="43.19678" lon="6.60981">
        <ele>124.6</ele>
        <time>1970-01-01T00:52:06.000Z</time>
      </trkpt>
      <trkpt lat="43.19674" lon="6.60981">
        <ele>124.8</ele>
        <time>1970-01-01T00:52:07.000Z</time>
      </trkpt>
      <trkpt lat="43.19671" lon="6.60982">
        <ele>125.1</ele>
        <time>1970-01-01T00:52:08.000Z</time>
      </trkpt>
      <trkpt lat="43.19669" lon="6.60983">
        <ele>125.3</ele>
        <time>1970-01-01T00:52:09.000Z</time>
      </trkpt>
      <trkpt lat="43.19666" lon="6.60984">
        <ele>125.5</ele>
        <time>1970-01-01T00:52:10.000Z</time>
      </trkpt>
      <trkpt lat="43.19663" lon="6.60985">
        <ele>125.7</ele>
        <time>1970-01-01T00:52:11.000Z</time>
      </trkpt>
      <trkpt lat="43.1966" lon="6.60986">
        <ele>126</ele>
        <time>1970-01-01T00:52:12.000Z</time>
      </trkpt>
      <trkpt lat="43.19657" lon="6.60986">
        <ele>126.2</ele>
        <time>1970-01-01T00:52:13.000Z</time>
      </trkpt>
      <trkpt lat="43.19655" lon="6.60986">
        <ele>126.4</ele>
        <time>1970-01-01T00:52:14.000Z</time>
      </trkpt>
      <trkpt lat="43.19649" lon="6.60985">
        <ele>126.7</ele>
        <time>1970-01-01T00:52:16.000Z</time>
      </trkpt>
      <trkpt lat="43.19645" lon="6.6098">
        <ele>127</ele>
        <time>1970-01-01T00:52:18.000Z</time>
      </trkpt>
      <trkpt lat="43.19643" lon="6.60977">
        <ele>127</ele>
        <time>1970-01-01T00:52:19.000Z</time>
      </trkpt>
      <trkpt lat="43.19641" lon="6.60975">
        <ele>127.1</ele>
        <time>1970-01-01T00:52:20.000Z</time>
      </trkpt>
      <trkpt lat="43.19639" lon="6.60971">
        <ele>127.1</ele>
        <time>1970-01-01T00:52:21.000Z</time>
      </trkpt>
      <trkpt lat="43.19637" lon="6.60968">
        <ele>127.2</ele>
        <time>1970-01-01T00:52:22.000Z</time>
      </trkpt>
      <trkpt lat="43.19635" lon="6.60966">
        <ele>127.2</ele>
        <time>1970-01-01T00:52:23.000Z</time>
      </trkpt>
      <trkpt lat="43.19633" lon="6.60963">
        <ele>127.3</ele>
        <time>1970-01-01T00:52:24.000Z</time>
      </trkpt>
      <trkpt lat="43.1963" lon="6.6096">
        <ele>127.4</ele>
        <time>1970-01-01T00:52:25.000Z</time>
      </trkpt>
      <trkpt lat="43.19628" lon="6.60957">
        <ele>127.5</ele>
        <time>1970-01-01T00:52:26.000Z</time>
      </trkpt>
      <trkpt lat="43.19625" lon="6.60955">
        <ele>127.6</ele>
        <time>1970-01-01T00:52:27.000Z</time>
      </trkpt>
      <trkpt lat="43.19623" lon="6.60952">
        <ele>127.7</ele>
        <time>1970-01-01T00:52:28.000Z</time>
      </trkpt>
      <trkpt lat="43.19621" lon="6.60949">
        <ele>132.8</ele>
        <time>1970-01-01T00:52:29.000Z</time>
      </trkpt>
      <trkpt lat="43.19618" lon="6.60946">
        <ele>137.6</ele>
        <time>1970-01-01T00:52:30.000Z</time>
      </trkpt>
      <trkpt lat="43.19616" lon="6.60943">
        <ele>137.4</ele>
        <time>1970-01-01T00:52:31.000Z</time>
      </trkpt>
      <trkpt lat="43.19614" lon="6.60939">
        <ele>137.2</ele>
        <time>1970-01-01T00:52:32.000Z</time>
      </trkpt>
      <trkpt lat="43.19612" lon="6.60935">
        <ele>137.1</ele>
        <time>1970-01-01T00:52:33.000Z</time>
      </trkpt>
      <trkpt lat="43.19609" lon="6.60933">
        <ele>136.9</ele>
        <time>1970-01-01T00:52:34.000Z</time>
      </trkpt>
      <trkpt lat="43.19607" lon="6.6093">
        <ele>136.8</ele>
        <time>1970-01-01T00:52:35.000Z</time>
      </trkpt>
      <trkpt lat="43.19605" lon="6.60928">
        <ele>136.6</ele>
        <time>1970-01-01T00:52:36.000Z</time>
      </trkpt>
      <trkpt lat="43.19603" lon="6.60926">
        <ele>136.4</ele>
        <time>1970-01-01T00:52:37.000Z</time>
      </trkpt>
      <trkpt lat="43.196" lon="6.60924">
        <ele>136.3</ele>
        <time>1970-01-01T00:52:38.000Z</time>
      </trkpt>
      <trkpt lat="43.19597" lon="6.6092">
        <ele>136.1</ele>
        <time>1970-01-01T00:52:39.000Z</time>
      </trkpt>
      <trkpt lat="43.19594" lon="6.60917">
        <ele>135.9</ele>
        <time>1970-01-01T00:52:40.000Z</time>
      </trkpt>
      <trkpt lat="43.19592" lon="6.60914">
        <ele>135.7</ele>
        <time>1970-01-01T00:52:41.000Z</time>
      </trkpt>
      <trkpt lat="43.19589" lon="6.60911">
        <ele>135.5</ele>
        <time>1970-01-01T00:52:42.000Z</time>
      </trkpt>
      <trkpt lat="43.19587" lon="6.60908">
        <ele>135.3</ele>
        <time>1970-01-01T00:52:43.000Z</time>
      </trkpt>
      <trkpt lat="43.19585" lon="6.60905">
        <ele>135.2</ele>
        <time>1970-01-01T00:52:44.000Z</time>
      </trkpt>
      <trkpt lat="43.19581" lon="6.60901">
        <ele>134.9</ele>
        <time>1970-01-01T00:52:46.000Z</time>
      </trkpt>
      <trkpt lat="43.19579" lon="6.60897">
        <ele>134.7</ele>
        <time>1970-01-01T00:52:47.000Z</time>
      </trkpt>
      <trkpt lat="43.19577" lon="6.60894">
        <ele>134.5</ele>
        <time>1970-01-01T00:52:48.000Z</time>
      </trkpt>
      <trkpt lat="43.19575" lon="6.60891">
        <ele>134.3</ele>
        <time>1970-01-01T00:52:49.000Z</time>
      </trkpt>
      <trkpt lat="43.19573" lon="6.60888">
        <ele>134.1</ele>
        <time>1970-01-01T00:52:50.000Z</time>
      </trkpt>
      <trkpt lat="43.19569" lon="6.60883">
        <ele>133.7</ele>
        <time>1970-01-01T00:52:52.000Z</time>
      </trkpt>
      <trkpt lat="43.19567" lon="6.60881">
        <ele>133.5</ele>
        <time>1970-01-01T00:52:53.000Z</time>
      </trkpt>
      <trkpt lat="43.19565" lon="6.60876">
        <ele>133.1</ele>
        <time>1970-01-01T00:52:55.000Z</time>
      </trkpt>
      <trkpt lat="43.19568" lon="6.60872">
        <ele>133.5</ele>
        <time>1970-01-01T00:52:57.000Z</time>
      </trkpt>
      <trkpt lat="43.19572" lon="6.60874">
        <ele>133.9</ele>
        <time>1970-01-01T00:52:59.000Z</time>
      </trkpt>
      <trkpt lat="43.19575" lon="6.60879">
        <ele>134.2</ele>
        <time>1970-01-01T00:53:01.000Z</time>
      </trkpt>
      <trkpt lat="43.19578" lon="6.60885">
        <ele>134.6</ele>
        <time>1970-01-01T00:53:03.000Z</time>
      </trkpt>
      <trkpt lat="43.19581" lon="6.60889">
        <ele>134.8</ele>
        <time>1970-01-01T00:53:05.000Z</time>
      </trkpt>
      <trkpt lat="43.19583" lon="6.60894">
        <ele>135.1</ele>
        <time>1970-01-01T00:53:07.000Z</time>
      </trkpt>
      <trkpt lat="43.19587" lon="6.60897">
        <ele>135.3</ele>
        <time>1970-01-01T00:53:09.000Z</time>
      </trkpt>
      <trkpt lat="43.19589" lon="6.609">
        <ele>135.5</ele>
        <time>1970-01-01T00:53:10.000Z</time>
      </trkpt>
      <trkpt lat="43.19592" lon="6.60904">
        <ele>135.7</ele>
        <time>1970-01-01T00:53:12.000Z</time>
      </trkpt>
      <trkpt lat="43.19596" lon="6.60907">
        <ele>136</ele>
        <time>1970-01-01T00:53:14.000Z</time>
      </trkpt>
      <trkpt lat="43.19598" lon="6.6091">
        <ele>136.1</ele>
        <time>1970-01-01T00:53:16.000Z</time>
      </trkpt>
      <trkpt lat="43.19601" lon="6.60913">
        <ele>136.3</ele>
        <time>1970-01-01T00:53:18.000Z</time>
      </trkpt>
      <trkpt lat="43.19604" lon="6.60917">
        <ele>136.6</ele>
        <time>1970-01-01T00:53:20.000Z</time>
      </trkpt>
      <trkpt lat="43.19607" lon="6.6092">
        <ele>136.7</ele>
        <time>1970-01-01T00:53:22.000Z</time>
      </trkpt>
      <trkpt lat="43.19611" lon="6.60923">
        <ele>137</ele>
        <time>1970-01-01T00:53:24.000Z</time>
      </trkpt>
      <trkpt lat="43.19616" lon="6.60926">
        <ele>137.3</ele>
        <time>1970-01-01T00:53:26.000Z</time>
      </trkpt>
      <trkpt lat="43.1962" lon="6.60929">
        <ele>137.6</ele>
        <time>1970-01-01T00:53:28.000Z</time>
      </trkpt>
      <trkpt lat="43.19625" lon="6.60931">
        <ele>137.9</ele>
        <time>1970-01-01T00:53:30.000Z</time>
      </trkpt>
      <trkpt lat="43.1963" lon="6.60934">
        <ele>138.2</ele>
        <time>1970-01-01T00:53:32.000Z</time>
      </trkpt>
      <trkpt lat="43.19635" lon="6.60936">
        <ele>138.6</ele>
        <time>1970-01-01T00:53:34.000Z</time>
      </trkpt>
      <trkpt lat="43.1964" lon="6.60938">
        <ele>138.8</ele>
        <time>1970-01-01T00:53:36.000Z</time>
      </trkpt>
      <trkpt lat="43.19643" lon="6.60941">
        <ele>139.1</ele>
        <time>1970-01-01T00:53:38.000Z</time>
      </trkpt>
      <trkpt lat="43.19647" lon="6.60944">
        <ele>139.4</ele>
        <time>1970-01-01T00:53:40.000Z</time>
      </trkpt>
      <trkpt lat="43.19651" lon="6.60945">
        <ele>139.6</ele>
        <time>1970-01-01T00:53:42.000Z</time>
      </trkpt>
      <trkpt lat="43.19656" lon="6.60946">
        <ele>139.9</ele>
        <time>1970-01-01T00:53:44.000Z</time>
      </trkpt>
      <trkpt lat="43.19661" lon="6.60946">
        <ele>140.1</ele>
        <time>1970-01-01T00:53:46.000Z</time>
      </trkpt>
      <trkpt lat="43.19665" lon="6.60944">
        <ele>140.3</ele>
        <time>1970-01-01T00:53:48.000Z</time>
      </trkpt>
      <trkpt lat="43.19668" lon="6.60942">
        <ele>140.5</ele>
        <time>1970-01-01T00:53:50.000Z</time>
      </trkpt>
      <trkpt lat="43.19673" lon="6.60939">
        <ele>140.8</ele>
        <time>1970-01-01T00:53:52.000Z</time>
      </trkpt>
      <trkpt lat="43.19676" lon="6.60934">
        <ele>141</ele>
        <time>1970-01-01T00:53:54.000Z</time>
      </trkpt>
      <trkpt lat="43.1968" lon="6.6093">
        <ele>141.3</ele>
        <time>1970-01-01T00:53:56.000Z</time>
      </trkpt>
      <trkpt lat="43.19684" lon="6.60927">
        <ele>141.5</ele>
        <time>1970-01-01T00:53:58.000Z</time>
      </trkpt>
      <trkpt lat="43.19688" lon="6.60923">
        <ele>141.7</ele>
        <time>1970-01-01T00:54:00.000Z</time>
      </trkpt>
      <trkpt lat="43.19693" lon="6.60922">
        <ele>142</ele>
        <time>1970-01-01T00:54:02.000Z</time>
      </trkpt>
      <trkpt lat="43.19698" lon="6.60922">
        <ele>142.3</ele>
        <time>1970-01-01T00:54:04.000Z</time>
      </trkpt>
      <trkpt lat="43.19703" lon="6.60922">
        <ele>142.6</ele>
        <time>1970-01-01T00:54:06.000Z</time>
      </trkpt>
      <trkpt lat="43.19708" lon="6.60925">
        <ele>143</ele>
        <time>1970-01-01T00:54:08.000Z</time>
      </trkpt>
      <trkpt lat="43.19712" lon="6.60929">
        <ele>143.5</ele>
        <time>1970-01-01T00:54:10.000Z</time>
      </trkpt>
      <trkpt lat="43.19715" lon="6.60932">
        <ele>143.8</ele>
        <time>1970-01-01T00:54:11.000Z</time>
      </trkpt>
      <trkpt lat="43.19717" lon="6.60934">
        <ele>144.1</ele>
        <time>1970-01-01T00:54:12.000Z</time>
      </trkpt>
      <trkpt lat="43.19721" lon="6.60938">
        <ele>144.5</ele>
        <time>1970-01-01T00:54:14.000Z</time>
      </trkpt>
      <trkpt lat="43.19723" lon="6.60941">
        <ele>144.8</ele>
        <time>1970-01-01T00:54:15.000Z</time>
      </trkpt>
      <trkpt lat="43.19727" lon="6.60946">
        <ele>145.3</ele>
        <time>1970-01-01T00:54:17.000Z</time>
      </trkpt>
      <trkpt lat="43.19731" lon="6.60949">
        <ele>145.7</ele>
        <time>1970-01-01T00:54:19.000Z</time>
      </trkpt>
      <trkpt lat="43.19736" lon="6.6095">
        <ele>146.2</ele>
        <time>1970-01-01T00:54:21.000Z</time>
      </trkpt>
      <trkpt lat="43.19741" lon="6.60952">
        <ele>146.6</ele>
        <time>1970-01-01T00:54:23.000Z</time>
      </trkpt>
      <trkpt lat="43.19744" lon="6.60952">
        <ele>146.9</ele>
        <time>1970-01-01T00:54:24.000Z</time>
      </trkpt>
      <trkpt lat="43.19749" lon="6.60953">
        <ele>147.4</ele>
        <time>1970-01-01T00:54:26.000Z</time>
      </trkpt>
      <trkpt lat="43.19754" lon="6.60953">
        <ele>147.8</ele>
        <time>1970-01-01T00:54:28.000Z</time>
      </trkpt>
      <trkpt lat="43.19759" lon="6.60953">
        <ele>148.2</ele>
        <time>1970-01-01T00:54:30.000Z</time>
      </trkpt>
      <trkpt lat="43.19765" lon="6.60954">
        <ele>148.7</ele>
        <time>1970-01-01T00:54:32.000Z</time>
      </trkpt>
      <trkpt lat="43.19769" lon="6.60955">
        <ele>149.1</ele>
        <time>1970-01-01T00:54:34.000Z</time>
      </trkpt>
      <trkpt lat="43.19773" lon="6.60957">
        <ele>149.6</ele>
        <time>1970-01-01T00:54:36.000Z</time>
      </trkpt>
      <trkpt lat="43.19778" lon="6.60957">
        <ele>150</ele>
        <time>1970-01-01T00:54:38.000Z</time>
      </trkpt>
      <trkpt lat="43.19783" lon="6.60955">
        <ele>150.4</ele>
        <time>1970-01-01T00:54:40.000Z</time>
      </trkpt>
      <trkpt lat="43.19787" lon="6.60954">
        <ele>150.8</ele>
        <time>1970-01-01T00:54:42.000Z</time>
      </trkpt>
      <trkpt lat="43.19791" lon="6.60953">
        <ele>151.2</ele>
        <time>1970-01-01T00:54:44.000Z</time>
      </trkpt>
      <trkpt lat="43.19796" lon="6.60951">
        <ele>151.5</ele>
        <time>1970-01-01T00:54:46.000Z</time>
      </trkpt>
      <trkpt lat="43.19799" lon="6.60949">
        <ele>151.8</ele>
        <time>1970-01-01T00:54:48.000Z</time>
      </trkpt>
      <trkpt lat="43.19802" lon="6.60947">
        <ele>152.1</ele>
        <time>1970-01-01T00:54:50.000Z</time>
      </trkpt>
      <trkpt lat="43.19806" lon="6.60944">
        <ele>152.4</ele>
        <time>1970-01-01T00:54:52.000Z</time>
      </trkpt>
      <trkpt lat="43.19809" lon="6.60943">
        <ele>152.6</ele>
        <time>1970-01-01T00:54:53.000Z</time>
      </trkpt>
      <trkpt lat="43.19812" lon="6.6094">
        <ele>152.9</ele>
        <time>1970-01-01T00:54:55.000Z</time>
      </trkpt>
      <trkpt lat="43.19816" lon="6.60936">
        <ele>153.2</ele>
        <time>1970-01-01T00:54:57.000Z</time>
      </trkpt>
      <trkpt lat="43.1982" lon="6.60933">
        <ele>153.5</ele>
        <time>1970-01-01T00:54:59.000Z</time>
      </trkpt>
      <trkpt lat="43.19824" lon="6.6093">
        <ele>153.8</ele>
        <time>1970-01-01T00:55:01.000Z</time>
      </trkpt>
      <trkpt lat="43.19826" lon="6.60927">
        <ele>154</ele>
        <time>1970-01-01T00:55:02.000Z</time>
      </trkpt>
      <trkpt lat="43.19828" lon="6.60925">
        <ele>154.3</ele>
        <time>1970-01-01T00:55:04.000Z</time>
      </trkpt>
      <trkpt lat="43.19831" lon="6.60922">
        <ele>154.5</ele>
        <time>1970-01-01T00:55:06.000Z</time>
      </trkpt>
      <trkpt lat="43.19833" lon="6.60918">
        <ele>154.8</ele>
        <time>1970-01-01T00:55:08.000Z</time>
      </trkpt>
      <trkpt lat="43.19836" lon="6.60914">
        <ele>155.2</ele>
        <time>1970-01-01T00:55:10.000Z</time>
      </trkpt>
      <trkpt lat="43.19838" lon="6.6091">
        <ele>155.4</ele>
        <time>1970-01-01T00:55:12.000Z</time>
      </trkpt>
      <trkpt lat="43.1984" lon="6.60905">
        <ele>155.8</ele>
        <time>1970-01-01T00:55:14.000Z</time>
      </trkpt>
      <trkpt lat="43.19843" lon="6.609">
        <ele>156.1</ele>
        <time>1970-01-01T00:55:16.000Z</time>
      </trkpt>
      <trkpt lat="43.19844" lon="6.60897">
        <ele>156.4</ele>
        <time>1970-01-01T00:55:17.000Z</time>
      </trkpt>
      <trkpt lat="43.19848" lon="6.60892">
        <ele>156.8</ele>
        <time>1970-01-01T00:55:19.000Z</time>
      </trkpt>
      <trkpt lat="43.19851" lon="6.6089">
        <ele>157.1</ele>
        <time>1970-01-01T00:55:20.000Z</time>
      </trkpt>
      <trkpt lat="43.19853" lon="6.60887">
        <ele>157.4</ele>
        <time>1970-01-01T00:55:21.000Z</time>
      </trkpt>
      <trkpt lat="43.19855" lon="6.60884">
        <ele>157.6</ele>
        <time>1970-01-01T00:55:22.000Z</time>
      </trkpt>
      <trkpt lat="43.19858" lon="6.6088">
        <ele>158</ele>
        <time>1970-01-01T00:55:24.000Z</time>
      </trkpt>
      <trkpt lat="43.1986" lon="6.60876">
        <ele>158.3</ele>
        <time>1970-01-01T00:55:27.000Z</time>
      </trkpt>
      <trkpt lat="43.19863" lon="6.60871">
        <ele>158.7</ele>
        <time>1970-01-01T00:55:29.000Z</time>
      </trkpt>
      <trkpt lat="43.19865" lon="6.60866">
        <ele>159</ele>
        <time>1970-01-01T00:55:32.000Z</time>
      </trkpt>
      <trkpt lat="43.19866" lon="6.60861">
        <ele>159.3</ele>
        <time>1970-01-01T00:55:34.000Z</time>
      </trkpt>
      <trkpt lat="43.19867" lon="6.60855">
        <ele>159.6</ele>
        <time>1970-01-01T00:55:36.000Z</time>
      </trkpt>
      <trkpt lat="43.19869" lon="6.60851">
        <ele>159.9</ele>
        <time>1970-01-01T00:55:38.000Z</time>
      </trkpt>
      <trkpt lat="43.19871" lon="6.60845">
        <ele>160.3</ele>
        <time>1970-01-01T00:55:40.000Z</time>
      </trkpt>
      <trkpt lat="43.19873" lon="6.60841">
        <ele>160.6</ele>
        <time>1970-01-01T00:55:42.000Z</time>
      </trkpt>
      <trkpt lat="43.19875" lon="6.60834">
        <ele>161</ele>
        <time>1970-01-01T00:55:44.000Z</time>
      </trkpt>
      <trkpt lat="43.19876" lon="6.60831">
        <ele>161.2</ele>
        <time>1970-01-01T00:55:45.000Z</time>
      </trkpt>
      <trkpt lat="43.19879" lon="6.60827">
        <ele>161.5</ele>
        <time>1970-01-01T00:55:47.000Z</time>
      </trkpt>
      <trkpt lat="43.19881" lon="6.60822">
        <ele>161.8</ele>
        <time>1970-01-01T00:55:49.000Z</time>
      </trkpt>
      <trkpt lat="43.19882" lon="6.60818">
        <ele>162</ele>
        <time>1970-01-01T00:55:50.000Z</time>
      </trkpt>
      <trkpt lat="43.19884" lon="6.60814">
        <ele>162.2</ele>
        <time>1970-01-01T00:55:51.000Z</time>
      </trkpt>
      <trkpt lat="43.19885" lon="6.6081">
        <ele>162.4</ele>
        <time>1970-01-01T00:55:52.000Z</time>
      </trkpt>
      <trkpt lat="43.19886" lon="6.60806">
        <ele>162.6</ele>
        <time>1970-01-01T00:55:53.000Z</time>
      </trkpt>
      <trkpt lat="43.1989" lon="6.60802">
        <ele>162.9</ele>
        <time>1970-01-01T00:55:55.000Z</time>
      </trkpt>
      <trkpt lat="43.19891" lon="6.60798">
        <ele>163.1</ele>
        <time>1970-01-01T00:55:56.000Z</time>
      </trkpt>
      <trkpt lat="43.19893" lon="6.60792">
        <ele>163.4</ele>
        <time>1970-01-01T00:55:58.000Z</time>
      </trkpt>
      <trkpt lat="43.19896" lon="6.60787">
        <ele>163.7</ele>
        <time>1970-01-01T00:56:00.000Z</time>
      </trkpt>
      <trkpt lat="43.199" lon="6.60781">
        <ele>163.9</ele>
        <time>1970-01-01T00:56:02.000Z</time>
      </trkpt>
      <trkpt lat="43.19902" lon="6.60778">
        <ele>164.1</ele>
        <time>1970-01-01T00:56:04.000Z</time>
      </trkpt>
      <trkpt lat="43.19905" lon="6.60777">
        <ele>164.3</ele>
        <time>1970-01-01T00:56:06.000Z</time>
      </trkpt>
      <trkpt lat="43.1991" lon="6.60774">
        <ele>164.6</ele>
        <time>1970-01-01T00:56:08.000Z</time>
      </trkpt>
      <trkpt lat="43.19913" lon="6.60773">
        <ele>164.8</ele>
        <time>1970-01-01T00:56:09.000Z</time>
      </trkpt>
      <trkpt lat="43.19916" lon="6.60771">
        <ele>164.9</ele>
        <time>1970-01-01T00:56:10.000Z</time>
      </trkpt>
      <trkpt lat="43.1992" lon="6.60768">
        <ele>165.2</ele>
        <time>1970-01-01T00:56:12.000Z</time>
      </trkpt>
      <trkpt lat="43.19925" lon="6.60766">
        <ele>165.5</ele>
        <time>1970-01-01T00:56:14.000Z</time>
      </trkpt>
      <trkpt lat="43.1993" lon="6.60763">
        <ele>165.8</ele>
        <time>1970-01-01T00:56:16.000Z</time>
      </trkpt>
      <trkpt lat="43.19934" lon="6.60761">
        <ele>166</ele>
        <time>1970-01-01T00:56:18.000Z</time>
      </trkpt>
      <trkpt lat="43.19938" lon="6.60758">
        <ele>166.3</ele>
        <time>1970-01-01T00:56:20.000Z</time>
      </trkpt>
      <trkpt lat="43.19942" lon="6.60755">
        <ele>166.6</ele>
        <time>1970-01-01T00:56:22.000Z</time>
      </trkpt>
      <trkpt lat="43.19946" lon="6.60752">
        <ele>166.9</ele>
        <time>1970-01-01T00:56:24.000Z</time>
      </trkpt>
      <trkpt lat="43.1995" lon="6.60748">
        <ele>167.2</ele>
        <time>1970-01-01T00:56:26.000Z</time>
      </trkpt>
      <trkpt lat="43.19953" lon="6.60746">
        <ele>167.4</ele>
        <time>1970-01-01T00:56:28.000Z</time>
      </trkpt>
      <trkpt lat="43.19956" lon="6.60741">
        <ele>167.6</ele>
        <time>1970-01-01T00:56:30.000Z</time>
      </trkpt>
      <trkpt lat="43.19959" lon="6.60738">
        <ele>167.8</ele>
        <time>1970-01-01T00:56:31.000Z</time>
      </trkpt>
      <trkpt lat="43.19961" lon="6.60736">
        <ele>168</ele>
        <time>1970-01-01T00:56:32.000Z</time>
      </trkpt>
      <trkpt lat="43.19965" lon="6.60732">
        <ele>168.2</ele>
        <time>1970-01-01T00:56:34.000Z</time>
      </trkpt>
      <trkpt lat="43.19968" lon="6.60728">
        <ele>168.5</ele>
        <time>1970-01-01T00:56:36.000Z</time>
      </trkpt>
      <trkpt lat="43.19971" lon="6.60724">
        <ele>168.7</ele>
        <time>1970-01-01T00:56:38.000Z</time>
      </trkpt>
      <trkpt lat="43.19975" lon="6.60719">
        <ele>169</ele>
        <time>1970-01-01T00:56:40.000Z</time>
      </trkpt>
      <trkpt lat="43.19978" lon="6.60716">
        <ele>169.2</ele>
        <time>1970-01-01T00:56:41.000Z</time>
      </trkpt>
      <trkpt lat="43.1998" lon="6.60713">
        <ele>169.3</ele>
        <time>1970-01-01T00:56:42.000Z</time>
      </trkpt>
      <trkpt lat="43.19984" lon="6.60708">
        <ele>169.6</ele>
        <time>1970-01-01T00:56:44.000Z</time>
      </trkpt>
      <trkpt lat="43.19987" lon="6.60706">
        <ele>169.8</ele>
        <time>1970-01-01T00:56:45.000Z</time>
      </trkpt>
      <trkpt lat="43.19989" lon="6.60704">
        <ele>169.9</ele>
        <time>1970-01-01T00:56:46.000Z</time>
      </trkpt>
      <trkpt lat="43.19991" lon="6.60702">
        <ele>170.1</ele>
        <time>1970-01-01T00:56:47.000Z</time>
      </trkpt>
      <trkpt lat="43.19994" lon="6.60699">
        <ele>170.2</ele>
        <time>1970-01-01T00:56:48.000Z</time>
      </trkpt>
      <trkpt lat="43.19996" lon="6.60697">
        <ele>170.3</ele>
        <time>1970-01-01T00:56:49.000Z</time>
      </trkpt>
      <trkpt lat="43.19999" lon="6.60695">
        <ele>170.5</ele>
        <time>1970-01-01T00:56:50.000Z</time>
      </trkpt>
      <trkpt lat="43.20003" lon="6.60691">
        <ele>170.6</ele>
        <time>1970-01-01T00:56:52.000Z</time>
      </trkpt>
      <trkpt lat="43.20007" lon="6.60687">
        <ele>170.8</ele>
        <time>1970-01-01T00:56:54.000Z</time>
      </trkpt>
      <trkpt lat="43.20009" lon="6.60684">
        <ele>170.9</ele>
        <time>1970-01-01T00:56:55.000Z</time>
      </trkpt>
      <trkpt lat="43.20011" lon="6.60681">
        <ele>170.9</ele>
        <time>1970-01-01T00:56:56.000Z</time>
      </trkpt>
      <trkpt lat="43.20016" lon="6.60676">
        <ele>171</ele>
        <time>1970-01-01T00:56:58.000Z</time>
      </trkpt>
      <trkpt lat="43.20018" lon="6.60673">
        <ele>171</ele>
        <time>1970-01-01T00:56:59.000Z</time>
      </trkpt>
      <trkpt lat="43.2002" lon="6.60671">
        <ele>171</ele>
        <time>1970-01-01T00:57:00.000Z</time>
      </trkpt>
      <trkpt lat="43.20023" lon="6.60669">
        <ele>171</ele>
        <time>1970-01-01T00:57:01.000Z</time>
      </trkpt>
      <trkpt lat="43.20025" lon="6.60666">
        <ele>171</ele>
        <time>1970-01-01T00:57:02.000Z</time>
      </trkpt>
      <trkpt lat="43.20028" lon="6.60663">
        <ele>171</ele>
        <time>1970-01-01T00:57:03.000Z</time>
      </trkpt>
      <trkpt lat="43.2003" lon="6.60661">
        <ele>171</ele>
        <time>1970-01-01T00:57:04.000Z</time>
      </trkpt>
      <trkpt lat="43.20032" lon="6.60658">
        <ele>171</ele>
        <time>1970-01-01T00:57:05.000Z</time>
      </trkpt>
      <trkpt lat="43.20035" lon="6.60655">
        <ele>171</ele>
        <time>1970-01-01T00:57:06.000Z</time>
      </trkpt>
      <trkpt lat="43.20037" lon="6.60653">
        <ele>171</ele>
        <time>1970-01-01T00:57:07.000Z</time>
      </trkpt>
      <trkpt lat="43.20039" lon="6.6065">
        <ele>170.9</ele>
        <time>1970-01-01T00:57:08.000Z</time>
      </trkpt>
      <trkpt lat="43.20042" lon="6.60648">
        <ele>170.9</ele>
        <time>1970-01-01T00:57:09.000Z</time>
      </trkpt>
      <trkpt lat="43.20046" lon="6.60643">
        <ele>170.9</ele>
        <time>1970-01-01T00:57:11.000Z</time>
      </trkpt>
      <trkpt lat="43.20048" lon="6.6064">
        <ele>170.9</ele>
        <time>1970-01-01T00:57:12.000Z</time>
      </trkpt>
      <trkpt lat="43.2005" lon="6.60636">
        <ele>170.8</ele>
        <time>1970-01-01T00:57:13.000Z</time>
      </trkpt>
      <trkpt lat="43.20052" lon="6.60633">
        <ele>170.8</ele>
        <time>1970-01-01T00:57:14.000Z</time>
      </trkpt>
      <trkpt lat="43.20056" lon="6.60628">
        <ele>170.8</ele>
        <time>1970-01-01T00:57:16.000Z</time>
      </trkpt>
      <trkpt lat="43.20058" lon="6.60626">
        <ele>170.8</ele>
        <time>1970-01-01T00:57:17.000Z</time>
      </trkpt>
      <trkpt lat="43.20061" lon="6.60623">
        <ele>170.8</ele>
        <time>1970-01-01T00:57:18.000Z</time>
      </trkpt>
      <trkpt lat="43.20063" lon="6.6062">
        <ele>170.7</ele>
        <time>1970-01-01T00:57:19.000Z</time>
      </trkpt>
      <trkpt lat="43.20066" lon="6.60617">
        <ele>170.7</ele>
        <time>1970-01-01T00:57:20.000Z</time>
      </trkpt>
      <trkpt lat="43.20068" lon="6.60614">
        <ele>170.7</ele>
        <time>1970-01-01T00:57:21.000Z</time>
      </trkpt>
      <trkpt lat="43.20071" lon="6.60611">
        <ele>170.7</ele>
        <time>1970-01-01T00:57:22.000Z</time>
      </trkpt>
      <trkpt lat="43.20074" lon="6.60607">
        <ele>170.6</ele>
        <time>1970-01-01T00:57:23.000Z</time>
      </trkpt>
      <trkpt lat="43.20076" lon="6.60604">
        <ele>170.6</ele>
        <time>1970-01-01T00:57:24.000Z</time>
      </trkpt>
      <trkpt lat="43.20078" lon="6.60601">
        <ele>170.6</ele>
        <time>1970-01-01T00:57:25.000Z</time>
      </trkpt>
      <trkpt lat="43.20081" lon="6.60598">
        <ele>170.6</ele>
        <time>1970-01-01T00:57:26.000Z</time>
      </trkpt>
      <trkpt lat="43.20083" lon="6.60596">
        <ele>170.6</ele>
        <time>1970-01-01T00:57:27.000Z</time>
      </trkpt>
      <trkpt lat="43.20085" lon="6.60593">
        <ele>170.6</ele>
        <time>1970-01-01T00:57:28.000Z</time>
      </trkpt>
      <trkpt lat="43.20087" lon="6.6059">
        <ele>170.5</ele>
        <time>1970-01-01T00:57:29.000Z</time>
      </trkpt>
      <trkpt lat="43.20089" lon="6.60586">
        <ele>170.5</ele>
        <time>1970-01-01T00:57:30.000Z</time>
      </trkpt>
      <trkpt lat="43.20092" lon="6.60583">
        <ele>170.5</ele>
        <time>1970-01-01T00:57:31.000Z</time>
      </trkpt>
      <trkpt lat="43.20094" lon="6.6058">
        <ele>170.5</ele>
        <time>1970-01-01T00:57:32.000Z</time>
      </trkpt>
      <trkpt lat="43.20096" lon="6.60577">
        <ele>170.4</ele>
        <time>1970-01-01T00:57:33.000Z</time>
      </trkpt>
      <trkpt lat="43.20098" lon="6.60574">
        <ele>170.4</ele>
        <time>1970-01-01T00:57:34.000Z</time>
      </trkpt>
      <trkpt lat="43.20099" lon="6.60569">
        <ele>170.4</ele>
        <time>1970-01-01T00:57:35.000Z</time>
      </trkpt>
      <trkpt lat="43.20101" lon="6.60564">
        <ele>170.4</ele>
        <time>1970-01-01T00:57:36.000Z</time>
      </trkpt>
      <trkpt lat="43.20102" lon="6.60558">
        <ele>170.4</ele>
        <time>1970-01-01T00:57:37.000Z</time>
      </trkpt>
      <trkpt lat="43.20103" lon="6.60552">
        <ele>170.4</ele>
        <time>1970-01-01T00:57:38.000Z</time>
      </trkpt>
      <trkpt lat="43.20104" lon="6.60548">
        <ele>170.4</ele>
        <time>1970-01-01T00:57:39.000Z</time>
      </trkpt>
      <trkpt lat="43.20106" lon="6.60542">
        <ele>170.4</ele>
        <time>1970-01-01T00:57:40.000Z</time>
      </trkpt>
      <trkpt lat="43.20109" lon="6.60536">
        <ele>170.5</ele>
        <time>1970-01-01T00:57:41.000Z</time>
      </trkpt>
      <trkpt lat="43.20111" lon="6.6053">
        <ele>170.7</ele>
        <time>1970-01-01T00:57:42.000Z</time>
      </trkpt>
      <trkpt lat="43.20115" lon="6.60524">
        <ele>170.8</ele>
        <time>1970-01-01T00:57:43.000Z</time>
      </trkpt>
      <trkpt lat="43.20118" lon="6.60519">
        <ele>171</ele>
        <time>1970-01-01T00:57:44.000Z</time>
      </trkpt>
      <trkpt lat="43.20121" lon="6.60515">
        <ele>171.2</ele>
        <time>1970-01-01T00:57:45.000Z</time>
      </trkpt>
      <trkpt lat="43.20126" lon="6.60511">
        <ele>171.4</ele>
        <time>1970-01-01T00:57:46.000Z</time>
      </trkpt>
      <trkpt lat="43.2013" lon="6.60508">
        <ele>171.6</ele>
        <time>1970-01-01T00:57:47.000Z</time>
      </trkpt>
      <trkpt lat="43.20134" lon="6.60506">
        <ele>171.7</ele>
        <time>1970-01-01T00:57:48.000Z</time>
      </trkpt>
      <trkpt lat="43.20138" lon="6.60503">
        <ele>171.9</ele>
        <time>1970-01-01T00:57:49.000Z</time>
      </trkpt>
      <trkpt lat="43.20142" lon="6.60501">
        <ele>172</ele>
        <time>1970-01-01T00:57:50.000Z</time>
      </trkpt>
      <trkpt lat="43.20146" lon="6.605">
        <ele>172.1</ele>
        <time>1970-01-01T00:57:51.000Z</time>
      </trkpt>
      <trkpt lat="43.2015" lon="6.60496">
        <ele>172.2</ele>
        <time>1970-01-01T00:57:52.000Z</time>
      </trkpt>
      <trkpt lat="43.20153" lon="6.60494">
        <ele>172.3</ele>
        <time>1970-01-01T00:57:53.000Z</time>
      </trkpt>
      <trkpt lat="43.20157" lon="6.60492">
        <ele>172.4</ele>
        <time>1970-01-01T00:57:54.000Z</time>
      </trkpt>
      <trkpt lat="43.2016" lon="6.60489">
        <ele>172.5</ele>
        <time>1970-01-01T00:57:55.000Z</time>
      </trkpt>
      <trkpt lat="43.20164" lon="6.60488">
        <ele>172.6</ele>
        <time>1970-01-01T00:57:56.000Z</time>
      </trkpt>
      <trkpt lat="43.20167" lon="6.60486">
        <ele>172.7</ele>
        <time>1970-01-01T00:57:57.000Z</time>
      </trkpt>
      <trkpt lat="43.20171" lon="6.60483">
        <ele>172.8</ele>
        <time>1970-01-01T00:57:58.000Z</time>
      </trkpt>
      <trkpt lat="43.20174" lon="6.6048">
        <ele>173</ele>
        <time>1970-01-01T00:57:59.000Z</time>
      </trkpt>
      <trkpt lat="43.20178" lon="6.60477">
        <ele>173.1</ele>
        <time>1970-01-01T00:58:00.000Z</time>
      </trkpt>
      <trkpt lat="43.20182" lon="6.60475">
        <ele>173.3</ele>
        <time>1970-01-01T00:58:01.000Z</time>
      </trkpt>
      <trkpt lat="43.20186" lon="6.60473">
        <ele>173.4</ele>
        <time>1970-01-01T00:58:02.000Z</time>
      </trkpt>
      <trkpt lat="43.2019" lon="6.60471">
        <ele>173.5</ele>
        <time>1970-01-01T00:58:03.000Z</time>
      </trkpt>
      <trkpt lat="43.20194" lon="6.6047">
        <ele>173.7</ele>
        <time>1970-01-01T00:58:04.000Z</time>
      </trkpt>
      <trkpt lat="43.20197" lon="6.60468">
        <ele>173.7</ele>
        <time>1970-01-01T00:58:05.000Z</time>
      </trkpt>
      <trkpt lat="43.20201" lon="6.60466">
        <ele>173.8</ele>
        <time>1970-01-01T00:58:06.000Z</time>
      </trkpt>
      <trkpt lat="43.20203" lon="6.60463">
        <ele>173.9</ele>
        <time>1970-01-01T00:58:07.000Z</time>
      </trkpt>
      <trkpt lat="43.20206" lon="6.60461">
        <ele>173.9</ele>
        <time>1970-01-01T00:58:08.000Z</time>
      </trkpt>
      <trkpt lat="43.2021" lon="6.60459">
        <ele>173.9</ele>
        <time>1970-01-01T00:58:09.000Z</time>
      </trkpt>
      <trkpt lat="43.20213" lon="6.60457">
        <ele>173.9</ele>
        <time>1970-01-01T00:58:10.000Z</time>
      </trkpt>
      <trkpt lat="43.20216" lon="6.60454">
        <ele>173.9</ele>
        <time>1970-01-01T00:58:11.000Z</time>
      </trkpt>
      <trkpt lat="43.20219" lon="6.60452">
        <ele>173.9</ele>
        <time>1970-01-01T00:58:12.000Z</time>
      </trkpt>
      <trkpt lat="43.20222" lon="6.6045">
        <ele>173.9</ele>
        <time>1970-01-01T00:58:13.000Z</time>
      </trkpt>
      <trkpt lat="43.20225" lon="6.60447">
        <ele>173.9</ele>
        <time>1970-01-01T00:58:14.000Z</time>
      </trkpt>
      <trkpt lat="43.20228" lon="6.60445">
        <ele>173.9</ele>
        <time>1970-01-01T00:58:15.000Z</time>
      </trkpt>
      <trkpt lat="43.20231" lon="6.60442">
        <ele>173.9</ele>
        <time>1970-01-01T00:58:16.000Z</time>
      </trkpt>
      <trkpt lat="43.20234" lon="6.6044">
        <ele>173.9</ele>
        <time>1970-01-01T00:58:17.000Z</time>
      </trkpt>
      <trkpt lat="43.20237" lon="6.60438">
        <ele>174</ele>
        <time>1970-01-01T00:58:18.000Z</time>
      </trkpt>
      <trkpt lat="43.2024" lon="6.60436">
        <ele>174</ele>
        <time>1970-01-01T00:58:19.000Z</time>
      </trkpt>
      <trkpt lat="43.20244" lon="6.60434">
        <ele>174.1</ele>
        <time>1970-01-01T00:58:20.000Z</time>
      </trkpt>
      <trkpt lat="43.20247" lon="6.60433">
        <ele>174.1</ele>
        <time>1970-01-01T00:58:21.000Z</time>
      </trkpt>
      <trkpt lat="43.2025" lon="6.6043">
        <ele>174.2</ele>
        <time>1970-01-01T00:58:22.000Z</time>
      </trkpt>
      <trkpt lat="43.20254" lon="6.60428">
        <ele>174.4</ele>
        <time>1970-01-01T00:58:23.000Z</time>
      </trkpt>
      <trkpt lat="43.20258" lon="6.60427">
        <ele>174.5</ele>
        <time>1970-01-01T00:58:24.000Z</time>
      </trkpt>
      <trkpt lat="43.20261" lon="6.60425">
        <ele>174.6</ele>
        <time>1970-01-01T00:58:25.000Z</time>
      </trkpt>
      <trkpt lat="43.20265" lon="6.60422">
        <ele>174.8</ele>
        <time>1970-01-01T00:58:26.000Z</time>
      </trkpt>
      <trkpt lat="43.20268" lon="6.60421">
        <ele>174.9</ele>
        <time>1970-01-01T00:58:27.000Z</time>
      </trkpt>
      <trkpt lat="43.20272" lon="6.60419">
        <ele>175.1</ele>
        <time>1970-01-01T00:58:28.000Z</time>
      </trkpt>
      <trkpt lat="43.20275" lon="6.60418">
        <ele>175.3</ele>
        <time>1970-01-01T00:58:29.000Z</time>
      </trkpt>
      <trkpt lat="43.20279" lon="6.60417">
        <ele>175.5</ele>
        <time>1970-01-01T00:58:30.000Z</time>
      </trkpt>
      <trkpt lat="43.20283" lon="6.60415">
        <ele>175.7</ele>
        <time>1970-01-01T00:58:31.000Z</time>
      </trkpt>
      <trkpt lat="43.20287" lon="6.60414">
        <ele>175.9</ele>
        <time>1970-01-01T00:58:32.000Z</time>
      </trkpt>
      <trkpt lat="43.20291" lon="6.60414">
        <ele>176.1</ele>
        <time>1970-01-01T00:58:33.000Z</time>
      </trkpt>
      <trkpt lat="43.20294" lon="6.60414">
        <ele>176.3</ele>
        <time>1970-01-01T00:58:34.000Z</time>
      </trkpt>
      <trkpt lat="43.20299" lon="6.60413">
        <ele>176.6</ele>
        <time>1970-01-01T00:58:35.000Z</time>
      </trkpt>
      <trkpt lat="43.20303" lon="6.60413">
        <ele>176.8</ele>
        <time>1970-01-01T00:58:36.000Z</time>
      </trkpt>
      <trkpt lat="43.20307" lon="6.60412">
        <ele>177.1</ele>
        <time>1970-01-01T00:58:37.000Z</time>
      </trkpt>
      <trkpt lat="43.20311" lon="6.60412">
        <ele>177.3</ele>
        <time>1970-01-01T00:58:38.000Z</time>
      </trkpt>
      <trkpt lat="43.20315" lon="6.60412">
        <ele>177.6</ele>
        <time>1970-01-01T00:58:39.000Z</time>
      </trkpt>
      <trkpt lat="43.20319" lon="6.60412">
        <ele>177.8</ele>
        <time>1970-01-01T00:58:40.000Z</time>
      </trkpt>
      <trkpt lat="43.20323" lon="6.60412">
        <ele>178.1</ele>
        <time>1970-01-01T00:58:41.000Z</time>
      </trkpt>
      <trkpt lat="43.20327" lon="6.60412">
        <ele>178.4</ele>
        <time>1970-01-01T00:58:42.000Z</time>
      </trkpt>
      <trkpt lat="43.20331" lon="6.60412">
        <ele>178.7</ele>
        <time>1970-01-01T00:58:43.000Z</time>
      </trkpt>
      <trkpt lat="43.20334" lon="6.60412">
        <ele>179</ele>
        <time>1970-01-01T00:58:44.000Z</time>
      </trkpt>
      <trkpt lat="43.20337" lon="6.60413">
        <ele>179.2</ele>
        <time>1970-01-01T00:58:45.000Z</time>
      </trkpt>
      <trkpt lat="43.20341" lon="6.60414">
        <ele>179.5</ele>
        <time>1970-01-01T00:58:46.000Z</time>
      </trkpt>
      <trkpt lat="43.20344" lon="6.60415">
        <ele>179.8</ele>
        <time>1970-01-01T00:58:47.000Z</time>
      </trkpt>
      <trkpt lat="43.20346" lon="6.60418">
        <ele>180.1</ele>
        <time>1970-01-01T00:58:48.000Z</time>
      </trkpt>
      <trkpt lat="43.20348" lon="6.60421">
        <ele>180.3</ele>
        <time>1970-01-01T00:58:49.000Z</time>
      </trkpt>
      <trkpt lat="43.20352" lon="6.60425">
        <ele>180.7</ele>
        <time>1970-01-01T00:58:51.000Z</time>
      </trkpt>
      <trkpt lat="43.20355" lon="6.60427">
        <ele>180.9</ele>
        <time>1970-01-01T00:58:52.000Z</time>
      </trkpt>
      <trkpt lat="43.20359" lon="6.60432">
        <ele>181.4</ele>
        <time>1970-01-01T00:58:54.000Z</time>
      </trkpt>
      <trkpt lat="43.20362" lon="6.60434">
        <ele>181.6</ele>
        <time>1970-01-01T00:58:55.000Z</time>
      </trkpt>
      <trkpt lat="43.20364" lon="6.60436">
        <ele>181.8</ele>
        <time>1970-01-01T00:58:56.000Z</time>
      </trkpt>
      <trkpt lat="43.20369" lon="6.6044">
        <ele>182.3</ele>
        <time>1970-01-01T00:58:58.000Z</time>
      </trkpt>
      <trkpt lat="43.20371" lon="6.60442">
        <ele>182.5</ele>
        <time>1970-01-01T00:58:59.000Z</time>
      </trkpt>
      <trkpt lat="43.20375" lon="6.60445">
        <ele>183</ele>
        <time>1970-01-01T00:59:01.000Z</time>
      </trkpt>
      <trkpt lat="43.20381" lon="6.60447">
        <ele>183.4</ele>
        <time>1970-01-01T00:59:03.000Z</time>
      </trkpt>
      <trkpt lat="43.20384" lon="6.60448">
        <ele>183.6</ele>
        <time>1970-01-01T00:59:04.000Z</time>
      </trkpt>
      <trkpt lat="43.20389" lon="6.60447">
        <ele>184</ele>
        <time>1970-01-01T00:59:06.000Z</time>
      </trkpt>
      <trkpt lat="43.20393" lon="6.60445">
        <ele>184.4</ele>
        <time>1970-01-01T00:59:08.000Z</time>
      </trkpt>
      <trkpt lat="43.20397" lon="6.60444">
        <ele>184.7</ele>
        <time>1970-01-01T00:59:10.000Z</time>
      </trkpt>
      <trkpt lat="43.20401" lon="6.60441">
        <ele>185</ele>
        <time>1970-01-01T00:59:12.000Z</time>
      </trkpt>
      <trkpt lat="43.20406" lon="6.60438">
        <ele>185.4</ele>
        <time>1970-01-01T00:59:14.000Z</time>
      </trkpt>
      <trkpt lat="43.20409" lon="6.60436">
        <ele>185.7</ele>
        <time>1970-01-01T00:59:16.000Z</time>
      </trkpt>
      <trkpt lat="43.20414" lon="6.60432">
        <ele>186</ele>
        <time>1970-01-01T00:59:18.000Z</time>
      </trkpt>
      <trkpt lat="43.20417" lon="6.6043">
        <ele>186.2</ele>
        <time>1970-01-01T00:59:19.000Z</time>
      </trkpt>
      <trkpt lat="43.20419" lon="6.60429">
        <ele>186.4</ele>
        <time>1970-01-01T00:59:20.000Z</time>
      </trkpt>
      <trkpt lat="43.20424" lon="6.60425">
        <ele>186.7</ele>
        <time>1970-01-01T00:59:22.000Z</time>
      </trkpt>
      <trkpt lat="43.20428" lon="6.60422">
        <ele>187</ele>
        <time>1970-01-01T00:59:24.000Z</time>
      </trkpt>
      <trkpt lat="43.20431" lon="6.60421">
        <ele>187.2</ele>
        <time>1970-01-01T00:59:25.000Z</time>
      </trkpt>
      <trkpt lat="43.20435" lon="6.60418">
        <ele>187.5</ele>
        <time>1970-01-01T00:59:27.000Z</time>
      </trkpt>
      <trkpt lat="43.2044" lon="6.60417">
        <ele>187.9</ele>
        <time>1970-01-01T00:59:29.000Z</time>
      </trkpt>
      <trkpt lat="43.20443" lon="6.60416">
        <ele>188</ele>
        <time>1970-01-01T00:59:30.000Z</time>
      </trkpt>
      <trkpt lat="43.20448" lon="6.60416">
        <ele>188.4</ele>
        <time>1970-01-01T00:59:32.000Z</time>
      </trkpt>
      <trkpt lat="43.20451" lon="6.60415">
        <ele>188.6</ele>
        <time>1970-01-01T00:59:33.000Z</time>
      </trkpt>
      <trkpt lat="43.20454" lon="6.60414">
        <ele>188.8</ele>
        <time>1970-01-01T00:59:34.000Z</time>
      </trkpt>
      <trkpt lat="43.20457" lon="6.60413">
        <ele>189</ele>
        <time>1970-01-01T00:59:35.000Z</time>
      </trkpt>
      <trkpt lat="43.2046" lon="6.60413">
        <ele>189.1</ele>
        <time>1970-01-01T00:59:36.000Z</time>
      </trkpt>
      <trkpt lat="43.20463" lon="6.60413">
        <ele>189.3</ele>
        <time>1970-01-01T00:59:37.000Z</time>
      </trkpt>
      <trkpt lat="43.20466" lon="6.60413">
        <ele>189.5</ele>
        <time>1970-01-01T00:59:38.000Z</time>
      </trkpt>
      <trkpt lat="43.20469" lon="6.60412">
        <ele>189.6</ele>
        <time>1970-01-01T00:59:39.000Z</time>
      </trkpt>
      <trkpt lat="43.20474" lon="6.60412">
        <ele>189.9</ele>
        <time>1970-01-01T00:59:41.000Z</time>
      </trkpt>
      <trkpt lat="43.20478" lon="6.60412">
        <ele>190.1</ele>
        <time>1970-01-01T00:59:42.000Z</time>
      </trkpt>
      <trkpt lat="43.2048" lon="6.60411">
        <ele>190.2</ele>
        <time>1970-01-01T00:59:43.000Z</time>
      </trkpt>
      <trkpt lat="43.20486" lon="6.60411">
        <ele>190.6</ele>
        <time>1970-01-01T00:59:45.000Z</time>
      </trkpt>
      <trkpt lat="43.2049" lon="6.60412">
        <ele>190.7</ele>
        <time>1970-01-01T00:59:46.000Z</time>
      </trkpt>
      <trkpt lat="43.20495" lon="6.60411">
        <ele>191</ele>
        <time>1970-01-01T00:59:48.000Z</time>
      </trkpt>
      <trkpt lat="43.20498" lon="6.60411">
        <ele>191.2</ele>
        <time>1970-01-01T00:59:49.000Z</time>
      </trkpt>
      <trkpt lat="43.20501" lon="6.60411">
        <ele>191.4</ele>
        <time>1970-01-01T00:59:50.000Z</time>
      </trkpt>
      <trkpt lat="43.20505" lon="6.60411">
        <ele>191.5</ele>
        <time>1970-01-01T00:59:51.000Z</time>
      </trkpt>
      <trkpt lat="43.20507" lon="6.60412">
        <ele>191.7</ele>
        <time>1970-01-01T00:59:52.000Z</time>
      </trkpt>
      <trkpt lat="43.20511" lon="6.60412">
        <ele>191.8</ele>
        <time>1970-01-01T00:59:53.000Z</time>
      </trkpt>
      <trkpt lat="43.20514" lon="6.60413">
        <ele>192</ele>
        <time>1970-01-01T00:59:54.000Z</time>
      </trkpt>
      <trkpt lat="43.20517" lon="6.60414">
        <ele>192.1</ele>
        <time>1970-01-01T00:59:55.000Z</time>
      </trkpt>
      <trkpt lat="43.20522" lon="6.60416">
        <ele>192.4</ele>
        <time>1970-01-01T00:59:57.000Z</time>
      </trkpt>
      <trkpt lat="43.20525" lon="6.60418">
        <ele>192.6</ele>
        <time>1970-01-01T00:59:58.000Z</time>
      </trkpt>
      <trkpt lat="43.20529" lon="6.60421">
        <ele>192.8</ele>
        <time>1970-01-01T01:00:00.000Z</time>
      </trkpt>
      <trkpt lat="43.20533" lon="6.60423">
        <ele>193.1</ele>
        <time>1970-01-01T01:00:02.000Z</time>
      </trkpt>
      <trkpt lat="43.20537" lon="6.60426">
        <ele>193.5</ele>
        <time>1970-01-01T01:00:04.000Z</time>
      </trkpt>
      <trkpt lat="43.20541" lon="6.6043">
        <ele>193.9</ele>
        <time>1970-01-01T01:00:06.000Z</time>
      </trkpt>
      <trkpt lat="43.20543" lon="6.60433">
        <ele>194.2</ele>
        <time>1970-01-01T01:00:07.000Z</time>
      </trkpt>
      <trkpt lat="43.20546" lon="6.60434">
        <ele>194.4</ele>
        <time>1970-01-01T01:00:08.000Z</time>
      </trkpt>
      <trkpt lat="43.20549" lon="6.60436">
        <ele>194.8</ele>
        <time>1970-01-01T01:00:09.000Z</time>
      </trkpt>
      <trkpt lat="43.20554" lon="6.60437">
        <ele>195.3</ele>
        <time>1970-01-01T01:00:11.000Z</time>
      </trkpt>
      <trkpt lat="43.20559" lon="6.60439">
        <ele>195.7</ele>
        <time>1970-01-01T01:00:13.000Z</time>
      </trkpt>
      <trkpt lat="43.20564" lon="6.60438">
        <ele>196.1</ele>
        <time>1970-01-01T01:00:15.000Z</time>
      </trkpt>
      <trkpt lat="43.20567" lon="6.60437">
        <ele>196.3</ele>
        <time>1970-01-01T01:00:16.000Z</time>
      </trkpt>
      <trkpt lat="43.20571" lon="6.60435">
        <ele>196.6</ele>
        <time>1970-01-01T01:00:18.000Z</time>
      </trkpt>
      <trkpt lat="43.20573" lon="6.60433">
        <ele>196.7</ele>
        <time>1970-01-01T01:00:19.000Z</time>
      </trkpt>
      <trkpt lat="43.20576" lon="6.60432">
        <ele>196.8</ele>
        <time>1970-01-01T01:00:20.000Z</time>
      </trkpt>
      <trkpt lat="43.20579" lon="6.6043">
        <ele>197</ele>
        <time>1970-01-01T01:00:21.000Z</time>
      </trkpt>
      <trkpt lat="43.20581" lon="6.60428">
        <ele>197</ele>
        <time>1970-01-01T01:00:22.000Z</time>
      </trkpt>
      <trkpt lat="43.20585" lon="6.60425">
        <ele>197.1</ele>
        <time>1970-01-01T01:00:24.000Z</time>
      </trkpt>
      <trkpt lat="43.2059" lon="6.60423">
        <ele>197.2</ele>
        <time>1970-01-01T01:00:26.000Z</time>
      </trkpt>
      <trkpt lat="43.20592" lon="6.60422">
        <ele>197.3</ele>
        <time>1970-01-01T01:00:27.000Z</time>
      </trkpt>
      <trkpt lat="43.20595" lon="6.60421">
        <ele>197.3</ele>
        <time>1970-01-01T01:00:28.000Z</time>
      </trkpt>
      <trkpt lat="43.20598" lon="6.6042">
        <ele>197.4</ele>
        <time>1970-01-01T01:00:29.000Z</time>
      </trkpt>
      <trkpt lat="43.20601" lon="6.60419">
        <ele>197.4</ele>
        <time>1970-01-01T01:00:30.000Z</time>
      </trkpt>
      <trkpt lat="43.20604" lon="6.60418">
        <ele>197.5</ele>
        <time>1970-01-01T01:00:31.000Z</time>
      </trkpt>
      <trkpt lat="43.20607" lon="6.60418">
        <ele>197.6</ele>
        <time>1970-01-01T01:00:32.000Z</time>
      </trkpt>
      <trkpt lat="43.2061" lon="6.60416">
        <ele>197.6</ele>
        <time>1970-01-01T01:00:33.000Z</time>
      </trkpt>
      <trkpt lat="43.20613" lon="6.60415">
        <ele>197.7</ele>
        <time>1970-01-01T01:00:34.000Z</time>
      </trkpt>
      <trkpt lat="43.20616" lon="6.60413">
        <ele>197.8</ele>
        <time>1970-01-01T01:00:35.000Z</time>
      </trkpt>
      <trkpt lat="43.20621" lon="6.60413">
        <ele>198</ele>
        <time>1970-01-01T01:00:37.000Z</time>
      </trkpt>
      <trkpt lat="43.20624" lon="6.60412">
        <ele>198.1</ele>
        <time>1970-01-01T01:00:38.000Z</time>
      </trkpt>
      <trkpt lat="43.20626" lon="6.6041">
        <ele>198.2</ele>
        <time>1970-01-01T01:00:39.000Z</time>
      </trkpt>
      <trkpt lat="43.20632" lon="6.60409">
        <ele>198.4</ele>
        <time>1970-01-01T01:00:41.000Z</time>
      </trkpt>
      <trkpt lat="43.20635" lon="6.60408">
        <ele>198.5</ele>
        <time>1970-01-01T01:00:42.000Z</time>
      </trkpt>
      <trkpt lat="43.20638" lon="6.60408">
        <ele>198.6</ele>
        <time>1970-01-01T01:00:43.000Z</time>
      </trkpt>
      <trkpt lat="43.20641" lon="6.60406">
        <ele>198.7</ele>
        <time>1970-01-01T01:00:44.000Z</time>
      </trkpt>
      <trkpt lat="43.20644" lon="6.60405">
        <ele>198.8</ele>
        <time>1970-01-01T01:00:45.000Z</time>
      </trkpt>
      <trkpt lat="43.20647" lon="6.60403">
        <ele>198.9</ele>
        <time>1970-01-01T01:00:46.000Z</time>
      </trkpt>
      <trkpt lat="43.2065" lon="6.60402">
        <ele>198.9</ele>
        <time>1970-01-01T01:00:47.000Z</time>
      </trkpt>
      <trkpt lat="43.20652" lon="6.604">
        <ele>199</ele>
        <time>1970-01-01T01:00:48.000Z</time>
      </trkpt>
      <trkpt lat="43.20656" lon="6.60397">
        <ele>199</ele>
        <time>1970-01-01T01:00:50.000Z</time>
      </trkpt>
      <trkpt lat="43.20661" lon="6.60392">
        <ele>199</ele>
        <time>1970-01-01T01:00:52.000Z</time>
      </trkpt>
      <trkpt lat="43.20663" lon="6.60389">
        <ele>198.9</ele>
        <time>1970-01-01T01:00:53.000Z</time>
      </trkpt>
      <trkpt lat="43.20666" lon="6.60386">
        <ele>198.9</ele>
        <time>1970-01-01T01:00:54.000Z</time>
      </trkpt>
      <trkpt lat="43.20668" lon="6.60383">
        <ele>198.8</ele>
        <time>1970-01-01T01:00:55.000Z</time>
      </trkpt>
      <trkpt lat="43.2067" lon="6.60381">
        <ele>198.7</ele>
        <time>1970-01-01T01:00:56.000Z</time>
      </trkpt>
      <trkpt lat="43.20672" lon="6.60378">
        <ele>198.5</ele>
        <time>1970-01-01T01:00:57.000Z</time>
      </trkpt>
      <trkpt lat="43.20674" lon="6.60376">
        <ele>198.4</ele>
        <time>1970-01-01T01:00:58.000Z</time>
      </trkpt>
      <trkpt lat="43.20676" lon="6.60373">
        <ele>198.2</ele>
        <time>1970-01-01T01:00:59.000Z</time>
      </trkpt>
      <trkpt lat="43.20679" lon="6.6037">
        <ele>198</ele>
        <time>1970-01-01T01:01:00.000Z</time>
      </trkpt>
      <trkpt lat="43.2068" lon="6.60366">
        <ele>197.7</ele>
        <time>1970-01-01T01:01:01.000Z</time>
      </trkpt>
      <trkpt lat="43.20682" lon="6.60363">
        <ele>197.5</ele>
        <time>1970-01-01T01:01:02.000Z</time>
      </trkpt>
      <trkpt lat="43.20685" lon="6.6036">
        <ele>197.3</ele>
        <time>1970-01-01T01:01:03.000Z</time>
      </trkpt>
      <trkpt lat="43.20687" lon="6.60358">
        <ele>197.1</ele>
        <time>1970-01-01T01:01:04.000Z</time>
      </trkpt>
      <trkpt lat="43.20689" lon="6.60355">
        <ele>196.9</ele>
        <time>1970-01-01T01:01:05.000Z</time>
      </trkpt>
      <trkpt lat="43.20691" lon="6.60352">
        <ele>196.8</ele>
        <time>1970-01-01T01:01:06.000Z</time>
      </trkpt>
      <trkpt lat="43.20693" lon="6.60349">
        <ele>196.7</ele>
        <time>1970-01-01T01:01:07.000Z</time>
      </trkpt>
      <trkpt lat="43.20696" lon="6.60346">
        <ele>196.6</ele>
        <time>1970-01-01T01:01:08.000Z</time>
      </trkpt>
      <trkpt lat="43.20699" lon="6.60344">
        <ele>196.5</ele>
        <time>1970-01-01T01:01:09.000Z</time>
      </trkpt>
      <trkpt lat="43.20703" lon="6.60341">
        <ele>196.4</ele>
        <time>1970-01-01T01:01:11.000Z</time>
      </trkpt>
      <trkpt lat="43.20707" lon="6.60339">
        <ele>196.3</ele>
        <time>1970-01-01T01:01:12.000Z</time>
      </trkpt>
      <trkpt lat="43.20711" lon="6.60337">
        <ele>196.2</ele>
        <time>1970-01-01T01:01:13.000Z</time>
      </trkpt>
      <trkpt lat="43.20716" lon="6.60336">
        <ele>195.9</ele>
        <time>1970-01-01T01:01:14.000Z</time>
      </trkpt>
      <trkpt lat="43.20722" lon="6.60334">
        <ele>195.7</ele>
        <time>1970-01-01T01:01:15.000Z</time>
      </trkpt>
      <trkpt lat="43.20726" lon="6.60333">
        <ele>195.4</ele>
        <time>1970-01-01T01:01:16.000Z</time>
      </trkpt>
      <trkpt lat="43.20731" lon="6.60332">
        <ele>195.1</ele>
        <time>1970-01-01T01:01:17.000Z</time>
      </trkpt>
      <trkpt lat="43.20735" lon="6.60332">
        <ele>194.8</ele>
        <time>1970-01-01T01:01:18.000Z</time>
      </trkpt>
      <trkpt lat="43.20739" lon="6.6033">
        <ele>194.5</ele>
        <time>1970-01-01T01:01:19.000Z</time>
      </trkpt>
      <trkpt lat="43.20744" lon="6.6033">
        <ele>194.3</ele>
        <time>1970-01-01T01:01:20.000Z</time>
      </trkpt>
      <trkpt lat="43.20748" lon="6.6033">
        <ele>194.1</ele>
        <time>1970-01-01T01:01:21.000Z</time>
      </trkpt>
      <trkpt lat="43.20752" lon="6.6033">
        <ele>194</ele>
        <time>1970-01-01T01:01:22.000Z</time>
      </trkpt>
      <trkpt lat="43.20755" lon="6.6033">
        <ele>193.9</ele>
        <time>1970-01-01T01:01:23.000Z</time>
      </trkpt>
      <trkpt lat="43.20759" lon="6.6033">
        <ele>193.8</ele>
        <time>1970-01-01T01:01:24.000Z</time>
      </trkpt>
      <trkpt lat="43.20763" lon="6.60332">
        <ele>193.7</ele>
        <time>1970-01-01T01:01:25.000Z</time>
      </trkpt>
      <trkpt lat="43.20767" lon="6.60333">
        <ele>193.7</ele>
        <time>1970-01-01T01:01:26.000Z</time>
      </trkpt>
      <trkpt lat="43.2077" lon="6.60333">
        <ele>193.6</ele>
        <time>1970-01-01T01:01:27.000Z</time>
      </trkpt>
      <trkpt lat="43.20774" lon="6.60333">
        <ele>193.6</ele>
        <time>1970-01-01T01:01:28.000Z</time>
      </trkpt>
      <trkpt lat="43.20778" lon="6.60333">
        <ele>193.6</ele>
        <time>1970-01-01T01:01:29.000Z</time>
      </trkpt>
      <trkpt lat="43.20782" lon="6.60333">
        <ele>193.5</ele>
        <time>1970-01-01T01:01:30.000Z</time>
      </trkpt>
      <trkpt lat="43.20785" lon="6.60332">
        <ele>193.5</ele>
        <time>1970-01-01T01:01:31.000Z</time>
      </trkpt>
      <trkpt lat="43.20789" lon="6.60331">
        <ele>193.5</ele>
        <time>1970-01-01T01:01:32.000Z</time>
      </trkpt>
      <trkpt lat="43.20793" lon="6.6033">
        <ele>193.4</ele>
        <time>1970-01-01T01:01:33.000Z</time>
      </trkpt>
      <trkpt lat="43.20798" lon="6.60329">
        <ele>193.4</ele>
        <time>1970-01-01T01:01:34.000Z</time>
      </trkpt>
      <trkpt lat="43.20802" lon="6.6033">
        <ele>193.3</ele>
        <time>1970-01-01T01:01:35.000Z</time>
      </trkpt>
      <trkpt lat="43.20806" lon="6.60331">
        <ele>193.2</ele>
        <time>1970-01-01T01:01:36.000Z</time>
      </trkpt>
      <trkpt lat="43.20809" lon="6.60335">
        <ele>193</ele>
        <time>1970-01-01T01:01:37.000Z</time>
      </trkpt>
      <trkpt lat="43.20812" lon="6.60338">
        <ele>192.9</ele>
        <time>1970-01-01T01:01:38.000Z</time>
      </trkpt>
      <trkpt lat="43.20816" lon="6.6034">
        <ele>192.7</ele>
        <time>1970-01-01T01:01:39.000Z</time>
      </trkpt>
      <trkpt lat="43.2082" lon="6.60342">
        <ele>192.4</ele>
        <time>1970-01-01T01:01:40.000Z</time>
      </trkpt>
      <trkpt lat="43.20824" lon="6.60344">
        <ele>192.2</ele>
        <time>1970-01-01T01:01:41.000Z</time>
      </trkpt>
      <trkpt lat="43.20827" lon="6.60345">
        <ele>191.9</ele>
        <time>1970-01-01T01:01:42.000Z</time>
      </trkpt>
      <trkpt lat="43.20831" lon="6.60346">
        <ele>191.7</ele>
        <time>1970-01-01T01:01:43.000Z</time>
      </trkpt>
      <trkpt lat="43.20835" lon="6.60346">
        <ele>191.5</ele>
        <time>1970-01-01T01:01:44.000Z</time>
      </trkpt>
      <trkpt lat="43.20839" lon="6.60346">
        <ele>191.3</ele>
        <time>1970-01-01T01:01:45.000Z</time>
      </trkpt>
      <trkpt lat="43.20844" lon="6.60345">
        <ele>191.1</ele>
        <time>1970-01-01T01:01:46.000Z</time>
      </trkpt>
      <trkpt lat="43.20848" lon="6.60344">
        <ele>190.9</ele>
        <time>1970-01-01T01:01:47.000Z</time>
      </trkpt>
      <trkpt lat="43.20852" lon="6.60342">
        <ele>190.8</ele>
        <time>1970-01-01T01:01:48.000Z</time>
      </trkpt>
      <trkpt lat="43.20857" lon="6.60341">
        <ele>190.7</ele>
        <time>1970-01-01T01:01:49.000Z</time>
      </trkpt>
      <trkpt lat="43.20861" lon="6.6034">
        <ele>190.7</ele>
        <time>1970-01-01T01:01:50.000Z</time>
      </trkpt>
      <trkpt lat="43.20866" lon="6.60338">
        <ele>190.6</ele>
        <time>1970-01-01T01:01:51.000Z</time>
      </trkpt>
      <trkpt lat="43.20871" lon="6.60337">
        <ele>190.6</ele>
        <time>1970-01-01T01:01:52.000Z</time>
      </trkpt>
      <trkpt lat="43.20876" lon="6.60334">
        <ele>190.6</ele>
        <time>1970-01-01T01:01:53.000Z</time>
      </trkpt>
      <trkpt lat="43.20881" lon="6.60332">
        <ele>190.5</ele>
        <time>1970-01-01T01:01:54.000Z</time>
      </trkpt>
      <trkpt lat="43.20886" lon="6.60328">
        <ele>190.5</ele>
        <time>1970-01-01T01:01:55.000Z</time>
      </trkpt>
      <trkpt lat="43.20891" lon="6.60326">
        <ele>190.4</ele>
        <time>1970-01-01T01:01:56.000Z</time>
      </trkpt>
      <trkpt lat="43.20896" lon="6.60323">
        <ele>190.4</ele>
        <time>1970-01-01T01:01:57.000Z</time>
      </trkpt>
      <trkpt lat="43.20901" lon="6.60321">
        <ele>190.4</ele>
        <time>1970-01-01T01:01:58.000Z</time>
      </trkpt>
      <trkpt lat="43.20906" lon="6.60319">
        <ele>190.3</ele>
        <time>1970-01-01T01:01:59.000Z</time>
      </trkpt>
      <trkpt lat="43.20911" lon="6.60317">
        <ele>190.3</ele>
        <time>1970-01-01T01:02:00.000Z</time>
      </trkpt>
      <trkpt lat="43.20916" lon="6.60317">
        <ele>190.2</ele>
        <time>1970-01-01T01:02:01.000Z</time>
      </trkpt>
      <trkpt lat="43.20923" lon="6.60317">
        <ele>190.2</ele>
        <time>1970-01-01T01:02:02.000Z</time>
      </trkpt>
      <trkpt lat="43.20928" lon="6.60317">
        <ele>190.2</ele>
        <time>1970-01-01T01:02:03.000Z</time>
      </trkpt>
      <trkpt lat="43.20934" lon="6.60318">
        <ele>190.2</ele>
        <time>1970-01-01T01:02:04.000Z</time>
      </trkpt>
      <trkpt lat="43.20939" lon="6.6032">
        <ele>190.2</ele>
        <time>1970-01-01T01:02:05.000Z</time>
      </trkpt>
      <trkpt lat="43.20944" lon="6.60321">
        <ele>190.2</ele>
        <time>1970-01-01T01:02:06.000Z</time>
      </trkpt>
      <trkpt lat="43.20949" lon="6.60324">
        <ele>190.3</ele>
        <time>1970-01-01T01:02:07.000Z</time>
      </trkpt>
      <trkpt lat="43.20954" lon="6.60327">
        <ele>190.5</ele>
        <time>1970-01-01T01:02:08.000Z</time>
      </trkpt>
      <trkpt lat="43.2096" lon="6.60329">
        <ele>190.7</ele>
        <time>1970-01-01T01:02:09.000Z</time>
      </trkpt>
      <trkpt lat="43.20965" lon="6.60332">
        <ele>191</ele>
        <time>1970-01-01T01:02:10.000Z</time>
      </trkpt>
      <trkpt lat="43.2097" lon="6.60337">
        <ele>191.4</ele>
        <time>1970-01-01T01:02:11.000Z</time>
      </trkpt>
      <trkpt lat="43.20975" lon="6.60341">
        <ele>191.9</ele>
        <time>1970-01-01T01:02:12.000Z</time>
      </trkpt>
      <trkpt lat="43.20979" lon="6.60345">
        <ele>192.4</ele>
        <time>1970-01-01T01:02:13.000Z</time>
      </trkpt>
      <trkpt lat="43.20982" lon="6.6035">
        <ele>192.8</ele>
        <time>1970-01-01T01:02:14.000Z</time>
      </trkpt>
      <trkpt lat="43.20985" lon="6.60355">
        <ele>193.3</ele>
        <time>1970-01-01T01:02:15.000Z</time>
      </trkpt>
      <trkpt lat="43.20988" lon="6.60361">
        <ele>193.7</ele>
        <time>1970-01-01T01:02:16.000Z</time>
      </trkpt>
      <trkpt lat="43.20989" lon="6.60366">
        <ele>194.1</ele>
        <time>1970-01-01T01:02:17.000Z</time>
      </trkpt>
      <trkpt lat="43.20991" lon="6.6037">
        <ele>194.4</ele>
        <time>1970-01-01T01:02:18.000Z</time>
      </trkpt>
      <trkpt lat="43.20992" lon="6.60374">
        <ele>194.8</ele>
        <time>1970-01-01T01:02:19.000Z</time>
      </trkpt>
      <trkpt lat="43.20992" lon="6.60378">
        <ele>195.1</ele>
        <time>1970-01-01T01:02:20.000Z</time>
      </trkpt>
      <trkpt lat="43.20992" lon="6.60382">
        <ele>195.4</ele>
        <time>1970-01-01T01:02:21.000Z</time>
      </trkpt>
      <trkpt lat="43.20992" lon="6.60389">
        <ele>196</ele>
        <time>1970-01-01T01:02:23.000Z</time>
      </trkpt>
      <trkpt lat="43.20991" lon="6.60393">
        <ele>196.3</ele>
        <time>1970-01-01T01:02:24.000Z</time>
      </trkpt>
      <trkpt lat="43.2099" lon="6.604">
        <ele>196.8</ele>
        <time>1970-01-01T01:02:26.000Z</time>
      </trkpt>
      <trkpt lat="43.20989" lon="6.60407">
        <ele>197.3</ele>
        <time>1970-01-01T01:02:28.000Z</time>
      </trkpt>
      <trkpt lat="43.20988" lon="6.60411">
        <ele>197.6</ele>
        <time>1970-01-01T01:02:29.000Z</time>
      </trkpt>
      <trkpt lat="43.20986" lon="6.60416">
        <ele>198</ele>
        <time>1970-01-01T01:02:31.000Z</time>
      </trkpt>
      <trkpt lat="43.20983" lon="6.60422">
        <ele>198.5</ele>
        <time>1970-01-01T01:02:33.000Z</time>
      </trkpt>
      <trkpt lat="43.20982" lon="6.60428">
        <ele>198.8</ele>
        <time>1970-01-01T01:02:35.000Z</time>
      </trkpt>
      <trkpt lat="43.2098" lon="6.60434">
        <ele>199.2</ele>
        <time>1970-01-01T01:02:37.000Z</time>
      </trkpt>
      <trkpt lat="43.20978" lon="6.60439">
        <ele>199.6</ele>
        <time>1970-01-01T01:02:39.000Z</time>
      </trkpt>
      <trkpt lat="43.20976" lon="6.60445">
        <ele>199.9</ele>
        <time>1970-01-01T01:02:41.000Z</time>
      </trkpt>
      <trkpt lat="43.20974" lon="6.6045">
        <ele>200.2</ele>
        <time>1970-01-01T01:02:43.000Z</time>
      </trkpt>
      <trkpt lat="43.20973" lon="6.60455">
        <ele>200.5</ele>
        <time>1970-01-01T01:02:45.000Z</time>
      </trkpt>
      <trkpt lat="43.20971" lon="6.60459">
        <ele>200.8</ele>
        <time>1970-01-01T01:02:47.000Z</time>
      </trkpt>
      <trkpt lat="43.2097" lon="6.60463">
        <ele>201.1</ele>
        <time>1970-01-01T01:02:49.000Z</time>
      </trkpt>
      <trkpt lat="43.20968" lon="6.60469">
        <ele>201.4</ele>
        <time>1970-01-01T01:02:51.000Z</time>
      </trkpt>
      <trkpt lat="43.20967" lon="6.60473">
        <ele>201.7</ele>
        <time>1970-01-01T01:02:52.000Z</time>
      </trkpt>
      <trkpt lat="43.20964" lon="6.6048">
        <ele>202.2</ele>
        <time>1970-01-01T01:02:54.000Z</time>
      </trkpt>
      <trkpt lat="43.20962" lon="6.60486">
        <ele>202.6</ele>
        <time>1970-01-01T01:02:56.000Z</time>
      </trkpt>
      <trkpt lat="43.20959" lon="6.60491">
        <ele>203.1</ele>
        <time>1970-01-01T01:02:58.000Z</time>
      </trkpt>
      <trkpt lat="43.20957" lon="6.60495">
        <ele>203.4</ele>
        <time>1970-01-01T01:02:59.000Z</time>
      </trkpt>
      <trkpt lat="43.20953" lon="6.60497">
        <ele>203.8</ele>
        <time>1970-01-01T01:03:02.000Z</time>
      </trkpt>
      <trkpt lat="43.2095" lon="6.60499">
        <ele>204.1</ele>
        <time>1970-01-01T01:03:03.000Z</time>
      </trkpt>
      <trkpt lat="43.20947" lon="6.605">
        <ele>204.3</ele>
        <time>1970-01-01T01:03:04.000Z</time>
      </trkpt>
      <trkpt lat="43.20943" lon="6.60503">
        <ele>204.8</ele>
        <time>1970-01-01T01:03:06.000Z</time>
      </trkpt>
      <trkpt lat="43.20938" lon="6.60506">
        <ele>205.2</ele>
        <time>1970-01-01T01:03:08.000Z</time>
      </trkpt>
      <trkpt lat="43.20936" lon="6.60508">
        <ele>205.5</ele>
        <time>1970-01-01T01:03:09.000Z</time>
      </trkpt>
      <trkpt lat="43.20932" lon="6.60512">
        <ele>205.8</ele>
        <time>1970-01-01T01:03:11.000Z</time>
      </trkpt>
      <trkpt lat="43.20927" lon="6.60514">
        <ele>206.2</ele>
        <time>1970-01-01T01:03:13.000Z</time>
      </trkpt>
      <trkpt lat="43.20923" lon="6.60518">
        <ele>206.6</ele>
        <time>1970-01-01T01:03:15.000Z</time>
      </trkpt>
      <trkpt lat="43.2092" lon="6.60522">
        <ele>206.9</ele>
        <time>1970-01-01T01:03:17.000Z</time>
      </trkpt>
      <trkpt lat="43.20916" lon="6.60525">
        <ele>207.2</ele>
        <time>1970-01-01T01:03:19.000Z</time>
      </trkpt>
      <trkpt lat="43.20915" lon="6.60529">
        <ele>207.4</ele>
        <time>1970-01-01T01:03:20.000Z</time>
      </trkpt>
      <trkpt lat="43.20912" lon="6.60535">
        <ele>207.7</ele>
        <time>1970-01-01T01:03:22.000Z</time>
      </trkpt>
      <trkpt lat="43.20909" lon="6.60541">
        <ele>208.1</ele>
        <time>1970-01-01T01:03:24.000Z</time>
      </trkpt>
      <trkpt lat="43.20907" lon="6.60547">
        <ele>208.4</ele>
        <time>1970-01-01T01:03:26.000Z</time>
      </trkpt>
      <trkpt lat="43.20905" lon="6.60553">
        <ele>208.7</ele>
        <time>1970-01-01T01:03:28.000Z</time>
      </trkpt>
      <trkpt lat="43.20902" lon="6.6056">
        <ele>209.1</ele>
        <time>1970-01-01T01:03:30.000Z</time>
      </trkpt>
      <trkpt lat="43.20901" lon="6.60564">
        <ele>209.3</ele>
        <time>1970-01-01T01:03:31.000Z</time>
      </trkpt>
      <trkpt lat="43.209" lon="6.60571">
        <ele>209.6</ele>
        <time>1970-01-01T01:03:33.000Z</time>
      </trkpt>
      <trkpt lat="43.20898" lon="6.60576">
        <ele>209.9</ele>
        <time>1970-01-01T01:03:35.000Z</time>
      </trkpt>
      <trkpt lat="43.20897" lon="6.6058">
        <ele>210.1</ele>
        <time>1970-01-01T01:03:36.000Z</time>
      </trkpt>
      <trkpt lat="43.20896" lon="6.60585">
        <ele>210.3</ele>
        <time>1970-01-01T01:03:37.000Z</time>
      </trkpt>
      <trkpt lat="43.20895" lon="6.60589">
        <ele>210.5</ele>
        <time>1970-01-01T01:03:38.000Z</time>
      </trkpt>
      <trkpt lat="43.20893" lon="6.60596">
        <ele>210.9</ele>
        <time>1970-01-01T01:03:40.000Z</time>
      </trkpt>
      <trkpt lat="43.20893" lon="6.606">
        <ele>211.2</ele>
        <time>1970-01-01T01:03:41.000Z</time>
      </trkpt>
      <trkpt lat="43.20892" lon="6.60604">
        <ele>211.4</ele>
        <time>1970-01-01T01:03:42.000Z</time>
      </trkpt>
      <trkpt lat="43.20891" lon="6.6061">
        <ele>211.8</ele>
        <time>1970-01-01T01:03:44.000Z</time>
      </trkpt>
      <trkpt lat="43.20889" lon="6.60616">
        <ele>212.1</ele>
        <time>1970-01-01T01:03:46.000Z</time>
      </trkpt>
      <trkpt lat="43.20888" lon="6.60623">
        <ele>212.6</ele>
        <time>1970-01-01T01:03:48.000Z</time>
      </trkpt>
      <trkpt lat="43.20886" lon="6.6063">
        <ele>212.9</ele>
        <time>1970-01-01T01:03:50.000Z</time>
      </trkpt>
      <trkpt lat="43.20883" lon="6.60634">
        <ele>213.3</ele>
        <time>1970-01-01T01:03:52.000Z</time>
      </trkpt>
      <trkpt lat="43.20881" lon="6.60638">
        <ele>213.5</ele>
        <time>1970-01-01T01:03:54.000Z</time>
      </trkpt>
      <trkpt lat="43.20878" lon="6.60644">
        <ele>213.9</ele>
        <time>1970-01-01T01:03:56.000Z</time>
      </trkpt>
      <trkpt lat="43.20875" lon="6.6065">
        <ele>214.2</ele>
        <time>1970-01-01T01:03:58.000Z</time>
      </trkpt>
      <trkpt lat="43.20871" lon="6.60655">
        <ele>214.6</ele>
        <time>1970-01-01T01:04:00.000Z</time>
      </trkpt>
      <trkpt lat="43.20867" lon="6.6066">
        <ele>214.9</ele>
        <time>1970-01-01T01:04:02.000Z</time>
      </trkpt>
      <trkpt lat="43.20864" lon="6.60665">
        <ele>215.2</ele>
        <time>1970-01-01T01:04:04.000Z</time>
      </trkpt>
      <trkpt lat="43.20862" lon="6.6067">
        <ele>215.5</ele>
        <time>1970-01-01T01:04:06.000Z</time>
      </trkpt>
      <trkpt lat="43.2086" lon="6.60676">
        <ele>215.8</ele>
        <time>1970-01-01T01:04:08.000Z</time>
      </trkpt>
      <trkpt lat="43.2086" lon="6.60684">
        <ele>216.1</ele>
        <time>1970-01-01T01:04:10.000Z</time>
      </trkpt>
      <trkpt lat="43.20861" lon="6.60692">
        <ele>216.5</ele>
        <time>1970-01-01T01:04:12.000Z</time>
      </trkpt>
      <trkpt lat="43.20862" lon="6.60697">
        <ele>216.7</ele>
        <time>1970-01-01T01:04:13.000Z</time>
      </trkpt>
      <trkpt lat="43.20864" lon="6.607">
        <ele>217</ele>
        <time>1970-01-01T01:04:14.000Z</time>
      </trkpt>
      <trkpt lat="43.20866" lon="6.60703">
        <ele>217.2</ele>
        <time>1970-01-01T01:04:15.000Z</time>
      </trkpt>
      <trkpt lat="43.20869" lon="6.60705">
        <ele>217.4</ele>
        <time>1970-01-01T01:04:16.000Z</time>
      </trkpt>
      <trkpt lat="43.20872" lon="6.60705">
        <ele>217.7</ele>
        <time>1970-01-01T01:04:17.000Z</time>
      </trkpt>
      <trkpt lat="43.20875" lon="6.60705">
        <ele>218</ele>
        <time>1970-01-01T01:04:18.000Z</time>
      </trkpt>
      <trkpt lat="43.20878" lon="6.60705">
        <ele>218.3</ele>
        <time>1970-01-01T01:04:19.000Z</time>
      </trkpt>
      <trkpt lat="43.20881" lon="6.60705">
        <ele>218.5</ele>
        <time>1970-01-01T01:04:20.000Z</time>
      </trkpt>
      <trkpt lat="43.20884" lon="6.60705">
        <ele>218.8</ele>
        <time>1970-01-01T01:04:21.000Z</time>
      </trkpt>
      <trkpt lat="43.20887" lon="6.60704">
        <ele>219.1</ele>
        <time>1970-01-01T01:04:22.000Z</time>
      </trkpt>
      <trkpt lat="43.2089" lon="6.60705">
        <ele>219.4</ele>
        <time>1970-01-01T01:04:23.000Z</time>
      </trkpt>
      <trkpt lat="43.20893" lon="6.60704">
        <ele>219.7</ele>
        <time>1970-01-01T01:04:24.000Z</time>
      </trkpt>
      <trkpt lat="43.20895" lon="6.60703">
        <ele>220</ele>
        <time>1970-01-01T01:04:25.000Z</time>
      </trkpt>
      <trkpt lat="43.20898" lon="6.60702">
        <ele>220.2</ele>
        <time>1970-01-01T01:04:26.000Z</time>
      </trkpt>
      <trkpt lat="43.20903" lon="6.607">
        <ele>220.7</ele>
        <time>1970-01-01T01:04:28.000Z</time>
      </trkpt>
      <trkpt lat="43.20906" lon="6.60698">
        <ele>220.9</ele>
        <time>1970-01-01T01:04:29.000Z</time>
      </trkpt>
      <trkpt lat="43.2091" lon="6.60695">
        <ele>221</ele>
        <time>1970-01-01T01:04:31.000Z</time>
      </trkpt>
      <trkpt lat="43.20913" lon="6.60692">
        <ele>221.4</ele>
        <time>1970-01-01T01:04:33.000Z</time>
      </trkpt>
      <trkpt lat="43.20916" lon="6.60688">
        <ele>221.8</ele>
        <time>1970-01-01T01:04:35.000Z</time>
      </trkpt>
      <trkpt lat="43.20918" lon="6.60686">
        <ele>222.1</ele>
        <time>1970-01-01T01:04:38.000Z</time>
      </trkpt>
      <trkpt lat="43.20921" lon="6.60681">
        <ele>222.5</ele>
        <time>1970-01-01T01:04:40.000Z</time>
      </trkpt>
      <trkpt lat="43.20924" lon="6.60681">
        <ele>223</ele>
        <time>1970-01-01T01:04:42.000Z</time>
      </trkpt>
      <trkpt lat="43.20927" lon="6.6068">
        <ele>223.5</ele>
        <time>1970-01-01T01:04:44.000Z</time>
      </trkpt>
      <trkpt lat="43.20931" lon="6.6068">
        <ele>224.1</ele>
        <time>1970-01-01T01:04:46.000Z</time>
      </trkpt>
      <trkpt lat="43.20936" lon="6.60679">
        <ele>224.7</ele>
        <time>1970-01-01T01:04:48.000Z</time>
      </trkpt>
      <trkpt lat="43.20939" lon="6.60679">
        <ele>225.1</ele>
        <time>1970-01-01T01:04:50.000Z</time>
      </trkpt>
      <trkpt lat="43.20943" lon="6.60678">
        <ele>225.7</ele>
        <time>1970-01-01T01:04:52.000Z</time>
      </trkpt>
      <trkpt lat="43.20947" lon="6.60677">
        <ele>226.3</ele>
        <time>1970-01-01T01:04:54.000Z</time>
      </trkpt>
      <trkpt lat="43.2095" lon="6.60675">
        <ele>226.9</ele>
        <time>1970-01-01T01:04:56.000Z</time>
      </trkpt>
      <trkpt lat="43.20954" lon="6.60672">
        <ele>227.2</ele>
        <time>1970-01-01T01:04:58.000Z</time>
      </trkpt>
      <trkpt lat="43.20957" lon="6.60669">
        <ele>227.6</ele>
        <time>1970-01-01T01:05:00.000Z</time>
      </trkpt>
      <trkpt lat="43.20962" lon="6.60665">
        <ele>228.3</ele>
        <time>1970-01-01T01:05:02.000Z</time>
      </trkpt>
      <trkpt lat="43.20966" lon="6.60662">
        <ele>229</ele>
        <time>1970-01-01T01:05:04.000Z</time>
      </trkpt>
      <trkpt lat="43.2097" lon="6.60659">
        <ele>229.5</ele>
        <time>1970-01-01T01:05:06.000Z</time>
      </trkpt>
      <trkpt lat="43.20973" lon="6.60655">
        <ele>230</ele>
        <time>1970-01-01T01:05:08.000Z</time>
      </trkpt>
      <trkpt lat="43.20978" lon="6.60652">
        <ele>230.4</ele>
        <time>1970-01-01T01:05:10.000Z</time>
      </trkpt>
      <trkpt lat="43.20982" lon="6.60648">
        <ele>230.9</ele>
        <time>1970-01-01T01:05:12.000Z</time>
      </trkpt>
      <trkpt lat="43.20986" lon="6.60645">
        <ele>231.5</ele>
        <time>1970-01-01T01:05:14.000Z</time>
      </trkpt>
      <trkpt lat="43.20989" lon="6.60642">
        <ele>232.1</ele>
        <time>1970-01-01T01:05:16.000Z</time>
      </trkpt>
      <trkpt lat="43.20992" lon="6.60639">
        <ele>232.6</ele>
        <time>1970-01-01T01:05:18.000Z</time>
      </trkpt>
      <trkpt lat="43.20995" lon="6.60636">
        <ele>233.1</ele>
        <time>1970-01-01T01:05:20.000Z</time>
      </trkpt>
      <trkpt lat="43.20999" lon="6.60633">
        <ele>233.4</ele>
        <time>1970-01-01T01:05:22.000Z</time>
      </trkpt>
      <trkpt lat="43.21002" lon="6.6063">
        <ele>233.6</ele>
        <time>1970-01-01T01:05:24.000Z</time>
      </trkpt>
      <trkpt lat="43.21006" lon="6.60627">
        <ele>233.9</ele>
        <time>1970-01-01T01:05:26.000Z</time>
      </trkpt>
      <trkpt lat="43.21009" lon="6.60625">
        <ele>234.4</ele>
        <time>1970-01-01T01:05:28.000Z</time>
      </trkpt>
      <trkpt lat="43.21012" lon="6.60621">
        <ele>234.9</ele>
        <time>1970-01-01T01:05:30.000Z</time>
      </trkpt>
      <trkpt lat="43.21014" lon="6.60619">
        <ele>235.3</ele>
        <time>1970-01-01T01:05:31.000Z</time>
      </trkpt>
      <trkpt lat="43.21017" lon="6.60616">
        <ele>235.7</ele>
        <time>1970-01-01T01:05:32.000Z</time>
      </trkpt>
      <trkpt lat="43.21019" lon="6.60614">
        <ele>236</ele>
        <time>1970-01-01T01:05:33.000Z</time>
      </trkpt>
      <trkpt lat="43.21021" lon="6.60612">
        <ele>236.2</ele>
        <time>1970-01-01T01:05:34.000Z</time>
      </trkpt>
      <trkpt lat="43.21026" lon="6.60609">
        <ele>236.5</ele>
        <time>1970-01-01T01:05:36.000Z</time>
      </trkpt>
      <trkpt lat="43.2103" lon="6.60606">
        <ele>236.8</ele>
        <time>1970-01-01T01:05:38.000Z</time>
      </trkpt>
      <trkpt lat="43.21033" lon="6.60602">
        <ele>237.3</ele>
        <time>1970-01-01T01:05:40.000Z</time>
      </trkpt>
      <trkpt lat="43.21037" lon="6.60599">
        <ele>237.9</ele>
        <time>1970-01-01T01:05:42.000Z</time>
      </trkpt>
      <trkpt lat="43.21041" lon="6.60594">
        <ele>238.5</ele>
        <time>1970-01-01T01:05:44.000Z</time>
      </trkpt>
      <trkpt lat="43.21043" lon="6.60591">
        <ele>238.8</ele>
        <time>1970-01-01T01:05:45.000Z</time>
      </trkpt>
      <trkpt lat="43.21047" lon="6.60588">
        <ele>239.2</ele>
        <time>1970-01-01T01:05:47.000Z</time>
      </trkpt>
      <trkpt lat="43.21052" lon="6.60583">
        <ele>239.9</ele>
        <time>1970-01-01T01:05:49.000Z</time>
      </trkpt>
      <trkpt lat="43.21054" lon="6.60581">
        <ele>240.2</ele>
        <time>1970-01-01T01:05:50.000Z</time>
      </trkpt>
      <trkpt lat="43.21056" lon="6.60579">
        <ele>240.5</ele>
        <time>1970-01-01T01:05:51.000Z</time>
      </trkpt>
      <trkpt lat="43.21059" lon="6.60577">
        <ele>240.8</ele>
        <time>1970-01-01T01:05:52.000Z</time>
      </trkpt>
      <trkpt lat="43.21061" lon="6.60574">
        <ele>241.2</ele>
        <time>1970-01-01T01:05:53.000Z</time>
      </trkpt>
      <trkpt lat="43.21063" lon="6.60572">
        <ele>241.5</ele>
        <time>1970-01-01T01:05:54.000Z</time>
      </trkpt>
      <trkpt lat="43.21066" lon="6.6057">
        <ele>241.7</ele>
        <time>1970-01-01T01:05:55.000Z</time>
      </trkpt>
      <trkpt lat="43.21069" lon="6.60568">
        <ele>241.9</ele>
        <time>1970-01-01T01:05:56.000Z</time>
      </trkpt>
      <trkpt lat="43.21072" lon="6.60567">
        <ele>242.1</ele>
        <time>1970-01-01T01:05:57.000Z</time>
      </trkpt>
      <trkpt lat="43.21075" lon="6.60567">
        <ele>242.3</ele>
        <time>1970-01-01T01:05:58.000Z</time>
      </trkpt>
      <trkpt lat="43.21078" lon="6.60566">
        <ele>242.4</ele>
        <time>1970-01-01T01:05:59.000Z</time>
      </trkpt>
      <trkpt lat="43.21081" lon="6.60566">
        <ele>242.6</ele>
        <time>1970-01-01T01:06:00.000Z</time>
      </trkpt>
      <trkpt lat="43.21084" lon="6.60568">
        <ele>242.8</ele>
        <time>1970-01-01T01:06:01.000Z</time>
      </trkpt>
      <trkpt lat="43.21086" lon="6.60569">
        <ele>243</ele>
        <time>1970-01-01T01:06:02.000Z</time>
      </trkpt>
      <trkpt lat="43.21089" lon="6.60571">
        <ele>243.3</ele>
        <time>1970-01-01T01:06:03.000Z</time>
      </trkpt>
      <trkpt lat="43.21092" lon="6.60573">
        <ele>243.6</ele>
        <time>1970-01-01T01:06:04.000Z</time>
      </trkpt>
      <trkpt lat="43.21096" lon="6.60577">
        <ele>243.9</ele>
        <time>1970-01-01T01:06:06.000Z</time>
      </trkpt>
      <trkpt lat="43.21098" lon="6.6058">
        <ele>244.1</ele>
        <time>1970-01-01T01:06:07.000Z</time>
      </trkpt>
      <trkpt lat="43.211" lon="6.60582">
        <ele>244.3</ele>
        <time>1970-01-01T01:06:08.000Z</time>
      </trkpt>
      <trkpt lat="43.21102" lon="6.60585">
        <ele>244.4</ele>
        <time>1970-01-01T01:06:09.000Z</time>
      </trkpt>
      <trkpt lat="43.21105" lon="6.60589">
        <ele>244.5</ele>
        <time>1970-01-01T01:06:10.000Z</time>
      </trkpt>
      <trkpt lat="43.21108" lon="6.60592">
        <ele>244.6</ele>
        <time>1970-01-01T01:06:11.000Z</time>
      </trkpt>
      <trkpt lat="43.2111" lon="6.60595">
        <ele>244.7</ele>
        <time>1970-01-01T01:06:12.000Z</time>
      </trkpt>
      <trkpt lat="43.21112" lon="6.60598">
        <ele>244.7</ele>
        <time>1970-01-01T01:06:13.000Z</time>
      </trkpt>
      <trkpt lat="43.21115" lon="6.60601">
        <ele>244.7</ele>
        <time>1970-01-01T01:06:14.000Z</time>
      </trkpt>
      <trkpt lat="43.21118" lon="6.60603">
        <ele>244.7</ele>
        <time>1970-01-01T01:06:15.000Z</time>
      </trkpt>
      <trkpt lat="43.21121" lon="6.60608">
        <ele>244.8</ele>
        <time>1970-01-01T01:06:16.000Z</time>
      </trkpt>
      <trkpt lat="43.21124" lon="6.60612">
        <ele>244.8</ele>
        <time>1970-01-01T01:06:17.000Z</time>
      </trkpt>
      <trkpt lat="43.21127" lon="6.60616">
        <ele>244.9</ele>
        <time>1970-01-01T01:06:18.000Z</time>
      </trkpt>
      <trkpt lat="43.21129" lon="6.60619">
        <ele>244.9</ele>
        <time>1970-01-01T01:06:19.000Z</time>
      </trkpt>
      <trkpt lat="43.21133" lon="6.60624">
        <ele>244.9</ele>
        <time>1970-01-01T01:06:20.000Z</time>
      </trkpt>
      <trkpt lat="43.21137" lon="6.60628">
        <ele>245</ele>
        <time>1970-01-01T01:06:21.000Z</time>
      </trkpt>
      <trkpt lat="43.2114" lon="6.60632">
        <ele>245</ele>
        <time>1970-01-01T01:06:22.000Z</time>
      </trkpt>
      <trkpt lat="43.21143" lon="6.60636">
        <ele>245.1</ele>
        <time>1970-01-01T01:06:23.000Z</time>
      </trkpt>
      <trkpt lat="43.21148" lon="6.60639">
        <ele>245.1</ele>
        <time>1970-01-01T01:06:24.000Z</time>
      </trkpt>
      <trkpt lat="43.21153" lon="6.60642">
        <ele>245.2</ele>
        <time>1970-01-01T01:06:25.000Z</time>
      </trkpt>
      <trkpt lat="43.21158" lon="6.60645">
        <ele>245.2</ele>
        <time>1970-01-01T01:06:26.000Z</time>
      </trkpt>
      <trkpt lat="43.21164" lon="6.60646">
        <ele>245.3</ele>
        <time>1970-01-01T01:06:27.000Z</time>
      </trkpt>
      <trkpt lat="43.21169" lon="6.60646">
        <ele>245.3</ele>
        <time>1970-01-01T01:06:28.000Z</time>
      </trkpt>
      <trkpt lat="43.21173" lon="6.60645">
        <ele>245.4</ele>
        <time>1970-01-01T01:06:29.000Z</time>
      </trkpt>
      <trkpt lat="43.21177" lon="6.60643">
        <ele>245.4</ele>
        <time>1970-01-01T01:06:30.000Z</time>
      </trkpt>
      <trkpt lat="43.21181" lon="6.60641">
        <ele>245.5</ele>
        <time>1970-01-01T01:06:31.000Z</time>
      </trkpt>
      <trkpt lat="43.21185" lon="6.60639">
        <ele>245.5</ele>
        <time>1970-01-01T01:06:32.000Z</time>
      </trkpt>
      <trkpt lat="43.21189" lon="6.60638">
        <ele>245.6</ele>
        <time>1970-01-01T01:06:33.000Z</time>
      </trkpt>
      <trkpt lat="43.21193" lon="6.60636">
        <ele>245.6</ele>
        <time>1970-01-01T01:06:34.000Z</time>
      </trkpt>
      <trkpt lat="43.21197" lon="6.60635">
        <ele>245.7</ele>
        <time>1970-01-01T01:06:35.000Z</time>
      </trkpt>
      <trkpt lat="43.21201" lon="6.60633">
        <ele>245.8</ele>
        <time>1970-01-01T01:06:36.000Z</time>
      </trkpt>
      <trkpt lat="43.21205" lon="6.60631">
        <ele>245.8</ele>
        <time>1970-01-01T01:06:37.000Z</time>
      </trkpt>
      <trkpt lat="43.21208" lon="6.6063">
        <ele>245.9</ele>
        <time>1970-01-01T01:06:38.000Z</time>
      </trkpt>
      <trkpt lat="43.21211" lon="6.60629">
        <ele>245.9</ele>
        <time>1970-01-01T01:06:39.000Z</time>
      </trkpt>
      <trkpt lat="43.21216" lon="6.60627">
        <ele>246</ele>
        <time>1970-01-01T01:06:41.000Z</time>
      </trkpt>
      <trkpt lat="43.21219" lon="6.60625">
        <ele>246.1</ele>
        <time>1970-01-01T01:06:42.000Z</time>
      </trkpt>
      <trkpt lat="43.21223" lon="6.60622">
        <ele>246.2</ele>
        <time>1970-01-01T01:06:43.000Z</time>
      </trkpt>
      <trkpt lat="43.21225" lon="6.60619">
        <ele>246.3</ele>
        <time>1970-01-01T01:06:44.000Z</time>
      </trkpt>
      <trkpt lat="43.21227" lon="6.60616">
        <ele>246.4</ele>
        <time>1970-01-01T01:06:45.000Z</time>
      </trkpt>
      <trkpt lat="43.21228" lon="6.60612">
        <ele>246.5</ele>
        <time>1970-01-01T01:06:46.000Z</time>
      </trkpt>
      <trkpt lat="43.2123" lon="6.60608">
        <ele>246.5</ele>
        <time>1970-01-01T01:06:47.000Z</time>
      </trkpt>
      <trkpt lat="43.21231" lon="6.60603">
        <ele>246.7</ele>
        <time>1970-01-01T01:06:48.000Z</time>
      </trkpt>
      <trkpt lat="43.21232" lon="6.60599">
        <ele>246.8</ele>
        <time>1970-01-01T01:06:49.000Z</time>
      </trkpt>
      <trkpt lat="43.21234" lon="6.60594">
        <ele>246.9</ele>
        <time>1970-01-01T01:06:50.000Z</time>
      </trkpt>
      <trkpt lat="43.21234" lon="6.6059">
        <ele>247</ele>
        <time>1970-01-01T01:06:51.000Z</time>
      </trkpt>
      <trkpt lat="43.21235" lon="6.60585">
        <ele>247.1</ele>
        <time>1970-01-01T01:06:52.000Z</time>
      </trkpt>
      <trkpt lat="43.21236" lon="6.60581">
        <ele>247.4</ele>
        <time>1970-01-01T01:06:53.000Z</time>
      </trkpt>
      <trkpt lat="43.21237" lon="6.60577">
        <ele>247.6</ele>
        <time>1970-01-01T01:06:54.000Z</time>
      </trkpt>
      <trkpt lat="43.21238" lon="6.60572">
        <ele>247.9</ele>
        <time>1970-01-01T01:06:55.000Z</time>
      </trkpt>
      <trkpt lat="43.21239" lon="6.60567">
        <ele>248.2</ele>
        <time>1970-01-01T01:06:56.000Z</time>
      </trkpt>
      <trkpt lat="43.2124" lon="6.60563">
        <ele>248.5</ele>
        <time>1970-01-01T01:06:57.000Z</time>
      </trkpt>
      <trkpt lat="43.2124" lon="6.60559">
        <ele>248.9</ele>
        <time>1970-01-01T01:06:58.000Z</time>
      </trkpt>
      <trkpt lat="43.21241" lon="6.60555">
        <ele>249.2</ele>
        <time>1970-01-01T01:06:59.000Z</time>
      </trkpt>
      <trkpt lat="43.21243" lon="6.60551">
        <ele>249.6</ele>
        <time>1970-01-01T01:07:00.000Z</time>
      </trkpt>
      <trkpt lat="43.21244" lon="6.60546">
        <ele>250</ele>
        <time>1970-01-01T01:07:01.000Z</time>
      </trkpt>
      <trkpt lat="43.21246" lon="6.60542">
        <ele>250.4</ele>
        <time>1970-01-01T01:07:02.000Z</time>
      </trkpt>
      <trkpt lat="43.21248" lon="6.60538">
        <ele>250.8</ele>
        <time>1970-01-01T01:07:03.000Z</time>
      </trkpt>
      <trkpt lat="43.2125" lon="6.60535">
        <ele>251.1</ele>
        <time>1970-01-01T01:07:04.000Z</time>
      </trkpt>
      <trkpt lat="43.21252" lon="6.60532">
        <ele>251.4</ele>
        <time>1970-01-01T01:07:05.000Z</time>
      </trkpt>
      <trkpt lat="43.21254" lon="6.60529">
        <ele>251.8</ele>
        <time>1970-01-01T01:07:06.000Z</time>
      </trkpt>
      <trkpt lat="43.21258" lon="6.60529">
        <ele>252.2</ele>
        <time>1970-01-01T01:07:07.000Z</time>
      </trkpt>
      <trkpt lat="43.21261" lon="6.60529">
        <ele>252.6</ele>
        <time>1970-01-01T01:07:08.000Z</time>
      </trkpt>
      <trkpt lat="43.21264" lon="6.60529">
        <ele>252.9</ele>
        <time>1970-01-01T01:07:09.000Z</time>
      </trkpt>
      <trkpt lat="43.21269" lon="6.60529">
        <ele>253.4</ele>
        <time>1970-01-01T01:07:11.000Z</time>
      </trkpt>
      <trkpt lat="43.21274" lon="6.60531">
        <ele>254</ele>
        <time>1970-01-01T01:07:13.000Z</time>
      </trkpt>
      <trkpt lat="43.21277" lon="6.60532">
        <ele>254.3</ele>
        <time>1970-01-01T01:07:14.000Z</time>
      </trkpt>
      <trkpt lat="43.21281" lon="6.60533">
        <ele>254.6</ele>
        <time>1970-01-01T01:07:15.000Z</time>
      </trkpt>
      <trkpt lat="43.21284" lon="6.60533">
        <ele>254.7</ele>
        <time>1970-01-01T01:07:16.000Z</time>
      </trkpt>
      <trkpt lat="43.21287" lon="6.60535">
        <ele>254.9</ele>
        <time>1970-01-01T01:07:17.000Z</time>
      </trkpt>
      <trkpt lat="43.2129" lon="6.60536">
        <ele>255.1</ele>
        <time>1970-01-01T01:07:18.000Z</time>
      </trkpt>
      <trkpt lat="43.21293" lon="6.60537">
        <ele>255.2</ele>
        <time>1970-01-01T01:07:19.000Z</time>
      </trkpt>
      <trkpt lat="43.21298" lon="6.60539">
        <ele>255.5</ele>
        <time>1970-01-01T01:07:21.000Z</time>
      </trkpt>
      <trkpt lat="43.21301" lon="6.60541">
        <ele>255.7</ele>
        <time>1970-01-01T01:07:22.000Z</time>
      </trkpt>
      <trkpt lat="43.21304" lon="6.60543">
        <ele>255.8</ele>
        <time>1970-01-01T01:07:23.000Z</time>
      </trkpt>
      <trkpt lat="43.21307" lon="6.60543">
        <ele>256</ele>
        <time>1970-01-01T01:07:24.000Z</time>
      </trkpt>
      <trkpt lat="43.2131" lon="6.60543">
        <ele>256.2</ele>
        <time>1970-01-01T01:07:25.000Z</time>
      </trkpt>
      <trkpt lat="43.21313" lon="6.60544">
        <ele>256.4</ele>
        <time>1970-01-01T01:07:26.000Z</time>
      </trkpt>
      <trkpt lat="43.21316" lon="6.60544">
        <ele>256.7</ele>
        <time>1970-01-01T01:07:27.000Z</time>
      </trkpt>
      <trkpt lat="43.2132" lon="6.60543">
        <ele>257</ele>
        <time>1970-01-01T01:07:28.000Z</time>
      </trkpt>
      <trkpt lat="43.21323" lon="6.60543">
        <ele>257.3</ele>
        <time>1970-01-01T01:07:29.000Z</time>
      </trkpt>
      <trkpt lat="43.21326" lon="6.60543">
        <ele>257.6</ele>
        <time>1970-01-01T01:07:30.000Z</time>
      </trkpt>
      <trkpt lat="43.21329" lon="6.60542">
        <ele>257.9</ele>
        <time>1970-01-01T01:07:31.000Z</time>
      </trkpt>
      <trkpt lat="43.21332" lon="6.60541">
        <ele>258.1</ele>
        <time>1970-01-01T01:07:32.000Z</time>
      </trkpt>
      <trkpt lat="43.21335" lon="6.6054">
        <ele>258.4</ele>
        <time>1970-01-01T01:07:33.000Z</time>
      </trkpt>
      <trkpt lat="43.21338" lon="6.60539">
        <ele>258.6</ele>
        <time>1970-01-01T01:07:34.000Z</time>
      </trkpt>
      <trkpt lat="43.21341" lon="6.60538">
        <ele>258.8</ele>
        <time>1970-01-01T01:07:35.000Z</time>
      </trkpt>
      <trkpt lat="43.21344" lon="6.60536">
        <ele>259</ele>
        <time>1970-01-01T01:07:36.000Z</time>
      </trkpt>
      <trkpt lat="43.21349" lon="6.60533">
        <ele>259.4</ele>
        <time>1970-01-01T01:07:38.000Z</time>
      </trkpt>
      <trkpt lat="43.21352" lon="6.60531">
        <ele>259.7</ele>
        <time>1970-01-01T01:07:39.000Z</time>
      </trkpt>
      <trkpt lat="43.21355" lon="6.60529">
        <ele>260.1</ele>
        <time>1970-01-01T01:07:40.000Z</time>
      </trkpt>
      <trkpt lat="43.21358" lon="6.60526">
        <ele>260.6</ele>
        <time>1970-01-01T01:07:41.000Z</time>
      </trkpt>
      <trkpt lat="43.21363" lon="6.60523">
        <ele>261.3</ele>
        <time>1970-01-01T01:07:43.000Z</time>
      </trkpt>
      <trkpt lat="43.21364" lon="6.6052">
        <ele>261.6</ele>
        <time>1970-01-01T01:07:46.000Z</time>
      </trkpt>
      <trkpt lat="43.21366" lon="6.60515">
        <ele>262</ele>
        <time>1970-01-01T01:07:51.000Z</time>
      </trkpt>
      <trkpt lat="43.21364" lon="6.60512">
        <ele>262</ele>
        <time>1970-01-01T01:08:42.000Z</time>
      </trkpt>
      <trkpt lat="43.21363" lon="6.60508">
        <ele>262.2</ele>
        <time>1970-01-01T01:09:05.000Z</time>
      </trkpt>
      <trkpt lat="43.2136" lon="6.6051">
        <ele>262.5</ele>
        <time>1970-01-01T01:09:11.000Z</time>
      </trkpt>
      <trkpt lat="43.21361" lon="6.60516">
        <ele>262.8</ele>
        <time>1970-01-01T01:09:16.000Z</time>
      </trkpt>
      <trkpt lat="43.21361" lon="6.6052">
        <ele>262.7</ele>
        <time>1970-01-01T01:09:17.000Z</time>
      </trkpt>
      <trkpt lat="43.21363" lon="6.60524">
        <ele>262.6</ele>
        <time>1970-01-01T01:09:18.000Z</time>
      </trkpt>
      <trkpt lat="43.21364" lon="6.60528">
        <ele>262.4</ele>
        <time>1970-01-01T01:09:19.000Z</time>
      </trkpt>
      <trkpt lat="43.21365" lon="6.60533">
        <ele>262.1</ele>
        <time>1970-01-01T01:09:21.000Z</time>
      </trkpt>
      <trkpt lat="43.21366" lon="6.60536">
        <ele>261.8</ele>
        <time>1970-01-01T01:09:23.000Z</time>
      </trkpt>
      <trkpt lat="43.21366" lon="6.60542">
        <ele>261.2</ele>
        <time>1970-01-01T01:09:26.000Z</time>
      </trkpt>
      <trkpt lat="43.21368" lon="6.60547">
        <ele>260.9</ele>
        <time>1970-01-01T01:09:28.000Z</time>
      </trkpt>
      <trkpt lat="43.21371" lon="6.60551">
        <ele>260.9</ele>
        <time>1970-01-01T01:09:32.000Z</time>
      </trkpt>
      <trkpt lat="43.21373" lon="6.60553">
        <ele>261</ele>
        <time>1970-01-01T01:09:36.000Z</time>
      </trkpt>
      <trkpt lat="43.21377" lon="6.60554">
        <ele>261.4</ele>
        <time>1970-01-01T01:10:32.000Z</time>
      </trkpt>
      <trkpt lat="43.21382" lon="6.60554">
        <ele>262</ele>
        <time>1970-01-01T01:10:34.000Z</time>
      </trkpt>
      <trkpt lat="43.21388" lon="6.60552">
        <ele>262.3</ele>
        <time>1970-01-01T01:10:36.000Z</time>
      </trkpt>
      <trkpt lat="43.21391" lon="6.60551">
        <ele>262.5</ele>
        <time>1970-01-01T01:10:37.000Z</time>
      </trkpt>
      <trkpt lat="43.21394" lon="6.6055">
        <ele>262.8</ele>
        <time>1970-01-01T01:10:38.000Z</time>
      </trkpt>
      <trkpt lat="43.21397" lon="6.6055">
        <ele>263.1</ele>
        <time>1970-01-01T01:10:39.000Z</time>
      </trkpt>
      <trkpt lat="43.214" lon="6.60549">
        <ele>263.5</ele>
        <time>1970-01-01T01:10:40.000Z</time>
      </trkpt>
      <trkpt lat="43.21404" lon="6.60547">
        <ele>263.7</ele>
        <time>1970-01-01T01:10:41.000Z</time>
      </trkpt>
      <trkpt lat="43.21407" lon="6.60545">
        <ele>263.8</ele>
        <time>1970-01-01T01:10:42.000Z</time>
      </trkpt>
      <trkpt lat="43.2141" lon="6.60545">
        <ele>263.9</ele>
        <time>1970-01-01T01:10:43.000Z</time>
      </trkpt>
      <trkpt lat="43.21414" lon="6.60544">
        <ele>264</ele>
        <time>1970-01-01T01:10:44.000Z</time>
      </trkpt>
      <trkpt lat="43.21418" lon="6.60542">
        <ele>264</ele>
        <time>1970-01-01T01:10:45.000Z</time>
      </trkpt>
      <trkpt lat="43.21422" lon="6.6054">
        <ele>264.1</ele>
        <time>1970-01-01T01:10:46.000Z</time>
      </trkpt>
      <trkpt lat="43.21426" lon="6.60538">
        <ele>264.1</ele>
        <time>1970-01-01T01:10:47.000Z</time>
      </trkpt>
      <trkpt lat="43.2143" lon="6.60536">
        <ele>264.2</ele>
        <time>1970-01-01T01:10:48.000Z</time>
      </trkpt>
      <trkpt lat="43.21434" lon="6.60534">
        <ele>264.3</ele>
        <time>1970-01-01T01:10:49.000Z</time>
      </trkpt>
      <trkpt lat="43.21439" lon="6.60531">
        <ele>264.3</ele>
        <time>1970-01-01T01:10:50.000Z</time>
      </trkpt>
      <trkpt lat="43.21443" lon="6.60529">
        <ele>264.4</ele>
        <time>1970-01-01T01:10:51.000Z</time>
      </trkpt>
      <trkpt lat="43.21447" lon="6.60527">
        <ele>264.5</ele>
        <time>1970-01-01T01:10:52.000Z</time>
      </trkpt>
      <trkpt lat="43.21451" lon="6.60525">
        <ele>264.5</ele>
        <time>1970-01-01T01:10:53.000Z</time>
      </trkpt>
      <trkpt lat="43.21455" lon="6.60522">
        <ele>264.6</ele>
        <time>1970-01-01T01:10:54.000Z</time>
      </trkpt>
      <trkpt lat="43.21459" lon="6.6052">
        <ele>264.6</ele>
        <time>1970-01-01T01:10:55.000Z</time>
      </trkpt>
      <trkpt lat="43.21462" lon="6.60518">
        <ele>264.7</ele>
        <time>1970-01-01T01:10:56.000Z</time>
      </trkpt>
      <trkpt lat="43.21466" lon="6.60514">
        <ele>264.8</ele>
        <time>1970-01-01T01:10:58.000Z</time>
      </trkpt>
      <trkpt lat="43.21469" lon="6.6051">
        <ele>264.9</ele>
        <time>1970-01-01T01:10:59.000Z</time>
      </trkpt>
      <trkpt lat="43.21473" lon="6.60508">
        <ele>265.5</ele>
        <time>1970-01-01T01:11:01.000Z</time>
      </trkpt>
      <trkpt lat="43.21476" lon="6.60506">
        <ele>266</ele>
        <time>1970-01-01T01:11:02.000Z</time>
      </trkpt>
      <trkpt lat="43.21478" lon="6.60504">
        <ele>266.6</ele>
        <time>1970-01-01T01:11:03.000Z</time>
      </trkpt>
      <trkpt lat="43.21481" lon="6.60503">
        <ele>267.1</ele>
        <time>1970-01-01T01:11:04.000Z</time>
      </trkpt>
      <trkpt lat="43.21484" lon="6.60501">
        <ele>267.6</ele>
        <time>1970-01-01T01:11:05.000Z</time>
      </trkpt>
      <trkpt lat="43.21488" lon="6.60498">
        <ele>268.4</ele>
        <time>1970-01-01T01:11:07.000Z</time>
      </trkpt>
      <trkpt lat="43.21491" lon="6.60497">
        <ele>268.9</ele>
        <time>1970-01-01T01:11:08.000Z</time>
      </trkpt>
      <trkpt lat="43.21494" lon="6.60495">
        <ele>269.4</ele>
        <time>1970-01-01T01:11:09.000Z</time>
      </trkpt>
      <trkpt lat="43.21499" lon="6.60494">
        <ele>270.1</ele>
        <time>1970-01-01T01:11:11.000Z</time>
      </trkpt>
      <trkpt lat="43.21504" lon="6.60493">
        <ele>270.7</ele>
        <time>1970-01-01T01:11:13.000Z</time>
      </trkpt>
      <trkpt lat="43.21508" lon="6.60494">
        <ele>271.2</ele>
        <time>1970-01-01T01:11:15.000Z</time>
      </trkpt>
      <trkpt lat="43.21512" lon="6.60495">
        <ele>271.6</ele>
        <time>1970-01-01T01:11:17.000Z</time>
      </trkpt>
      <trkpt lat="43.21515" lon="6.60499">
        <ele>272</ele>
        <time>1970-01-01T01:11:19.000Z</time>
      </trkpt>
      <trkpt lat="43.21519" lon="6.60501">
        <ele>272.5</ele>
        <time>1970-01-01T01:11:21.000Z</time>
      </trkpt>
      <trkpt lat="43.21524" lon="6.60503">
        <ele>273</ele>
        <time>1970-01-01T01:11:23.000Z</time>
      </trkpt>
      <trkpt lat="43.21529" lon="6.60507">
        <ele>273.6</ele>
        <time>1970-01-01T01:11:25.000Z</time>
      </trkpt>
      <trkpt lat="43.21534" lon="6.60508">
        <ele>274.1</ele>
        <time>1970-01-01T01:11:27.000Z</time>
      </trkpt>
      <trkpt lat="43.21536" lon="6.60509">
        <ele>274.4</ele>
        <time>1970-01-01T01:11:28.000Z</time>
      </trkpt>
      <trkpt lat="43.21539" lon="6.6051">
        <ele>274.7</ele>
        <time>1970-01-01T01:11:29.000Z</time>
      </trkpt>
      <trkpt lat="43.21543" lon="6.60511">
        <ele>275</ele>
        <time>1970-01-01T01:11:30.000Z</time>
      </trkpt>
      <trkpt lat="43.21546" lon="6.60512">
        <ele>275.3</ele>
        <time>1970-01-01T01:11:31.000Z</time>
      </trkpt>
      <trkpt lat="43.21549" lon="6.60512">
        <ele>275.6</ele>
        <time>1970-01-01T01:11:32.000Z</time>
      </trkpt>
      <trkpt lat="43.21552" lon="6.60513">
        <ele>275.9</ele>
        <time>1970-01-01T01:11:33.000Z</time>
      </trkpt>
      <trkpt lat="43.21556" lon="6.60512">
        <ele>276.3</ele>
        <time>1970-01-01T01:11:35.000Z</time>
      </trkpt>
      <trkpt lat="43.2156" lon="6.60511">
        <ele>276.6</ele>
        <time>1970-01-01T01:11:37.000Z</time>
      </trkpt>
      <trkpt lat="43.21564" lon="6.60509">
        <ele>277</ele>
        <time>1970-01-01T01:11:39.000Z</time>
      </trkpt>
      <trkpt lat="43.21567" lon="6.60507">
        <ele>277.3</ele>
        <time>1970-01-01T01:11:41.000Z</time>
      </trkpt>
      <trkpt lat="43.21571" lon="6.60504">
        <ele>277.6</ele>
        <time>1970-01-01T01:11:43.000Z</time>
      </trkpt>
      <trkpt lat="43.21573" lon="6.60502">
        <ele>277.8</ele>
        <time>1970-01-01T01:11:44.000Z</time>
      </trkpt>
      <trkpt lat="43.21577" lon="6.60498">
        <ele>278.2</ele>
        <time>1970-01-01T01:11:46.000Z</time>
      </trkpt>
      <trkpt lat="43.2158" lon="6.60493">
        <ele>278.5</ele>
        <time>1970-01-01T01:11:48.000Z</time>
      </trkpt>
      <trkpt lat="43.21583" lon="6.6049">
        <ele>278.8</ele>
        <time>1970-01-01T01:11:50.000Z</time>
      </trkpt>
      <trkpt lat="43.21585" lon="6.60486">
        <ele>279</ele>
        <time>1970-01-01T01:11:52.000Z</time>
      </trkpt>
      <trkpt lat="43.21587" lon="6.60481">
        <ele>279.2</ele>
        <time>1970-01-01T01:11:54.000Z</time>
      </trkpt>
      <trkpt lat="43.21591" lon="6.60476">
        <ele>279.5</ele>
        <time>1970-01-01T01:11:56.000Z</time>
      </trkpt>
      <trkpt lat="43.21594" lon="6.60472">
        <ele>279.7</ele>
        <time>1970-01-01T01:11:58.000Z</time>
      </trkpt>
      <trkpt lat="43.21597" lon="6.60467">
        <ele>279.9</ele>
        <time>1970-01-01T01:12:00.000Z</time>
      </trkpt>
      <trkpt lat="43.216" lon="6.60464">
        <ele>280.1</ele>
        <time>1970-01-01T01:12:02.000Z</time>
      </trkpt>
      <trkpt lat="43.21603" lon="6.60461">
        <ele>280.2</ele>
        <time>1970-01-01T01:12:04.000Z</time>
      </trkpt>
      <trkpt lat="43.21605" lon="6.60457">
        <ele>280.3</ele>
        <time>1970-01-01T01:12:06.000Z</time>
      </trkpt>
      <trkpt lat="43.21608" lon="6.60454">
        <ele>280.5</ele>
        <time>1970-01-01T01:12:08.000Z</time>
      </trkpt>
      <trkpt lat="43.2161" lon="6.6045">
        <ele>280.6</ele>
        <time>1970-01-01T01:12:11.000Z</time>
      </trkpt>
      <trkpt lat="43.21614" lon="6.60447">
        <ele>280.8</ele>
        <time>1970-01-01T01:12:14.000Z</time>
      </trkpt>
      <trkpt lat="43.21616" lon="6.60442">
        <ele>281</ele>
        <time>1970-01-01T01:12:16.000Z</time>
      </trkpt>
      <trkpt lat="43.21621" lon="6.6044">
        <ele>281.3</ele>
        <time>1970-01-01T01:12:18.000Z</time>
      </trkpt>
      <trkpt lat="43.21624" lon="6.60437">
        <ele>281.6</ele>
        <time>1970-01-01T01:12:20.000Z</time>
      </trkpt>
      <trkpt lat="43.21626" lon="6.60435">
        <ele>281.8</ele>
        <time>1970-01-01T01:12:21.000Z</time>
      </trkpt>
      <trkpt lat="43.21629" lon="6.60433">
        <ele>282</ele>
        <time>1970-01-01T01:12:22.000Z</time>
      </trkpt>
      <trkpt lat="43.21631" lon="6.60431">
        <ele>282.3</ele>
        <time>1970-01-01T01:12:23.000Z</time>
      </trkpt>
      <trkpt lat="43.21634" lon="6.60429">
        <ele>282.5</ele>
        <time>1970-01-01T01:12:24.000Z</time>
      </trkpt>
      <trkpt lat="43.21636" lon="6.60427">
        <ele>282.8</ele>
        <time>1970-01-01T01:12:25.000Z</time>
      </trkpt>
      <trkpt lat="43.2164" lon="6.60423">
        <ele>283.4</ele>
        <time>1970-01-01T01:12:27.000Z</time>
      </trkpt>
      <trkpt lat="43.21643" lon="6.6042">
        <ele>283.8</ele>
        <time>1970-01-01T01:12:28.000Z</time>
      </trkpt>
      <trkpt lat="43.21646" lon="6.60418">
        <ele>284.2</ele>
        <time>1970-01-01T01:12:29.000Z</time>
      </trkpt>
      <trkpt lat="43.21649" lon="6.60415">
        <ele>284.7</ele>
        <time>1970-01-01T01:12:30.000Z</time>
      </trkpt>
      <trkpt lat="43.21652" lon="6.60412">
        <ele>285.2</ele>
        <time>1970-01-01T01:12:31.000Z</time>
      </trkpt>
      <trkpt lat="43.21656" lon="6.6041">
        <ele>285.7</ele>
        <time>1970-01-01T01:12:32.000Z</time>
      </trkpt>
      <trkpt lat="43.21659" lon="6.60408">
        <ele>286.2</ele>
        <time>1970-01-01T01:12:33.000Z</time>
      </trkpt>
      <trkpt lat="43.21663" lon="6.60405">
        <ele>286.9</ele>
        <time>1970-01-01T01:12:34.000Z</time>
      </trkpt>
      <trkpt lat="43.21666" lon="6.60402">
        <ele>287.4</ele>
        <time>1970-01-01T01:12:35.000Z</time>
      </trkpt>
      <trkpt lat="43.21669" lon="6.60399">
        <ele>287.9</ele>
        <time>1970-01-01T01:12:36.000Z</time>
      </trkpt>
      <trkpt lat="43.21673" lon="6.60397">
        <ele>288.4</ele>
        <time>1970-01-01T01:12:37.000Z</time>
      </trkpt>
      <trkpt lat="43.21675" lon="6.60395">
        <ele>288.9</ele>
        <time>1970-01-01T01:12:38.000Z</time>
      </trkpt>
      <trkpt lat="43.21678" lon="6.60392">
        <ele>289.3</ele>
        <time>1970-01-01T01:12:39.000Z</time>
      </trkpt>
      <trkpt lat="43.21682" lon="6.6039">
        <ele>289.8</ele>
        <time>1970-01-01T01:12:40.000Z</time>
      </trkpt>
      <trkpt lat="43.21685" lon="6.60388">
        <ele>290.2</ele>
        <time>1970-01-01T01:12:41.000Z</time>
      </trkpt>
      <trkpt lat="43.21688" lon="6.60386">
        <ele>290.7</ele>
        <time>1970-01-01T01:12:42.000Z</time>
      </trkpt>
      <trkpt lat="43.21691" lon="6.60384">
        <ele>291</ele>
        <time>1970-01-01T01:12:43.000Z</time>
      </trkpt>
      <trkpt lat="43.21694" lon="6.60382">
        <ele>291.4</ele>
        <time>1970-01-01T01:12:44.000Z</time>
      </trkpt>
      <trkpt lat="43.21697" lon="6.6038">
        <ele>291.8</ele>
        <time>1970-01-01T01:12:45.000Z</time>
      </trkpt>
      <trkpt lat="43.217" lon="6.60378">
        <ele>292.1</ele>
        <time>1970-01-01T01:12:46.000Z</time>
      </trkpt>
      <trkpt lat="43.21703" lon="6.60376">
        <ele>292.4</ele>
        <time>1970-01-01T01:12:47.000Z</time>
      </trkpt>
      <trkpt lat="43.21706" lon="6.60374">
        <ele>292.6</ele>
        <time>1970-01-01T01:12:48.000Z</time>
      </trkpt>
      <trkpt lat="43.21708" lon="6.60371">
        <ele>292.9</ele>
        <time>1970-01-01T01:12:49.000Z</time>
      </trkpt>
      <trkpt lat="43.21712" lon="6.60368">
        <ele>293.3</ele>
        <time>1970-01-01T01:12:50.000Z</time>
      </trkpt>
      <trkpt lat="43.21715" lon="6.60365">
        <ele>293.6</ele>
        <time>1970-01-01T01:12:52.000Z</time>
      </trkpt>
      <trkpt lat="43.2172" lon="6.60361">
        <ele>294</ele>
        <time>1970-01-01T01:12:54.000Z</time>
      </trkpt>
      <trkpt lat="43.21725" lon="6.60358">
        <ele>294.4</ele>
        <time>1970-01-01T01:12:56.000Z</time>
      </trkpt>
      <trkpt lat="43.21728" lon="6.60357">
        <ele>294.6</ele>
        <time>1970-01-01T01:12:57.000Z</time>
      </trkpt>
      <trkpt lat="43.21731" lon="6.60355">
        <ele>294.8</ele>
        <time>1970-01-01T01:12:58.000Z</time>
      </trkpt>
      <trkpt lat="43.21734" lon="6.60355">
        <ele>295</ele>
        <time>1970-01-01T01:12:59.000Z</time>
      </trkpt>
      <trkpt lat="43.21737" lon="6.60354">
        <ele>295.1</ele>
        <time>1970-01-01T01:13:00.000Z</time>
      </trkpt>
      <trkpt lat="43.21742" lon="6.60352">
        <ele>295.4</ele>
        <time>1970-01-01T01:13:02.000Z</time>
      </trkpt>
      <trkpt lat="43.21745" lon="6.60351">
        <ele>295.6</ele>
        <time>1970-01-01T01:13:03.000Z</time>
      </trkpt>
      <trkpt lat="43.21748" lon="6.60349">
        <ele>295.7</ele>
        <time>1970-01-01T01:13:04.000Z</time>
      </trkpt>
      <trkpt lat="43.21751" lon="6.60348">
        <ele>295.9</ele>
        <time>1970-01-01T01:13:05.000Z</time>
      </trkpt>
      <trkpt lat="43.21755" lon="6.60347">
        <ele>296</ele>
        <time>1970-01-01T01:13:06.000Z</time>
      </trkpt>
      <trkpt lat="43.21758" lon="6.60346">
        <ele>296.2</ele>
        <time>1970-01-01T01:13:07.000Z</time>
      </trkpt>
      <trkpt lat="43.21761" lon="6.60345">
        <ele>296.4</ele>
        <time>1970-01-01T01:13:08.000Z</time>
      </trkpt>
      <trkpt lat="43.21765" lon="6.60344">
        <ele>296.7</ele>
        <time>1970-01-01T01:13:09.000Z</time>
      </trkpt>
      <trkpt lat="43.21768" lon="6.60343">
        <ele>296.9</ele>
        <time>1970-01-01T01:13:10.000Z</time>
      </trkpt>
      <trkpt lat="43.21771" lon="6.60341">
        <ele>297.1</ele>
        <time>1970-01-01T01:13:11.000Z</time>
      </trkpt>
      <trkpt lat="43.21774" lon="6.60339">
        <ele>297.3</ele>
        <time>1970-01-01T01:13:12.000Z</time>
      </trkpt>
      <trkpt lat="43.21777" lon="6.60337">
        <ele>297.6</ele>
        <time>1970-01-01T01:13:13.000Z</time>
      </trkpt>
      <trkpt lat="43.21781" lon="6.60336">
        <ele>297.9</ele>
        <time>1970-01-01T01:13:14.000Z</time>
      </trkpt>
      <trkpt lat="43.21784" lon="6.60335">
        <ele>298.2</ele>
        <time>1970-01-01T01:13:15.000Z</time>
      </trkpt>
      <trkpt lat="43.21788" lon="6.60334">
        <ele>298.5</ele>
        <time>1970-01-01T01:13:16.000Z</time>
      </trkpt>
      <trkpt lat="43.21791" lon="6.60333">
        <ele>298.7</ele>
        <time>1970-01-01T01:13:17.000Z</time>
      </trkpt>
      <trkpt lat="43.21795" lon="6.60332">
        <ele>299</ele>
        <time>1970-01-01T01:13:18.000Z</time>
      </trkpt>
      <trkpt lat="43.21798" lon="6.60331">
        <ele>299.3</ele>
        <time>1970-01-01T01:13:19.000Z</time>
      </trkpt>
      <trkpt lat="43.21802" lon="6.6033">
        <ele>299.6</ele>
        <time>1970-01-01T01:13:20.000Z</time>
      </trkpt>
      <trkpt lat="43.21806" lon="6.60329">
        <ele>299.9</ele>
        <time>1970-01-01T01:13:21.000Z</time>
      </trkpt>
      <trkpt lat="43.2181" lon="6.60329">
        <ele>300.2</ele>
        <time>1970-01-01T01:13:22.000Z</time>
      </trkpt>
      <trkpt lat="43.21814" lon="6.60328">
        <ele>300.5</ele>
        <time>1970-01-01T01:13:23.000Z</time>
      </trkpt>
      <trkpt lat="43.21817" lon="6.60327">
        <ele>300.8</ele>
        <time>1970-01-01T01:13:24.000Z</time>
      </trkpt>
      <trkpt lat="43.21821" lon="6.60326">
        <ele>301</ele>
        <time>1970-01-01T01:13:25.000Z</time>
      </trkpt>
      <trkpt lat="43.21824" lon="6.60325">
        <ele>301.3</ele>
        <time>1970-01-01T01:13:26.000Z</time>
      </trkpt>
      <trkpt lat="43.21828" lon="6.60324">
        <ele>301.5</ele>
        <time>1970-01-01T01:13:27.000Z</time>
      </trkpt>
      <trkpt lat="43.21832" lon="6.60322">
        <ele>301.9</ele>
        <time>1970-01-01T01:13:28.000Z</time>
      </trkpt>
      <trkpt lat="43.21836" lon="6.6032">
        <ele>302.1</ele>
        <time>1970-01-01T01:13:29.000Z</time>
      </trkpt>
      <trkpt lat="43.2184" lon="6.60319">
        <ele>302.3</ele>
        <time>1970-01-01T01:13:30.000Z</time>
      </trkpt>
      <trkpt lat="43.21843" lon="6.60318">
        <ele>302.5</ele>
        <time>1970-01-01T01:13:31.000Z</time>
      </trkpt>
      <trkpt lat="43.21847" lon="6.60317">
        <ele>302.8</ele>
        <time>1970-01-01T01:13:32.000Z</time>
      </trkpt>
      <trkpt lat="43.21851" lon="6.60316">
        <ele>302.9</ele>
        <time>1970-01-01T01:13:33.000Z</time>
      </trkpt>
      <trkpt lat="43.21855" lon="6.60315">
        <ele>303.1</ele>
        <time>1970-01-01T01:13:34.000Z</time>
      </trkpt>
      <trkpt lat="43.21859" lon="6.60314">
        <ele>303.3</ele>
        <time>1970-01-01T01:13:35.000Z</time>
      </trkpt>
      <trkpt lat="43.21863" lon="6.60313">
        <ele>303.5</ele>
        <time>1970-01-01T01:13:36.000Z</time>
      </trkpt>
      <trkpt lat="43.21867" lon="6.60311">
        <ele>303.7</ele>
        <time>1970-01-01T01:13:37.000Z</time>
      </trkpt>
      <trkpt lat="43.21871" lon="6.6031">
        <ele>303.9</ele>
        <time>1970-01-01T01:13:38.000Z</time>
      </trkpt>
      <trkpt lat="43.21875" lon="6.6031">
        <ele>304.2</ele>
        <time>1970-01-01T01:13:39.000Z</time>
      </trkpt>
      <trkpt lat="43.21879" lon="6.60308">
        <ele>304.4</ele>
        <time>1970-01-01T01:13:40.000Z</time>
      </trkpt>
      <trkpt lat="43.21882" lon="6.60307">
        <ele>304.7</ele>
        <time>1970-01-01T01:13:41.000Z</time>
      </trkpt>
      <trkpt lat="43.21886" lon="6.60305">
        <ele>305.1</ele>
        <time>1970-01-01T01:13:42.000Z</time>
      </trkpt>
      <trkpt lat="43.21891" lon="6.60303">
        <ele>305.6</ele>
        <time>1970-01-01T01:13:43.000Z</time>
      </trkpt>
      <trkpt lat="43.21895" lon="6.60302">
        <ele>306</ele>
        <time>1970-01-01T01:13:44.000Z</time>
      </trkpt>
      <trkpt lat="43.219" lon="6.60301">
        <ele>306.5</ele>
        <time>1970-01-01T01:13:45.000Z</time>
      </trkpt>
      <trkpt lat="43.21905" lon="6.60299">
        <ele>307.1</ele>
        <time>1970-01-01T01:13:46.000Z</time>
      </trkpt>
      <trkpt lat="43.21909" lon="6.60297">
        <ele>307.6</ele>
        <time>1970-01-01T01:13:47.000Z</time>
      </trkpt>
      <trkpt lat="43.21913" lon="6.60296">
        <ele>308</ele>
        <time>1970-01-01T01:13:48.000Z</time>
      </trkpt>
      <trkpt lat="43.21917" lon="6.60294">
        <ele>308.5</ele>
        <time>1970-01-01T01:13:49.000Z</time>
      </trkpt>
      <trkpt lat="43.21921" lon="6.60292">
        <ele>308.9</ele>
        <time>1970-01-01T01:13:50.000Z</time>
      </trkpt>
      <trkpt lat="43.21925" lon="6.6029">
        <ele>309.4</ele>
        <time>1970-01-01T01:13:51.000Z</time>
      </trkpt>
      <trkpt lat="43.2193" lon="6.60288">
        <ele>309.9</ele>
        <time>1970-01-01T01:13:52.000Z</time>
      </trkpt>
      <trkpt lat="43.21934" lon="6.60285">
        <ele>310.4</ele>
        <time>1970-01-01T01:13:53.000Z</time>
      </trkpt>
      <trkpt lat="43.21937" lon="6.60283">
        <ele>310.7</ele>
        <time>1970-01-01T01:13:54.000Z</time>
      </trkpt>
      <trkpt lat="43.21941" lon="6.60281">
        <ele>311.1</ele>
        <time>1970-01-01T01:13:55.000Z</time>
      </trkpt>
      <trkpt lat="43.21944" lon="6.60279">
        <ele>311.5</ele>
        <time>1970-01-01T01:13:56.000Z</time>
      </trkpt>
      <trkpt lat="43.21946" lon="6.60278">
        <ele>311.7</ele>
        <time>1970-01-01T01:13:57.000Z</time>
      </trkpt>
      <trkpt lat="43.21949" lon="6.60276">
        <ele>312</ele>
        <time>1970-01-01T01:13:58.000Z</time>
      </trkpt>
      <trkpt lat="43.21952" lon="6.60275">
        <ele>312.3</ele>
        <time>1970-01-01T01:13:59.000Z</time>
      </trkpt>
      <trkpt lat="43.21955" lon="6.60274">
        <ele>312.6</ele>
        <time>1970-01-01T01:14:00.000Z</time>
      </trkpt>
      <trkpt lat="43.21959" lon="6.60271">
        <ele>313</ele>
        <time>1970-01-01T01:14:01.000Z</time>
      </trkpt>
      <trkpt lat="43.21962" lon="6.60269">
        <ele>313.3</ele>
        <time>1970-01-01T01:14:02.000Z</time>
      </trkpt>
      <trkpt lat="43.21966" lon="6.60268">
        <ele>313.7</ele>
        <time>1970-01-01T01:14:03.000Z</time>
      </trkpt>
      <trkpt lat="43.21969" lon="6.60267">
        <ele>314</ele>
        <time>1970-01-01T01:14:04.000Z</time>
      </trkpt>
      <trkpt lat="43.21972" lon="6.60265">
        <ele>314.3</ele>
        <time>1970-01-01T01:14:05.000Z</time>
      </trkpt>
      <trkpt lat="43.21976" lon="6.60263">
        <ele>314.7</ele>
        <time>1970-01-01T01:14:06.000Z</time>
      </trkpt>
      <trkpt lat="43.21979" lon="6.6026">
        <ele>315.1</ele>
        <time>1970-01-01T01:14:07.000Z</time>
      </trkpt>
      <trkpt lat="43.21982" lon="6.60257">
        <ele>315.5</ele>
        <time>1970-01-01T01:14:08.000Z</time>
      </trkpt>
      <trkpt lat="43.21985" lon="6.60254">
        <ele>315.8</ele>
        <time>1970-01-01T01:14:09.000Z</time>
      </trkpt>
      <trkpt lat="43.21988" lon="6.60252">
        <ele>316.1</ele>
        <time>1970-01-01T01:14:10.000Z</time>
      </trkpt>
      <trkpt lat="43.21992" lon="6.60249">
        <ele>316.6</ele>
        <time>1970-01-01T01:14:12.000Z</time>
      </trkpt>
      <trkpt lat="43.21996" lon="6.6025">
        <ele>316.7</ele>
        <time>1970-01-01T01:14:14.000Z</time>
      </trkpt>
      <trkpt lat="43.21996" lon="6.60256">
        <ele>316.5</ele>
        <time>1970-01-01T01:14:18.000Z</time>
      </trkpt>
      <trkpt lat="43.21993" lon="6.60259">
        <ele>316.2</ele>
        <time>1970-01-01T01:14:37.000Z</time>
      </trkpt>
      <trkpt lat="43.21991" lon="6.60262">
        <ele>315.7</ele>
        <time>1970-01-01T01:17:16.000Z</time>
      </trkpt>
      <trkpt lat="43.21988" lon="6.60266">
        <ele>315.3</ele>
        <time>1970-01-01T01:17:45.000Z</time>
      </trkpt>
      <trkpt lat="43.21986" lon="6.60269">
        <ele>315</ele>
        <time>1970-01-01T01:17:46.000Z</time>
      </trkpt>
      <trkpt lat="43.21979" lon="6.60274">
        <ele>313.5</ele>
        <time>1970-01-01T01:17:47.000Z</time>
      </trkpt>
      <trkpt lat="43.2197" lon="6.60278">
        <ele>312.7</ele>
        <time>1970-01-01T01:17:48.000Z</time>
      </trkpt>
      <trkpt lat="43.21961" lon="6.60283">
        <ele>311.2</ele>
        <time>1970-01-01T01:17:49.000Z</time>
      </trkpt>
      <trkpt lat="43.21952" lon="6.60289">
        <ele>310.2</ele>
        <time>1970-01-01T01:17:50.000Z</time>
      </trkpt>
      <trkpt lat="43.21943" lon="6.60291">
        <ele>309</ele>
        <time>1970-01-01T01:17:51.000Z</time>
      </trkpt>
      <trkpt lat="43.21936" lon="6.60293">
        <ele>308.8</ele>
        <time>1970-01-01T01:17:52.000Z</time>
      </trkpt>
      <trkpt lat="43.21928" lon="6.60296">
        <ele>307.9</ele>
        <time>1970-01-01T01:17:53.000Z</time>
      </trkpt>
      <trkpt lat="43.2192" lon="6.603">
        <ele>308</ele>
        <time>1970-01-01T01:17:54.000Z</time>
      </trkpt>
      <trkpt lat="43.21912" lon="6.60304">
        <ele>306.5</ele>
        <time>1970-01-01T01:17:55.000Z</time>
      </trkpt>
      <trkpt lat="43.21904" lon="6.60311">
        <ele>305.6</ele>
        <time>1970-01-01T01:17:56.000Z</time>
      </trkpt>
      <trkpt lat="43.21896" lon="6.60319">
        <ele>304</ele>
        <time>1970-01-01T01:17:57.000Z</time>
      </trkpt>
      <trkpt lat="43.2189" lon="6.60329">
        <ele>302.7</ele>
        <time>1970-01-01T01:17:58.000Z</time>
      </trkpt>
      <trkpt lat="43.21882" lon="6.60337">
        <ele>301.7</ele>
        <time>1970-01-01T01:17:59.000Z</time>
      </trkpt>
      <trkpt lat="43.21875" lon="6.60345">
        <ele>300.6</ele>
        <time>1970-01-01T01:18:00.000Z</time>
      </trkpt>
      <trkpt lat="43.21869" lon="6.60353">
        <ele>299.7</ele>
        <time>1970-01-01T01:18:01.000Z</time>
      </trkpt>
      <trkpt lat="43.21865" lon="6.60359">
        <ele>299.8</ele>
        <time>1970-01-01T01:18:02.000Z</time>
      </trkpt>
      <trkpt lat="43.21868" lon="6.6036">
        <ele>298.7</ele>
        <time>1970-01-01T01:18:06.000Z</time>
      </trkpt>
      <trkpt lat="43.21871" lon="6.60359">
        <ele>298.9</ele>
        <time>1970-01-01T01:18:07.000Z</time>
      </trkpt>
      <trkpt lat="43.21876" lon="6.60361">
        <ele>296.9</ele>
        <time>1970-01-01T01:18:08.000Z</time>
      </trkpt>
      <trkpt lat="43.21882" lon="6.60358">
        <ele>296.3</ele>
        <time>1970-01-01T01:18:09.000Z</time>
      </trkpt>
      <trkpt lat="43.21886" lon="6.60356">
        <ele>295.6</ele>
        <time>1970-01-01T01:18:10.000Z</time>
      </trkpt>
      <trkpt lat="43.21892" lon="6.60357">
        <ele>294.5</ele>
        <time>1970-01-01T01:18:11.000Z</time>
      </trkpt>
      <trkpt lat="43.21898" lon="6.60361">
        <ele>292.7</ele>
        <time>1970-01-01T01:18:12.000Z</time>
      </trkpt>
      <trkpt lat="43.21905" lon="6.60359">
        <ele>293</ele>
        <time>1970-01-01T01:18:13.000Z</time>
      </trkpt>
      <trkpt lat="43.2191" lon="6.60357">
        <ele>292.6</ele>
        <time>1970-01-01T01:18:14.000Z</time>
      </trkpt>
      <trkpt lat="43.21913" lon="6.6036">
        <ele>292.4</ele>
        <time>1970-01-01T01:18:15.000Z</time>
      </trkpt>
      <trkpt lat="43.21914" lon="6.60369">
        <ele>288.7</ele>
        <time>1970-01-01T01:18:17.000Z</time>
      </trkpt>
      <trkpt lat="43.21917" lon="6.60374">
        <ele>286.9</ele>
        <time>1970-01-01T01:18:18.000Z</time>
      </trkpt>
      <trkpt lat="43.21921" lon="6.60376">
        <ele>286.7</ele>
        <time>1970-01-01T01:18:19.000Z</time>
      </trkpt>
      <trkpt lat="43.21925" lon="6.6038">
        <ele>284.9</ele>
        <time>1970-01-01T01:18:20.000Z</time>
      </trkpt>
      <trkpt lat="43.21931" lon="6.60385">
        <ele>283.5</ele>
        <time>1970-01-01T01:18:21.000Z</time>
      </trkpt>
      <trkpt lat="43.21935" lon="6.60391">
        <ele>281.5</ele>
        <time>1970-01-01T01:18:22.000Z</time>
      </trkpt>
      <trkpt lat="43.21938" lon="6.60401">
        <ele>278.8</ele>
        <time>1970-01-01T01:18:23.000Z</time>
      </trkpt>
      <trkpt lat="43.21939" lon="6.6041">
        <ele>275.9</ele>
        <time>1970-01-01T01:18:24.000Z</time>
      </trkpt>
      <trkpt lat="43.21938" lon="6.60416">
        <ele>273.7</ele>
        <time>1970-01-01T01:18:25.000Z</time>
      </trkpt>
      <trkpt lat="43.21939" lon="6.6042">
        <ele>272.8</ele>
        <time>1970-01-01T01:18:26.000Z</time>
      </trkpt>
      <trkpt lat="43.21943" lon="6.60424">
        <ele>272.9</ele>
        <time>1970-01-01T01:18:27.000Z</time>
      </trkpt>
      <trkpt lat="43.21947" lon="6.6043">
        <ele>271.3</ele>
        <time>1970-01-01T01:18:28.000Z</time>
      </trkpt>
      <trkpt lat="43.21951" lon="6.60438">
        <ele>270.4</ele>
        <time>1970-01-01T01:18:29.000Z</time>
      </trkpt>
      <trkpt lat="43.21951" lon="6.60446">
        <ele>269.9</ele>
        <time>1970-01-01T01:18:30.000Z</time>
      </trkpt>
      <trkpt lat="43.2195" lon="6.60455">
        <ele>267.9</ele>
        <time>1970-01-01T01:18:31.000Z</time>
      </trkpt>
      <trkpt lat="43.21949" lon="6.60466">
        <ele>266.5</ele>
        <time>1970-01-01T01:18:32.000Z</time>
      </trkpt>
      <trkpt lat="43.21945" lon="6.60474">
        <ele>265.1</ele>
        <time>1970-01-01T01:18:33.000Z</time>
      </trkpt>
      <trkpt lat="43.21941" lon="6.60477">
        <ele>264.2</ele>
        <time>1970-01-01T01:18:35.000Z</time>
      </trkpt>
      <trkpt lat="43.21937" lon="6.60477">
        <ele>263.7</ele>
        <time>1970-01-01T01:18:36.000Z</time>
      </trkpt>
      <trkpt lat="43.21934" lon="6.60483">
        <ele>262.6</ele>
        <time>1970-01-01T01:18:37.000Z</time>
      </trkpt>
      <trkpt lat="43.21932" lon="6.60492">
        <ele>260.9</ele>
        <time>1970-01-01T01:18:38.000Z</time>
      </trkpt>
      <trkpt lat="43.21926" lon="6.60501">
        <ele>258.9</ele>
        <time>1970-01-01T01:18:39.000Z</time>
      </trkpt>
      <trkpt lat="43.21921" lon="6.60511">
        <ele>257</ele>
        <time>1970-01-01T01:18:40.000Z</time>
      </trkpt>
      <trkpt lat="43.21913" lon="6.60522">
        <ele>255.8</ele>
        <time>1970-01-01T01:18:41.000Z</time>
      </trkpt>
      <trkpt lat="43.21907" lon="6.60534">
        <ele>253.1</ele>
        <time>1970-01-01T01:18:42.000Z</time>
      </trkpt>
      <trkpt lat="43.21903" lon="6.60547">
        <ele>248.9</ele>
        <time>1970-01-01T01:18:43.000Z</time>
      </trkpt>
      <trkpt lat="43.219" lon="6.60559">
        <ele>244.8</ele>
        <time>1970-01-01T01:18:44.000Z</time>
      </trkpt>
      <trkpt lat="43.21894" lon="6.60569">
        <ele>242.4</ele>
        <time>1970-01-01T01:18:45.000Z</time>
      </trkpt>
      <trkpt lat="43.21888" lon="6.60577">
        <ele>239.6</ele>
        <time>1970-01-01T01:18:46.000Z</time>
      </trkpt>
      <trkpt lat="43.21883" lon="6.60581">
        <ele>237.9</ele>
        <time>1970-01-01T01:18:47.000Z</time>
      </trkpt>
      <trkpt lat="43.21881" lon="6.60586">
        <ele>236.5</ele>
        <time>1970-01-01T01:18:48.000Z</time>
      </trkpt>
      <trkpt lat="43.21879" lon="6.60594">
        <ele>234.3</ele>
        <time>1970-01-01T01:18:49.000Z</time>
      </trkpt>
      <trkpt lat="43.21877" lon="6.606">
        <ele>232.7</ele>
        <time>1970-01-01T01:18:50.000Z</time>
      </trkpt>
      <trkpt lat="43.21877" lon="6.60606">
        <ele>230.4</ele>
        <time>1970-01-01T01:18:52.000Z</time>
      </trkpt>
      <trkpt lat="43.21878" lon="6.60611">
        <ele>229.8</ele>
        <time>1970-01-01T01:18:53.000Z</time>
      </trkpt>
      <trkpt lat="43.21882" lon="6.60617">
        <ele>229.2</ele>
        <time>1970-01-01T01:18:54.000Z</time>
      </trkpt>
      <trkpt lat="43.21884" lon="6.60623">
        <ele>227.1</ele>
        <time>1970-01-01T01:18:55.000Z</time>
      </trkpt>
      <trkpt lat="43.21886" lon="6.60626">
        <ele>226.5</ele>
        <time>1970-01-01T01:18:56.000Z</time>
      </trkpt>
      <trkpt lat="43.2189" lon="6.60626">
        <ele>227.1</ele>
        <time>1970-01-01T01:18:57.000Z</time>
      </trkpt>
      <trkpt lat="43.21893" lon="6.60628">
        <ele>227.7</ele>
        <time>1970-01-01T01:18:58.000Z</time>
      </trkpt>
      <trkpt lat="43.21896" lon="6.6063">
        <ele>228.4</ele>
        <time>1970-01-01T01:18:59.000Z</time>
      </trkpt>
      <trkpt lat="43.21901" lon="6.60631">
        <ele>229</ele>
        <time>1970-01-01T01:19:00.000Z</time>
      </trkpt>
      <trkpt lat="43.21906" lon="6.60631">
        <ele>229.8</ele>
        <time>1970-01-01T01:19:01.000Z</time>
      </trkpt>
      <trkpt lat="43.21912" lon="6.60631">
        <ele>231.1</ele>
        <time>1970-01-01T01:19:02.000Z</time>
      </trkpt>
      <trkpt lat="43.21917" lon="6.6063">
        <ele>233.2</ele>
        <time>1970-01-01T01:19:03.000Z</time>
      </trkpt>
      <trkpt lat="43.21922" lon="6.60627">
        <ele>234.2</ele>
        <time>1970-01-01T01:19:04.000Z</time>
      </trkpt>
      <trkpt lat="43.21927" lon="6.60623">
        <ele>235.7</ele>
        <time>1970-01-01T01:19:05.000Z</time>
      </trkpt>
      <trkpt lat="43.21932" lon="6.60619">
        <ele>237.5</ele>
        <time>1970-01-01T01:19:06.000Z</time>
      </trkpt>
      <trkpt lat="43.21937" lon="6.60615">
        <ele>238.8</ele>
        <time>1970-01-01T01:19:07.000Z</time>
      </trkpt>
      <trkpt lat="43.21941" lon="6.60612">
        <ele>239.9</ele>
        <time>1970-01-01T01:19:08.000Z</time>
      </trkpt>
      <trkpt lat="43.21944" lon="6.60607">
        <ele>240.8</ele>
        <time>1970-01-01T01:19:09.000Z</time>
      </trkpt>
      <trkpt lat="43.21947" lon="6.60602">
        <ele>241.8</ele>
        <time>1970-01-01T01:19:10.000Z</time>
      </trkpt>
      <trkpt lat="43.21951" lon="6.60598">
        <ele>242.5</ele>
        <time>1970-01-01T01:19:11.000Z</time>
      </trkpt>
      <trkpt lat="43.21955" lon="6.60592">
        <ele>243.4</ele>
        <time>1970-01-01T01:19:12.000Z</time>
      </trkpt>
      <trkpt lat="43.2196" lon="6.60588">
        <ele>244</ele>
        <time>1970-01-01T01:19:13.000Z</time>
      </trkpt>
      <trkpt lat="43.21965" lon="6.60586">
        <ele>244.7</ele>
        <time>1970-01-01T01:19:14.000Z</time>
      </trkpt>
      <trkpt lat="43.2197" lon="6.60588">
        <ele>243.2</ele>
        <time>1970-01-01T01:19:15.000Z</time>
      </trkpt>
      <trkpt lat="43.21973" lon="6.6059">
        <ele>243</ele>
        <time>1970-01-01T01:19:16.000Z</time>
      </trkpt>
      <trkpt lat="43.21977" lon="6.60593">
        <ele>241.3</ele>
        <time>1970-01-01T01:19:17.000Z</time>
      </trkpt>
      <trkpt lat="43.21982" lon="6.60595">
        <ele>241.1</ele>
        <time>1970-01-01T01:19:18.000Z</time>
      </trkpt>
      <trkpt lat="43.21986" lon="6.60597">
        <ele>239.1</ele>
        <time>1970-01-01T01:19:19.000Z</time>
      </trkpt>
      <trkpt lat="43.2199" lon="6.60598">
        <ele>239.1</ele>
        <time>1970-01-01T01:19:20.000Z</time>
      </trkpt>
      <trkpt lat="43.21993" lon="6.60598">
        <ele>239.2</ele>
        <time>1970-01-01T01:19:21.000Z</time>
      </trkpt>
      <trkpt lat="43.21996" lon="6.60596">
        <ele>239.4</ele>
        <time>1970-01-01T01:19:22.000Z</time>
      </trkpt>
      <trkpt lat="43.21999" lon="6.60594">
        <ele>241.7</ele>
        <time>1970-01-01T01:19:23.000Z</time>
      </trkpt>
      <trkpt lat="43.22004" lon="6.60593">
        <ele>242.3</ele>
        <time>1970-01-01T01:19:25.000Z</time>
      </trkpt>
      <trkpt lat="43.22007" lon="6.60592">
        <ele>244.2</ele>
        <time>1970-01-01T01:19:26.000Z</time>
      </trkpt>
      <trkpt lat="43.2201" lon="6.6059">
        <ele>244.5</ele>
        <time>1970-01-01T01:19:27.000Z</time>
      </trkpt>
      <trkpt lat="43.22012" lon="6.60588">
        <ele>244.5</ele>
        <time>1970-01-01T01:19:28.000Z</time>
      </trkpt>
      <trkpt lat="43.22015" lon="6.60587">
        <ele>246</ele>
        <time>1970-01-01T01:19:29.000Z</time>
      </trkpt>
      <trkpt lat="43.22018" lon="6.60587">
        <ele>246.2</ele>
        <time>1970-01-01T01:19:30.000Z</time>
      </trkpt>
      <trkpt lat="43.22023" lon="6.60586">
        <ele>246.8</ele>
        <time>1970-01-01T01:19:31.000Z</time>
      </trkpt>
      <trkpt lat="43.22028" lon="6.60582">
        <ele>247.8</ele>
        <time>1970-01-01T01:19:32.000Z</time>
      </trkpt>
      <trkpt lat="43.22032" lon="6.60579">
        <ele>248.4</ele>
        <time>1970-01-01T01:19:33.000Z</time>
      </trkpt>
      <trkpt lat="43.22034" lon="6.60577">
        <ele>249.3</ele>
        <time>1970-01-01T01:19:34.000Z</time>
      </trkpt>
      <trkpt lat="43.22038" lon="6.60575">
        <ele>250</ele>
        <time>1970-01-01T01:19:36.000Z</time>
      </trkpt>
      <trkpt lat="43.22042" lon="6.60574">
        <ele>251.4</ele>
        <time>1970-01-01T01:19:37.000Z</time>
      </trkpt>
      <trkpt lat="43.22046" lon="6.60571">
        <ele>251.6</ele>
        <time>1970-01-01T01:19:38.000Z</time>
      </trkpt>
      <trkpt lat="43.22048" lon="6.60566">
        <ele>253.8</ele>
        <time>1970-01-01T01:19:39.000Z</time>
      </trkpt>
      <trkpt lat="43.22052" lon="6.60563">
        <ele>253.9</ele>
        <time>1970-01-01T01:19:40.000Z</time>
      </trkpt>
      <trkpt lat="43.22056" lon="6.60566">
        <ele>253.1</ele>
        <time>1970-01-01T01:19:41.000Z</time>
      </trkpt>
      <trkpt lat="43.2206" lon="6.60573">
        <ele>252</ele>
        <time>1970-01-01T01:19:42.000Z</time>
      </trkpt>
      <trkpt lat="43.22063" lon="6.60578">
        <ele>250.7</ele>
        <time>1970-01-01T01:19:43.000Z</time>
      </trkpt>
      <trkpt lat="43.22069" lon="6.60579">
        <ele>249.3</ele>
        <time>1970-01-01T01:19:44.000Z</time>
      </trkpt>
      <trkpt lat="43.22076" lon="6.60578">
        <ele>249.6</ele>
        <time>1970-01-01T01:19:45.000Z</time>
      </trkpt>
      <trkpt lat="43.22082" lon="6.60578">
        <ele>249</ele>
        <time>1970-01-01T01:19:46.000Z</time>
      </trkpt>
      <trkpt lat="43.22085" lon="6.60581">
        <ele>247.7</ele>
        <time>1970-01-01T01:19:47.000Z</time>
      </trkpt>
      <trkpt lat="43.22088" lon="6.60587">
        <ele>246.6</ele>
        <time>1970-01-01T01:19:48.000Z</time>
      </trkpt>
      <trkpt lat="43.22093" lon="6.60592">
        <ele>244.5</ele>
        <time>1970-01-01T01:19:49.000Z</time>
      </trkpt>
      <trkpt lat="43.22098" lon="6.60599">
        <ele>243.4</ele>
        <time>1970-01-01T01:19:50.000Z</time>
      </trkpt>
      <trkpt lat="43.22101" lon="6.60603">
        <ele>242.4</ele>
        <time>1970-01-01T01:19:51.000Z</time>
      </trkpt>
      <trkpt lat="43.22104" lon="6.60609">
        <ele>240.7</ele>
        <time>1970-01-01T01:19:52.000Z</time>
      </trkpt>
      <trkpt lat="43.2211" lon="6.60615">
        <ele>240.5</ele>
        <time>1970-01-01T01:19:53.000Z</time>
      </trkpt>
      <trkpt lat="43.22117" lon="6.6062">
        <ele>240.2</ele>
        <time>1970-01-01T01:19:54.000Z</time>
      </trkpt>
      <trkpt lat="43.22123" lon="6.60626">
        <ele>239.5</ele>
        <time>1970-01-01T01:19:55.000Z</time>
      </trkpt>
      <trkpt lat="43.22132" lon="6.60628">
        <ele>238</ele>
        <time>1970-01-01T01:19:56.000Z</time>
      </trkpt>
      <trkpt lat="43.22142" lon="6.60629">
        <ele>237.3</ele>
        <time>1970-01-01T01:19:57.000Z</time>
      </trkpt>
      <trkpt lat="43.22153" lon="6.60631">
        <ele>234.8</ele>
        <time>1970-01-01T01:19:58.000Z</time>
      </trkpt>
      <trkpt lat="43.22161" lon="6.60634">
        <ele>233.3</ele>
        <time>1970-01-01T01:19:59.000Z</time>
      </trkpt>
      <trkpt lat="43.2217" lon="6.60637">
        <ele>229.9</ele>
        <time>1970-01-01T01:20:00.000Z</time>
      </trkpt>
      <trkpt lat="43.22179" lon="6.60638">
        <ele>227.8</ele>
        <time>1970-01-01T01:20:01.000Z</time>
      </trkpt>
      <trkpt lat="43.22187" lon="6.60638">
        <ele>226.6</ele>
        <time>1970-01-01T01:20:02.000Z</time>
      </trkpt>
      <trkpt lat="43.22195" lon="6.60635">
        <ele>225.5</ele>
        <time>1970-01-01T01:20:03.000Z</time>
      </trkpt>
      <trkpt lat="43.22199" lon="6.60634">
        <ele>226.4</ele>
        <time>1970-01-01T01:20:04.000Z</time>
      </trkpt>
      <trkpt lat="43.22203" lon="6.60634">
        <ele>226.3</ele>
        <time>1970-01-01T01:20:05.000Z</time>
      </trkpt>
      <trkpt lat="43.22207" lon="6.60633">
        <ele>226.6</ele>
        <time>1970-01-01T01:20:06.000Z</time>
      </trkpt>
      <trkpt lat="43.22206" lon="6.60641">
        <ele>224.6</ele>
        <time>1970-01-01T01:20:09.000Z</time>
      </trkpt>
      <trkpt lat="43.22203" lon="6.60647">
        <ele>223.5</ele>
        <time>1970-01-01T01:20:10.000Z</time>
      </trkpt>
      <trkpt lat="43.222" lon="6.60651">
        <ele>222.4</ele>
        <time>1970-01-01T01:20:11.000Z</time>
      </trkpt>
      <trkpt lat="43.22199" lon="6.6066">
        <ele>219.2</ele>
        <time>1970-01-01T01:20:12.000Z</time>
      </trkpt>
      <trkpt lat="43.222" lon="6.60672">
        <ele>217.2</ele>
        <time>1970-01-01T01:20:13.000Z</time>
      </trkpt>
      <trkpt lat="43.22203" lon="6.60681">
        <ele>215.3</ele>
        <time>1970-01-01T01:20:14.000Z</time>
      </trkpt>
      <trkpt lat="43.22206" lon="6.6069">
        <ele>213.9</ele>
        <time>1970-01-01T01:20:15.000Z</time>
      </trkpt>
      <trkpt lat="43.2221" lon="6.60699">
        <ele>213.3</ele>
        <time>1970-01-01T01:20:16.000Z</time>
      </trkpt>
      <trkpt lat="43.22214" lon="6.60707">
        <ele>213.4</ele>
        <time>1970-01-01T01:20:17.000Z</time>
      </trkpt>
      <trkpt lat="43.2222" lon="6.60712">
        <ele>213.5</ele>
        <time>1970-01-01T01:20:18.000Z</time>
      </trkpt>
      <trkpt lat="43.22227" lon="6.60718">
        <ele>214.4</ele>
        <time>1970-01-01T01:20:19.000Z</time>
      </trkpt>
      <trkpt lat="43.22231" lon="6.60724">
        <ele>214.8</ele>
        <time>1970-01-01T01:20:20.000Z</time>
      </trkpt>
      <trkpt lat="43.22232" lon="6.60731">
        <ele>215</ele>
        <time>1970-01-01T01:20:21.000Z</time>
      </trkpt>
      <trkpt lat="43.22234" lon="6.60739">
        <ele>214.5</ele>
        <time>1970-01-01T01:20:22.000Z</time>
      </trkpt>
      <trkpt lat="43.22234" lon="6.60748">
        <ele>214.3</ele>
        <time>1970-01-01T01:20:23.000Z</time>
      </trkpt>
      <trkpt lat="43.22233" lon="6.60758">
        <ele>214.3</ele>
        <time>1970-01-01T01:20:24.000Z</time>
      </trkpt>
      <trkpt lat="43.22232" lon="6.60768">
        <ele>214.1</ele>
        <time>1970-01-01T01:20:25.000Z</time>
      </trkpt>
      <trkpt lat="43.22231" lon="6.60777">
        <ele>213.3</ele>
        <time>1970-01-01T01:20:26.000Z</time>
      </trkpt>
      <trkpt lat="43.22229" lon="6.60785">
        <ele>212.9</ele>
        <time>1970-01-01T01:20:27.000Z</time>
      </trkpt>
      <trkpt lat="43.22231" lon="6.60793">
        <ele>212.6</ele>
        <time>1970-01-01T01:20:28.000Z</time>
      </trkpt>
      <trkpt lat="43.22232" lon="6.60803">
        <ele>212.1</ele>
        <time>1970-01-01T01:20:29.000Z</time>
      </trkpt>
      <trkpt lat="43.22232" lon="6.60813">
        <ele>211.4</ele>
        <time>1970-01-01T01:20:30.000Z</time>
      </trkpt>
      <trkpt lat="43.22231" lon="6.60821">
        <ele>209.9</ele>
        <time>1970-01-01T01:20:31.000Z</time>
      </trkpt>
      <trkpt lat="43.22232" lon="6.60828">
        <ele>209.8</ele>
        <time>1970-01-01T01:20:32.000Z</time>
      </trkpt>
      <trkpt lat="43.22235" lon="6.60834">
        <ele>208.8</ele>
        <time>1970-01-01T01:20:33.000Z</time>
      </trkpt>
      <trkpt lat="43.2224" lon="6.6084">
        <ele>208.2</ele>
        <time>1970-01-01T01:20:34.000Z</time>
      </trkpt>
      <trkpt lat="43.22244" lon="6.60848">
        <ele>206.1</ele>
        <time>1970-01-01T01:20:35.000Z</time>
      </trkpt>
      <trkpt lat="43.22248" lon="6.60852">
        <ele>204.8</ele>
        <time>1970-01-01T01:20:36.000Z</time>
      </trkpt>
      <trkpt lat="43.22253" lon="6.60852">
        <ele>204.8</ele>
        <time>1970-01-01T01:20:37.000Z</time>
      </trkpt>
      <trkpt lat="43.22259" lon="6.60852">
        <ele>204.6</ele>
        <time>1970-01-01T01:20:38.000Z</time>
      </trkpt>
      <trkpt lat="43.22265" lon="6.60851">
        <ele>204.2</ele>
        <time>1970-01-01T01:20:39.000Z</time>
      </trkpt>
      <trkpt lat="43.22271" lon="6.60849">
        <ele>205.2</ele>
        <time>1970-01-01T01:20:40.000Z</time>
      </trkpt>
      <trkpt lat="43.22276" lon="6.60844">
        <ele>206</ele>
        <time>1970-01-01T01:20:41.000Z</time>
      </trkpt>
      <trkpt lat="43.22281" lon="6.60839">
        <ele>207</ele>
        <time>1970-01-01T01:20:42.000Z</time>
      </trkpt>
      <trkpt lat="43.22287" lon="6.60839">
        <ele>205.8</ele>
        <time>1970-01-01T01:20:43.000Z</time>
      </trkpt>
      <trkpt lat="43.22294" lon="6.60841">
        <ele>202.7</ele>
        <time>1970-01-01T01:20:44.000Z</time>
      </trkpt>
      <trkpt lat="43.22301" lon="6.60839">
        <ele>201.8</ele>
        <time>1970-01-01T01:20:45.000Z</time>
      </trkpt>
      <trkpt lat="43.22305" lon="6.60837">
        <ele>201</ele>
        <time>1970-01-01T01:20:46.000Z</time>
      </trkpt>
      <trkpt lat="43.22308" lon="6.60837">
        <ele>200.2</ele>
        <time>1970-01-01T01:20:47.000Z</time>
      </trkpt>
      <trkpt lat="43.22312" lon="6.60838">
        <ele>199.3</ele>
        <time>1970-01-01T01:20:48.000Z</time>
      </trkpt>
      <trkpt lat="43.22318" lon="6.60835">
        <ele>198.9</ele>
        <time>1970-01-01T01:20:49.000Z</time>
      </trkpt>
      <trkpt lat="43.22325" lon="6.60835">
        <ele>197</ele>
        <time>1970-01-01T01:20:50.000Z</time>
      </trkpt>
      <trkpt lat="43.22331" lon="6.60836">
        <ele>195.2</ele>
        <time>1970-01-01T01:20:51.000Z</time>
      </trkpt>
      <trkpt lat="43.22337" lon="6.60834">
        <ele>193.6</ele>
        <time>1970-01-01T01:20:52.000Z</time>
      </trkpt>
      <trkpt lat="43.22344" lon="6.60833">
        <ele>192</ele>
        <time>1970-01-01T01:20:53.000Z</time>
      </trkpt>
      <trkpt lat="43.2235" lon="6.60833">
        <ele>190.2</ele>
        <time>1970-01-01T01:20:54.000Z</time>
      </trkpt>
      <trkpt lat="43.22356" lon="6.60835">
        <ele>188.7</ele>
        <time>1970-01-01T01:20:55.000Z</time>
      </trkpt>
      <trkpt lat="43.22362" lon="6.60839">
        <ele>186.4</ele>
        <time>1970-01-01T01:20:56.000Z</time>
      </trkpt>
      <trkpt lat="43.22368" lon="6.60847">
        <ele>182.9</ele>
        <time>1970-01-01T01:20:57.000Z</time>
      </trkpt>
      <trkpt lat="43.22371" lon="6.60858">
        <ele>178.7</ele>
        <time>1970-01-01T01:20:58.000Z</time>
      </trkpt>
      <trkpt lat="43.2237" lon="6.60862">
        <ele>177.7</ele>
        <time>1970-01-01T01:20:59.000Z</time>
      </trkpt>
      <trkpt lat="43.22365" lon="6.60868">
        <ele>177.9</ele>
        <time>1970-01-01T01:21:00.000Z</time>
      </trkpt>
      <trkpt lat="43.22361" lon="6.60873">
        <ele>177.4</ele>
        <time>1970-01-01T01:21:01.000Z</time>
      </trkpt>
      <trkpt lat="43.22359" lon="6.60876">
        <ele>176.8</ele>
        <time>1970-01-01T01:21:02.000Z</time>
      </trkpt>
      <trkpt lat="43.22361" lon="6.60882">
        <ele>175</ele>
        <time>1970-01-01T01:21:04.000Z</time>
      </trkpt>
      <trkpt lat="43.22363" lon="6.60885">
        <ele>174</ele>
        <time>1970-01-01T01:21:06.000Z</time>
      </trkpt>
      <trkpt lat="43.22367" lon="6.60886">
        <ele>172.6</ele>
        <time>1970-01-01T01:21:07.000Z</time>
      </trkpt>
      <trkpt lat="43.22369" lon="6.60891">
        <ele>171.7</ele>
        <time>1970-01-01T01:21:08.000Z</time>
      </trkpt>
      <trkpt lat="43.22368" lon="6.60895">
        <ele>170.8</ele>
        <time>1970-01-01T01:21:09.000Z</time>
      </trkpt>
      <trkpt lat="43.22364" lon="6.60898">
        <ele>170.5</ele>
        <time>1970-01-01T01:21:10.000Z</time>
      </trkpt>
      <trkpt lat="43.22359" lon="6.60905">
        <ele>169.8</ele>
        <time>1970-01-01T01:21:11.000Z</time>
      </trkpt>
      <trkpt lat="43.22353" lon="6.60912">
        <ele>170.2</ele>
        <time>1970-01-01T01:21:12.000Z</time>
      </trkpt>
      <trkpt lat="43.22348" lon="6.60918">
        <ele>170.1</ele>
        <time>1970-01-01T01:21:13.000Z</time>
      </trkpt>
      <trkpt lat="43.22345" lon="6.60922">
        <ele>169.4</ele>
        <time>1970-01-01T01:21:14.000Z</time>
      </trkpt>
      <trkpt lat="43.22343" lon="6.60926">
        <ele>170.1</ele>
        <time>1970-01-01T01:21:15.000Z</time>
      </trkpt>
      <trkpt lat="43.22344" lon="6.60933">
        <ele>168.1</ele>
        <time>1970-01-01T01:21:16.000Z</time>
      </trkpt>
      <trkpt lat="43.22347" lon="6.60939">
        <ele>166.4</ele>
        <time>1970-01-01T01:21:17.000Z</time>
      </trkpt>
      <trkpt lat="43.2235" lon="6.60944">
        <ele>163.6</ele>
        <time>1970-01-01T01:21:18.000Z</time>
      </trkpt>
      <trkpt lat="43.22353" lon="6.6095">
        <ele>161.7</ele>
        <time>1970-01-01T01:21:19.000Z</time>
      </trkpt>
      <trkpt lat="43.22352" lon="6.60956">
        <ele>160.4</ele>
        <time>1970-01-01T01:21:20.000Z</time>
      </trkpt>
      <trkpt lat="43.22349" lon="6.6096">
        <ele>159.5</ele>
        <time>1970-01-01T01:21:21.000Z</time>
      </trkpt>
      <trkpt lat="43.22348" lon="6.60965">
        <ele>156.5</ele>
        <time>1970-01-01T01:21:22.000Z</time>
      </trkpt>
      <trkpt lat="43.2235" lon="6.60971">
        <ele>154.6</ele>
        <time>1970-01-01T01:21:24.000Z</time>
      </trkpt>
      <trkpt lat="43.2235" lon="6.60977">
        <ele>153.8</ele>
        <time>1970-01-01T01:21:26.000Z</time>
      </trkpt>
      <trkpt lat="43.2235" lon="6.60982">
        <ele>152.5</ele>
        <time>1970-01-01T01:21:27.000Z</time>
      </trkpt>
      <trkpt lat="43.2235" lon="6.60987">
        <ele>149.9</ele>
        <time>1970-01-01T01:21:28.000Z</time>
      </trkpt>
      <trkpt lat="43.22351" lon="6.60993">
        <ele>148.2</ele>
        <time>1970-01-01T01:21:29.000Z</time>
      </trkpt>
      <trkpt lat="43.22353" lon="6.60999">
        <ele>147.2</ele>
        <time>1970-01-01T01:21:30.000Z</time>
      </trkpt>
      <trkpt lat="43.22356" lon="6.61005">
        <ele>145.4</ele>
        <time>1970-01-01T01:21:31.000Z</time>
      </trkpt>
      <trkpt lat="43.22359" lon="6.61011">
        <ele>144.8</ele>
        <time>1970-01-01T01:21:32.000Z</time>
      </trkpt>
      <trkpt lat="43.22366" lon="6.61013">
        <ele>144.5</ele>
        <time>1970-01-01T01:21:33.000Z</time>
      </trkpt>
      <trkpt lat="43.22371" lon="6.61012">
        <ele>145.4</ele>
        <time>1970-01-01T01:21:34.000Z</time>
      </trkpt>
      <trkpt lat="43.22375" lon="6.61009">
        <ele>145.7</ele>
        <time>1970-01-01T01:21:35.000Z</time>
      </trkpt>
      <trkpt lat="43.22379" lon="6.61008">
        <ele>147.1</ele>
        <time>1970-01-01T01:21:36.000Z</time>
      </trkpt>
      <trkpt lat="43.22382" lon="6.61008">
        <ele>147.5</ele>
        <time>1970-01-01T01:21:37.000Z</time>
      </trkpt>
      <trkpt lat="43.22385" lon="6.61011">
        <ele>147.2</ele>
        <time>1970-01-01T01:21:40.000Z</time>
      </trkpt>
      <trkpt lat="43.22387" lon="6.61016">
        <ele>146.5</ele>
        <time>1970-01-01T01:21:42.000Z</time>
      </trkpt>
      <trkpt lat="43.22388" lon="6.6102">
        <ele>145.8</ele>
        <time>1970-01-01T01:21:46.000Z</time>
      </trkpt>
      <trkpt lat="43.22387" lon="6.61024">
        <ele>145.2</ele>
        <time>1970-01-01T01:21:53.000Z</time>
      </trkpt>
      <trkpt lat="43.2239" lon="6.61027">
        <ele>145.1</ele>
        <time>1970-01-01T01:22:18.000Z</time>
      </trkpt>
      <trkpt lat="43.22392" lon="6.61027">
        <ele>145.4</ele>
        <time>1970-01-01T01:22:46.000Z</time>
      </trkpt>
      <trkpt lat="43.22394" lon="6.61031">
        <ele>145.1</ele>
        <time>1970-01-01T01:22:51.000Z</time>
      </trkpt>
      <trkpt lat="43.22397" lon="6.61029">
        <ele>145.9</ele>
        <time>1970-01-01T01:23:21.000Z</time>
      </trkpt>
      <trkpt lat="43.22399" lon="6.61026">
        <ele>146.5</ele>
        <time>1970-01-01T01:24:01.000Z</time>
      </trkpt>
      <trkpt lat="43.224" lon="6.6103">
        <ele>146.2</ele>
        <time>1970-01-01T01:24:30.000Z</time>
      </trkpt>
      <trkpt lat="43.22403" lon="6.61031">
        <ele>146.8</ele>
        <time>1970-01-01T01:24:35.000Z</time>
      </trkpt>
      <trkpt lat="43.22407" lon="6.6103">
        <ele>148.1</ele>
        <time>1970-01-01T01:24:40.000Z</time>
      </trkpt>
      <trkpt lat="43.2241" lon="6.6103">
        <ele>148.7</ele>
        <time>1970-01-01T01:24:43.000Z</time>
      </trkpt>
      <trkpt lat="43.22413" lon="6.61032">
        <ele>149.3</ele>
        <time>1970-01-01T01:24:46.000Z</time>
      </trkpt>
      <trkpt lat="43.22417" lon="6.6103">
        <ele>149.5</ele>
        <time>1970-01-01T01:24:48.000Z</time>
      </trkpt>
      <trkpt lat="43.22419" lon="6.61033">
        <ele>149.7</ele>
        <time>1970-01-01T01:24:52.000Z</time>
      </trkpt>
      <trkpt lat="43.22421" lon="6.6103">
        <ele>150</ele>
        <time>1970-01-01T01:26:21.000Z</time>
      </trkpt>
      <trkpt lat="43.22418" lon="6.61028">
        <ele>150.4</ele>
        <time>1970-01-01T01:27:24.000Z</time>
      </trkpt>
      <trkpt lat="43.22419" lon="6.61024">
        <ele>150.8</ele>
        <time>1970-01-01T01:27:26.000Z</time>
      </trkpt>
      <trkpt lat="43.22419" lon="6.61019">
        <ele>151.3</ele>
        <time>1970-01-01T01:27:29.000Z</time>
      </trkpt>
      <trkpt lat="43.22418" lon="6.61014">
        <ele>152</ele>
        <time>1970-01-01T01:27:31.000Z</time>
      </trkpt>
      <trkpt lat="43.22418" lon="6.61009">
        <ele>152.6</ele>
        <time>1970-01-01T01:27:33.000Z</time>
      </trkpt>
      <trkpt lat="43.22418" lon="6.61005">
        <ele>153.1</ele>
        <time>1970-01-01T01:27:36.000Z</time>
      </trkpt>
      <trkpt lat="43.2242" lon="6.61">
        <ele>153.8</ele>
        <time>1970-01-01T01:27:39.000Z</time>
      </trkpt>
      <trkpt lat="43.22421" lon="6.60995">
        <ele>154.4</ele>
        <time>1970-01-01T01:27:41.000Z</time>
      </trkpt>
      <trkpt lat="43.22421" lon="6.60991">
        <ele>155.1</ele>
        <time>1970-01-01T01:27:43.000Z</time>
      </trkpt>
      <trkpt lat="43.2242" lon="6.60987">
        <ele>155.8</ele>
        <time>1970-01-01T01:27:45.000Z</time>
      </trkpt>
      <trkpt lat="43.2242" lon="6.60982">
        <ele>156.6</ele>
        <time>1970-01-01T01:27:47.000Z</time>
      </trkpt>
      <trkpt lat="43.22421" lon="6.60978">
        <ele>157.4</ele>
        <time>1970-01-01T01:27:49.000Z</time>
      </trkpt>
      <trkpt lat="43.22422" lon="6.60974">
        <ele>158</ele>
        <time>1970-01-01T01:27:51.000Z</time>
      </trkpt>
      <trkpt lat="43.22425" lon="6.6097">
        <ele>158.8</ele>
        <time>1970-01-01T01:27:53.000Z</time>
      </trkpt>
      <trkpt lat="43.22427" lon="6.60965">
        <ele>159.5</ele>
        <time>1970-01-01T01:27:56.000Z</time>
      </trkpt>
      <trkpt lat="43.22429" lon="6.60962">
        <ele>160</ele>
        <time>1970-01-01T01:27:58.000Z</time>
      </trkpt>
      <trkpt lat="43.22432" lon="6.60957">
        <ele>160.4</ele>
        <time>1970-01-01T01:28:00.000Z</time>
      </trkpt>
      <trkpt lat="43.22433" lon="6.60954">
        <ele>160.7</ele>
        <time>1970-01-01T01:28:03.000Z</time>
      </trkpt>
      <trkpt lat="43.22434" lon="6.6095">
        <ele>160.9</ele>
        <time>1970-01-01T01:28:05.000Z</time>
      </trkpt>
      <trkpt lat="43.22434" lon="6.60946">
        <ele>161.3</ele>
        <time>1970-01-01T01:28:07.000Z</time>
      </trkpt>
      <trkpt lat="43.22433" lon="6.60941">
        <ele>161.9</ele>
        <time>1970-01-01T01:28:10.000Z</time>
      </trkpt>
      <trkpt lat="43.22433" lon="6.60937">
        <ele>162.4</ele>
        <time>1970-01-01T01:28:12.000Z</time>
      </trkpt>
      <trkpt lat="43.22433" lon="6.60932">
        <ele>162.9</ele>
        <time>1970-01-01T01:28:15.000Z</time>
      </trkpt>
      <trkpt lat="43.22434" lon="6.60929">
        <ele>163.4</ele>
        <time>1970-01-01T01:28:17.000Z</time>
      </trkpt>
      <trkpt lat="43.22434" lon="6.60925">
        <ele>163.9</ele>
        <time>1970-01-01T01:28:20.000Z</time>
      </trkpt>
      <trkpt lat="43.22436" lon="6.60922">
        <ele>164.4</ele>
        <time>1970-01-01T01:28:22.000Z</time>
      </trkpt>
      <trkpt lat="43.22439" lon="6.60917">
        <ele>165.2</ele>
        <time>1970-01-01T01:28:25.000Z</time>
      </trkpt>
      <trkpt lat="43.22442" lon="6.60915">
        <ele>165.9</ele>
        <time>1970-01-01T01:28:27.000Z</time>
      </trkpt>
      <trkpt lat="43.22445" lon="6.60915">
        <ele>166.7</ele>
        <time>1970-01-01T01:28:30.000Z</time>
      </trkpt>
      <trkpt lat="43.22448" lon="6.60915">
        <ele>167.3</ele>
        <time>1970-01-01T01:28:33.000Z</time>
      </trkpt>
      <trkpt lat="43.22451" lon="6.60914">
        <ele>167.9</ele>
        <time>1970-01-01T01:28:36.000Z</time>
      </trkpt>
      <trkpt lat="43.22454" lon="6.60916">
        <ele>168.5</ele>
        <time>1970-01-01T01:28:39.000Z</time>
      </trkpt>
      <trkpt lat="43.22457" lon="6.60918">
        <ele>169.1</ele>
        <time>1970-01-01T01:28:41.000Z</time>
      </trkpt>
      <trkpt lat="43.2246" lon="6.6092">
        <ele>169.8</ele>
        <time>1970-01-01T01:28:44.000Z</time>
      </trkpt>
      <trkpt lat="43.22463" lon="6.60924">
        <ele>170.4</ele>
        <time>1970-01-01T01:28:47.000Z</time>
      </trkpt>
      <trkpt lat="43.22465" lon="6.60928">
        <ele>170.8</ele>
        <time>1970-01-01T01:28:50.000Z</time>
      </trkpt>
      <trkpt lat="43.22467" lon="6.60933">
        <ele>171.3</ele>
        <time>1970-01-01T01:28:53.000Z</time>
      </trkpt>
      <trkpt lat="43.2247" lon="6.60935">
        <ele>171.7</ele>
        <time>1970-01-01T01:28:55.000Z</time>
      </trkpt>
      <trkpt lat="43.22472" lon="6.60938">
        <ele>172.2</ele>
        <time>1970-01-01T01:28:58.000Z</time>
      </trkpt>
      <trkpt lat="43.22474" lon="6.60942">
        <ele>172.7</ele>
        <time>1970-01-01T01:29:01.000Z</time>
      </trkpt>
      <trkpt lat="43.22476" lon="6.60946">
        <ele>173.3</ele>
        <time>1970-01-01T01:29:04.000Z</time>
      </trkpt>
      <trkpt lat="43.22478" lon="6.60949">
        <ele>174</ele>
        <time>1970-01-01T01:29:06.000Z</time>
      </trkpt>
      <trkpt lat="43.22481" lon="6.60951">
        <ele>174.7</ele>
        <time>1970-01-01T01:29:08.000Z</time>
      </trkpt>
      <trkpt lat="43.22484" lon="6.60952">
        <ele>175.6</ele>
        <time>1970-01-01T01:29:11.000Z</time>
      </trkpt>
      <trkpt lat="43.22488" lon="6.60952">
        <ele>176.4</ele>
        <time>1970-01-01T01:29:13.000Z</time>
      </trkpt>
      <trkpt lat="43.22492" lon="6.60952">
        <ele>177.2</ele>
        <time>1970-01-01T01:29:15.000Z</time>
      </trkpt>
      <trkpt lat="43.22495" lon="6.60952">
        <ele>177.9</ele>
        <time>1970-01-01T01:29:17.000Z</time>
      </trkpt>
      <trkpt lat="43.22498" lon="6.60952">
        <ele>178.5</ele>
        <time>1970-01-01T01:29:19.000Z</time>
      </trkpt>
      <trkpt lat="43.22501" lon="6.60952">
        <ele>179.1</ele>
        <time>1970-01-01T01:29:23.000Z</time>
      </trkpt>
      <trkpt lat="43.22505" lon="6.60951">
        <ele>179.5</ele>
        <time>1970-01-01T01:29:26.000Z</time>
      </trkpt>
      <trkpt lat="43.22509" lon="6.60951">
        <ele>179.9</ele>
        <time>1970-01-01T01:29:28.000Z</time>
      </trkpt>
      <trkpt lat="43.22512" lon="6.6095">
        <ele>180.4</ele>
        <time>1970-01-01T01:29:30.000Z</time>
      </trkpt>
      <trkpt lat="43.22516" lon="6.60946">
        <ele>181.4</ele>
        <time>1970-01-01T01:29:32.000Z</time>
      </trkpt>
      <trkpt lat="43.22519" lon="6.60943">
        <ele>182.3</ele>
        <time>1970-01-01T01:29:35.000Z</time>
      </trkpt>
      <trkpt lat="43.22522" lon="6.60942">
        <ele>182.9</ele>
        <time>1970-01-01T01:29:37.000Z</time>
      </trkpt>
      <trkpt lat="43.22525" lon="6.6094">
        <ele>183.7</ele>
        <time>1970-01-01T01:29:39.000Z</time>
      </trkpt>
      <trkpt lat="43.22527" lon="6.60939">
        <ele>184.3</ele>
        <time>1970-01-01T01:29:41.000Z</time>
      </trkpt>
      <trkpt lat="43.2253" lon="6.60936">
        <ele>184.9</ele>
        <time>1970-01-01T01:29:43.000Z</time>
      </trkpt>
      <trkpt lat="43.22533" lon="6.60932">
        <ele>185.7</ele>
        <time>1970-01-01T01:29:45.000Z</time>
      </trkpt>
      <trkpt lat="43.22535" lon="6.6093">
        <ele>186.2</ele>
        <time>1970-01-01T01:29:47.000Z</time>
      </trkpt>
      <trkpt lat="43.22537" lon="6.60925">
        <ele>186.9</ele>
        <time>1970-01-01T01:29:50.000Z</time>
      </trkpt>
      <trkpt lat="43.22538" lon="6.60922">
        <ele>187.4</ele>
        <time>1970-01-01T01:29:52.000Z</time>
      </trkpt>
      <trkpt lat="43.2254" lon="6.60917">
        <ele>187.9</ele>
        <time>1970-01-01T01:29:54.000Z</time>
      </trkpt>
      <trkpt lat="43.2254" lon="6.60912">
        <ele>188.6</ele>
        <time>1970-01-01T01:29:57.000Z</time>
      </trkpt>
      <trkpt lat="43.2254" lon="6.60908">
        <ele>189</ele>
        <time>1970-01-01T01:29:59.000Z</time>
      </trkpt>
      <trkpt lat="43.2254" lon="6.60902">
        <ele>189.5</ele>
        <time>1970-01-01T01:30:02.000Z</time>
      </trkpt>
      <trkpt lat="43.2254" lon="6.60897">
        <ele>190</ele>
        <time>1970-01-01T01:30:04.000Z</time>
      </trkpt>
      <trkpt lat="43.2254" lon="6.60892">
        <ele>190.3</ele>
        <time>1970-01-01T01:30:06.000Z</time>
      </trkpt>
      <trkpt lat="43.22541" lon="6.60888">
        <ele>190.7</ele>
        <time>1970-01-01T01:30:08.000Z</time>
      </trkpt>
      <trkpt lat="43.22542" lon="6.60883">
        <ele>191.3</ele>
        <time>1970-01-01T01:30:10.000Z</time>
      </trkpt>
      <trkpt lat="43.22543" lon="6.6088">
        <ele>191.7</ele>
        <time>1970-01-01T01:30:12.000Z</time>
      </trkpt>
      <trkpt lat="43.22544" lon="6.60876">
        <ele>192.2</ele>
        <time>1970-01-01T01:30:15.000Z</time>
      </trkpt>
      <trkpt lat="43.22546" lon="6.60871">
        <ele>192.9</ele>
        <time>1970-01-01T01:30:18.000Z</time>
      </trkpt>
      <trkpt lat="43.22548" lon="6.60868">
        <ele>193.4</ele>
        <time>1970-01-01T01:30:20.000Z</time>
      </trkpt>
      <trkpt lat="43.22551" lon="6.60864">
        <ele>194</ele>
        <time>1970-01-01T01:30:22.000Z</time>
      </trkpt>
      <trkpt lat="43.22554" lon="6.60861">
        <ele>194.6</ele>
        <time>1970-01-01T01:30:24.000Z</time>
      </trkpt>
      <trkpt lat="43.22557" lon="6.6086">
        <ele>195.3</ele>
        <time>1970-01-01T01:30:26.000Z</time>
      </trkpt>
      <trkpt lat="43.2256" lon="6.60859">
        <ele>196</ele>
        <time>1970-01-01T01:30:28.000Z</time>
      </trkpt>
      <trkpt lat="43.22563" lon="6.60857">
        <ele>196.8</ele>
        <time>1970-01-01T01:30:31.000Z</time>
      </trkpt>
      <trkpt lat="43.22567" lon="6.60855">
        <ele>197.5</ele>
        <time>1970-01-01T01:30:35.000Z</time>
      </trkpt>
      <trkpt lat="43.2257" lon="6.60851">
        <ele>198.1</ele>
        <time>1970-01-01T01:30:38.000Z</time>
      </trkpt>
      <trkpt lat="43.22573" lon="6.60848">
        <ele>198.6</ele>
        <time>1970-01-01T01:30:41.000Z</time>
      </trkpt>
      <trkpt lat="43.22575" lon="6.60845">
        <ele>199</ele>
        <time>1970-01-01T01:30:43.000Z</time>
      </trkpt>
      <trkpt lat="43.22578" lon="6.6084">
        <ele>199.6</ele>
        <time>1970-01-01T01:30:45.000Z</time>
      </trkpt>
      <trkpt lat="43.2258" lon="6.60834">
        <ele>200.3</ele>
        <time>1970-01-01T01:30:47.000Z</time>
      </trkpt>
      <trkpt lat="43.22582" lon="6.6083">
        <ele>200.8</ele>
        <time>1970-01-01T01:30:49.000Z</time>
      </trkpt>
      <trkpt lat="43.22583" lon="6.60825">
        <ele>201.3</ele>
        <time>1970-01-01T01:30:51.000Z</time>
      </trkpt>
      <trkpt lat="43.22584" lon="6.6082">
        <ele>201.8</ele>
        <time>1970-01-01T01:30:53.000Z</time>
      </trkpt>
      <trkpt lat="43.22586" lon="6.60814">
        <ele>202.3</ele>
        <time>1970-01-01T01:30:55.000Z</time>
      </trkpt>
      <trkpt lat="43.22587" lon="6.60809">
        <ele>202.6</ele>
        <time>1970-01-01T01:30:57.000Z</time>
      </trkpt>
      <trkpt lat="43.22587" lon="6.60804">
        <ele>202.8</ele>
        <time>1970-01-01T01:30:59.000Z</time>
      </trkpt>
      <trkpt lat="43.22587" lon="6.60798">
        <ele>203</ele>
        <time>1970-01-01T01:31:01.000Z</time>
      </trkpt>
      <trkpt lat="43.22587" lon="6.60793">
        <ele>203.2</ele>
        <time>1970-01-01T01:31:03.000Z</time>
      </trkpt>
      <trkpt lat="43.22587" lon="6.60787">
        <ele>203.3</ele>
        <time>1970-01-01T01:31:05.000Z</time>
      </trkpt>
      <trkpt lat="43.22588" lon="6.60781">
        <ele>203.4</ele>
        <time>1970-01-01T01:31:07.000Z</time>
      </trkpt>
      <trkpt lat="43.22587" lon="6.60774">
        <ele>203.5</ele>
        <time>1970-01-01T01:31:09.000Z</time>
      </trkpt>
      <trkpt lat="43.22587" lon="6.60768">
        <ele>203.7</ele>
        <time>1970-01-01T01:31:11.000Z</time>
      </trkpt>
      <trkpt lat="43.22587" lon="6.60761">
        <ele>203.9</ele>
        <time>1970-01-01T01:31:13.000Z</time>
      </trkpt>
      <trkpt lat="43.22587" lon="6.60755">
        <ele>204</ele>
        <time>1970-01-01T01:31:15.000Z</time>
      </trkpt>
      <trkpt lat="43.22587" lon="6.60748">
        <ele>204.3</ele>
        <time>1970-01-01T01:31:17.000Z</time>
      </trkpt>
      <trkpt lat="43.22588" lon="6.60742">
        <ele>204.4</ele>
        <time>1970-01-01T01:31:19.000Z</time>
      </trkpt>
      <trkpt lat="43.22588" lon="6.60738">
        <ele>204.6</ele>
        <time>1970-01-01T01:31:21.000Z</time>
      </trkpt>
      <trkpt lat="43.22587" lon="6.60731">
        <ele>204.8</ele>
        <time>1970-01-01T01:31:23.000Z</time>
      </trkpt>
      <trkpt lat="43.22588" lon="6.60727">
        <ele>204.9</ele>
        <time>1970-01-01T01:31:24.000Z</time>
      </trkpt>
      <trkpt lat="43.22588" lon="6.6072">
        <ele>205.2</ele>
        <time>1970-01-01T01:31:26.000Z</time>
      </trkpt>
      <trkpt lat="43.22587" lon="6.60713">
        <ele>205.4</ele>
        <time>1970-01-01T01:31:28.000Z</time>
      </trkpt>
      <trkpt lat="43.22586" lon="6.60707">
        <ele>205.6</ele>
        <time>1970-01-01T01:31:30.000Z</time>
      </trkpt>
      <trkpt lat="43.22586" lon="6.607">
        <ele>205.7</ele>
        <time>1970-01-01T01:31:32.000Z</time>
      </trkpt>
      <trkpt lat="43.22585" lon="6.60695">
        <ele>205.8</ele>
        <time>1970-01-01T01:31:34.000Z</time>
      </trkpt>
      <trkpt lat="43.22584" lon="6.60689">
        <ele>205.9</ele>
        <time>1970-01-01T01:31:36.000Z</time>
      </trkpt>
      <trkpt lat="43.22582" lon="6.60685">
        <ele>206</ele>
        <time>1970-01-01T01:31:38.000Z</time>
      </trkpt>
      <trkpt lat="43.2258" lon="6.60682">
        <ele>206.1</ele>
        <time>1970-01-01T01:31:39.000Z</time>
      </trkpt>
      <trkpt lat="43.22578" lon="6.60679">
        <ele>206.3</ele>
        <time>1970-01-01T01:31:40.000Z</time>
      </trkpt>
      <trkpt lat="43.22576" lon="6.60677">
        <ele>206.4</ele>
        <time>1970-01-01T01:31:41.000Z</time>
      </trkpt>
      <trkpt lat="43.22573" lon="6.60675">
        <ele>206.6</ele>
        <time>1970-01-01T01:31:42.000Z</time>
      </trkpt>
      <trkpt lat="43.2257" lon="6.60674">
        <ele>206.7</ele>
        <time>1970-01-01T01:31:43.000Z</time>
      </trkpt>
      <trkpt lat="43.22567" lon="6.60671">
        <ele>207</ele>
        <time>1970-01-01T01:31:44.000Z</time>
      </trkpt>
      <trkpt lat="43.22564" lon="6.60669">
        <ele>207.2</ele>
        <time>1970-01-01T01:31:45.000Z</time>
      </trkpt>
      <trkpt lat="43.22561" lon="6.60666">
        <ele>207.5</ele>
        <time>1970-01-01T01:31:46.000Z</time>
      </trkpt>
      <trkpt lat="43.22556" lon="6.60663">
        <ele>207.9</ele>
        <time>1970-01-01T01:31:47.000Z</time>
      </trkpt>
      <trkpt lat="43.22552" lon="6.6066">
        <ele>208.2</ele>
        <time>1970-01-01T01:31:48.000Z</time>
      </trkpt>
      <trkpt lat="43.22549" lon="6.60657">
        <ele>208.5</ele>
        <time>1970-01-01T01:31:49.000Z</time>
      </trkpt>
      <trkpt lat="43.22546" lon="6.60654">
        <ele>208.9</ele>
        <time>1970-01-01T01:31:50.000Z</time>
      </trkpt>
      <trkpt lat="43.22543" lon="6.60652">
        <ele>209.2</ele>
        <time>1970-01-01T01:31:51.000Z</time>
      </trkpt>
      <trkpt lat="43.22541" lon="6.6065">
        <ele>209.5</ele>
        <time>1970-01-01T01:31:52.000Z</time>
      </trkpt>
      <trkpt lat="43.22538" lon="6.60648">
        <ele>209.9</ele>
        <time>1970-01-01T01:31:54.000Z</time>
      </trkpt>
      <trkpt lat="43.22534" lon="6.60646">
        <ele>210.3</ele>
        <time>1970-01-01T01:31:56.000Z</time>
      </trkpt>
      <trkpt lat="43.2253" lon="6.60644">
        <ele>210.8</ele>
        <time>1970-01-01T01:31:58.000Z</time>
      </trkpt>
      <trkpt lat="43.22525" lon="6.60642">
        <ele>211.2</ele>
        <time>1970-01-01T01:32:00.000Z</time>
      </trkpt>
      <trkpt lat="43.22521" lon="6.60642">
        <ele>211.7</ele>
        <time>1970-01-01T01:32:02.000Z</time>
      </trkpt>
      <trkpt lat="43.22517" lon="6.60642">
        <ele>212.2</ele>
        <time>1970-01-01T01:32:04.000Z</time>
      </trkpt>
      <trkpt lat="43.22514" lon="6.60643">
        <ele>212.6</ele>
        <time>1970-01-01T01:32:06.000Z</time>
      </trkpt>
      <trkpt lat="43.22508" lon="6.60641">
        <ele>213.2</ele>
        <time>1970-01-01T01:32:08.000Z</time>
      </trkpt>
      <trkpt lat="43.22505" lon="6.6064">
        <ele>213.6</ele>
        <time>1970-01-01T01:32:09.000Z</time>
      </trkpt>
      <trkpt lat="43.22503" lon="6.60638">
        <ele>214.1</ele>
        <time>1970-01-01T01:32:10.000Z</time>
      </trkpt>
      <trkpt lat="43.22498" lon="6.60638">
        <ele>214.8</ele>
        <time>1970-01-01T01:32:12.000Z</time>
      </trkpt>
      <trkpt lat="43.22495" lon="6.60636">
        <ele>215.4</ele>
        <time>1970-01-01T01:32:14.000Z</time>
      </trkpt>
      <trkpt lat="43.22492" lon="6.60633">
        <ele>216.1</ele>
        <time>1970-01-01T01:32:16.000Z</time>
      </trkpt>
      <trkpt lat="43.22488" lon="6.60631">
        <ele>216.7</ele>
        <time>1970-01-01T01:32:18.000Z</time>
      </trkpt>
      <trkpt lat="43.22486" lon="6.60629">
        <ele>217.3</ele>
        <time>1970-01-01T01:32:20.000Z</time>
      </trkpt>
      <trkpt lat="43.22482" lon="6.60626">
        <ele>218.1</ele>
        <time>1970-01-01T01:32:22.000Z</time>
      </trkpt>
      <trkpt lat="43.22479" lon="6.60625">
        <ele>218.9</ele>
        <time>1970-01-01T01:32:24.000Z</time>
      </trkpt>
      <trkpt lat="43.22475" lon="6.60623">
        <ele>219.6</ele>
        <time>1970-01-01T01:32:26.000Z</time>
      </trkpt>
      <trkpt lat="43.22472" lon="6.60623">
        <ele>220.1</ele>
        <time>1970-01-01T01:32:28.000Z</time>
      </trkpt>
      <trkpt lat="43.22468" lon="6.6062">
        <ele>220.9</ele>
        <time>1970-01-01T01:32:31.000Z</time>
      </trkpt>
      <trkpt lat="43.22465" lon="6.60619">
        <ele>221.4</ele>
        <time>1970-01-01T01:32:33.000Z</time>
      </trkpt>
      <trkpt lat="43.22461" lon="6.60619">
        <ele>221.9</ele>
        <time>1970-01-01T01:32:36.000Z</time>
      </trkpt>
      <trkpt lat="43.22458" lon="6.60619">
        <ele>222.4</ele>
        <time>1970-01-01T01:32:38.000Z</time>
      </trkpt>
      <trkpt lat="43.22455" lon="6.6062">
        <ele>222.9</ele>
        <time>1970-01-01T01:32:40.000Z</time>
      </trkpt>
      <trkpt lat="43.22451" lon="6.6062">
        <ele>223.4</ele>
        <time>1970-01-01T01:32:42.000Z</time>
      </trkpt>
      <trkpt lat="43.22447" lon="6.60621">
        <ele>224</ele>
        <time>1970-01-01T01:32:45.000Z</time>
      </trkpt>
      <trkpt lat="43.22443" lon="6.6062">
        <ele>224.6</ele>
        <time>1970-01-01T01:32:48.000Z</time>
      </trkpt>
      <trkpt lat="43.2244" lon="6.60621">
        <ele>225.1</ele>
        <time>1970-01-01T01:32:51.000Z</time>
      </trkpt>
      <trkpt lat="43.22437" lon="6.60622">
        <ele>225.6</ele>
        <time>1970-01-01T01:32:53.000Z</time>
      </trkpt>
      <trkpt lat="43.22434" lon="6.60621">
        <ele>226</ele>
        <time>1970-01-01T01:32:55.000Z</time>
      </trkpt>
      <trkpt lat="43.22431" lon="6.6062">
        <ele>226.6</ele>
        <time>1970-01-01T01:32:57.000Z</time>
      </trkpt>
      <trkpt lat="43.22429" lon="6.60618">
        <ele>227</ele>
        <time>1970-01-01T01:32:59.000Z</time>
      </trkpt>
      <trkpt lat="43.22426" lon="6.60617">
        <ele>227.5</ele>
        <time>1970-01-01T01:33:03.000Z</time>
      </trkpt>
      <trkpt lat="43.22423" lon="6.60615">
        <ele>227.9</ele>
        <time>1970-01-01T01:33:05.000Z</time>
      </trkpt>
      <trkpt lat="43.2242" lon="6.60613">
        <ele>228.4</ele>
        <time>1970-01-01T01:33:07.000Z</time>
      </trkpt>
      <trkpt lat="43.22417" lon="6.6061">
        <ele>228.9</ele>
        <time>1970-01-01T01:33:09.000Z</time>
      </trkpt>
      <trkpt lat="43.22414" lon="6.60607">
        <ele>229.5</ele>
        <time>1970-01-01T01:33:11.000Z</time>
      </trkpt>
      <trkpt lat="43.22411" lon="6.60606">
        <ele>230</ele>
        <time>1970-01-01T01:33:13.000Z</time>
      </trkpt>
      <trkpt lat="43.22408" lon="6.60604">
        <ele>230.6</ele>
        <time>1970-01-01T01:33:15.000Z</time>
      </trkpt>
      <trkpt lat="43.22405" lon="6.60603">
        <ele>231</ele>
        <time>1970-01-01T01:33:17.000Z</time>
      </trkpt>
      <trkpt lat="43.22403" lon="6.606">
        <ele>231.5</ele>
        <time>1970-01-01T01:33:19.000Z</time>
      </trkpt>
      <trkpt lat="43.22399" lon="6.60599">
        <ele>231.9</ele>
        <time>1970-01-01T01:33:21.000Z</time>
      </trkpt>
      <trkpt lat="43.22397" lon="6.60598">
        <ele>232.2</ele>
        <time>1970-01-01T01:33:23.000Z</time>
      </trkpt>
      <trkpt lat="43.22395" lon="6.60595">
        <ele>232.5</ele>
        <time>1970-01-01T01:33:24.000Z</time>
      </trkpt>
      <trkpt lat="43.22391" lon="6.60593">
        <ele>233</ele>
        <time>1970-01-01T01:33:26.000Z</time>
      </trkpt>
      <trkpt lat="43.22388" lon="6.60592">
        <ele>233.4</ele>
        <time>1970-01-01T01:33:28.000Z</time>
      </trkpt>
      <trkpt lat="43.22385" lon="6.60593">
        <ele>234</ele>
        <time>1970-01-01T01:33:30.000Z</time>
      </trkpt>
      <trkpt lat="43.22382" lon="6.60592">
        <ele>234.6</ele>
        <time>1970-01-01T01:33:32.000Z</time>
      </trkpt>
      <trkpt lat="43.22378" lon="6.60592">
        <ele>235.3</ele>
        <time>1970-01-01T01:33:34.000Z</time>
      </trkpt>
      <trkpt lat="43.22374" lon="6.6059">
        <ele>236</ele>
        <time>1970-01-01T01:33:37.000Z</time>
      </trkpt>
      <trkpt lat="43.22372" lon="6.60588">
        <ele>236.5</ele>
        <time>1970-01-01T01:33:39.000Z</time>
      </trkpt>
      <trkpt lat="43.22369" lon="6.60588">
        <ele>237</ele>
        <time>1970-01-01T01:33:41.000Z</time>
      </trkpt>
      <trkpt lat="43.22365" lon="6.60587">
        <ele>237.5</ele>
        <time>1970-01-01T01:33:43.000Z</time>
      </trkpt>
      <trkpt lat="43.22362" lon="6.60586">
        <ele>238.1</ele>
        <time>1970-01-01T01:33:46.000Z</time>
      </trkpt>
      <trkpt lat="43.22359" lon="6.60585">
        <ele>238.6</ele>
        <time>1970-01-01T01:33:48.000Z</time>
      </trkpt>
      <trkpt lat="43.22355" lon="6.60585">
        <ele>239.2</ele>
        <time>1970-01-01T01:33:50.000Z</time>
      </trkpt>
      <trkpt lat="43.22352" lon="6.60585">
        <ele>239.7</ele>
        <time>1970-01-01T01:33:52.000Z</time>
      </trkpt>
      <trkpt lat="43.22349" lon="6.60585">
        <ele>240.2</ele>
        <time>1970-01-01T01:33:54.000Z</time>
      </trkpt>
      <trkpt lat="43.22346" lon="6.60585">
        <ele>240.7</ele>
        <time>1970-01-01T01:33:57.000Z</time>
      </trkpt>
      <trkpt lat="43.22342" lon="6.60585">
        <ele>241.4</ele>
        <time>1970-01-01T01:34:00.000Z</time>
      </trkpt>
      <trkpt lat="43.22338" lon="6.60586">
        <ele>242.2</ele>
        <time>1970-01-01T01:34:03.000Z</time>
      </trkpt>
      <trkpt lat="43.22335" lon="6.60587">
        <ele>242.9</ele>
        <time>1970-01-01T01:34:05.000Z</time>
      </trkpt>
      <trkpt lat="43.22331" lon="6.60587">
        <ele>243.7</ele>
        <time>1970-01-01T01:34:07.000Z</time>
      </trkpt>
      <trkpt lat="43.22326" lon="6.60587">
        <ele>244.5</ele>
        <time>1970-01-01T01:34:09.000Z</time>
      </trkpt>
      <trkpt lat="43.22322" lon="6.60587">
        <ele>245.2</ele>
        <time>1970-01-01T01:34:11.000Z</time>
      </trkpt>
      <trkpt lat="43.22319" lon="6.60586">
        <ele>245.7</ele>
        <time>1970-01-01T01:34:13.000Z</time>
      </trkpt>
      <trkpt lat="43.22316" lon="6.60586">
        <ele>246.1</ele>
        <time>1970-01-01T01:34:15.000Z</time>
      </trkpt>
      <trkpt lat="43.22313" lon="6.60584">
        <ele>246.5</ele>
        <time>1970-01-01T01:34:17.000Z</time>
      </trkpt>
      <trkpt lat="43.2231" lon="6.60582">
        <ele>247</ele>
        <time>1970-01-01T01:34:19.000Z</time>
      </trkpt>
      <trkpt lat="43.22307" lon="6.60579">
        <ele>247.4</ele>
        <time>1970-01-01T01:34:22.000Z</time>
      </trkpt>
      <trkpt lat="43.22304" lon="6.60575">
        <ele>247.9</ele>
        <time>1970-01-01T01:34:25.000Z</time>
      </trkpt>
      <trkpt lat="43.22303" lon="6.60571">
        <ele>248.3</ele>
        <time>1970-01-01T01:34:27.000Z</time>
      </trkpt>
      <trkpt lat="43.22303" lon="6.60565">
        <ele>248.8</ele>
        <time>1970-01-01T01:34:29.000Z</time>
      </trkpt>
      <trkpt lat="43.22303" lon="6.60561">
        <ele>249.3</ele>
        <time>1970-01-01T01:34:31.000Z</time>
      </trkpt>
      <trkpt lat="43.22304" lon="6.60556">
        <ele>250</ele>
        <time>1970-01-01T01:34:33.000Z</time>
      </trkpt>
      <trkpt lat="43.22306" lon="6.60552">
        <ele>250.6</ele>
        <time>1970-01-01T01:34:35.000Z</time>
      </trkpt>
      <trkpt lat="43.22308" lon="6.60549">
        <ele>251.2</ele>
        <time>1970-01-01T01:34:37.000Z</time>
      </trkpt>
      <trkpt lat="43.2231" lon="6.60545">
        <ele>251.9</ele>
        <time>1970-01-01T01:34:39.000Z</time>
      </trkpt>
      <trkpt lat="43.22313" lon="6.60541">
        <ele>252.7</ele>
        <time>1970-01-01T01:34:41.000Z</time>
      </trkpt>
      <trkpt lat="43.22316" lon="6.60537">
        <ele>253.3</ele>
        <time>1970-01-01T01:34:43.000Z</time>
      </trkpt>
      <trkpt lat="43.22319" lon="6.60532">
        <ele>253.8</ele>
        <time>1970-01-01T01:34:45.000Z</time>
      </trkpt>
      <trkpt lat="43.22321" lon="6.60528">
        <ele>254.3</ele>
        <time>1970-01-01T01:34:47.000Z</time>
      </trkpt>
      <trkpt lat="43.22324" lon="6.60525">
        <ele>254.7</ele>
        <time>1970-01-01T01:34:49.000Z</time>
      </trkpt>
      <trkpt lat="43.22327" lon="6.60522">
        <ele>255.1</ele>
        <time>1970-01-01T01:34:51.000Z</time>
      </trkpt>
      <trkpt lat="43.2233" lon="6.60517">
        <ele>255.4</ele>
        <time>1970-01-01T01:34:53.000Z</time>
      </trkpt>
      <trkpt lat="43.22332" lon="6.60513">
        <ele>255.8</ele>
        <time>1970-01-01T01:34:55.000Z</time>
      </trkpt>
      <trkpt lat="43.22335" lon="6.60509">
        <ele>256.2</ele>
        <time>1970-01-01T01:34:57.000Z</time>
      </trkpt>
      <trkpt lat="43.22337" lon="6.60505">
        <ele>256.6</ele>
        <time>1970-01-01T01:34:59.000Z</time>
      </trkpt>
      <trkpt lat="43.22338" lon="6.60501">
        <ele>257.1</ele>
        <time>1970-01-01T01:35:01.000Z</time>
      </trkpt>
      <trkpt lat="43.2234" lon="6.60496">
        <ele>257.7</ele>
        <time>1970-01-01T01:35:03.000Z</time>
      </trkpt>
      <trkpt lat="43.22341" lon="6.60491">
        <ele>258.2</ele>
        <time>1970-01-01T01:35:05.000Z</time>
      </trkpt>
      <trkpt lat="43.22341" lon="6.60486">
        <ele>258.9</ele>
        <time>1970-01-01T01:35:07.000Z</time>
      </trkpt>
      <trkpt lat="43.22341" lon="6.6048">
        <ele>259.7</ele>
        <time>1970-01-01T01:35:09.000Z</time>
      </trkpt>
      <trkpt lat="43.22341" lon="6.60475">
        <ele>260.2</ele>
        <time>1970-01-01T01:35:11.000Z</time>
      </trkpt>
      <trkpt lat="43.22341" lon="6.6047">
        <ele>260.7</ele>
        <time>1970-01-01T01:35:13.000Z</time>
      </trkpt>
      <trkpt lat="43.2234" lon="6.60465">
        <ele>261.3</ele>
        <time>1970-01-01T01:35:15.000Z</time>
      </trkpt>
      <trkpt lat="43.22339" lon="6.60461">
        <ele>261.8</ele>
        <time>1970-01-01T01:35:17.000Z</time>
      </trkpt>
      <trkpt lat="43.22338" lon="6.60455">
        <ele>262.5</ele>
        <time>1970-01-01T01:35:19.000Z</time>
      </trkpt>
      <trkpt lat="43.22335" lon="6.60451">
        <ele>263</ele>
        <time>1970-01-01T01:35:21.000Z</time>
      </trkpt>
      <trkpt lat="43.22333" lon="6.60447">
        <ele>263.4</ele>
        <time>1970-01-01T01:35:23.000Z</time>
      </trkpt>
      <trkpt lat="43.22329" lon="6.60444">
        <ele>263.8</ele>
        <time>1970-01-01T01:35:25.000Z</time>
      </trkpt>
      <trkpt lat="43.22324" lon="6.60442">
        <ele>264.1</ele>
        <time>1970-01-01T01:35:27.000Z</time>
      </trkpt>
      <trkpt lat="43.22321" lon="6.6044">
        <ele>264.3</ele>
        <time>1970-01-01T01:35:28.000Z</time>
      </trkpt>
      <trkpt lat="43.22318" lon="6.60439">
        <ele>264.5</ele>
        <time>1970-01-01T01:35:29.000Z</time>
      </trkpt>
      <trkpt lat="43.22313" lon="6.60438">
        <ele>264.8</ele>
        <time>1970-01-01T01:35:31.000Z</time>
      </trkpt>
      <trkpt lat="43.22308" lon="6.60435">
        <ele>265.2</ele>
        <time>1970-01-01T01:35:33.000Z</time>
      </trkpt>
      <trkpt lat="43.22306" lon="6.60434">
        <ele>265.4</ele>
        <time>1970-01-01T01:35:34.000Z</time>
      </trkpt>
      <trkpt lat="43.22301" lon="6.60431">
        <ele>265.8</ele>
        <time>1970-01-01T01:35:36.000Z</time>
      </trkpt>
      <trkpt lat="43.22298" lon="6.60429">
        <ele>266.1</ele>
        <time>1970-01-01T01:35:37.000Z</time>
      </trkpt>
      <trkpt lat="43.22295" lon="6.60425">
        <ele>266.5</ele>
        <time>1970-01-01T01:35:39.000Z</time>
      </trkpt>
      <trkpt lat="43.22291" lon="6.60422">
        <ele>266.8</ele>
        <time>1970-01-01T01:35:41.000Z</time>
      </trkpt>
      <trkpt lat="43.22288" lon="6.60419">
        <ele>267</ele>
        <time>1970-01-01T01:35:42.000Z</time>
      </trkpt>
      <trkpt lat="43.22285" lon="6.60417">
        <ele>267</ele>
        <time>1970-01-01T01:35:43.000Z</time>
      </trkpt>
      <trkpt lat="43.22282" lon="6.60415">
        <ele>267.1</ele>
        <time>1970-01-01T01:35:44.000Z</time>
      </trkpt>
      <trkpt lat="43.22279" lon="6.60413">
        <ele>267.1</ele>
        <time>1970-01-01T01:35:45.000Z</time>
      </trkpt>
      <trkpt lat="43.22274" lon="6.60409">
        <ele>267.1</ele>
        <time>1970-01-01T01:35:47.000Z</time>
      </trkpt>
      <trkpt lat="43.22271" lon="6.60407">
        <ele>267.1</ele>
        <time>1970-01-01T01:35:48.000Z</time>
      </trkpt>
      <trkpt lat="43.22268" lon="6.60406">
        <ele>267.1</ele>
        <time>1970-01-01T01:35:49.000Z</time>
      </trkpt>
      <trkpt lat="43.22265" lon="6.60403">
        <ele>267.1</ele>
        <time>1970-01-01T01:35:50.000Z</time>
      </trkpt>
      <trkpt lat="43.22261" lon="6.604">
        <ele>267.1</ele>
        <time>1970-01-01T01:35:51.000Z</time>
      </trkpt>
      <trkpt lat="43.22256" lon="6.60399">
        <ele>267.1</ele>
        <time>1970-01-01T01:35:53.000Z</time>
      </trkpt>
      <trkpt lat="43.22251" lon="6.60397">
        <ele>267.3</ele>
        <time>1970-01-01T01:35:55.000Z</time>
      </trkpt>
      <trkpt lat="43.22246" lon="6.60396">
        <ele>267.4</ele>
        <time>1970-01-01T01:35:57.000Z</time>
      </trkpt>
      <trkpt lat="43.2224" lon="6.60398">
        <ele>267.6</ele>
        <time>1970-01-01T01:35:59.000Z</time>
      </trkpt>
      <trkpt lat="43.22236" lon="6.604">
        <ele>267.7</ele>
        <time>1970-01-01T01:36:01.000Z</time>
      </trkpt>
      <trkpt lat="43.22233" lon="6.604">
        <ele>267.9</ele>
        <time>1970-01-01T01:36:02.000Z</time>
      </trkpt>
      <trkpt lat="43.2223" lon="6.60401">
        <ele>268</ele>
        <time>1970-01-01T01:36:03.000Z</time>
      </trkpt>
      <trkpt lat="43.22225" lon="6.60404">
        <ele>268.1</ele>
        <time>1970-01-01T01:36:05.000Z</time>
      </trkpt>
      <trkpt lat="43.22222" lon="6.60405">
        <ele>268.2</ele>
        <time>1970-01-01T01:36:06.000Z</time>
      </trkpt>
      <trkpt lat="43.22219" lon="6.60405">
        <ele>268.3</ele>
        <time>1970-01-01T01:36:07.000Z</time>
      </trkpt>
      <trkpt lat="43.22216" lon="6.60407">
        <ele>268.4</ele>
        <time>1970-01-01T01:36:08.000Z</time>
      </trkpt>
      <trkpt lat="43.22211" lon="6.60409">
        <ele>268.5</ele>
        <time>1970-01-01T01:36:10.000Z</time>
      </trkpt>
      <trkpt lat="43.22208" lon="6.6041">
        <ele>268.5</ele>
        <time>1970-01-01T01:36:11.000Z</time>
      </trkpt>
      <trkpt lat="43.22204" lon="6.6041">
        <ele>268.6</ele>
        <time>1970-01-01T01:36:12.000Z</time>
      </trkpt>
      <trkpt lat="43.222" lon="6.60412">
        <ele>268.6</ele>
        <time>1970-01-01T01:36:13.000Z</time>
      </trkpt>
      <trkpt lat="43.22197" lon="6.60413">
        <ele>268.7</ele>
        <time>1970-01-01T01:36:14.000Z</time>
      </trkpt>
      <trkpt lat="43.22192" lon="6.60415">
        <ele>268.8</ele>
        <time>1970-01-01T01:36:16.000Z</time>
      </trkpt>
      <trkpt lat="43.2219" lon="6.60417">
        <ele>268.8</ele>
        <time>1970-01-01T01:36:17.000Z</time>
      </trkpt>
      <trkpt lat="43.22187" lon="6.60418">
        <ele>268.9</ele>
        <time>1970-01-01T01:36:18.000Z</time>
      </trkpt>
      <trkpt lat="43.22183" lon="6.6042">
        <ele>268.9</ele>
        <time>1970-01-01T01:36:19.000Z</time>
      </trkpt>
      <trkpt lat="43.2218" lon="6.60421">
        <ele>269</ele>
        <time>1970-01-01T01:36:20.000Z</time>
      </trkpt>
      <trkpt lat="43.22176" lon="6.60422">
        <ele>269</ele>
        <time>1970-01-01T01:36:21.000Z</time>
      </trkpt>
      <trkpt lat="43.22172" lon="6.60424">
        <ele>269.1</ele>
        <time>1970-01-01T01:36:22.000Z</time>
      </trkpt>
      <trkpt lat="43.22169" lon="6.60425">
        <ele>269.1</ele>
        <time>1970-01-01T01:36:23.000Z</time>
      </trkpt>
      <trkpt lat="43.22164" lon="6.60427">
        <ele>269.1</ele>
        <time>1970-01-01T01:36:24.000Z</time>
      </trkpt>
      <trkpt lat="43.22161" lon="6.60428">
        <ele>269.1</ele>
        <time>1970-01-01T01:36:25.000Z</time>
      </trkpt>
      <trkpt lat="43.22157" lon="6.6043">
        <ele>269.1</ele>
        <time>1970-01-01T01:36:26.000Z</time>
      </trkpt>
      <trkpt lat="43.22153" lon="6.60432">
        <ele>269.2</ele>
        <time>1970-01-01T01:36:27.000Z</time>
      </trkpt>
      <trkpt lat="43.22148" lon="6.60434">
        <ele>269.2</ele>
        <time>1970-01-01T01:36:28.000Z</time>
      </trkpt>
      <trkpt lat="43.22144" lon="6.60435">
        <ele>269.3</ele>
        <time>1970-01-01T01:36:29.000Z</time>
      </trkpt>
      <trkpt lat="43.22142" lon="6.60436">
        <ele>269.3</ele>
        <time>1970-01-01T01:36:30.000Z</time>
      </trkpt>
      <trkpt lat="43.22136" lon="6.60438">
        <ele>269.4</ele>
        <time>1970-01-01T01:36:32.000Z</time>
      </trkpt>
      <trkpt lat="43.22134" lon="6.6044">
        <ele>269.5</ele>
        <time>1970-01-01T01:36:33.000Z</time>
      </trkpt>
      <trkpt lat="43.22131" lon="6.60442">
        <ele>269.6</ele>
        <time>1970-01-01T01:36:34.000Z</time>
      </trkpt>
      <trkpt lat="43.22127" lon="6.60444">
        <ele>269.8</ele>
        <time>1970-01-01T01:36:36.000Z</time>
      </trkpt>
      <trkpt lat="43.22122" lon="6.60445">
        <ele>270.1</ele>
        <time>1970-01-01T01:36:38.000Z</time>
      </trkpt>
      <trkpt lat="43.22118" lon="6.60444">
        <ele>270.5</ele>
        <time>1970-01-01T01:36:40.000Z</time>
      </trkpt>
      <trkpt lat="43.22115" lon="6.6044">
        <ele>271.1</ele>
        <time>1970-01-01T01:36:42.000Z</time>
      </trkpt>
      <trkpt lat="43.22112" lon="6.60438">
        <ele>271.6</ele>
        <time>1970-01-01T01:36:44.000Z</time>
      </trkpt>
      <trkpt lat="43.2211" lon="6.60432">
        <ele>272.4</ele>
        <time>1970-01-01T01:36:47.000Z</time>
      </trkpt>
      <trkpt lat="43.22108" lon="6.60427">
        <ele>273</ele>
        <time>1970-01-01T01:36:49.000Z</time>
      </trkpt>
      <trkpt lat="43.22108" lon="6.60423">
        <ele>273.6</ele>
        <time>1970-01-01T01:36:52.000Z</time>
      </trkpt>
      <trkpt lat="43.22108" lon="6.60418">
        <ele>274.2</ele>
        <time>1970-01-01T01:36:54.000Z</time>
      </trkpt>
      <trkpt lat="43.22107" lon="6.60413">
        <ele>274.9</ele>
        <time>1970-01-01T01:36:57.000Z</time>
      </trkpt>
      <trkpt lat="43.22107" lon="6.60408">
        <ele>275.6</ele>
        <time>1970-01-01T01:37:00.000Z</time>
      </trkpt>
      <trkpt lat="43.22105" lon="6.60403">
        <ele>276.3</ele>
        <time>1970-01-01T01:37:02.000Z</time>
      </trkpt>
      <trkpt lat="43.22104" lon="6.60398">
        <ele>277.1</ele>
        <time>1970-01-01T01:37:04.000Z</time>
      </trkpt>
      <trkpt lat="43.22103" lon="6.60393">
        <ele>277.8</ele>
        <time>1970-01-01T01:37:06.000Z</time>
      </trkpt>
      <trkpt lat="43.22102" lon="6.60389">
        <ele>278.3</ele>
        <time>1970-01-01T01:37:08.000Z</time>
      </trkpt>
      <trkpt lat="43.22102" lon="6.60384">
        <ele>279</ele>
        <time>1970-01-01T01:37:11.000Z</time>
      </trkpt>
      <trkpt lat="43.22102" lon="6.60379">
        <ele>279.6</ele>
        <time>1970-01-01T01:37:14.000Z</time>
      </trkpt>
      <trkpt lat="43.22102" lon="6.60374">
        <ele>280</ele>
        <time>1970-01-01T01:37:16.000Z</time>
      </trkpt>
      <trkpt lat="43.22101" lon="6.60371">
        <ele>280.4</ele>
        <time>1970-01-01T01:37:18.000Z</time>
      </trkpt>
      <trkpt lat="43.221" lon="6.60366">
        <ele>280.8</ele>
        <time>1970-01-01T01:37:20.000Z</time>
      </trkpt>
      <trkpt lat="43.221" lon="6.60362">
        <ele>281.4</ele>
        <time>1970-01-01T01:37:22.000Z</time>
      </trkpt>
      <trkpt lat="43.22099" lon="6.60358">
        <ele>281.9</ele>
        <time>1970-01-01T01:37:24.000Z</time>
      </trkpt>
      <trkpt lat="43.22099" lon="6.60354">
        <ele>282.6</ele>
        <time>1970-01-01T01:37:26.000Z</time>
      </trkpt>
      <trkpt lat="43.22099" lon="6.60349">
        <ele>283.4</ele>
        <time>1970-01-01T01:37:28.000Z</time>
      </trkpt>
      <trkpt lat="43.22099" lon="6.60344">
        <ele>284.5</ele>
        <time>1970-01-01T01:37:30.000Z</time>
      </trkpt>
      <trkpt lat="43.221" lon="6.60339">
        <ele>285.3</ele>
        <time>1970-01-01T01:37:32.000Z</time>
      </trkpt>
      <trkpt lat="43.221" lon="6.60335">
        <ele>285.9</ele>
        <time>1970-01-01T01:37:34.000Z</time>
      </trkpt>
      <trkpt lat="43.22099" lon="6.60331">
        <ele>286.7</ele>
        <time>1970-01-01T01:37:36.000Z</time>
      </trkpt>
      <trkpt lat="43.221" lon="6.60327">
        <ele>287.3</ele>
        <time>1970-01-01T01:37:38.000Z</time>
      </trkpt>
      <trkpt lat="43.22099" lon="6.60323">
        <ele>288.1</ele>
        <time>1970-01-01T01:37:41.000Z</time>
      </trkpt>
      <trkpt lat="43.22097" lon="6.6032">
        <ele>288.7</ele>
        <time>1970-01-01T01:37:43.000Z</time>
      </trkpt>
      <trkpt lat="43.22096" lon="6.60313">
        <ele>289.9</ele>
        <time>1970-01-01T01:37:45.000Z</time>
      </trkpt>
      <trkpt lat="43.22095" lon="6.60309">
        <ele>290.7</ele>
        <time>1970-01-01T01:37:47.000Z</time>
      </trkpt>
      <trkpt lat="43.22093" lon="6.60304">
        <ele>291.9</ele>
        <time>1970-01-01T01:37:50.000Z</time>
      </trkpt>
      <trkpt lat="43.22091" lon="6.60301">
        <ele>292.8</ele>
        <time>1970-01-01T01:37:52.000Z</time>
      </trkpt>
      <trkpt lat="43.2209" lon="6.60297">
        <ele>293.7</ele>
        <time>1970-01-01T01:37:54.000Z</time>
      </trkpt>
      <trkpt lat="43.22088" lon="6.60294">
        <ele>294.7</ele>
        <time>1970-01-01T01:37:56.000Z</time>
      </trkpt>
      <trkpt lat="43.22085" lon="6.6029">
        <ele>295.6</ele>
        <time>1970-01-01T01:37:58.000Z</time>
      </trkpt>
      <trkpt lat="43.22083" lon="6.60286">
        <ele>296.4</ele>
        <time>1970-01-01T01:38:00.000Z</time>
      </trkpt>
      <trkpt lat="43.2208" lon="6.60283">
        <ele>297.2</ele>
        <time>1970-01-01T01:38:02.000Z</time>
      </trkpt>
      <trkpt lat="43.22078" lon="6.60279">
        <ele>297.9</ele>
        <time>1970-01-01T01:38:04.000Z</time>
      </trkpt>
      <trkpt lat="43.22075" lon="6.60276">
        <ele>298.7</ele>
        <time>1970-01-01T01:38:07.000Z</time>
      </trkpt>
      <trkpt lat="43.22071" lon="6.60274">
        <ele>299.6</ele>
        <time>1970-01-01T01:38:10.000Z</time>
      </trkpt>
      <trkpt lat="43.22067" lon="6.60274">
        <ele>300.3</ele>
        <time>1970-01-01T01:38:12.000Z</time>
      </trkpt>
      <trkpt lat="43.22064" lon="6.60273">
        <ele>300.9</ele>
        <time>1970-01-01T01:38:14.000Z</time>
      </trkpt>
      <trkpt lat="43.2206" lon="6.60274">
        <ele>301.6</ele>
        <time>1970-01-01T01:38:16.000Z</time>
      </trkpt>
      <trkpt lat="43.22057" lon="6.60275">
        <ele>302.2</ele>
        <time>1970-01-01T01:38:18.000Z</time>
      </trkpt>
      <trkpt lat="43.22054" lon="6.60275">
        <ele>302.7</ele>
        <time>1970-01-01T01:38:20.000Z</time>
      </trkpt>
      <trkpt lat="43.2205" lon="6.60275">
        <ele>303.6</ele>
        <time>1970-01-01T01:38:22.000Z</time>
      </trkpt>
      <trkpt lat="43.22046" lon="6.60275">
        <ele>304.3</ele>
        <time>1970-01-01T01:38:24.000Z</time>
      </trkpt>
      <trkpt lat="43.22043" lon="6.60275">
        <ele>304.9</ele>
        <time>1970-01-01T01:38:26.000Z</time>
      </trkpt>
      <trkpt lat="43.22039" lon="6.60274">
        <ele>305.5</ele>
        <time>1970-01-01T01:38:29.000Z</time>
      </trkpt>
      <trkpt lat="43.22036" lon="6.60272">
        <ele>305.9</ele>
        <time>1970-01-01T01:38:31.000Z</time>
      </trkpt>
      <trkpt lat="43.22033" lon="6.60269">
        <ele>306.5</ele>
        <time>1970-01-01T01:38:33.000Z</time>
      </trkpt>
      <trkpt lat="43.2203" lon="6.60265">
        <ele>306.9</ele>
        <time>1970-01-01T01:38:35.000Z</time>
      </trkpt>
      <trkpt lat="43.22029" lon="6.60259">
        <ele>307.2</ele>
        <time>1970-01-01T01:38:37.000Z</time>
      </trkpt>
      <trkpt lat="43.22029" lon="6.60254">
        <ele>307.5</ele>
        <time>1970-01-01T01:38:39.000Z</time>
      </trkpt>
      <trkpt lat="43.2203" lon="6.60249">
        <ele>307.9</ele>
        <time>1970-01-01T01:38:41.000Z</time>
      </trkpt>
      <trkpt lat="43.22032" lon="6.60244">
        <ele>308.3</ele>
        <time>1970-01-01T01:38:43.000Z</time>
      </trkpt>
      <trkpt lat="43.22033" lon="6.60239">
        <ele>308.9</ele>
        <time>1970-01-01T01:38:45.000Z</time>
      </trkpt>
      <trkpt lat="43.22033" lon="6.60234">
        <ele>309.5</ele>
        <time>1970-01-01T01:38:47.000Z</time>
      </trkpt>
      <trkpt lat="43.22034" lon="6.6023">
        <ele>310</ele>
        <time>1970-01-01T01:38:49.000Z</time>
      </trkpt>
      <trkpt lat="43.22033" lon="6.60225">
        <ele>310.6</ele>
        <time>1970-01-01T01:38:53.000Z</time>
      </trkpt>
      <trkpt lat="43.22033" lon="6.60219">
        <ele>311.3</ele>
        <time>1970-01-01T01:38:55.000Z</time>
      </trkpt>
      <trkpt lat="43.22033" lon="6.60213">
        <ele>311.8</ele>
        <time>1970-01-01T01:38:57.000Z</time>
      </trkpt>
      <trkpt lat="43.22032" lon="6.60208">
        <ele>312.2</ele>
        <time>1970-01-01T01:38:59.000Z</time>
      </trkpt>
      <trkpt lat="43.2203" lon="6.60203">
        <ele>312.6</ele>
        <time>1970-01-01T01:39:01.000Z</time>
      </trkpt>
      <trkpt lat="43.22029" lon="6.60199">
        <ele>312.8</ele>
        <time>1970-01-01T01:39:02.000Z</time>
      </trkpt>
      <trkpt lat="43.22027" lon="6.60195">
        <ele>313.2</ele>
        <time>1970-01-01T01:39:04.000Z</time>
      </trkpt>
      <trkpt lat="43.22023" lon="6.60194">
        <ele>313.5</ele>
        <time>1970-01-01T01:39:06.000Z</time>
      </trkpt>
      <trkpt lat="43.2202" lon="6.60195">
        <ele>313.7</ele>
        <time>1970-01-01T01:39:08.000Z</time>
      </trkpt>
      <trkpt lat="43.22015" lon="6.60198">
        <ele>313.9</ele>
        <time>1970-01-01T01:39:10.000Z</time>
      </trkpt>
      <trkpt lat="43.22013" lon="6.60203">
        <ele>314</ele>
        <time>1970-01-01T01:39:12.000Z</time>
      </trkpt>
      <trkpt lat="43.22011" lon="6.60207">
        <ele>314.1</ele>
        <time>1970-01-01T01:39:14.000Z</time>
      </trkpt>
      <trkpt lat="43.22007" lon="6.6021">
        <ele>314.3</ele>
        <time>1970-01-01T01:39:16.000Z</time>
      </trkpt>
      <trkpt lat="43.22003" lon="6.60215">
        <ele>314.7</ele>
        <time>1970-01-01T01:39:18.000Z</time>
      </trkpt>
      <trkpt lat="43.22" lon="6.60218">
        <ele>315</ele>
        <time>1970-01-01T01:39:20.000Z</time>
      </trkpt>
      <trkpt lat="43.21996" lon="6.60218">
        <ele>315.3</ele>
        <time>1970-01-01T01:39:22.000Z</time>
      </trkpt>
      <trkpt lat="43.21996" lon="6.60213">
        <ele>315.6</ele>
        <time>1970-01-01T01:39:25.000Z</time>
      </trkpt>
      <trkpt lat="43.21998" lon="6.60217">
        <ele>315.9</ele>
        <time>1970-01-01T01:39:30.000Z</time>
      </trkpt>
      <trkpt lat="43.21999" lon="6.60221">
        <ele>316.1</ele>
        <time>1970-01-01T01:39:32.000Z</time>
      </trkpt>
      <trkpt lat="43.21999" lon="6.60227">
        <ele>316.3</ele>
        <time>1970-01-01T01:39:34.000Z</time>
      </trkpt>
      <trkpt lat="43.21998" lon="6.60232">
        <ele>316.5</ele>
        <time>1970-01-01T01:39:36.000Z</time>
      </trkpt>
      <trkpt lat="43.21995" lon="6.60236">
        <ele>316.7</ele>
        <time>1970-01-01T01:39:38.000Z</time>
      </trkpt>
      <trkpt lat="43.21991" lon="6.60232">
        <ele>316.9</ele>
        <time>1970-01-01T01:39:40.000Z</time>
      </trkpt>
      <trkpt lat="43.2199" lon="6.60228">
        <ele>316.9</ele>
        <time>1970-01-01T01:39:43.000Z</time>
      </trkpt>
      <trkpt lat="43.21992" lon="6.60223">
        <ele>316.8</ele>
        <time>1970-01-01T01:39:46.000Z</time>
      </trkpt>
      <trkpt lat="43.21994" lon="6.60222">
        <ele>316.7</ele>
        <time>1970-01-01T01:39:48.000Z</time>
      </trkpt>
      <trkpt lat="43.21999" lon="6.60221">
        <ele>316.5</ele>
        <time>1970-01-01T01:39:50.000Z</time>
      </trkpt>
      <trkpt lat="43.22003" lon="6.6022">
        <ele>316.3</ele>
        <time>1970-01-01T01:39:52.000Z</time>
      </trkpt>
      <trkpt lat="43.22005" lon="6.60218">
        <ele>316.2</ele>
        <time>1970-01-01T01:39:55.000Z</time>
      </trkpt>
      <trkpt lat="43.22008" lon="6.60219">
        <ele>316.1</ele>
        <time>1970-01-01T01:41:31.000Z</time>
      </trkpt>
      <trkpt lat="43.22008" lon="6.60223">
        <ele>316.2</ele>
        <time>1970-01-01T01:47:02.000Z</time>
      </trkpt>
      <trkpt lat="43.22006" lon="6.60226">
        <ele>316.3</ele>
        <time>1970-01-01T01:48:53.000Z</time>
      </trkpt>
      <trkpt lat="43.22003" lon="6.60231">
        <ele>316.4</ele>
        <time>1970-01-01T01:48:56.000Z</time>
      </trkpt>
      <trkpt lat="43.22" lon="6.60236">
        <ele>316.5</ele>
        <time>1970-01-01T01:48:58.000Z</time>
      </trkpt>
      <trkpt lat="43.21998" lon="6.60239">
        <ele>316.6</ele>
        <time>1970-01-01T01:48:59.000Z</time>
      </trkpt>
      <trkpt lat="43.21995" lon="6.60241">
        <ele>316.6</ele>
        <time>1970-01-01T01:49:00.000Z</time>
      </trkpt>
      <trkpt lat="43.21995" lon="6.60247">
        <ele>316.7</ele>
        <time>1970-01-01T01:49:02.000Z</time>
      </trkpt>
      <trkpt lat="43.21993" lon="6.60251">
        <ele>316.6</ele>
        <time>1970-01-01T01:49:04.000Z</time>
      </trkpt>
      <trkpt lat="43.21992" lon="6.60255">
        <ele>316.3</ele>
        <time>1970-01-01T01:49:23.000Z</time>
      </trkpt>
      <trkpt lat="43.21989" lon="6.60255">
        <ele>316</ele>
        <time>1970-01-01T01:49:57.000Z</time>
      </trkpt>
      <trkpt lat="43.21987" lon="6.60259">
        <ele>315.7</ele>
        <time>1970-01-01T01:50:29.000Z</time>
      </trkpt>
      <trkpt lat="43.21984" lon="6.60262">
        <ele>315.4</ele>
        <time>1970-01-01T01:50:30.000Z</time>
      </trkpt>
      <trkpt lat="43.2198" lon="6.60266">
        <ele>314.9</ele>
        <time>1970-01-01T01:50:31.000Z</time>
      </trkpt>
      <trkpt lat="43.21973" lon="6.60269">
        <ele>314.2</ele>
        <time>1970-01-01T01:50:32.000Z</time>
      </trkpt>
      <trkpt lat="43.21965" lon="6.60272">
        <ele>313.4</ele>
        <time>1970-01-01T01:50:33.000Z</time>
      </trkpt>
      <trkpt lat="43.21957" lon="6.60276">
        <ele>312.6</ele>
        <time>1970-01-01T01:50:34.000Z</time>
      </trkpt>
      <trkpt lat="43.21947" lon="6.6028">
        <ele>311.7</ele>
        <time>1970-01-01T01:50:35.000Z</time>
      </trkpt>
      <trkpt lat="43.21938" lon="6.60282">
        <ele>310.7</ele>
        <time>1970-01-01T01:50:36.000Z</time>
      </trkpt>
      <trkpt lat="43.21928" lon="6.60286">
        <ele>309.7</ele>
        <time>1970-01-01T01:50:37.000Z</time>
      </trkpt>
      <trkpt lat="43.21918" lon="6.60293">
        <ele>308.6</ele>
        <time>1970-01-01T01:50:38.000Z</time>
      </trkpt>
      <trkpt lat="43.21909" lon="6.60298">
        <ele>307.5</ele>
        <time>1970-01-01T01:50:39.000Z</time>
      </trkpt>
      <trkpt lat="43.21899" lon="6.60303">
        <ele>306.4</ele>
        <time>1970-01-01T01:50:40.000Z</time>
      </trkpt>
      <trkpt lat="43.2189" lon="6.60308">
        <ele>305.3</ele>
        <time>1970-01-01T01:50:41.000Z</time>
      </trkpt>
      <trkpt lat="43.21881" lon="6.60313">
        <ele>304.5</ele>
        <time>1970-01-01T01:50:42.000Z</time>
      </trkpt>
      <trkpt lat="43.21873" lon="6.60319">
        <ele>303.9</ele>
        <time>1970-01-01T01:50:43.000Z</time>
      </trkpt>
      <trkpt lat="43.21865" lon="6.60324">
        <ele>303.5</ele>
        <time>1970-01-01T01:50:44.000Z</time>
      </trkpt>
      <trkpt lat="43.21857" lon="6.60327">
        <ele>303.1</ele>
        <time>1970-01-01T01:50:45.000Z</time>
      </trkpt>
      <trkpt lat="43.21849" lon="6.60327">
        <ele>302.7</ele>
        <time>1970-01-01T01:50:46.000Z</time>
      </trkpt>
      <trkpt lat="43.21842" lon="6.60329">
        <ele>302.3</ele>
        <time>1970-01-01T01:50:47.000Z</time>
      </trkpt>
      <trkpt lat="43.21835" lon="6.60331">
        <ele>301.9</ele>
        <time>1970-01-01T01:50:48.000Z</time>
      </trkpt>
      <trkpt lat="43.21827" lon="6.6033">
        <ele>301.3</ele>
        <time>1970-01-01T01:50:49.000Z</time>
      </trkpt>
      <trkpt lat="43.21818" lon="6.60329">
        <ele>300.7</ele>
        <time>1970-01-01T01:50:50.000Z</time>
      </trkpt>
      <trkpt lat="43.21809" lon="6.60328">
        <ele>300</ele>
        <time>1970-01-01T01:50:51.000Z</time>
      </trkpt>
      <trkpt lat="43.21799" lon="6.60329">
        <ele>299.3</ele>
        <time>1970-01-01T01:50:52.000Z</time>
      </trkpt>
      <trkpt lat="43.21791" lon="6.60333">
        <ele>298.6</ele>
        <time>1970-01-01T01:50:53.000Z</time>
      </trkpt>
      <trkpt lat="43.21784" lon="6.60336">
        <ele>298</ele>
        <time>1970-01-01T01:50:54.000Z</time>
      </trkpt>
      <trkpt lat="43.21778" lon="6.60337">
        <ele>297.5</ele>
        <time>1970-01-01T01:50:55.000Z</time>
      </trkpt>
      <trkpt lat="43.21771" lon="6.60338">
        <ele>297.1</ele>
        <time>1970-01-01T01:50:56.000Z</time>
      </trkpt>
      <trkpt lat="43.21766" lon="6.6034">
        <ele>296.7</ele>
        <time>1970-01-01T01:50:57.000Z</time>
      </trkpt>
      <trkpt lat="43.21761" lon="6.60345">
        <ele>296.3</ele>
        <time>1970-01-01T01:50:58.000Z</time>
      </trkpt>
      <trkpt lat="43.21754" lon="6.60347">
        <ele>295.9</ele>
        <time>1970-01-01T01:50:59.000Z</time>
      </trkpt>
      <trkpt lat="43.21747" lon="6.60349">
        <ele>295.6</ele>
        <time>1970-01-01T01:51:00.000Z</time>
      </trkpt>
      <trkpt lat="43.21738" lon="6.60353">
        <ele>295.1</ele>
        <time>1970-01-01T01:51:01.000Z</time>
      </trkpt>
      <trkpt lat="43.21729" lon="6.60359">
        <ele>294.6</ele>
        <time>1970-01-01T01:51:02.000Z</time>
      </trkpt>
      <trkpt lat="43.21722" lon="6.60365">
        <ele>294</ele>
        <time>1970-01-01T01:51:03.000Z</time>
      </trkpt>
      <trkpt lat="43.21715" lon="6.60369">
        <ele>293.4</ele>
        <time>1970-01-01T01:51:04.000Z</time>
      </trkpt>
      <trkpt lat="43.21709" lon="6.60373">
        <ele>292.9</ele>
        <time>1970-01-01T01:51:05.000Z</time>
      </trkpt>
      <trkpt lat="43.21703" lon="6.60378">
        <ele>292.2</ele>
        <time>1970-01-01T01:51:06.000Z</time>
      </trkpt>
      <trkpt lat="43.21697" lon="6.60385">
        <ele>291.5</ele>
        <time>1970-01-01T01:51:07.000Z</time>
      </trkpt>
      <trkpt lat="43.21687" lon="6.60388">
        <ele>290.4</ele>
        <time>1970-01-01T01:51:08.000Z</time>
      </trkpt>
      <trkpt lat="43.21678" lon="6.6039">
        <ele>289.3</ele>
        <time>1970-01-01T01:51:09.000Z</time>
      </trkpt>
      <trkpt lat="43.21669" lon="6.60394">
        <ele>287.9</ele>
        <time>1970-01-01T01:51:10.000Z</time>
      </trkpt>
      <trkpt lat="43.21661" lon="6.60404">
        <ele>286.6</ele>
        <time>1970-01-01T01:51:11.000Z</time>
      </trkpt>
      <trkpt lat="43.21655" lon="6.60411">
        <ele>285.4</ele>
        <time>1970-01-01T01:51:12.000Z</time>
      </trkpt>
      <trkpt lat="43.21648" lon="6.60413">
        <ele>284.5</ele>
        <time>1970-01-01T01:51:13.000Z</time>
      </trkpt>
      <trkpt lat="43.21642" lon="6.60417">
        <ele>283.7</ele>
        <time>1970-01-01T01:51:14.000Z</time>
      </trkpt>
      <trkpt lat="43.21638" lon="6.60421">
        <ele>283.1</ele>
        <time>1970-01-01T01:51:15.000Z</time>
      </trkpt>
      <trkpt lat="43.21635" lon="6.60422">
        <ele>282.8</ele>
        <time>1970-01-01T01:51:16.000Z</time>
      </trkpt>
      <trkpt lat="43.21632" lon="6.60425">
        <ele>282.4</ele>
        <time>1970-01-01T01:51:18.000Z</time>
      </trkpt>
      <trkpt lat="43.21634" lon="6.60429">
        <ele>282.7</ele>
        <time>1970-01-01T01:51:19.000Z</time>
      </trkpt>
      <trkpt lat="43.21638" lon="6.60434">
        <ele>280.8</ele>
        <time>1970-01-01T01:51:20.000Z</time>
      </trkpt>
      <trkpt lat="43.21639" lon="6.60438">
        <ele>280.3</ele>
        <time>1970-01-01T01:51:21.000Z</time>
      </trkpt>
      <trkpt lat="43.21641" lon="6.60439">
        <ele>280</ele>
        <time>1970-01-01T01:51:22.000Z</time>
      </trkpt>
      <trkpt lat="43.21645" lon="6.60439">
        <ele>279.5</ele>
        <time>1970-01-01T01:51:23.000Z</time>
      </trkpt>
      <trkpt lat="43.2165" lon="6.60441">
        <ele>279</ele>
        <time>1970-01-01T01:51:24.000Z</time>
      </trkpt>
      <trkpt lat="43.21654" lon="6.60446">
        <ele>275.9</ele>
        <time>1970-01-01T01:51:25.000Z</time>
      </trkpt>
      <trkpt lat="43.21654" lon="6.60451">
        <ele>275.1</ele>
        <time>1970-01-01T01:51:26.000Z</time>
      </trkpt>
      <trkpt lat="43.21653" lon="6.60461">
        <ele>273.9</ele>
        <time>1970-01-01T01:51:29.000Z</time>
      </trkpt>
      <trkpt lat="43.21654" lon="6.60467">
        <ele>272.3</ele>
        <time>1970-01-01T01:51:30.000Z</time>
      </trkpt>
      <trkpt lat="43.21653" lon="6.60472">
        <ele>270.7</ele>
        <time>1970-01-01T01:51:31.000Z</time>
      </trkpt>
      <trkpt lat="43.21651" lon="6.60477">
        <ele>270.6</ele>
        <time>1970-01-01T01:51:32.000Z</time>
      </trkpt>
      <trkpt lat="43.21648" lon="6.60482">
        <ele>270.4</ele>
        <time>1970-01-01T01:51:33.000Z</time>
      </trkpt>
      <trkpt lat="43.21647" lon="6.60486">
        <ele>269.5</ele>
        <time>1970-01-01T01:51:34.000Z</time>
      </trkpt>
      <trkpt lat="43.2165" lon="6.60492">
        <ele>268.6</ele>
        <time>1970-01-01T01:51:35.000Z</time>
      </trkpt>
      <trkpt lat="43.21653" lon="6.60501">
        <ele>265.8</ele>
        <time>1970-01-01T01:51:36.000Z</time>
      </trkpt>
      <trkpt lat="43.21658" lon="6.60515">
        <ele>261.2</ele>
        <time>1970-01-01T01:51:37.000Z</time>
      </trkpt>
      <trkpt lat="43.21664" lon="6.6053">
        <ele>257.8</ele>
        <time>1970-01-01T01:51:38.000Z</time>
      </trkpt>
      <trkpt lat="43.2167" lon="6.60545">
        <ele>254</ele>
        <time>1970-01-01T01:51:39.000Z</time>
      </trkpt>
      <trkpt lat="43.21675" lon="6.60562">
        <ele>250.7</ele>
        <time>1970-01-01T01:51:40.000Z</time>
      </trkpt>
      <trkpt lat="43.21681" lon="6.6058">
        <ele>247.7</ele>
        <time>1970-01-01T01:51:41.000Z</time>
      </trkpt>
      <trkpt lat="43.21683" lon="6.60597">
        <ele>245.8</ele>
        <time>1970-01-01T01:51:42.000Z</time>
      </trkpt>
      <trkpt lat="43.21686" lon="6.60611">
        <ele>244.1</ele>
        <time>1970-01-01T01:51:43.000Z</time>
      </trkpt>
      <trkpt lat="43.21691" lon="6.60623">
        <ele>241.6</ele>
        <time>1970-01-01T01:51:44.000Z</time>
      </trkpt>
      <trkpt lat="43.21695" lon="6.60634">
        <ele>239.4</ele>
        <time>1970-01-01T01:51:45.000Z</time>
      </trkpt>
      <trkpt lat="43.21698" lon="6.60644">
        <ele>236.3</ele>
        <time>1970-01-01T01:51:46.000Z</time>
      </trkpt>
      <trkpt lat="43.21699" lon="6.60653">
        <ele>233.9</ele>
        <time>1970-01-01T01:51:47.000Z</time>
      </trkpt>
      <trkpt lat="43.21702" lon="6.60659">
        <ele>232.8</ele>
        <time>1970-01-01T01:51:48.000Z</time>
      </trkpt>
      <trkpt lat="43.21704" lon="6.60663">
        <ele>231.7</ele>
        <time>1970-01-01T01:51:49.000Z</time>
      </trkpt>
      <trkpt lat="43.21703" lon="6.60669">
        <ele>229.6</ele>
        <time>1970-01-01T01:51:51.000Z</time>
      </trkpt>
      <trkpt lat="43.21702" lon="6.60674">
        <ele>228.5</ele>
        <time>1970-01-01T01:51:52.000Z</time>
      </trkpt>
      <trkpt lat="43.21704" lon="6.60677">
        <ele>228.7</ele>
        <time>1970-01-01T01:51:53.000Z</time>
      </trkpt>
      <trkpt lat="43.21706" lon="6.60683">
        <ele>225.9</ele>
        <time>1970-01-01T01:51:54.000Z</time>
      </trkpt>
      <trkpt lat="43.21707" lon="6.60688">
        <ele>224.5</ele>
        <time>1970-01-01T01:51:55.000Z</time>
      </trkpt>
      <trkpt lat="43.21707" lon="6.60693">
        <ele>223.3</ele>
        <time>1970-01-01T01:51:56.000Z</time>
      </trkpt>
      <trkpt lat="43.21705" lon="6.60696">
        <ele>222.3</ele>
        <time>1970-01-01T01:51:57.000Z</time>
      </trkpt>
      <trkpt lat="43.217" lon="6.60695">
        <ele>222.6</ele>
        <time>1970-01-01T01:51:58.000Z</time>
      </trkpt>
      <trkpt lat="43.21694" lon="6.60698">
        <ele>223</ele>
        <time>1970-01-01T01:51:59.000Z</time>
      </trkpt>
      <trkpt lat="43.21691" lon="6.60707">
        <ele>220.4</ele>
        <time>1970-01-01T01:52:00.000Z</time>
      </trkpt>
      <trkpt lat="43.21687" lon="6.60719">
        <ele>216.1</ele>
        <time>1970-01-01T01:52:01.000Z</time>
      </trkpt>
      <trkpt lat="43.21686" lon="6.60733">
        <ele>212.6</ele>
        <time>1970-01-01T01:52:02.000Z</time>
      </trkpt>
      <trkpt lat="43.21687" lon="6.60745">
        <ele>209.4</ele>
        <time>1970-01-01T01:52:03.000Z</time>
      </trkpt>
      <trkpt lat="43.21689" lon="6.60755">
        <ele>206.5</ele>
        <time>1970-01-01T01:52:04.000Z</time>
      </trkpt>
      <trkpt lat="43.21686" lon="6.60764">
        <ele>205.3</ele>
        <time>1970-01-01T01:52:05.000Z</time>
      </trkpt>
      <trkpt lat="43.21682" lon="6.60773">
        <ele>204.3</ele>
        <time>1970-01-01T01:52:06.000Z</time>
      </trkpt>
      <trkpt lat="43.21679" lon="6.60777">
        <ele>204.4</ele>
        <time>1970-01-01T01:52:07.000Z</time>
      </trkpt>
      <trkpt lat="43.21679" lon="6.60782">
        <ele>203.7</ele>
        <time>1970-01-01T01:52:08.000Z</time>
      </trkpt>
      <trkpt lat="43.21683" lon="6.60785">
        <ele>202.1</ele>
        <time>1970-01-01T01:52:09.000Z</time>
      </trkpt>
      <trkpt lat="43.21688" lon="6.60789">
        <ele>201.2</ele>
        <time>1970-01-01T01:52:10.000Z</time>
      </trkpt>
      <trkpt lat="43.21693" lon="6.60791">
        <ele>199.8</ele>
        <time>1970-01-01T01:52:11.000Z</time>
      </trkpt>
      <trkpt lat="43.21694" lon="6.60795">
        <ele>198.8</ele>
        <time>1970-01-01T01:52:12.000Z</time>
      </trkpt>
      <trkpt lat="43.21691" lon="6.608">
        <ele>197.9</ele>
        <time>1970-01-01T01:52:13.000Z</time>
      </trkpt>
      <trkpt lat="43.21686" lon="6.60804">
        <ele>197.9</ele>
        <time>1970-01-01T01:52:14.000Z</time>
      </trkpt>
      <trkpt lat="43.21682" lon="6.6081">
        <ele>197.5</ele>
        <time>1970-01-01T01:52:15.000Z</time>
      </trkpt>
      <trkpt lat="43.21682" lon="6.60814">
        <ele>196.4</ele>
        <time>1970-01-01T01:52:16.000Z</time>
      </trkpt>
      <trkpt lat="43.21677" lon="6.60815">
        <ele>196.5</ele>
        <time>1970-01-01T01:52:18.000Z</time>
      </trkpt>
      <trkpt lat="43.21675" lon="6.60818">
        <ele>196.7</ele>
        <time>1970-01-01T01:52:19.000Z</time>
      </trkpt>
      <trkpt lat="43.21675" lon="6.60824">
        <ele>194.3</ele>
        <time>1970-01-01T01:52:20.000Z</time>
      </trkpt>
      <trkpt lat="43.21673" lon="6.6083">
        <ele>194.1</ele>
        <time>1970-01-01T01:52:21.000Z</time>
      </trkpt>
      <trkpt lat="43.21669" lon="6.60836">
        <ele>194.2</ele>
        <time>1970-01-01T01:52:22.000Z</time>
      </trkpt>
      <trkpt lat="43.21667" lon="6.60841">
        <ele>193.3</ele>
        <time>1970-01-01T01:52:23.000Z</time>
      </trkpt>
      <trkpt lat="43.21667" lon="6.60846">
        <ele>192.7</ele>
        <time>1970-01-01T01:52:24.000Z</time>
      </trkpt>
      <trkpt lat="43.21668" lon="6.60852">
        <ele>192.2</ele>
        <time>1970-01-01T01:52:25.000Z</time>
      </trkpt>
      <trkpt lat="43.2167" lon="6.60857">
        <ele>191.3</ele>
        <time>1970-01-01T01:52:26.000Z</time>
      </trkpt>
      <trkpt lat="43.21673" lon="6.60867">
        <ele>189.2</ele>
        <time>1970-01-01T01:52:27.000Z</time>
      </trkpt>
      <trkpt lat="43.21676" lon="6.60878">
        <ele>187.3</ele>
        <time>1970-01-01T01:52:28.000Z</time>
      </trkpt>
      <trkpt lat="43.21676" lon="6.60887">
        <ele>185.8</ele>
        <time>1970-01-01T01:52:29.000Z</time>
      </trkpt>
      <trkpt lat="43.21679" lon="6.60892">
        <ele>185</ele>
        <time>1970-01-01T01:52:30.000Z</time>
      </trkpt>
      <trkpt lat="43.21682" lon="6.60893">
        <ele>184.2</ele>
        <time>1970-01-01T01:52:31.000Z</time>
      </trkpt>
      <trkpt lat="43.21688" lon="6.60893">
        <ele>183.9</ele>
        <time>1970-01-01T01:52:32.000Z</time>
      </trkpt>
      <trkpt lat="43.21693" lon="6.60897">
        <ele>183.1</ele>
        <time>1970-01-01T01:52:33.000Z</time>
      </trkpt>
      <trkpt lat="43.21699" lon="6.60901">
        <ele>182.1</ele>
        <time>1970-01-01T01:52:34.000Z</time>
      </trkpt>
      <trkpt lat="43.21706" lon="6.6091">
        <ele>180.2</ele>
        <time>1970-01-01T01:52:35.000Z</time>
      </trkpt>
      <trkpt lat="43.21711" lon="6.60919">
        <ele>178.8</ele>
        <time>1970-01-01T01:52:36.000Z</time>
      </trkpt>
      <trkpt lat="43.21715" lon="6.60927">
        <ele>177.5</ele>
        <time>1970-01-01T01:52:37.000Z</time>
      </trkpt>
      <trkpt lat="43.21717" lon="6.60937">
        <ele>176.1</ele>
        <time>1970-01-01T01:52:38.000Z</time>
      </trkpt>
      <trkpt lat="43.21715" lon="6.60942">
        <ele>175.4</ele>
        <time>1970-01-01T01:52:39.000Z</time>
      </trkpt>
      <trkpt lat="43.21715" lon="6.60947">
        <ele>174.8</ele>
        <time>1970-01-01T01:52:40.000Z</time>
      </trkpt>
      <trkpt lat="43.21717" lon="6.60952">
        <ele>174.1</ele>
        <time>1970-01-01T01:52:41.000Z</time>
      </trkpt>
      <trkpt lat="43.21721" lon="6.60954">
        <ele>173.4</ele>
        <time>1970-01-01T01:52:42.000Z</time>
      </trkpt>
      <trkpt lat="43.21726" lon="6.60958">
        <ele>172.6</ele>
        <time>1970-01-01T01:52:43.000Z</time>
      </trkpt>
      <trkpt lat="43.21731" lon="6.60962">
        <ele>171.9</ele>
        <time>1970-01-01T01:52:44.000Z</time>
      </trkpt>
      <trkpt lat="43.21736" lon="6.60964">
        <ele>171.3</ele>
        <time>1970-01-01T01:52:45.000Z</time>
      </trkpt>
      <trkpt lat="43.2174" lon="6.60968">
        <ele>170.9</ele>
        <time>1970-01-01T01:52:46.000Z</time>
      </trkpt>
      <trkpt lat="43.2174" lon="6.60971">
        <ele>170.5</ele>
        <time>1970-01-01T01:52:47.000Z</time>
      </trkpt>
      <trkpt lat="43.21738" lon="6.60976">
        <ele>170.3</ele>
        <time>1970-01-01T01:52:49.000Z</time>
      </trkpt>
      <trkpt lat="43.21718" lon="6.60993">
        <ele>175.6</ele>
        <time>1970-01-01T01:56:48.000Z</time>
      </trkpt>
      <trkpt lat="43.21717" lon="6.60998">
        <ele>174.5</ele>
        <time>1970-01-01T01:56:50.000Z</time>
      </trkpt>
      <trkpt lat="43.21714" lon="6.61004">
        <ele>173.5</ele>
        <time>1970-01-01T01:56:52.000Z</time>
      </trkpt>
      <trkpt lat="43.21713" lon="6.6101">
        <ele>172.5</ele>
        <time>1970-01-01T01:56:54.000Z</time>
      </trkpt>
      <trkpt lat="43.21711" lon="6.61015">
        <ele>171.4</ele>
        <time>1970-01-01T01:56:56.000Z</time>
      </trkpt>
      <trkpt lat="43.21709" lon="6.61021">
        <ele>170.4</ele>
        <time>1970-01-01T01:56:58.000Z</time>
      </trkpt>
      <trkpt lat="43.21708" lon="6.61029">
        <ele>169</ele>
        <time>1970-01-01T01:57:00.000Z</time>
      </trkpt>
      <trkpt lat="43.21707" lon="6.61032">
        <ele>168.1</ele>
        <time>1970-01-01T01:57:01.000Z</time>
      </trkpt>
      <trkpt lat="43.21705" lon="6.6104">
        <ele>166.2</ele>
        <time>1970-01-01T01:57:03.000Z</time>
      </trkpt>
      <trkpt lat="43.21704" lon="6.61044">
        <ele>165.2</ele>
        <time>1970-01-01T01:57:04.000Z</time>
      </trkpt>
      <trkpt lat="43.21704" lon="6.61047">
        <ele>164.2</ele>
        <time>1970-01-01T01:57:05.000Z</time>
      </trkpt>
      <trkpt lat="43.21702" lon="6.61051">
        <ele>163</ele>
        <time>1970-01-01T01:57:06.000Z</time>
      </trkpt>
      <trkpt lat="43.21701" lon="6.61055">
        <ele>162</ele>
        <time>1970-01-01T01:57:07.000Z</time>
      </trkpt>
      <trkpt lat="43.217" lon="6.61059">
        <ele>160.9</ele>
        <time>1970-01-01T01:57:08.000Z</time>
      </trkpt>
      <trkpt lat="43.21699" lon="6.61063">
        <ele>160.3</ele>
        <time>1970-01-01T01:57:09.000Z</time>
      </trkpt>
      <trkpt lat="43.21698" lon="6.61067">
        <ele>159.7</ele>
        <time>1970-01-01T01:57:10.000Z</time>
      </trkpt>
      <trkpt lat="43.21697" lon="6.61071">
        <ele>159.2</ele>
        <time>1970-01-01T01:57:11.000Z</time>
      </trkpt>
      <trkpt lat="43.21695" lon="6.61074">
        <ele>158.7</ele>
        <time>1970-01-01T01:57:12.000Z</time>
      </trkpt>
      <trkpt lat="43.21693" lon="6.61078">
        <ele>158.1</ele>
        <time>1970-01-01T01:57:13.000Z</time>
      </trkpt>
      <trkpt lat="43.21691" lon="6.61081">
        <ele>157.5</ele>
        <time>1970-01-01T01:57:14.000Z</time>
      </trkpt>
      <trkpt lat="43.21689" lon="6.61083">
        <ele>157</ele>
        <time>1970-01-01T01:57:15.000Z</time>
      </trkpt>
      <trkpt lat="43.21686" lon="6.61085">
        <ele>156.5</ele>
        <time>1970-01-01T01:57:16.000Z</time>
      </trkpt>
      <trkpt lat="43.21684" lon="6.61087">
        <ele>156</ele>
        <time>1970-01-01T01:57:17.000Z</time>
      </trkpt>
      <trkpt lat="43.21681" lon="6.6109">
        <ele>156.4</ele>
        <time>1970-01-01T01:57:18.000Z</time>
      </trkpt>
      <trkpt lat="43.21678" lon="6.61091">
        <ele>156.8</ele>
        <time>1970-01-01T01:57:19.000Z</time>
      </trkpt>
      <trkpt lat="43.21675" lon="6.61093">
        <ele>157.2</ele>
        <time>1970-01-01T01:57:20.000Z</time>
      </trkpt>
      <trkpt lat="43.2167" lon="6.61096">
        <ele>157.8</ele>
        <time>1970-01-01T01:57:22.000Z</time>
      </trkpt>
      <trkpt lat="43.21664" lon="6.61098">
        <ele>158.6</ele>
        <time>1970-01-01T01:57:24.000Z</time>
      </trkpt>
      <trkpt lat="43.21661" lon="6.61099">
        <ele>158.8</ele>
        <time>1970-01-01T01:57:25.000Z</time>
      </trkpt>
      <trkpt lat="43.21657" lon="6.611">
        <ele>159.1</ele>
        <time>1970-01-01T01:57:26.000Z</time>
      </trkpt>
      <trkpt lat="43.21654" lon="6.61102">
        <ele>159.3</ele>
        <time>1970-01-01T01:57:27.000Z</time>
      </trkpt>
      <trkpt lat="43.2165" lon="6.61103">
        <ele>159.6</ele>
        <time>1970-01-01T01:57:28.000Z</time>
      </trkpt>
      <trkpt lat="43.21646" lon="6.61103">
        <ele>159.8</ele>
        <time>1970-01-01T01:57:29.000Z</time>
      </trkpt>
      <trkpt lat="43.21643" lon="6.61103">
        <ele>160.1</ele>
        <time>1970-01-01T01:57:30.000Z</time>
      </trkpt>
      <trkpt lat="43.2164" lon="6.61104">
        <ele>160.3</ele>
        <time>1970-01-01T01:57:31.000Z</time>
      </trkpt>
      <trkpt lat="43.21637" lon="6.61104">
        <ele>160.5</ele>
        <time>1970-01-01T01:57:32.000Z</time>
      </trkpt>
      <trkpt lat="43.21633" lon="6.61105">
        <ele>160.7</ele>
        <time>1970-01-01T01:57:33.000Z</time>
      </trkpt>
      <trkpt lat="43.2163" lon="6.61105">
        <ele>160.9</ele>
        <time>1970-01-01T01:57:34.000Z</time>
      </trkpt>
      <trkpt lat="43.21626" lon="6.61106">
        <ele>160.9</ele>
        <time>1970-01-01T01:57:35.000Z</time>
      </trkpt>
      <trkpt lat="43.21622" lon="6.61107">
        <ele>160.8</ele>
        <time>1970-01-01T01:57:36.000Z</time>
      </trkpt>
      <trkpt lat="43.21618" lon="6.61107">
        <ele>160.7</ele>
        <time>1970-01-01T01:57:37.000Z</time>
      </trkpt>
      <trkpt lat="43.21614" lon="6.61108">
        <ele>160.5</ele>
        <time>1970-01-01T01:57:38.000Z</time>
      </trkpt>
      <trkpt lat="43.2161" lon="6.61108">
        <ele>160.4</ele>
        <time>1970-01-01T01:57:39.000Z</time>
      </trkpt>
      <trkpt lat="43.21607" lon="6.61108">
        <ele>160.3</ele>
        <time>1970-01-01T01:57:40.000Z</time>
      </trkpt>
      <trkpt lat="43.21603" lon="6.61108">
        <ele>160.2</ele>
        <time>1970-01-01T01:57:41.000Z</time>
      </trkpt>
      <trkpt lat="43.21599" lon="6.61107">
        <ele>160.1</ele>
        <time>1970-01-01T01:57:42.000Z</time>
      </trkpt>
      <trkpt lat="43.21595" lon="6.61108">
        <ele>159.9</ele>
        <time>1970-01-01T01:57:43.000Z</time>
      </trkpt>
      <trkpt lat="43.21591" lon="6.61108">
        <ele>159.8</ele>
        <time>1970-01-01T01:57:44.000Z</time>
      </trkpt>
      <trkpt lat="43.21586" lon="6.61108">
        <ele>159.7</ele>
        <time>1970-01-01T01:57:45.000Z</time>
      </trkpt>
      <trkpt lat="43.21582" lon="6.61108">
        <ele>159.5</ele>
        <time>1970-01-01T01:57:46.000Z</time>
      </trkpt>
      <trkpt lat="43.21578" lon="6.61108">
        <ele>159.4</ele>
        <time>1970-01-01T01:57:47.000Z</time>
      </trkpt>
      <trkpt lat="43.21573" lon="6.61108">
        <ele>159.2</ele>
        <time>1970-01-01T01:57:48.000Z</time>
      </trkpt>
      <trkpt lat="43.21569" lon="6.61108">
        <ele>159.1</ele>
        <time>1970-01-01T01:57:49.000Z</time>
      </trkpt>
      <trkpt lat="43.21564" lon="6.61107">
        <ele>158.9</ele>
        <time>1970-01-01T01:57:50.000Z</time>
      </trkpt>
      <trkpt lat="43.2156" lon="6.61107">
        <ele>158.8</ele>
        <time>1970-01-01T01:57:51.000Z</time>
      </trkpt>
      <trkpt lat="43.21556" lon="6.61107">
        <ele>158.7</ele>
        <time>1970-01-01T01:57:52.000Z</time>
      </trkpt>
      <trkpt lat="43.21551" lon="6.61106">
        <ele>158.5</ele>
        <time>1970-01-01T01:57:53.000Z</time>
      </trkpt>
      <trkpt lat="43.21546" lon="6.61107">
        <ele>158.3</ele>
        <time>1970-01-01T01:57:54.000Z</time>
      </trkpt>
      <trkpt lat="43.21541" lon="6.61107">
        <ele>158.2</ele>
        <time>1970-01-01T01:57:55.000Z</time>
      </trkpt>
      <trkpt lat="43.21537" lon="6.61106">
        <ele>158</ele>
        <time>1970-01-01T01:57:56.000Z</time>
      </trkpt>
      <trkpt lat="43.21533" lon="6.61106">
        <ele>157.8</ele>
        <time>1970-01-01T01:57:57.000Z</time>
      </trkpt>
      <trkpt lat="43.21527" lon="6.61106">
        <ele>157.7</ele>
        <time>1970-01-01T01:57:58.000Z</time>
      </trkpt>
      <trkpt lat="43.21522" lon="6.61107">
        <ele>157.5</ele>
        <time>1970-01-01T01:57:59.000Z</time>
      </trkpt>
      <trkpt lat="43.21517" lon="6.61107">
        <ele>157.3</ele>
        <time>1970-01-01T01:58:00.000Z</time>
      </trkpt>
      <trkpt lat="43.21512" lon="6.61108">
        <ele>157.1</ele>
        <time>1970-01-01T01:58:01.000Z</time>
      </trkpt>
      <trkpt lat="43.21507" lon="6.61108">
        <ele>156.9</ele>
        <time>1970-01-01T01:58:02.000Z</time>
      </trkpt>
      <trkpt lat="43.21502" lon="6.61108">
        <ele>156.7</ele>
        <time>1970-01-01T01:58:03.000Z</time>
      </trkpt>
      <trkpt lat="43.21498" lon="6.61109">
        <ele>156.6</ele>
        <time>1970-01-01T01:58:04.000Z</time>
      </trkpt>
      <trkpt lat="43.21494" lon="6.61112">
        <ele>155.9</ele>
        <time>1970-01-01T01:58:05.000Z</time>
      </trkpt>
      <trkpt lat="43.21489" lon="6.61113">
        <ele>155.3</ele>
        <time>1970-01-01T01:58:06.000Z</time>
      </trkpt>
      <trkpt lat="43.21484" lon="6.61113">
        <ele>154.6</ele>
        <time>1970-01-01T01:58:07.000Z</time>
      </trkpt>
      <trkpt lat="43.21481" lon="6.61114">
        <ele>154</ele>
        <time>1970-01-01T01:58:08.000Z</time>
      </trkpt>
      <trkpt lat="43.21478" lon="6.61111">
        <ele>157.2</ele>
        <time>1970-01-01T01:58:09.000Z</time>
      </trkpt>
      <trkpt lat="43.21477" lon="6.61107">
        <ele>158.9</ele>
        <time>1970-01-01T01:58:10.000Z</time>
      </trkpt>
      <trkpt lat="43.21476" lon="6.61101">
        <ele>161.1</ele>
        <time>1970-01-01T01:58:12.000Z</time>
      </trkpt>
      <trkpt lat="43.21475" lon="6.61097">
        <ele>162.6</ele>
        <time>1970-01-01T01:58:13.000Z</time>
      </trkpt>
      <trkpt lat="43.21473" lon="6.61092">
        <ele>165</ele>
        <time>1970-01-01T01:58:15.000Z</time>
      </trkpt>
      <trkpt lat="43.21472" lon="6.61086">
        <ele>167.4</ele>
        <time>1970-01-01T01:58:17.000Z</time>
      </trkpt>
      <trkpt lat="43.2147" lon="6.61081">
        <ele>169.5</ele>
        <time>1970-01-01T01:58:19.000Z</time>
      </trkpt>
      <trkpt lat="43.21468" lon="6.61076">
        <ele>170.4</ele>
        <time>1970-01-01T01:58:21.000Z</time>
      </trkpt>
      <trkpt lat="43.21464" lon="6.6107">
        <ele>170.9</ele>
        <time>1970-01-01T01:58:23.000Z</time>
      </trkpt>
      <trkpt lat="43.21462" lon="6.61065">
        <ele>171.4</ele>
        <time>1970-01-01T01:58:25.000Z</time>
      </trkpt>
      <trkpt lat="43.21462" lon="6.61061">
        <ele>171.8</ele>
        <time>1970-01-01T01:58:27.000Z</time>
      </trkpt>
      <trkpt lat="43.21462" lon="6.61056">
        <ele>172.2</ele>
        <time>1970-01-01T01:58:29.000Z</time>
      </trkpt>
      <trkpt lat="43.21462" lon="6.61051">
        <ele>172.6</ele>
        <time>1970-01-01T01:58:31.000Z</time>
      </trkpt>
      <trkpt lat="43.21462" lon="6.61046">
        <ele>173.1</ele>
        <time>1970-01-01T01:58:33.000Z</time>
      </trkpt>
      <trkpt lat="43.21463" lon="6.61043">
        <ele>173.4</ele>
        <time>1970-01-01T01:58:35.000Z</time>
      </trkpt>
      <trkpt lat="43.21465" lon="6.61039">
        <ele>173.8</ele>
        <time>1970-01-01T01:58:37.000Z</time>
      </trkpt>
      <trkpt lat="43.21466" lon="6.61035">
        <ele>174.3</ele>
        <time>1970-01-01T01:58:39.000Z</time>
      </trkpt>
      <trkpt lat="43.21468" lon="6.61029">
        <ele>174.8</ele>
        <time>1970-01-01T01:58:41.000Z</time>
      </trkpt>
      <trkpt lat="43.21468" lon="6.61023">
        <ele>175.3</ele>
        <time>1970-01-01T01:58:43.000Z</time>
      </trkpt>
      <trkpt lat="43.21467" lon="6.61017">
        <ele>175.8</ele>
        <time>1970-01-01T01:58:45.000Z</time>
      </trkpt>
      <trkpt lat="43.21467" lon="6.61012">
        <ele>176.2</ele>
        <time>1970-01-01T01:58:47.000Z</time>
      </trkpt>
      <trkpt lat="43.21465" lon="6.61006">
        <ele>176.7</ele>
        <time>1970-01-01T01:58:49.000Z</time>
      </trkpt>
      <trkpt lat="43.21462" lon="6.61001">
        <ele>177.2</ele>
        <time>1970-01-01T01:58:51.000Z</time>
      </trkpt>
      <trkpt lat="43.21458" lon="6.60998">
        <ele>177.5</ele>
        <time>1970-01-01T01:58:53.000Z</time>
      </trkpt>
      <trkpt lat="43.21453" lon="6.60996">
        <ele>177.9</ele>
        <time>1970-01-01T01:58:55.000Z</time>
      </trkpt>
      <trkpt lat="43.21448" lon="6.60995">
        <ele>178.4</ele>
        <time>1970-01-01T01:58:57.000Z</time>
      </trkpt>
      <trkpt lat="43.21446" lon="6.60995">
        <ele>178.7</ele>
        <time>1970-01-01T01:58:58.000Z</time>
      </trkpt>
      <trkpt lat="43.2144" lon="6.60995">
        <ele>179.3</ele>
        <time>1970-01-01T01:59:00.000Z</time>
      </trkpt>
      <trkpt lat="43.21437" lon="6.60996">
        <ele>179.8</ele>
        <time>1970-01-01T01:59:02.000Z</time>
      </trkpt>
      <trkpt lat="43.21433" lon="6.60999">
        <ele>180.3</ele>
        <time>1970-01-01T01:59:04.000Z</time>
      </trkpt>
      <trkpt lat="43.2143" lon="6.61002">
        <ele>180.8</ele>
        <time>1970-01-01T01:59:06.000Z</time>
      </trkpt>
      <trkpt lat="43.21427" lon="6.61005">
        <ele>181.2</ele>
        <time>1970-01-01T01:59:08.000Z</time>
      </trkpt>
      <trkpt lat="43.21424" lon="6.61008">
        <ele>181.5</ele>
        <time>1970-01-01T01:59:10.000Z</time>
      </trkpt>
      <trkpt lat="43.2142" lon="6.61011">
        <ele>181.9</ele>
        <time>1970-01-01T01:59:12.000Z</time>
      </trkpt>
      <trkpt lat="43.21417" lon="6.61011">
        <ele>182.3</ele>
        <time>1970-01-01T01:59:14.000Z</time>
      </trkpt>
      <trkpt lat="43.21413" lon="6.61013">
        <ele>182.8</ele>
        <time>1970-01-01T01:59:16.000Z</time>
      </trkpt>
      <trkpt lat="43.2141" lon="6.61015">
        <ele>183.3</ele>
        <time>1970-01-01T01:59:18.000Z</time>
      </trkpt>
      <trkpt lat="43.21406" lon="6.61014">
        <ele>183.8</ele>
        <time>1970-01-01T01:59:20.000Z</time>
      </trkpt>
      <trkpt lat="43.21403" lon="6.61015">
        <ele>184.2</ele>
        <time>1970-01-01T01:59:22.000Z</time>
      </trkpt>
      <trkpt lat="43.21399" lon="6.61015">
        <ele>184.8</ele>
        <time>1970-01-01T01:59:24.000Z</time>
      </trkpt>
      <trkpt lat="43.21396" lon="6.61015">
        <ele>185.3</ele>
        <time>1970-01-01T01:59:26.000Z</time>
      </trkpt>
      <trkpt lat="43.21393" lon="6.61014">
        <ele>185.8</ele>
        <time>1970-01-01T01:59:28.000Z</time>
      </trkpt>
      <trkpt lat="43.2139" lon="6.61013">
        <ele>186.3</ele>
        <time>1970-01-01T01:59:30.000Z</time>
      </trkpt>
      <trkpt lat="43.21386" lon="6.61008">
        <ele>187</ele>
        <time>1970-01-01T01:59:32.000Z</time>
      </trkpt>
      <trkpt lat="43.21384" lon="6.61005">
        <ele>187.4</ele>
        <time>1970-01-01T01:59:34.000Z</time>
      </trkpt>
      <trkpt lat="43.21381" lon="6.61003">
        <ele>187.8</ele>
        <time>1970-01-01T01:59:36.000Z</time>
      </trkpt>
      <trkpt lat="43.21377" lon="6.61">
        <ele>188.2</ele>
        <time>1970-01-01T01:59:38.000Z</time>
      </trkpt>
      <trkpt lat="43.21376" lon="6.60996">
        <ele>188.5</ele>
        <time>1970-01-01T01:59:40.000Z</time>
      </trkpt>
      <trkpt lat="43.21372" lon="6.60995">
        <ele>188.7</ele>
        <time>1970-01-01T01:59:42.000Z</time>
      </trkpt>
      <trkpt lat="43.21368" lon="6.60996">
        <ele>188.9</ele>
        <time>1970-01-01T01:59:44.000Z</time>
      </trkpt>
      <trkpt lat="43.21363" lon="6.60995">
        <ele>189.1</ele>
        <time>1970-01-01T01:59:46.000Z</time>
      </trkpt>
      <trkpt lat="43.2136" lon="6.60999">
        <ele>189.4</ele>
        <time>1970-01-01T01:59:48.000Z</time>
      </trkpt>
      <trkpt lat="43.21358" lon="6.61">
        <ele>189.6</ele>
        <time>1970-01-01T01:59:49.000Z</time>
      </trkpt>
      <trkpt lat="43.21354" lon="6.61">
        <ele>190</ele>
        <time>1970-01-01T01:59:51.000Z</time>
      </trkpt>
      <trkpt lat="43.2135" lon="6.61002">
        <ele>190.3</ele>
        <time>1970-01-01T01:59:53.000Z</time>
      </trkpt>
      <trkpt lat="43.21347" lon="6.61003">
        <ele>190.6</ele>
        <time>1970-01-01T01:59:55.000Z</time>
      </trkpt>
      <trkpt lat="43.21343" lon="6.61004">
        <ele>190.9</ele>
        <time>1970-01-01T01:59:57.000Z</time>
      </trkpt>
      <trkpt lat="43.21339" lon="6.61009">
        <ele>191.2</ele>
        <time>1970-01-01T01:59:59.000Z</time>
      </trkpt>
      <trkpt lat="43.21335" lon="6.61012">
        <ele>191.5</ele>
        <time>1970-01-01T02:00:01.000Z</time>
      </trkpt>
      <trkpt lat="43.21331" lon="6.61014">
        <ele>191.8</ele>
        <time>1970-01-01T02:00:03.000Z</time>
      </trkpt>
      <trkpt lat="43.21326" lon="6.61017">
        <ele>192.2</ele>
        <time>1970-01-01T02:00:05.000Z</time>
      </trkpt>
      <trkpt lat="43.21322" lon="6.6102">
        <ele>192.5</ele>
        <time>1970-01-01T02:00:07.000Z</time>
      </trkpt>
      <trkpt lat="43.21318" lon="6.61023">
        <ele>192.6</ele>
        <time>1970-01-01T02:00:09.000Z</time>
      </trkpt>
      <trkpt lat="43.21314" lon="6.61027">
        <ele>192.7</ele>
        <time>1970-01-01T02:00:11.000Z</time>
      </trkpt>
      <trkpt lat="43.21311" lon="6.61029">
        <ele>192.8</ele>
        <time>1970-01-01T02:00:12.000Z</time>
      </trkpt>
      <trkpt lat="43.21307" lon="6.61031">
        <ele>192.9</ele>
        <time>1970-01-01T02:00:14.000Z</time>
      </trkpt>
      <trkpt lat="43.21303" lon="6.61032">
        <ele>193.1</ele>
        <time>1970-01-01T02:00:16.000Z</time>
      </trkpt>
      <trkpt lat="43.21298" lon="6.61033">
        <ele>193.4</ele>
        <time>1970-01-01T02:00:18.000Z</time>
      </trkpt>
      <trkpt lat="43.21295" lon="6.61031">
        <ele>193.6</ele>
        <time>1970-01-01T02:00:19.000Z</time>
      </trkpt>
      <trkpt lat="43.21292" lon="6.61029">
        <ele>193.9</ele>
        <time>1970-01-01T02:00:20.000Z</time>
      </trkpt>
      <trkpt lat="43.2129" lon="6.61028">
        <ele>194.1</ele>
        <time>1970-01-01T02:00:21.000Z</time>
      </trkpt>
      <trkpt lat="43.21285" lon="6.61024">
        <ele>194.5</ele>
        <time>1970-01-01T02:00:23.000Z</time>
      </trkpt>
      <trkpt lat="43.21283" lon="6.61022">
        <ele>194.6</ele>
        <time>1970-01-01T02:00:24.000Z</time>
      </trkpt>
      <trkpt lat="43.21278" lon="6.61019">
        <ele>194.9</ele>
        <time>1970-01-01T02:00:26.000Z</time>
      </trkpt>
      <trkpt lat="43.21274" lon="6.61015">
        <ele>195.4</ele>
        <time>1970-01-01T02:00:28.000Z</time>
      </trkpt>
      <trkpt lat="43.21269" lon="6.61012">
        <ele>195.9</ele>
        <time>1970-01-01T02:00:30.000Z</time>
      </trkpt>
      <trkpt lat="43.21265" lon="6.61009">
        <ele>196.2</ele>
        <time>1970-01-01T02:00:32.000Z</time>
      </trkpt>
      <trkpt lat="43.21262" lon="6.61008">
        <ele>196.3</ele>
        <time>1970-01-01T02:00:33.000Z</time>
      </trkpt>
      <trkpt lat="43.21257" lon="6.61005">
        <ele>196.6</ele>
        <time>1970-01-01T02:00:35.000Z</time>
      </trkpt>
      <trkpt lat="43.21254" lon="6.61005">
        <ele>196.8</ele>
        <time>1970-01-01T02:00:36.000Z</time>
      </trkpt>
      <trkpt lat="43.21251" lon="6.61004">
        <ele>197</ele>
        <time>1970-01-01T02:00:37.000Z</time>
      </trkpt>
      <trkpt lat="43.21248" lon="6.61003">
        <ele>197.3</ele>
        <time>1970-01-01T02:00:38.000Z</time>
      </trkpt>
      <trkpt lat="43.21244" lon="6.61003">
        <ele>197.7</ele>
        <time>1970-01-01T02:00:40.000Z</time>
      </trkpt>
      <trkpt lat="43.21239" lon="6.61004">
        <ele>198.2</ele>
        <time>1970-01-01T02:00:42.000Z</time>
      </trkpt>
      <trkpt lat="43.21236" lon="6.61005">
        <ele>198.3</ele>
        <time>1970-01-01T02:00:43.000Z</time>
      </trkpt>
      <trkpt lat="43.21234" lon="6.61006">
        <ele>198.5</ele>
        <time>1970-01-01T02:00:44.000Z</time>
      </trkpt>
      <trkpt lat="43.21229" lon="6.61008">
        <ele>198.7</ele>
        <time>1970-01-01T02:00:46.000Z</time>
      </trkpt>
      <trkpt lat="43.21225" lon="6.61009">
        <ele>198.9</ele>
        <time>1970-01-01T02:00:48.000Z</time>
      </trkpt>
      <trkpt lat="43.2122" lon="6.61012">
        <ele>199.4</ele>
        <time>1970-01-01T02:00:50.000Z</time>
      </trkpt>
      <trkpt lat="43.21216" lon="6.61013">
        <ele>199.9</ele>
        <time>1970-01-01T02:00:52.000Z</time>
      </trkpt>
      <trkpt lat="43.21212" lon="6.61015">
        <ele>200.4</ele>
        <time>1970-01-01T02:00:54.000Z</time>
      </trkpt>
      <trkpt lat="43.21207" lon="6.61017">
        <ele>200.7</ele>
        <time>1970-01-01T02:00:56.000Z</time>
      </trkpt>
      <trkpt lat="43.21204" lon="6.61018">
        <ele>200.9</ele>
        <time>1970-01-01T02:00:57.000Z</time>
      </trkpt>
      <trkpt lat="43.212" lon="6.61019">
        <ele>201.4</ele>
        <time>1970-01-01T02:00:59.000Z</time>
      </trkpt>
      <trkpt lat="43.21197" lon="6.61021">
        <ele>201.7</ele>
        <time>1970-01-01T02:01:00.000Z</time>
      </trkpt>
      <trkpt lat="43.21194" lon="6.61021">
        <ele>202</ele>
        <time>1970-01-01T02:01:01.000Z</time>
      </trkpt>
      <trkpt lat="43.2119" lon="6.61022">
        <ele>202.4</ele>
        <time>1970-01-01T02:01:03.000Z</time>
      </trkpt>
      <trkpt lat="43.21185" lon="6.61022">
        <ele>202.6</ele>
        <time>1970-01-01T02:01:05.000Z</time>
      </trkpt>
      <trkpt lat="43.21179" lon="6.61022">
        <ele>202.9</ele>
        <time>1970-01-01T02:01:07.000Z</time>
      </trkpt>
      <trkpt lat="43.21174" lon="6.61022">
        <ele>203.5</ele>
        <time>1970-01-01T02:01:09.000Z</time>
      </trkpt>
      <trkpt lat="43.21169" lon="6.61024">
        <ele>204</ele>
        <time>1970-01-01T02:01:11.000Z</time>
      </trkpt>
      <trkpt lat="43.21165" lon="6.61026">
        <ele>204.4</ele>
        <time>1970-01-01T02:01:13.000Z</time>
      </trkpt>
      <trkpt lat="43.21161" lon="6.61028">
        <ele>204.6</ele>
        <time>1970-01-01T02:01:15.000Z</time>
      </trkpt>
      <trkpt lat="43.21155" lon="6.6103">
        <ele>205.1</ele>
        <time>1970-01-01T02:01:17.000Z</time>
      </trkpt>
      <trkpt lat="43.21151" lon="6.61031">
        <ele>205.5</ele>
        <time>1970-01-01T02:01:19.000Z</time>
      </trkpt>
      <trkpt lat="43.21146" lon="6.61032">
        <ele>206</ele>
        <time>1970-01-01T02:01:21.000Z</time>
      </trkpt>
      <trkpt lat="43.21143" lon="6.61032">
        <ele>206.3</ele>
        <time>1970-01-01T02:01:22.000Z</time>
      </trkpt>
      <trkpt lat="43.21139" lon="6.61033">
        <ele>206.8</ele>
        <time>1970-01-01T02:01:24.000Z</time>
      </trkpt>
      <trkpt lat="43.21134" lon="6.61031">
        <ele>207.3</ele>
        <time>1970-01-01T02:01:26.000Z</time>
      </trkpt>
      <trkpt lat="43.2113" lon="6.61028">
        <ele>207.9</ele>
        <time>1970-01-01T02:01:28.000Z</time>
      </trkpt>
      <trkpt lat="43.21127" lon="6.61025">
        <ele>208.1</ele>
        <time>1970-01-01T02:01:29.000Z</time>
      </trkpt>
      <trkpt lat="43.21125" lon="6.61022">
        <ele>208.3</ele>
        <time>1970-01-01T02:01:30.000Z</time>
      </trkpt>
      <trkpt lat="43.21123" lon="6.61018">
        <ele>208.5</ele>
        <time>1970-01-01T02:01:32.000Z</time>
      </trkpt>
      <trkpt lat="43.2112" lon="6.61012">
        <ele>208.7</ele>
        <time>1970-01-01T02:01:34.000Z</time>
      </trkpt>
      <trkpt lat="43.21119" lon="6.61007">
        <ele>208.8</ele>
        <time>1970-01-01T02:01:36.000Z</time>
      </trkpt>
      <trkpt lat="43.21118" lon="6.61003">
        <ele>209</ele>
        <time>1970-01-01T02:01:37.000Z</time>
      </trkpt>
      <trkpt lat="43.21117" lon="6.60998">
        <ele>209.3</ele>
        <time>1970-01-01T02:01:39.000Z</time>
      </trkpt>
      <trkpt lat="43.21117" lon="6.60991">
        <ele>209.6</ele>
        <time>1970-01-01T02:01:41.000Z</time>
      </trkpt>
      <trkpt lat="43.21117" lon="6.60987">
        <ele>209.8</ele>
        <time>1970-01-01T02:01:42.000Z</time>
      </trkpt>
      <trkpt lat="43.21116" lon="6.60983">
        <ele>209.8</ele>
        <time>1970-01-01T02:01:43.000Z</time>
      </trkpt>
      <trkpt lat="43.21115" lon="6.60976">
        <ele>210</ele>
        <time>1970-01-01T02:01:45.000Z</time>
      </trkpt>
      <trkpt lat="43.21115" lon="6.60972">
        <ele>210.1</ele>
        <time>1970-01-01T02:01:46.000Z</time>
      </trkpt>
      <trkpt lat="43.21114" lon="6.60966">
        <ele>210.3</ele>
        <time>1970-01-01T02:01:48.000Z</time>
      </trkpt>
      <trkpt lat="43.21114" lon="6.6096">
        <ele>210.4</ele>
        <time>1970-01-01T02:01:50.000Z</time>
      </trkpt>
      <trkpt lat="43.21114" lon="6.60953">
        <ele>210.6</ele>
        <time>1970-01-01T02:01:52.000Z</time>
      </trkpt>
      <trkpt lat="43.21113" lon="6.60945">
        <ele>210.9</ele>
        <time>1970-01-01T02:01:54.000Z</time>
      </trkpt>
      <trkpt lat="43.21113" lon="6.60941">
        <ele>211.2</ele>
        <time>1970-01-01T02:01:55.000Z</time>
      </trkpt>
      <trkpt lat="43.21113" lon="6.60934">
        <ele>211.6</ele>
        <time>1970-01-01T02:01:57.000Z</time>
      </trkpt>
      <trkpt lat="43.21112" lon="6.60928">
        <ele>211.8</ele>
        <time>1970-01-01T02:01:59.000Z</time>
      </trkpt>
      <trkpt lat="43.21113" lon="6.60923">
        <ele>211.9</ele>
        <time>1970-01-01T02:02:01.000Z</time>
      </trkpt>
      <trkpt lat="43.21112" lon="6.60916">
        <ele>212.1</ele>
        <time>1970-01-01T02:02:03.000Z</time>
      </trkpt>
      <trkpt lat="43.21112" lon="6.6091">
        <ele>212.3</ele>
        <time>1970-01-01T02:02:05.000Z</time>
      </trkpt>
      <trkpt lat="43.21112" lon="6.60906">
        <ele>212.4</ele>
        <time>1970-01-01T02:02:06.000Z</time>
      </trkpt>
      <trkpt lat="43.21111" lon="6.60902">
        <ele>212.7</ele>
        <time>1970-01-01T02:02:07.000Z</time>
      </trkpt>
      <trkpt lat="43.21112" lon="6.60898">
        <ele>213</ele>
        <time>1970-01-01T02:02:08.000Z</time>
      </trkpt>
      <trkpt lat="43.21112" lon="6.60894">
        <ele>213.4</ele>
        <time>1970-01-01T02:02:09.000Z</time>
      </trkpt>
      <trkpt lat="43.21112" lon="6.60888">
        <ele>214</ele>
        <time>1970-01-01T02:02:11.000Z</time>
      </trkpt>
      <trkpt lat="43.21113" lon="6.60881">
        <ele>214.4</ele>
        <time>1970-01-01T02:02:13.000Z</time>
      </trkpt>
      <trkpt lat="43.21113" lon="6.60875">
        <ele>215.1</ele>
        <time>1970-01-01T02:02:15.000Z</time>
      </trkpt>
      <trkpt lat="43.21112" lon="6.60868">
        <ele>215.7</ele>
        <time>1970-01-01T02:02:17.000Z</time>
      </trkpt>
      <trkpt lat="43.21109" lon="6.60865">
        <ele>216</ele>
        <time>1970-01-01T02:02:18.000Z</time>
      </trkpt>
      <trkpt lat="43.21107" lon="6.60863">
        <ele>216.2</ele>
        <time>1970-01-01T02:02:19.000Z</time>
      </trkpt>
      <trkpt lat="43.21102" lon="6.6086">
        <ele>216.7</ele>
        <time>1970-01-01T02:02:21.000Z</time>
      </trkpt>
      <trkpt lat="43.21099" lon="6.60859">
        <ele>217</ele>
        <time>1970-01-01T02:02:22.000Z</time>
      </trkpt>
      <trkpt lat="43.21097" lon="6.60857">
        <ele>217.3</ele>
        <time>1970-01-01T02:02:23.000Z</time>
      </trkpt>
      <trkpt lat="43.21094" lon="6.60857">
        <ele>217.7</ele>
        <time>1970-01-01T02:02:24.000Z</time>
      </trkpt>
      <trkpt lat="43.21091" lon="6.60857">
        <ele>217.8</ele>
        <time>1970-01-01T02:02:25.000Z</time>
      </trkpt>
      <trkpt lat="43.21086" lon="6.60856">
        <ele>218</ele>
        <time>1970-01-01T02:02:27.000Z</time>
      </trkpt>
      <trkpt lat="43.21081" lon="6.60856">
        <ele>218.2</ele>
        <time>1970-01-01T02:02:29.000Z</time>
      </trkpt>
      <trkpt lat="43.21078" lon="6.60856">
        <ele>218.3</ele>
        <time>1970-01-01T02:02:30.000Z</time>
      </trkpt>
      <trkpt lat="43.21074" lon="6.60857">
        <ele>218.5</ele>
        <time>1970-01-01T02:02:32.000Z</time>
      </trkpt>
      <trkpt lat="43.2107" lon="6.60861">
        <ele>219</ele>
        <time>1970-01-01T02:02:34.000Z</time>
      </trkpt>
      <trkpt lat="43.21067" lon="6.60864">
        <ele>219.3</ele>
        <time>1970-01-01T02:02:35.000Z</time>
      </trkpt>
      <trkpt lat="43.21065" lon="6.60867">
        <ele>219.5</ele>
        <time>1970-01-01T02:02:36.000Z</time>
      </trkpt>
      <trkpt lat="43.21061" lon="6.60872">
        <ele>219.9</ele>
        <time>1970-01-01T02:02:38.000Z</time>
      </trkpt>
      <trkpt lat="43.21059" lon="6.60874">
        <ele>220.1</ele>
        <time>1970-01-01T02:02:39.000Z</time>
      </trkpt>
      <trkpt lat="43.21056" lon="6.60876">
        <ele>220.3</ele>
        <time>1970-01-01T02:02:40.000Z</time>
      </trkpt>
      <trkpt lat="43.21051" lon="6.6088">
        <ele>220.8</ele>
        <time>1970-01-01T02:02:42.000Z</time>
      </trkpt>
      <trkpt lat="43.21049" lon="6.60882">
        <ele>221.1</ele>
        <time>1970-01-01T02:02:43.000Z</time>
      </trkpt>
      <trkpt lat="43.21046" lon="6.60884">
        <ele>221.3</ele>
        <time>1970-01-01T02:02:44.000Z</time>
      </trkpt>
      <trkpt lat="43.21042" lon="6.60886">
        <ele>221.6</ele>
        <time>1970-01-01T02:02:46.000Z</time>
      </trkpt>
      <trkpt lat="43.21037" lon="6.60887">
        <ele>221.8</ele>
        <time>1970-01-01T02:02:48.000Z</time>
      </trkpt>
      <trkpt lat="43.21034" lon="6.60887">
        <ele>222</ele>
        <time>1970-01-01T02:02:49.000Z</time>
      </trkpt>
      <trkpt lat="43.2103" lon="6.60886">
        <ele>222.1</ele>
        <time>1970-01-01T02:02:50.000Z</time>
      </trkpt>
      <trkpt lat="43.21028" lon="6.60885">
        <ele>222.2</ele>
        <time>1970-01-01T02:02:51.000Z</time>
      </trkpt>
      <trkpt lat="43.21024" lon="6.60885">
        <ele>222.4</ele>
        <time>1970-01-01T02:02:52.000Z</time>
      </trkpt>
      <trkpt lat="43.21021" lon="6.60884">
        <ele>222.7</ele>
        <time>1970-01-01T02:02:53.000Z</time>
      </trkpt>
      <trkpt lat="43.21018" lon="6.60884">
        <ele>222.9</ele>
        <time>1970-01-01T02:02:54.000Z</time>
      </trkpt>
      <trkpt lat="43.21015" lon="6.60884">
        <ele>223</ele>
        <time>1970-01-01T02:02:55.000Z</time>
      </trkpt>
      <trkpt lat="43.21012" lon="6.60884">
        <ele>223.2</ele>
        <time>1970-01-01T02:02:56.000Z</time>
      </trkpt>
      <trkpt lat="43.21007" lon="6.60884">
        <ele>223.3</ele>
        <time>1970-01-01T02:02:58.000Z</time>
      </trkpt>
      <trkpt lat="43.21003" lon="6.60884">
        <ele>223.4</ele>
        <time>1970-01-01T02:02:59.000Z</time>
      </trkpt>
      <trkpt lat="43.21001" lon="6.60886">
        <ele>223.5</ele>
        <time>1970-01-01T02:03:00.000Z</time>
      </trkpt>
      <trkpt lat="43.20998" lon="6.60887">
        <ele>223.6</ele>
        <time>1970-01-01T02:03:01.000Z</time>
      </trkpt>
      <trkpt lat="43.20995" lon="6.60888">
        <ele>223.7</ele>
        <time>1970-01-01T02:03:02.000Z</time>
      </trkpt>
      <trkpt lat="43.20991" lon="6.60889">
        <ele>223.9</ele>
        <time>1970-01-01T02:03:03.000Z</time>
      </trkpt>
      <trkpt lat="43.20987" lon="6.6089">
        <ele>224.3</ele>
        <time>1970-01-01T02:03:05.000Z</time>
      </trkpt>
      <trkpt lat="43.20984" lon="6.60891">
        <ele>224.5</ele>
        <time>1970-01-01T02:03:06.000Z</time>
      </trkpt>
      <trkpt lat="43.20981" lon="6.60892">
        <ele>224.8</ele>
        <time>1970-01-01T02:03:07.000Z</time>
      </trkpt>
      <trkpt lat="43.20978" lon="6.60891">
        <ele>225</ele>
        <time>1970-01-01T02:03:08.000Z</time>
      </trkpt>
      <trkpt lat="43.20975" lon="6.60891">
        <ele>225.3</ele>
        <time>1970-01-01T02:03:09.000Z</time>
      </trkpt>
      <trkpt lat="43.20972" lon="6.60892">
        <ele>225.6</ele>
        <time>1970-01-01T02:03:10.000Z</time>
      </trkpt>
      <trkpt lat="43.20969" lon="6.60893">
        <ele>225.8</ele>
        <time>1970-01-01T02:03:11.000Z</time>
      </trkpt>
      <trkpt lat="43.20965" lon="6.60893">
        <ele>226</ele>
        <time>1970-01-01T02:03:12.000Z</time>
      </trkpt>
      <trkpt lat="43.20962" lon="6.60893">
        <ele>226.2</ele>
        <time>1970-01-01T02:03:13.000Z</time>
      </trkpt>
      <trkpt lat="43.20957" lon="6.60892">
        <ele>226.7</ele>
        <time>1970-01-01T02:03:15.000Z</time>
      </trkpt>
      <trkpt lat="43.20953" lon="6.60892">
        <ele>227</ele>
        <time>1970-01-01T02:03:17.000Z</time>
      </trkpt>
      <trkpt lat="43.2095" lon="6.60893">
        <ele>227.2</ele>
        <time>1970-01-01T02:03:19.000Z</time>
      </trkpt>
      <trkpt lat="43.20947" lon="6.60892">
        <ele>227.4</ele>
        <time>1970-01-01T02:03:20.000Z</time>
      </trkpt>
      <trkpt lat="43.20943" lon="6.60892">
        <ele>227.7</ele>
        <time>1970-01-01T02:03:22.000Z</time>
      </trkpt>
      <trkpt lat="43.20938" lon="6.60891">
        <ele>228</ele>
        <time>1970-01-01T02:03:24.000Z</time>
      </trkpt>
      <trkpt lat="43.20933" lon="6.60887">
        <ele>227.6</ele>
        <time>1970-01-01T02:03:26.000Z</time>
      </trkpt>
      <trkpt lat="43.20928" lon="6.60883">
        <ele>227.1</ele>
        <time>1970-01-01T02:03:28.000Z</time>
      </trkpt>
      <trkpt lat="43.20925" lon="6.60878">
        <ele>226.8</ele>
        <time>1970-01-01T02:03:30.000Z</time>
      </trkpt>
      <trkpt lat="43.20923" lon="6.60874">
        <ele>226.6</ele>
        <time>1970-01-01T02:03:31.000Z</time>
      </trkpt>
      <trkpt lat="43.20922" lon="6.6087">
        <ele>226.4</ele>
        <time>1970-01-01T02:03:32.000Z</time>
      </trkpt>
      <trkpt lat="43.20921" lon="6.60867">
        <ele>226.3</ele>
        <time>1970-01-01T02:03:33.000Z</time>
      </trkpt>
      <trkpt lat="43.20918" lon="6.60862">
        <ele>226.1</ele>
        <time>1970-01-01T02:03:35.000Z</time>
      </trkpt>
      <trkpt lat="43.20915" lon="6.60856">
        <ele>226</ele>
        <time>1970-01-01T02:03:37.000Z</time>
      </trkpt>
      <trkpt lat="43.20912" lon="6.6085">
        <ele>225.9</ele>
        <time>1970-01-01T02:03:39.000Z</time>
      </trkpt>
      <trkpt lat="43.20909" lon="6.60845">
        <ele>225.7</ele>
        <time>1970-01-01T02:03:41.000Z</time>
      </trkpt>
      <trkpt lat="43.20907" lon="6.60842">
        <ele>225.6</ele>
        <time>1970-01-01T02:03:42.000Z</time>
      </trkpt>
      <trkpt lat="43.20903" lon="6.60837">
        <ele>225.4</ele>
        <time>1970-01-01T02:03:44.000Z</time>
      </trkpt>
      <trkpt lat="43.20901" lon="6.60835">
        <ele>225.4</ele>
        <time>1970-01-01T02:03:45.000Z</time>
      </trkpt>
      <trkpt lat="43.20896" lon="6.6083">
        <ele>225.2</ele>
        <time>1970-01-01T02:03:47.000Z</time>
      </trkpt>
      <trkpt lat="43.20894" lon="6.60828">
        <ele>225.1</ele>
        <time>1970-01-01T02:03:48.000Z</time>
      </trkpt>
      <trkpt lat="43.2089" lon="6.60823">
        <ele>224.9</ele>
        <time>1970-01-01T02:03:50.000Z</time>
      </trkpt>
      <trkpt lat="43.20887" lon="6.60821">
        <ele>224.8</ele>
        <time>1970-01-01T02:03:51.000Z</time>
      </trkpt>
      <trkpt lat="43.20886" lon="6.60818">
        <ele>224.7</ele>
        <time>1970-01-01T02:03:52.000Z</time>
      </trkpt>
      <trkpt lat="43.20884" lon="6.60815">
        <ele>224.6</ele>
        <time>1970-01-01T02:03:53.000Z</time>
      </trkpt>
      <trkpt lat="43.20882" lon="6.60812">
        <ele>224.5</ele>
        <time>1970-01-01T02:03:54.000Z</time>
      </trkpt>
      <trkpt lat="43.20881" lon="6.60808">
        <ele>224.4</ele>
        <time>1970-01-01T02:03:55.000Z</time>
      </trkpt>
      <trkpt lat="43.20879" lon="6.60805">
        <ele>224.3</ele>
        <time>1970-01-01T02:03:56.000Z</time>
      </trkpt>
      <trkpt lat="43.20879" lon="6.60801">
        <ele>224.2</ele>
        <time>1970-01-01T02:03:57.000Z</time>
      </trkpt>
      <trkpt lat="43.20879" lon="6.60797">
        <ele>224.2</ele>
        <time>1970-01-01T02:03:58.000Z</time>
      </trkpt>
      <trkpt lat="43.20879" lon="6.60793">
        <ele>224.1</ele>
        <time>1970-01-01T02:03:59.000Z</time>
      </trkpt>
      <trkpt lat="43.20881" lon="6.60786">
        <ele>223.9</ele>
        <time>1970-01-01T02:04:01.000Z</time>
      </trkpt>
      <trkpt lat="43.20881" lon="6.60782">
        <ele>223.8</ele>
        <time>1970-01-01T02:04:02.000Z</time>
      </trkpt>
      <trkpt lat="43.20883" lon="6.60776">
        <ele>223.5</ele>
        <time>1970-01-01T02:04:04.000Z</time>
      </trkpt>
      <trkpt lat="43.20885" lon="6.6077">
        <ele>223.3</ele>
        <time>1970-01-01T02:04:06.000Z</time>
      </trkpt>
      <trkpt lat="43.20887" lon="6.60764">
        <ele>223.1</ele>
        <time>1970-01-01T02:04:08.000Z</time>
      </trkpt>
      <trkpt lat="43.2089" lon="6.60759">
        <ele>223</ele>
        <time>1970-01-01T02:04:10.000Z</time>
      </trkpt>
      <trkpt lat="43.20891" lon="6.60754">
        <ele>222.8</ele>
        <time>1970-01-01T02:04:12.000Z</time>
      </trkpt>
      <trkpt lat="43.20893" lon="6.60748">
        <ele>222.7</ele>
        <time>1970-01-01T02:04:14.000Z</time>
      </trkpt>
      <trkpt lat="43.20895" lon="6.60742">
        <ele>222.5</ele>
        <time>1970-01-01T02:04:16.000Z</time>
      </trkpt>
      <trkpt lat="43.20896" lon="6.60739">
        <ele>222.4</ele>
        <time>1970-01-01T02:04:17.000Z</time>
      </trkpt>
      <trkpt lat="43.20898" lon="6.60733">
        <ele>222.2</ele>
        <time>1970-01-01T02:04:19.000Z</time>
      </trkpt>
      <trkpt lat="43.209" lon="6.60727">
        <ele>221.9</ele>
        <time>1970-01-01T02:04:21.000Z</time>
      </trkpt>
      <trkpt lat="43.20902" lon="6.60722">
        <ele>221.7</ele>
        <time>1970-01-01T02:04:23.000Z</time>
      </trkpt>
      <trkpt lat="43.20904" lon="6.60716">
        <ele>221.6</ele>
        <time>1970-01-01T02:04:25.000Z</time>
      </trkpt>
      <trkpt lat="43.20906" lon="6.6071">
        <ele>221.4</ele>
        <time>1970-01-01T02:04:27.000Z</time>
      </trkpt>
      <trkpt lat="43.20907" lon="6.60704">
        <ele>221.3</ele>
        <time>1970-01-01T02:04:29.000Z</time>
      </trkpt>
      <trkpt lat="43.20908" lon="6.60699">
        <ele>221.2</ele>
        <time>1970-01-01T02:04:31.000Z</time>
      </trkpt>
      <trkpt lat="43.2091" lon="6.60693">
        <ele>221.1</ele>
        <time>1970-01-01T02:04:33.000Z</time>
      </trkpt>
      <trkpt lat="43.20913" lon="6.60688">
        <ele>221.6</ele>
        <time>1970-01-01T02:04:35.000Z</time>
      </trkpt>
      <trkpt lat="43.20916" lon="6.60684">
        <ele>222</ele>
        <time>1970-01-01T02:04:37.000Z</time>
      </trkpt>
      <trkpt lat="43.2092" lon="6.60681">
        <ele>222.4</ele>
        <time>1970-01-01T02:04:39.000Z</time>
      </trkpt>
      <trkpt lat="43.20924" lon="6.60677">
        <ele>223.2</ele>
        <time>1970-01-01T02:04:41.000Z</time>
      </trkpt>
      <trkpt lat="43.20928" lon="6.60675">
        <ele>223.8</ele>
        <time>1970-01-01T02:04:43.000Z</time>
      </trkpt>
      <trkpt lat="43.20932" lon="6.60674">
        <ele>224.3</ele>
        <time>1970-01-01T02:04:45.000Z</time>
      </trkpt>
      <trkpt lat="43.20937" lon="6.60671">
        <ele>224.9</ele>
        <time>1970-01-01T02:04:47.000Z</time>
      </trkpt>
      <trkpt lat="43.20941" lon="6.60671">
        <ele>225.6</ele>
        <time>1970-01-01T02:04:49.000Z</time>
      </trkpt>
      <trkpt lat="43.20945" lon="6.60668">
        <ele>226.2</ele>
        <time>1970-01-01T02:04:51.000Z</time>
      </trkpt>
      <trkpt lat="43.20949" lon="6.60666">
        <ele>226.8</ele>
        <time>1970-01-01T02:04:53.000Z</time>
      </trkpt>
      <trkpt lat="43.20954" lon="6.60664">
        <ele>227.2</ele>
        <time>1970-01-01T02:04:55.000Z</time>
      </trkpt>
      <trkpt lat="43.20957" lon="6.60664">
        <ele>227.5</ele>
        <time>1970-01-01T02:04:56.000Z</time>
      </trkpt>
      <trkpt lat="43.2096" lon="6.60662">
        <ele>227.8</ele>
        <time>1970-01-01T02:04:57.000Z</time>
      </trkpt>
      <trkpt lat="43.20963" lon="6.60661">
        <ele>228.2</ele>
        <time>1970-01-01T02:04:58.000Z</time>
      </trkpt>
      <trkpt lat="43.20965" lon="6.6066">
        <ele>228.6</ele>
        <time>1970-01-01T02:04:59.000Z</time>
      </trkpt>
      <trkpt lat="43.2097" lon="6.60657">
        <ele>229.3</ele>
        <time>1970-01-01T02:05:01.000Z</time>
      </trkpt>
      <trkpt lat="43.20973" lon="6.60655">
        <ele>229.7</ele>
        <time>1970-01-01T02:05:02.000Z</time>
      </trkpt>
      <trkpt lat="43.20976" lon="6.60653">
        <ele>230</ele>
        <time>1970-01-01T02:05:03.000Z</time>
      </trkpt>
      <trkpt lat="43.2098" lon="6.60649">
        <ele>230.4</ele>
        <time>1970-01-01T02:05:05.000Z</time>
      </trkpt>
      <trkpt lat="43.20985" lon="6.60646">
        <ele>230.9</ele>
        <time>1970-01-01T02:05:07.000Z</time>
      </trkpt>
      <trkpt lat="43.20989" lon="6.60643">
        <ele>231.5</ele>
        <time>1970-01-01T02:05:09.000Z</time>
      </trkpt>
      <trkpt lat="43.20991" lon="6.60641">
        <ele>231.9</ele>
        <time>1970-01-01T02:05:10.000Z</time>
      </trkpt>
      <trkpt lat="43.20994" lon="6.60639">
        <ele>232.3</ele>
        <time>1970-01-01T02:05:11.000Z</time>
      </trkpt>
      <trkpt lat="43.20998" lon="6.60635">
        <ele>232.9</ele>
        <time>1970-01-01T02:05:13.000Z</time>
      </trkpt>
      <trkpt lat="43.21003" lon="6.60632">
        <ele>233.4</ele>
        <time>1970-01-01T02:05:15.000Z</time>
      </trkpt>
      <trkpt lat="43.21005" lon="6.60629">
        <ele>233.6</ele>
        <time>1970-01-01T02:05:16.000Z</time>
      </trkpt>
      <trkpt lat="43.21007" lon="6.60626">
        <ele>233.8</ele>
        <time>1970-01-01T02:05:17.000Z</time>
      </trkpt>
      <trkpt lat="43.21009" lon="6.60623">
        <ele>233.9</ele>
        <time>1970-01-01T02:05:18.000Z</time>
      </trkpt>
      <trkpt lat="43.21012" lon="6.60621">
        <ele>234.2</ele>
        <time>1970-01-01T02:05:19.000Z</time>
      </trkpt>
      <trkpt lat="43.21014" lon="6.60618">
        <ele>234.7</ele>
        <time>1970-01-01T02:05:20.000Z</time>
      </trkpt>
      <trkpt lat="43.21016" lon="6.60615">
        <ele>235.1</ele>
        <time>1970-01-01T02:05:21.000Z</time>
      </trkpt>
      <trkpt lat="43.21019" lon="6.60612">
        <ele>235.5</ele>
        <time>1970-01-01T02:05:22.000Z</time>
      </trkpt>
      <trkpt lat="43.21021" lon="6.6061">
        <ele>235.9</ele>
        <time>1970-01-01T02:05:23.000Z</time>
      </trkpt>
      <trkpt lat="43.21024" lon="6.60607">
        <ele>236.1</ele>
        <time>1970-01-01T02:05:24.000Z</time>
      </trkpt>
      <trkpt lat="43.21026" lon="6.60605">
        <ele>236.3</ele>
        <time>1970-01-01T02:05:25.000Z</time>
      </trkpt>
      <trkpt lat="43.21029" lon="6.60603">
        <ele>236.5</ele>
        <time>1970-01-01T02:05:26.000Z</time>
      </trkpt>
      <trkpt lat="43.21031" lon="6.606">
        <ele>236.6</ele>
        <time>1970-01-01T02:05:27.000Z</time>
      </trkpt>
      <trkpt lat="43.21033" lon="6.60598">
        <ele>236.9</ele>
        <time>1970-01-01T02:05:28.000Z</time>
      </trkpt>
      <trkpt lat="43.21036" lon="6.60595">
        <ele>237.2</ele>
        <time>1970-01-01T02:05:29.000Z</time>
      </trkpt>
      <trkpt lat="43.21038" lon="6.60593">
        <ele>237.6</ele>
        <time>1970-01-01T02:05:30.000Z</time>
      </trkpt>
      <trkpt lat="43.21042" lon="6.60589">
        <ele>238.2</ele>
        <time>1970-01-01T02:05:32.000Z</time>
      </trkpt>
      <trkpt lat="43.21045" lon="6.60587">
        <ele>238.6</ele>
        <time>1970-01-01T02:05:33.000Z</time>
      </trkpt>
      <trkpt lat="43.21047" lon="6.60585">
        <ele>238.8</ele>
        <time>1970-01-01T02:05:34.000Z</time>
      </trkpt>
      <trkpt lat="43.2105" lon="6.60582">
        <ele>239.1</ele>
        <time>1970-01-01T02:05:35.000Z</time>
      </trkpt>
      <trkpt lat="43.21052" lon="6.6058">
        <ele>239.4</ele>
        <time>1970-01-01T02:05:36.000Z</time>
      </trkpt>
      <trkpt lat="43.21055" lon="6.60577">
        <ele>239.7</ele>
        <time>1970-01-01T02:05:37.000Z</time>
      </trkpt>
      <trkpt lat="43.21057" lon="6.60575">
        <ele>240</ele>
        <time>1970-01-01T02:05:38.000Z</time>
      </trkpt>
      <trkpt lat="43.2106" lon="6.60574">
        <ele>240.3</ele>
        <time>1970-01-01T02:05:39.000Z</time>
      </trkpt>
      <trkpt lat="43.21065" lon="6.60571">
        <ele>240.9</ele>
        <time>1970-01-01T02:05:41.000Z</time>
      </trkpt>
      <trkpt lat="43.21068" lon="6.60568">
        <ele>241.3</ele>
        <time>1970-01-01T02:05:42.000Z</time>
      </trkpt>
      <trkpt lat="43.21071" lon="6.60566">
        <ele>241.6</ele>
        <time>1970-01-01T02:05:43.000Z</time>
      </trkpt>
      <trkpt lat="43.21074" lon="6.60565">
        <ele>241.8</ele>
        <time>1970-01-01T02:05:44.000Z</time>
      </trkpt>
      <trkpt lat="43.21078" lon="6.60563">
        <ele>242.1</ele>
        <time>1970-01-01T02:05:45.000Z</time>
      </trkpt>
      <trkpt lat="43.21081" lon="6.60563">
        <ele>242.2</ele>
        <time>1970-01-01T02:05:46.000Z</time>
      </trkpt>
      <trkpt lat="43.21084" lon="6.60564">
        <ele>242.4</ele>
        <time>1970-01-01T02:05:47.000Z</time>
      </trkpt>
      <trkpt lat="43.21087" lon="6.60565">
        <ele>242.6</ele>
        <time>1970-01-01T02:05:48.000Z</time>
      </trkpt>
      <trkpt lat="43.2109" lon="6.60567">
        <ele>242.7</ele>
        <time>1970-01-01T02:05:49.000Z</time>
      </trkpt>
      <trkpt lat="43.21092" lon="6.60569">
        <ele>243</ele>
        <time>1970-01-01T02:05:50.000Z</time>
      </trkpt>
      <trkpt lat="43.21095" lon="6.60572">
        <ele>243.2</ele>
        <time>1970-01-01T02:05:51.000Z</time>
      </trkpt>
      <trkpt lat="43.21097" lon="6.60575">
        <ele>243.5</ele>
        <time>1970-01-01T02:05:52.000Z</time>
      </trkpt>
      <trkpt lat="43.21099" lon="6.60578">
        <ele>243.7</ele>
        <time>1970-01-01T02:05:53.000Z</time>
      </trkpt>
      <trkpt lat="43.21101" lon="6.60581">
        <ele>244</ele>
        <time>1970-01-01T02:05:54.000Z</time>
      </trkpt>
      <trkpt lat="43.21103" lon="6.60584">
        <ele>244.1</ele>
        <time>1970-01-01T02:05:55.000Z</time>
      </trkpt>
      <trkpt lat="43.21106" lon="6.60587">
        <ele>244.3</ele>
        <time>1970-01-01T02:05:56.000Z</time>
      </trkpt>
      <trkpt lat="43.21108" lon="6.6059">
        <ele>244.4</ele>
        <time>1970-01-01T02:05:57.000Z</time>
      </trkpt>
      <trkpt lat="43.2111" lon="6.60593">
        <ele>244.5</ele>
        <time>1970-01-01T02:05:58.000Z</time>
      </trkpt>
      <trkpt lat="43.21113" lon="6.60597">
        <ele>244.6</ele>
        <time>1970-01-01T02:05:59.000Z</time>
      </trkpt>
      <trkpt lat="43.21116" lon="6.606">
        <ele>244.7</ele>
        <time>1970-01-01T02:06:00.000Z</time>
      </trkpt>
      <trkpt lat="43.21118" lon="6.60604">
        <ele>244.7</ele>
        <time>1970-01-01T02:06:01.000Z</time>
      </trkpt>
      <trkpt lat="43.21121" lon="6.60607">
        <ele>244.7</ele>
        <time>1970-01-01T02:06:02.000Z</time>
      </trkpt>
      <trkpt lat="43.21123" lon="6.60611">
        <ele>244.7</ele>
        <time>1970-01-01T02:06:03.000Z</time>
      </trkpt>
      <trkpt lat="43.21125" lon="6.60615">
        <ele>244.8</ele>
        <time>1970-01-01T02:06:04.000Z</time>
      </trkpt>
      <trkpt lat="43.21128" lon="6.60618">
        <ele>244.8</ele>
        <time>1970-01-01T02:06:05.000Z</time>
      </trkpt>
      <trkpt lat="43.21131" lon="6.60621">
        <ele>244.8</ele>
        <time>1970-01-01T02:06:06.000Z</time>
      </trkpt>
      <trkpt lat="43.21134" lon="6.60625">
        <ele>244.9</ele>
        <time>1970-01-01T02:06:07.000Z</time>
      </trkpt>
      <trkpt lat="43.21136" lon="6.60628">
        <ele>244.9</ele>
        <time>1970-01-01T02:06:08.000Z</time>
      </trkpt>
      <trkpt lat="43.21139" lon="6.60631">
        <ele>244.9</ele>
        <time>1970-01-01T02:06:09.000Z</time>
      </trkpt>
      <trkpt lat="43.21143" lon="6.60635">
        <ele>245</ele>
        <time>1970-01-01T02:06:10.000Z</time>
      </trkpt>
      <trkpt lat="43.21146" lon="6.6064">
        <ele>245</ele>
        <time>1970-01-01T02:06:11.000Z</time>
      </trkpt>
      <trkpt lat="43.21149" lon="6.60644">
        <ele>245.1</ele>
        <time>1970-01-01T02:06:12.000Z</time>
      </trkpt>
      <trkpt lat="43.21153" lon="6.60647">
        <ele>245.1</ele>
        <time>1970-01-01T02:06:13.000Z</time>
      </trkpt>
      <trkpt lat="43.21157" lon="6.6065">
        <ele>245.1</ele>
        <time>1970-01-01T02:06:14.000Z</time>
      </trkpt>
      <trkpt lat="43.21161" lon="6.60651">
        <ele>245.2</ele>
        <time>1970-01-01T02:06:15.000Z</time>
      </trkpt>
      <trkpt lat="43.21166" lon="6.60652">
        <ele>245.2</ele>
        <time>1970-01-01T02:06:16.000Z</time>
      </trkpt>
      <trkpt lat="43.2117" lon="6.60651">
        <ele>245.3</ele>
        <time>1970-01-01T02:06:17.000Z</time>
      </trkpt>
      <trkpt lat="43.21175" lon="6.6065">
        <ele>245.3</ele>
        <time>1970-01-01T02:06:18.000Z</time>
      </trkpt>
      <trkpt lat="43.21179" lon="6.60649">
        <ele>245.4</ele>
        <time>1970-01-01T02:06:19.000Z</time>
      </trkpt>
      <trkpt lat="43.21183" lon="6.60648">
        <ele>245.4</ele>
        <time>1970-01-01T02:06:20.000Z</time>
      </trkpt>
      <trkpt lat="43.21186" lon="6.60647">
        <ele>245.4</ele>
        <time>1970-01-01T02:06:21.000Z</time>
      </trkpt>
      <trkpt lat="43.2119" lon="6.60646">
        <ele>245.5</ele>
        <time>1970-01-01T02:06:22.000Z</time>
      </trkpt>
      <trkpt lat="43.21194" lon="6.60645">
        <ele>245.5</ele>
        <time>1970-01-01T02:06:23.000Z</time>
      </trkpt>
      <trkpt lat="43.21197" lon="6.60644">
        <ele>245.6</ele>
        <time>1970-01-01T02:06:24.000Z</time>
      </trkpt>
      <trkpt lat="43.21201" lon="6.60642">
        <ele>245.6</ele>
        <time>1970-01-01T02:06:25.000Z</time>
      </trkpt>
      <trkpt lat="43.21204" lon="6.60641">
        <ele>245.7</ele>
        <time>1970-01-01T02:06:26.000Z</time>
      </trkpt>
      <trkpt lat="43.21208" lon="6.60639">
        <ele>245.7</ele>
        <time>1970-01-01T02:06:27.000Z</time>
      </trkpt>
      <trkpt lat="43.21212" lon="6.60637">
        <ele>245.8</ele>
        <time>1970-01-01T02:06:28.000Z</time>
      </trkpt>
      <trkpt lat="43.21215" lon="6.60635">
        <ele>245.9</ele>
        <time>1970-01-01T02:06:29.000Z</time>
      </trkpt>
      <trkpt lat="43.21219" lon="6.60632">
        <ele>245.9</ele>
        <time>1970-01-01T02:06:30.000Z</time>
      </trkpt>
      <trkpt lat="43.21222" lon="6.60628">
        <ele>246</ele>
        <time>1970-01-01T02:06:31.000Z</time>
      </trkpt>
      <trkpt lat="43.21225" lon="6.60623">
        <ele>246.1</ele>
        <time>1970-01-01T02:06:32.000Z</time>
      </trkpt>
      <trkpt lat="43.21227" lon="6.60618">
        <ele>246.2</ele>
        <time>1970-01-01T02:06:33.000Z</time>
      </trkpt>
      <trkpt lat="43.21228" lon="6.60613">
        <ele>246.3</ele>
        <time>1970-01-01T02:06:34.000Z</time>
      </trkpt>
      <trkpt lat="43.21229" lon="6.60607">
        <ele>246.4</ele>
        <time>1970-01-01T02:06:35.000Z</time>
      </trkpt>
      <trkpt lat="43.2123" lon="6.60602">
        <ele>246.5</ele>
        <time>1970-01-01T02:06:36.000Z</time>
      </trkpt>
      <trkpt lat="43.21231" lon="6.60597">
        <ele>246.6</ele>
        <time>1970-01-01T02:06:37.000Z</time>
      </trkpt>
      <trkpt lat="43.21232" lon="6.6059">
        <ele>246.8</ele>
        <time>1970-01-01T02:06:38.000Z</time>
      </trkpt>
      <trkpt lat="43.21233" lon="6.60586">
        <ele>246.9</ele>
        <time>1970-01-01T02:06:39.000Z</time>
      </trkpt>
      <trkpt lat="43.21234" lon="6.60581">
        <ele>247</ele>
        <time>1970-01-01T02:06:40.000Z</time>
      </trkpt>
      <trkpt lat="43.21235" lon="6.60574">
        <ele>247.2</ele>
        <time>1970-01-01T02:06:41.000Z</time>
      </trkpt>
      <trkpt lat="43.21235" lon="6.60569">
        <ele>247.5</ele>
        <time>1970-01-01T02:06:42.000Z</time>
      </trkpt>
      <trkpt lat="43.21237" lon="6.60563">
        <ele>247.9</ele>
        <time>1970-01-01T02:06:43.000Z</time>
      </trkpt>
      <trkpt lat="43.21238" lon="6.60558">
        <ele>248.2</ele>
        <time>1970-01-01T02:06:44.000Z</time>
      </trkpt>
      <trkpt lat="43.21239" lon="6.60553">
        <ele>248.6</ele>
        <time>1970-01-01T02:06:45.000Z</time>
      </trkpt>
      <trkpt lat="43.2124" lon="6.60548">
        <ele>249</ele>
        <time>1970-01-01T02:06:46.000Z</time>
      </trkpt>
      <trkpt lat="43.21241" lon="6.60544">
        <ele>249.3</ele>
        <time>1970-01-01T02:06:47.000Z</time>
      </trkpt>
      <trkpt lat="43.21243" lon="6.6054">
        <ele>249.6</ele>
        <time>1970-01-01T02:06:48.000Z</time>
      </trkpt>
      <trkpt lat="43.21244" lon="6.60536">
        <ele>249.9</ele>
        <time>1970-01-01T02:06:49.000Z</time>
      </trkpt>
      <trkpt lat="43.21246" lon="6.60533">
        <ele>250.3</ele>
        <time>1970-01-01T02:06:50.000Z</time>
      </trkpt>
      <trkpt lat="43.21249" lon="6.6053">
        <ele>250.6</ele>
        <time>1970-01-01T02:06:51.000Z</time>
      </trkpt>
      <trkpt lat="43.21251" lon="6.60528">
        <ele>251</ele>
        <time>1970-01-01T02:06:52.000Z</time>
      </trkpt>
      <trkpt lat="43.21255" lon="6.60527">
        <ele>251.3</ele>
        <time>1970-01-01T02:06:53.000Z</time>
      </trkpt>
      <trkpt lat="43.21259" lon="6.60527">
        <ele>251.8</ele>
        <time>1970-01-01T02:06:54.000Z</time>
      </trkpt>
      <trkpt lat="43.21262" lon="6.60526">
        <ele>252.1</ele>
        <time>1970-01-01T02:06:55.000Z</time>
      </trkpt>
      <trkpt lat="43.21265" lon="6.60527">
        <ele>252.4</ele>
        <time>1970-01-01T02:06:56.000Z</time>
      </trkpt>
      <trkpt lat="43.21268" lon="6.60528">
        <ele>252.8</ele>
        <time>1970-01-01T02:06:57.000Z</time>
      </trkpt>
      <trkpt lat="43.21272" lon="6.60529">
        <ele>253.2</ele>
        <time>1970-01-01T02:06:58.000Z</time>
      </trkpt>
      <trkpt lat="43.21275" lon="6.6053">
        <ele>253.6</ele>
        <time>1970-01-01T02:06:59.000Z</time>
      </trkpt>
      <trkpt lat="43.21279" lon="6.60532">
        <ele>254</ele>
        <time>1970-01-01T02:07:00.000Z</time>
      </trkpt>
      <trkpt lat="43.21283" lon="6.60534">
        <ele>254.3</ele>
        <time>1970-01-01T02:07:01.000Z</time>
      </trkpt>
      <trkpt lat="43.21286" lon="6.60536">
        <ele>254.6</ele>
        <time>1970-01-01T02:07:02.000Z</time>
      </trkpt>
      <trkpt lat="43.2129" lon="6.60537">
        <ele>254.8</ele>
        <time>1970-01-01T02:07:03.000Z</time>
      </trkpt>
      <trkpt lat="43.21294" lon="6.60539">
        <ele>255</ele>
        <time>1970-01-01T02:07:04.000Z</time>
      </trkpt>
      <trkpt lat="43.21297" lon="6.60541">
        <ele>255.2</ele>
        <time>1970-01-01T02:07:05.000Z</time>
      </trkpt>
      <trkpt lat="43.213" lon="6.60542">
        <ele>255.3</ele>
        <time>1970-01-01T02:07:06.000Z</time>
      </trkpt>
      <trkpt lat="43.21304" lon="6.60544">
        <ele>255.5</ele>
        <time>1970-01-01T02:07:07.000Z</time>
      </trkpt>
      <trkpt lat="43.21307" lon="6.60545">
        <ele>255.7</ele>
        <time>1970-01-01T02:07:08.000Z</time>
      </trkpt>
      <trkpt lat="43.2131" lon="6.60546">
        <ele>255.8</ele>
        <time>1970-01-01T02:07:09.000Z</time>
      </trkpt>
      <trkpt lat="43.21314" lon="6.60546">
        <ele>256</ele>
        <time>1970-01-01T02:07:10.000Z</time>
      </trkpt>
      <trkpt lat="43.21317" lon="6.60546">
        <ele>256.3</ele>
        <time>1970-01-01T02:07:11.000Z</time>
      </trkpt>
      <trkpt lat="43.21321" lon="6.60546">
        <ele>256.5</ele>
        <time>1970-01-01T02:07:12.000Z</time>
      </trkpt>
      <trkpt lat="43.21323" lon="6.60546">
        <ele>256.8</ele>
        <time>1970-01-01T02:07:13.000Z</time>
      </trkpt>
      <trkpt lat="43.21328" lon="6.60545">
        <ele>257.2</ele>
        <time>1970-01-01T02:07:15.000Z</time>
      </trkpt>
      <trkpt lat="43.21334" lon="6.60544">
        <ele>257.7</ele>
        <time>1970-01-01T02:07:17.000Z</time>
      </trkpt>
      <trkpt lat="43.21339" lon="6.60543">
        <ele>258.2</ele>
        <time>1970-01-01T02:07:19.000Z</time>
      </trkpt>
      <trkpt lat="43.21342" lon="6.60542">
        <ele>258.4</ele>
        <time>1970-01-01T02:07:20.000Z</time>
      </trkpt>
      <trkpt lat="43.21345" lon="6.60541">
        <ele>258.6</ele>
        <time>1970-01-01T02:07:21.000Z</time>
      </trkpt>
      <trkpt lat="43.21347" lon="6.6054">
        <ele>258.8</ele>
        <time>1970-01-01T02:07:22.000Z</time>
      </trkpt>
      <trkpt lat="43.2135" lon="6.60538">
        <ele>259</ele>
        <time>1970-01-01T02:07:23.000Z</time>
      </trkpt>
      <trkpt lat="43.21356" lon="6.60537">
        <ele>259.3</ele>
        <time>1970-01-01T02:07:25.000Z</time>
      </trkpt>
      <trkpt lat="43.21358" lon="6.60537">
        <ele>259.5</ele>
        <time>1970-01-01T02:07:27.000Z</time>
      </trkpt>
      <trkpt lat="43.21362" lon="6.60534">
        <ele>259.9</ele>
        <time>1970-01-01T02:07:29.000Z</time>
      </trkpt>
      <trkpt lat="43.21364" lon="6.60529">
        <ele>260.5</ele>
        <time>1970-01-01T02:07:31.000Z</time>
      </trkpt>
      <trkpt lat="43.21365" lon="6.60524">
        <ele>260.9</ele>
        <time>1970-01-01T02:07:32.000Z</time>
      </trkpt>
      <trkpt lat="43.21366" lon="6.60519">
        <ele>261.4</ele>
        <time>1970-01-01T02:07:33.000Z</time>
      </trkpt>
      <trkpt lat="43.21367" lon="6.60515">
        <ele>261.7</ele>
        <time>1970-01-01T02:07:34.000Z</time>
      </trkpt>
      <trkpt lat="43.21368" lon="6.60511">
        <ele>262</ele>
        <time>1970-01-01T02:07:35.000Z</time>
      </trkpt>
      <trkpt lat="43.21367" lon="6.60507">
        <ele>262</ele>
        <time>1970-01-01T02:07:37.000Z</time>
      </trkpt>
      <trkpt lat="43.21365" lon="6.60505">
        <ele>262.2</ele>
        <time>1970-01-01T02:09:48.000Z</time>
      </trkpt>
      <trkpt lat="43.21361" lon="6.60505">
        <ele>262.4</ele>
        <time>1970-01-01T02:09:51.000Z</time>
      </trkpt>
      <trkpt lat="43.21363" lon="6.60507">
        <ele>262.6</ele>
        <time>1970-01-01T02:10:42.000Z</time>
      </trkpt>
      <trkpt lat="43.21361" lon="6.6051">
        <ele>262.8</ele>
        <time>1970-01-01T02:10:44.000Z</time>
      </trkpt>
      <trkpt lat="43.21358" lon="6.60513">
        <ele>262.7</ele>
        <time>1970-01-01T02:10:46.000Z</time>
      </trkpt>
      <trkpt lat="43.21361" lon="6.60515">
        <ele>262.6</ele>
        <time>1970-01-01T02:11:37.000Z</time>
      </trkpt>
      <trkpt lat="43.21362" lon="6.60511">
        <ele>262.4</ele>
        <time>1970-01-01T02:12:25.000Z</time>
      </trkpt>
      <trkpt lat="43.21365" lon="6.60509">
        <ele>262.3</ele>
        <time>1970-01-01T02:12:27.000Z</time>
      </trkpt>
      <trkpt lat="43.21367" lon="6.60507">
        <ele>262.1</ele>
        <time>1970-01-01T02:12:32.000Z</time>
      </trkpt>
      <trkpt lat="43.21369" lon="6.60511">
        <ele>261.7</ele>
        <time>1970-01-01T02:13:03.000Z</time>
      </trkpt>
      <trkpt lat="43.21367" lon="6.60514">
        <ele>261.3</ele>
        <time>1970-01-01T02:13:42.000Z</time>
      </trkpt>
      <trkpt lat="43.21364" lon="6.60518">
        <ele>260.9</ele>
        <time>1970-01-01T02:13:46.000Z</time>
      </trkpt>
      <trkpt lat="43.21365" lon="6.60523">
        <ele>260.9</ele>
        <time>1970-01-01T02:13:49.000Z</time>
      </trkpt>
      <trkpt lat="43.21366" lon="6.60528">
        <ele>260.9</ele>
        <time>1970-01-01T02:13:51.000Z</time>
      </trkpt>
      <trkpt lat="43.21367" lon="6.60532">
        <ele>261</ele>
        <time>1970-01-01T02:13:53.000Z</time>
      </trkpt>
      <trkpt lat="43.2137" lon="6.60537">
        <ele>261.4</ele>
        <time>1970-01-01T02:13:55.000Z</time>
      </trkpt>
      <trkpt lat="43.21373" lon="6.60542">
        <ele>262</ele>
        <time>1970-01-01T02:13:57.000Z</time>
      </trkpt>
      <trkpt lat="43.21375" lon="6.60544">
        <ele>262.1</ele>
        <time>1970-01-01T02:13:58.000Z</time>
      </trkpt>
      <trkpt lat="43.2138" lon="6.60548">
        <ele>262.4</ele>
        <time>1970-01-01T02:14:00.000Z</time>
      </trkpt>
      <trkpt lat="43.21385" lon="6.6055">
        <ele>262.7</ele>
        <time>1970-01-01T02:14:02.000Z</time>
      </trkpt>
      <trkpt lat="43.21389" lon="6.60551">
        <ele>263.1</ele>
        <time>1970-01-01T02:14:04.000Z</time>
      </trkpt>
      <trkpt lat="43.21393" lon="6.60551">
        <ele>263.5</ele>
        <time>1970-01-01T02:14:06.000Z</time>
      </trkpt>
      <trkpt lat="43.21399" lon="6.60551">
        <ele>263.8</ele>
        <time>1970-01-01T02:14:08.000Z</time>
      </trkpt>
      <trkpt lat="43.21403" lon="6.6055">
        <ele>263.9</ele>
        <time>1970-01-01T02:14:10.000Z</time>
      </trkpt>
      <trkpt lat="43.21409" lon="6.60549">
        <ele>264</ele>
        <time>1970-01-01T02:14:12.000Z</time>
      </trkpt>
      <trkpt lat="43.21414" lon="6.60548">
        <ele>264</ele>
        <time>1970-01-01T02:14:14.000Z</time>
      </trkpt>
      <trkpt lat="43.21416" lon="6.60546">
        <ele>264.1</ele>
        <time>1970-01-01T02:14:15.000Z</time>
      </trkpt>
      <trkpt lat="43.21419" lon="6.60545">
        <ele>264.1</ele>
        <time>1970-01-01T02:14:16.000Z</time>
      </trkpt>
      <trkpt lat="43.21422" lon="6.60543">
        <ele>264.1</ele>
        <time>1970-01-01T02:14:17.000Z</time>
      </trkpt>
      <trkpt lat="43.21425" lon="6.60543">
        <ele>264.2</ele>
        <time>1970-01-01T02:14:18.000Z</time>
      </trkpt>
      <trkpt lat="43.21428" lon="6.60541">
        <ele>264.2</ele>
        <time>1970-01-01T02:14:19.000Z</time>
      </trkpt>
      <trkpt lat="43.2143" lon="6.60539">
        <ele>264.3</ele>
        <time>1970-01-01T02:14:20.000Z</time>
      </trkpt>
      <trkpt lat="43.21433" lon="6.60538">
        <ele>264.3</ele>
        <time>1970-01-01T02:14:21.000Z</time>
      </trkpt>
      <trkpt lat="43.21436" lon="6.60537">
        <ele>264.3</ele>
        <time>1970-01-01T02:14:22.000Z</time>
      </trkpt>
      <trkpt lat="43.21439" lon="6.60536">
        <ele>264.4</ele>
        <time>1970-01-01T02:14:23.000Z</time>
      </trkpt>
      <trkpt lat="43.21442" lon="6.60535">
        <ele>264.4</ele>
        <time>1970-01-01T02:14:24.000Z</time>
      </trkpt>
      <trkpt lat="43.21445" lon="6.60533">
        <ele>264.4</ele>
        <time>1970-01-01T02:14:25.000Z</time>
      </trkpt>
      <trkpt lat="43.21447" lon="6.60531">
        <ele>264.5</ele>
        <time>1970-01-01T02:14:26.000Z</time>
      </trkpt>
      <trkpt lat="43.2145" lon="6.6053">
        <ele>264.5</ele>
        <time>1970-01-01T02:14:27.000Z</time>
      </trkpt>
      <trkpt lat="43.21452" lon="6.60528">
        <ele>264.5</ele>
        <time>1970-01-01T02:14:28.000Z</time>
      </trkpt>
      <trkpt lat="43.21456" lon="6.60527">
        <ele>264.6</ele>
        <time>1970-01-01T02:14:29.000Z</time>
      </trkpt>
      <trkpt lat="43.21459" lon="6.60525">
        <ele>264.6</ele>
        <time>1970-01-01T02:14:30.000Z</time>
      </trkpt>
      <trkpt lat="43.21462" lon="6.60524">
        <ele>264.7</ele>
        <time>1970-01-01T02:14:31.000Z</time>
      </trkpt>
      <trkpt lat="43.21464" lon="6.60522">
        <ele>264.7</ele>
        <time>1970-01-01T02:14:32.000Z</time>
      </trkpt>
      <trkpt lat="43.21467" lon="6.6052">
        <ele>264.8</ele>
        <time>1970-01-01T02:14:33.000Z</time>
      </trkpt>
      <trkpt lat="43.21469" lon="6.60518">
        <ele>264.8</ele>
        <time>1970-01-01T02:14:34.000Z</time>
      </trkpt>
      <trkpt lat="43.21474" lon="6.60515">
        <ele>265</ele>
        <time>1970-01-01T02:14:36.000Z</time>
      </trkpt>
      <trkpt lat="43.21478" lon="6.60512">
        <ele>266</ele>
        <time>1970-01-01T02:14:38.000Z</time>
      </trkpt>
      <trkpt lat="43.21483" lon="6.60509">
        <ele>266.9</ele>
        <time>1970-01-01T02:14:40.000Z</time>
      </trkpt>
      <trkpt lat="43.21488" lon="6.60506">
        <ele>268</ele>
        <time>1970-01-01T02:14:42.000Z</time>
      </trkpt>
      <trkpt lat="43.21491" lon="6.60505">
        <ele>268.4</ele>
        <time>1970-01-01T02:14:43.000Z</time>
      </trkpt>
      <trkpt lat="43.21496" lon="6.60503">
        <ele>269.3</ele>
        <time>1970-01-01T02:14:45.000Z</time>
      </trkpt>
      <trkpt lat="43.21501" lon="6.60504">
        <ele>269.9</ele>
        <time>1970-01-01T02:14:47.000Z</time>
      </trkpt>
      <trkpt lat="43.21505" lon="6.60505">
        <ele>270.4</ele>
        <time>1970-01-01T02:14:49.000Z</time>
      </trkpt>
      <trkpt lat="43.2151" lon="6.60506">
        <ele>271</ele>
        <time>1970-01-01T02:14:51.000Z</time>
      </trkpt>
      <trkpt lat="43.21513" lon="6.60506">
        <ele>271.3</ele>
        <time>1970-01-01T02:14:52.000Z</time>
      </trkpt>
      <trkpt lat="43.21515" lon="6.60507">
        <ele>271.6</ele>
        <time>1970-01-01T02:14:53.000Z</time>
      </trkpt>
      <trkpt lat="43.21519" lon="6.60509">
        <ele>272.1</ele>
        <time>1970-01-01T02:14:55.000Z</time>
      </trkpt>
      <trkpt lat="43.21524" lon="6.60511">
        <ele>272.6</ele>
        <time>1970-01-01T02:14:57.000Z</time>
      </trkpt>
      <trkpt lat="43.21529" lon="6.60513">
        <ele>273.1</ele>
        <time>1970-01-01T02:14:59.000Z</time>
      </trkpt>
      <trkpt lat="43.21533" lon="6.60514">
        <ele>273.5</ele>
        <time>1970-01-01T02:15:01.000Z</time>
      </trkpt>
      <trkpt lat="43.21538" lon="6.60516">
        <ele>274</ele>
        <time>1970-01-01T02:15:03.000Z</time>
      </trkpt>
      <trkpt lat="43.21542" lon="6.60518">
        <ele>274.5</ele>
        <time>1970-01-01T02:15:05.000Z</time>
      </trkpt>
      <trkpt lat="43.21546" lon="6.60519">
        <ele>274.9</ele>
        <time>1970-01-01T02:15:07.000Z</time>
      </trkpt>
      <trkpt lat="43.21549" lon="6.60519">
        <ele>275.3</ele>
        <time>1970-01-01T02:15:09.000Z</time>
      </trkpt>
      <trkpt lat="43.21553" lon="6.60517">
        <ele>275.6</ele>
        <time>1970-01-01T02:15:11.000Z</time>
      </trkpt>
      <trkpt lat="43.21557" lon="6.60516">
        <ele>276</ele>
        <time>1970-01-01T02:15:13.000Z</time>
      </trkpt>
      <trkpt lat="43.2156" lon="6.60513">
        <ele>276.4</ele>
        <time>1970-01-01T02:15:15.000Z</time>
      </trkpt>
      <trkpt lat="43.21565" lon="6.60509">
        <ele>276.8</ele>
        <time>1970-01-01T02:15:17.000Z</time>
      </trkpt>
      <trkpt lat="43.21567" lon="6.60506">
        <ele>277.1</ele>
        <time>1970-01-01T02:15:18.000Z</time>
      </trkpt>
      <trkpt lat="43.2157" lon="6.60503">
        <ele>277.4</ele>
        <time>1970-01-01T02:15:19.000Z</time>
      </trkpt>
      <trkpt lat="43.21572" lon="6.60499">
        <ele>277.7</ele>
        <time>1970-01-01T02:15:20.000Z</time>
      </trkpt>
      <trkpt lat="43.21573" lon="6.60495">
        <ele>277.9</ele>
        <time>1970-01-01T02:15:21.000Z</time>
      </trkpt>
      <trkpt lat="43.21575" lon="6.60492">
        <ele>278.1</ele>
        <time>1970-01-01T02:15:22.000Z</time>
      </trkpt>
      <trkpt lat="43.21578" lon="6.60487">
        <ele>278.4</ele>
        <time>1970-01-01T02:15:24.000Z</time>
      </trkpt>
      <trkpt lat="43.21581" lon="6.60482">
        <ele>278.8</ele>
        <time>1970-01-01T02:15:26.000Z</time>
      </trkpt>
      <trkpt lat="43.21584" lon="6.60475">
        <ele>279.1</ele>
        <time>1970-01-01T02:15:28.000Z</time>
      </trkpt>
      <trkpt lat="43.21586" lon="6.60472">
        <ele>279.3</ele>
        <time>1970-01-01T02:15:29.000Z</time>
      </trkpt>
      <trkpt lat="43.21588" lon="6.60469">
        <ele>279.4</ele>
        <time>1970-01-01T02:15:30.000Z</time>
      </trkpt>
      <trkpt lat="43.2159" lon="6.60466">
        <ele>279.6</ele>
        <time>1970-01-01T02:15:31.000Z</time>
      </trkpt>
      <trkpt lat="43.21593" lon="6.6046">
        <ele>279.8</ele>
        <time>1970-01-01T02:15:33.000Z</time>
      </trkpt>
      <trkpt lat="43.21594" lon="6.60457">
        <ele>279.9</ele>
        <time>1970-01-01T02:15:34.000Z</time>
      </trkpt>
      <trkpt lat="43.21598" lon="6.60451">
        <ele>280.1</ele>
        <time>1970-01-01T02:15:36.000Z</time>
      </trkpt>
      <trkpt lat="43.216" lon="6.60448">
        <ele>280.3</ele>
        <time>1970-01-01T02:15:37.000Z</time>
      </trkpt>
      <trkpt lat="43.21602" lon="6.60445">
        <ele>280.4</ele>
        <time>1970-01-01T02:15:38.000Z</time>
      </trkpt>
      <trkpt lat="43.21604" lon="6.6044">
        <ele>280.5</ele>
        <time>1970-01-01T02:15:40.000Z</time>
      </trkpt>
      <trkpt lat="43.21607" lon="6.60437">
        <ele>280.7</ele>
        <time>1970-01-01T02:15:42.000Z</time>
      </trkpt>
      <trkpt lat="43.2161" lon="6.60434">
        <ele>280.9</ele>
        <time>1970-01-01T02:15:44.000Z</time>
      </trkpt>
      <trkpt lat="43.21615" lon="6.6043">
        <ele>281.2</ele>
        <time>1970-01-01T02:15:46.000Z</time>
      </trkpt>
      <trkpt lat="43.21619" lon="6.60427">
        <ele>281.5</ele>
        <time>1970-01-01T02:15:48.000Z</time>
      </trkpt>
      <trkpt lat="43.21624" lon="6.60424">
        <ele>281.9</ele>
        <time>1970-01-01T02:15:50.000Z</time>
      </trkpt>
      <trkpt lat="43.21627" lon="6.60423">
        <ele>282.1</ele>
        <time>1970-01-01T02:15:51.000Z</time>
      </trkpt>
      <trkpt lat="43.21629" lon="6.60421">
        <ele>282.4</ele>
        <time>1970-01-01T02:15:52.000Z</time>
      </trkpt>
      <trkpt lat="43.21631" lon="6.60419">
        <ele>282.7</ele>
        <time>1970-01-01T02:15:53.000Z</time>
      </trkpt>
      <trkpt lat="43.21634" lon="6.60416">
        <ele>282.9</ele>
        <time>1970-01-01T02:15:54.000Z</time>
      </trkpt>
      <trkpt lat="43.21636" lon="6.60414">
        <ele>283.3</ele>
        <time>1970-01-01T02:15:55.000Z</time>
      </trkpt>
      <trkpt lat="43.21641" lon="6.6041">
        <ele>284</ele>
        <time>1970-01-01T02:15:57.000Z</time>
      </trkpt>
      <trkpt lat="43.21644" lon="6.60408">
        <ele>284.4</ele>
        <time>1970-01-01T02:15:58.000Z</time>
      </trkpt>
      <trkpt lat="43.21646" lon="6.60405">
        <ele>284.7</ele>
        <time>1970-01-01T02:15:59.000Z</time>
      </trkpt>
      <trkpt lat="43.21651" lon="6.60401">
        <ele>285.5</ele>
        <time>1970-01-01T02:16:01.000Z</time>
      </trkpt>
      <trkpt lat="43.21653" lon="6.604">
        <ele>285.9</ele>
        <time>1970-01-01T02:16:02.000Z</time>
      </trkpt>
      <trkpt lat="43.21656" lon="6.60398">
        <ele>286.4</ele>
        <time>1970-01-01T02:16:03.000Z</time>
      </trkpt>
      <trkpt lat="43.2166" lon="6.60395">
        <ele>286.9</ele>
        <time>1970-01-01T02:16:04.000Z</time>
      </trkpt>
      <trkpt lat="43.21663" lon="6.60393">
        <ele>287.4</ele>
        <time>1970-01-01T02:16:05.000Z</time>
      </trkpt>
      <trkpt lat="43.21666" lon="6.60391">
        <ele>287.9</ele>
        <time>1970-01-01T02:16:06.000Z</time>
      </trkpt>
      <trkpt lat="43.21669" lon="6.60389">
        <ele>288.4</ele>
        <time>1970-01-01T02:16:07.000Z</time>
      </trkpt>
      <trkpt lat="43.21673" lon="6.60387">
        <ele>288.8</ele>
        <time>1970-01-01T02:16:08.000Z</time>
      </trkpt>
      <trkpt lat="43.21676" lon="6.60385">
        <ele>289.3</ele>
        <time>1970-01-01T02:16:09.000Z</time>
      </trkpt>
      <trkpt lat="43.21679" lon="6.60383">
        <ele>289.8</ele>
        <time>1970-01-01T02:16:10.000Z</time>
      </trkpt>
      <trkpt lat="43.21682" lon="6.6038">
        <ele>290.2</ele>
        <time>1970-01-01T02:16:11.000Z</time>
      </trkpt>
      <trkpt lat="43.21686" lon="6.60378">
        <ele>290.7</ele>
        <time>1970-01-01T02:16:12.000Z</time>
      </trkpt>
      <trkpt lat="43.21688" lon="6.60376">
        <ele>291</ele>
        <time>1970-01-01T02:16:13.000Z</time>
      </trkpt>
      <trkpt lat="43.21691" lon="6.60374">
        <ele>291.4</ele>
        <time>1970-01-01T02:16:14.000Z</time>
      </trkpt>
      <trkpt lat="43.21695" lon="6.60372">
        <ele>291.8</ele>
        <time>1970-01-01T02:16:15.000Z</time>
      </trkpt>
      <trkpt lat="43.21697" lon="6.60371">
        <ele>292</ele>
        <time>1970-01-01T02:16:16.000Z</time>
      </trkpt>
      <trkpt lat="43.217" lon="6.60369">
        <ele>292.3</ele>
        <time>1970-01-01T02:16:17.000Z</time>
      </trkpt>
      <trkpt lat="43.21703" lon="6.60366">
        <ele>292.7</ele>
        <time>1970-01-01T02:16:19.000Z</time>
      </trkpt>
      <trkpt lat="43.21707" lon="6.60361">
        <ele>293.1</ele>
        <time>1970-01-01T02:16:21.000Z</time>
      </trkpt>
      <trkpt lat="43.2171" lon="6.60358">
        <ele>293.4</ele>
        <time>1970-01-01T02:16:23.000Z</time>
      </trkpt>
      <trkpt lat="43.21712" lon="6.60355">
        <ele>293.7</ele>
        <time>1970-01-01T02:16:25.000Z</time>
      </trkpt>
      <trkpt lat="43.21715" lon="6.60353">
        <ele>294</ele>
        <time>1970-01-01T02:16:27.000Z</time>
      </trkpt>
      <trkpt lat="43.2172" lon="6.6035">
        <ele>294.3</ele>
        <time>1970-01-01T02:16:29.000Z</time>
      </trkpt>
      <trkpt lat="43.21723" lon="6.6035">
        <ele>294.5</ele>
        <time>1970-01-01T02:16:30.000Z</time>
      </trkpt>
      <trkpt lat="43.21726" lon="6.6035">
        <ele>294.7</ele>
        <time>1970-01-01T02:16:31.000Z</time>
      </trkpt>
      <trkpt lat="43.21731" lon="6.60349">
        <ele>295</ele>
        <time>1970-01-01T02:16:33.000Z</time>
      </trkpt>
      <trkpt lat="43.21733" lon="6.60348">
        <ele>295.1</ele>
        <time>1970-01-01T02:16:34.000Z</time>
      </trkpt>
      <trkpt lat="43.21736" lon="6.60348">
        <ele>295.3</ele>
        <time>1970-01-01T02:16:35.000Z</time>
      </trkpt>
      <trkpt lat="43.21741" lon="6.60346">
        <ele>295.5</ele>
        <time>1970-01-01T02:16:37.000Z</time>
      </trkpt>
      <trkpt lat="43.21744" lon="6.60347">
        <ele>295.6</ele>
        <time>1970-01-01T02:16:38.000Z</time>
      </trkpt>
      <trkpt lat="43.21747" lon="6.60346">
        <ele>295.8</ele>
        <time>1970-01-01T02:16:39.000Z</time>
      </trkpt>
      <trkpt lat="43.2175" lon="6.60345">
        <ele>296</ele>
        <time>1970-01-01T02:16:40.000Z</time>
      </trkpt>
      <trkpt lat="43.21754" lon="6.60344">
        <ele>296.1</ele>
        <time>1970-01-01T02:16:41.000Z</time>
      </trkpt>
      <trkpt lat="43.21758" lon="6.60342">
        <ele>296.4</ele>
        <time>1970-01-01T02:16:43.000Z</time>
      </trkpt>
      <trkpt lat="43.21762" lon="6.60338">
        <ele>296.7</ele>
        <time>1970-01-01T02:16:45.000Z</time>
      </trkpt>
      <trkpt lat="43.21765" lon="6.60336">
        <ele>296.9</ele>
        <time>1970-01-01T02:16:46.000Z</time>
      </trkpt>
      <trkpt lat="43.21767" lon="6.60334">
        <ele>297.1</ele>
        <time>1970-01-01T02:16:47.000Z</time>
      </trkpt>
      <trkpt lat="43.21771" lon="6.60333">
        <ele>297.4</ele>
        <time>1970-01-01T02:16:48.000Z</time>
      </trkpt>
      <trkpt lat="43.21775" lon="6.60331">
        <ele>297.7</ele>
        <time>1970-01-01T02:16:49.000Z</time>
      </trkpt>
      <trkpt lat="43.21778" lon="6.6033">
        <ele>298</ele>
        <time>1970-01-01T02:16:50.000Z</time>
      </trkpt>
      <trkpt lat="43.2178" lon="6.60328">
        <ele>298.2</ele>
        <time>1970-01-01T02:16:51.000Z</time>
      </trkpt>
      <trkpt lat="43.21783" lon="6.60327">
        <ele>298.4</ele>
        <time>1970-01-01T02:16:52.000Z</time>
      </trkpt>
      <trkpt lat="43.21787" lon="6.60325">
        <ele>298.7</ele>
        <time>1970-01-01T02:16:53.000Z</time>
      </trkpt>
      <trkpt lat="43.2179" lon="6.60324">
        <ele>299</ele>
        <time>1970-01-01T02:16:54.000Z</time>
      </trkpt>
      <trkpt lat="43.21793" lon="6.60323">
        <ele>299.2</ele>
        <time>1970-01-01T02:16:55.000Z</time>
      </trkpt>
      <trkpt lat="43.21798" lon="6.60322">
        <ele>299.6</ele>
        <time>1970-01-01T02:16:56.000Z</time>
      </trkpt>
      <trkpt lat="43.21802" lon="6.60321">
        <ele>299.9</ele>
        <time>1970-01-01T02:16:57.000Z</time>
      </trkpt>
      <trkpt lat="43.21805" lon="6.6032">
        <ele>300.2</ele>
        <time>1970-01-01T02:16:58.000Z</time>
      </trkpt>
      <trkpt lat="43.21809" lon="6.60318">
        <ele>300.4</ele>
        <time>1970-01-01T02:16:59.000Z</time>
      </trkpt>
      <trkpt lat="43.21812" lon="6.60317">
        <ele>300.7</ele>
        <time>1970-01-01T02:17:00.000Z</time>
      </trkpt>
      <trkpt lat="43.21815" lon="6.60316">
        <ele>300.9</ele>
        <time>1970-01-01T02:17:01.000Z</time>
      </trkpt>
      <trkpt lat="43.21818" lon="6.60316">
        <ele>301.2</ele>
        <time>1970-01-01T02:17:02.000Z</time>
      </trkpt>
      <trkpt lat="43.21822" lon="6.60314">
        <ele>301.4</ele>
        <time>1970-01-01T02:17:03.000Z</time>
      </trkpt>
      <trkpt lat="43.21826" lon="6.60312">
        <ele>301.8</ele>
        <time>1970-01-01T02:17:04.000Z</time>
      </trkpt>
      <trkpt lat="43.2183" lon="6.60312">
        <ele>302</ele>
        <time>1970-01-01T02:17:05.000Z</time>
      </trkpt>
      <trkpt lat="43.21833" lon="6.60311">
        <ele>302.2</ele>
        <time>1970-01-01T02:17:06.000Z</time>
      </trkpt>
      <trkpt lat="43.21836" lon="6.6031">
        <ele>302.4</ele>
        <time>1970-01-01T02:17:07.000Z</time>
      </trkpt>
      <trkpt lat="43.2184" lon="6.60308">
        <ele>302.6</ele>
        <time>1970-01-01T02:17:08.000Z</time>
      </trkpt>
      <trkpt lat="43.21844" lon="6.60307">
        <ele>302.8</ele>
        <time>1970-01-01T02:17:09.000Z</time>
      </trkpt>
      <trkpt lat="43.21847" lon="6.60306">
        <ele>303</ele>
        <time>1970-01-01T02:17:10.000Z</time>
      </trkpt>
      <trkpt lat="43.21851" lon="6.60305">
        <ele>303.1</ele>
        <time>1970-01-01T02:17:11.000Z</time>
      </trkpt>
      <trkpt lat="43.21854" lon="6.60304">
        <ele>303.3</ele>
        <time>1970-01-01T02:17:12.000Z</time>
      </trkpt>
      <trkpt lat="43.21857" lon="6.60303">
        <ele>303.4</ele>
        <time>1970-01-01T02:17:13.000Z</time>
      </trkpt>
      <trkpt lat="43.21861" lon="6.60302">
        <ele>303.6</ele>
        <time>1970-01-01T02:17:14.000Z</time>
      </trkpt>
      <trkpt lat="43.21865" lon="6.60301">
        <ele>303.8</ele>
        <time>1970-01-01T02:17:15.000Z</time>
      </trkpt>
      <trkpt lat="43.21869" lon="6.603">
        <ele>304.1</ele>
        <time>1970-01-01T02:17:16.000Z</time>
      </trkpt>
      <trkpt lat="43.21873" lon="6.60299">
        <ele>304.3</ele>
        <time>1970-01-01T02:17:17.000Z</time>
      </trkpt>
      <trkpt lat="43.21876" lon="6.60298">
        <ele>304.5</ele>
        <time>1970-01-01T02:17:18.000Z</time>
      </trkpt>
      <trkpt lat="43.21879" lon="6.60297">
        <ele>304.8</ele>
        <time>1970-01-01T02:17:19.000Z</time>
      </trkpt>
      <trkpt lat="43.21882" lon="6.60294">
        <ele>305.2</ele>
        <time>1970-01-01T02:17:20.000Z</time>
      </trkpt>
      <trkpt lat="43.21887" lon="6.60293">
        <ele>305.6</ele>
        <time>1970-01-01T02:17:21.000Z</time>
      </trkpt>
      <trkpt lat="43.21891" lon="6.60292">
        <ele>306</ele>
        <time>1970-01-01T02:17:22.000Z</time>
      </trkpt>
      <trkpt lat="43.21895" lon="6.6029">
        <ele>306.5</ele>
        <time>1970-01-01T02:17:23.000Z</time>
      </trkpt>
      <trkpt lat="43.21898" lon="6.60288">
        <ele>306.9</ele>
        <time>1970-01-01T02:17:24.000Z</time>
      </trkpt>
      <trkpt lat="43.21902" lon="6.60287">
        <ele>307.3</ele>
        <time>1970-01-01T02:17:25.000Z</time>
      </trkpt>
      <trkpt lat="43.21905" lon="6.60285">
        <ele>307.7</ele>
        <time>1970-01-01T02:17:26.000Z</time>
      </trkpt>
      <trkpt lat="43.21909" lon="6.60283">
        <ele>308.1</ele>
        <time>1970-01-01T02:17:27.000Z</time>
      </trkpt>
      <trkpt lat="43.21912" lon="6.60281">
        <ele>308.5</ele>
        <time>1970-01-01T02:17:28.000Z</time>
      </trkpt>
      <trkpt lat="43.21915" lon="6.6028">
        <ele>308.8</ele>
        <time>1970-01-01T02:17:29.000Z</time>
      </trkpt>
      <trkpt lat="43.21918" lon="6.60279">
        <ele>309.1</ele>
        <time>1970-01-01T02:17:30.000Z</time>
      </trkpt>
      <trkpt lat="43.21923" lon="6.60276">
        <ele>309.7</ele>
        <time>1970-01-01T02:17:32.000Z</time>
      </trkpt>
      <trkpt lat="43.21926" lon="6.60274">
        <ele>310.1</ele>
        <time>1970-01-01T02:17:33.000Z</time>
      </trkpt>
      <trkpt lat="43.21929" lon="6.60273">
        <ele>310.4</ele>
        <time>1970-01-01T02:17:34.000Z</time>
      </trkpt>
      <trkpt lat="43.21934" lon="6.60271">
        <ele>310.9</ele>
        <time>1970-01-01T02:17:36.000Z</time>
      </trkpt>
      <trkpt lat="43.21937" lon="6.60269">
        <ele>311.2</ele>
        <time>1970-01-01T02:17:37.000Z</time>
      </trkpt>
      <trkpt lat="43.2194" lon="6.60267">
        <ele>311.5</ele>
        <time>1970-01-01T02:17:38.000Z</time>
      </trkpt>
      <trkpt lat="43.21942" lon="6.60265">
        <ele>311.8</ele>
        <time>1970-01-01T02:17:39.000Z</time>
      </trkpt>
      <trkpt lat="43.21945" lon="6.60263">
        <ele>312.1</ele>
        <time>1970-01-01T02:17:40.000Z</time>
      </trkpt>
      <trkpt lat="43.21951" lon="6.60261">
        <ele>312.6</ele>
        <time>1970-01-01T02:17:42.000Z</time>
      </trkpt>
      <trkpt lat="43.21954" lon="6.60259">
        <ele>313</ele>
        <time>1970-01-01T02:17:43.000Z</time>
      </trkpt>
      <trkpt lat="43.21956" lon="6.60256">
        <ele>313.3</ele>
        <time>1970-01-01T02:17:44.000Z</time>
      </trkpt>
      <trkpt lat="43.21959" lon="6.60255">
        <ele>313.6</ele>
        <time>1970-01-01T02:17:45.000Z</time>
      </trkpt>
      <trkpt lat="43.21962" lon="6.60254">
        <ele>313.8</ele>
        <time>1970-01-01T02:17:46.000Z</time>
      </trkpt>
      <trkpt lat="43.21967" lon="6.60252">
        <ele>314.3</ele>
        <time>1970-01-01T02:17:48.000Z</time>
      </trkpt>
      <trkpt lat="43.21971" lon="6.60248">
        <ele>314.8</ele>
        <time>1970-01-01T02:17:50.000Z</time>
      </trkpt>
      <trkpt lat="43.21974" lon="6.60245">
        <ele>315.2</ele>
        <time>1970-01-01T02:17:52.000Z</time>
      </trkpt>
      <trkpt lat="43.21976" lon="6.60242">
        <ele>315.5</ele>
        <time>1970-01-01T02:17:53.000Z</time>
      </trkpt>
      <trkpt lat="43.21981" lon="6.60238">
        <ele>316</ele>
        <time>1970-01-01T02:17:55.000Z</time>
      </trkpt>
      <trkpt lat="43.21984" lon="6.60234">
        <ele>316.4</ele>
        <time>1970-01-01T02:17:57.000Z</time>
      </trkpt>
      <trkpt lat="43.21988" lon="6.60233">
        <ele>316.8</ele>
        <time>1970-01-01T02:17:59.000Z</time>
      </trkpt>
      <trkpt lat="43.21993" lon="6.60231">
        <ele>316.8</ele>
        <time>1970-01-01T02:18:01.000Z</time>
      </trkpt>
      <trkpt lat="43.21999" lon="6.60227">
        <ele>316.6</ele>
        <time>1970-01-01T02:18:03.000Z</time>
      </trkpt>
      <trkpt lat="43.22001" lon="6.60225">
        <ele>316.5</ele>
        <time>1970-01-01T02:18:04.000Z</time>
      </trkpt>
      <trkpt lat="43.22004" lon="6.60222">
        <ele>316.4</ele>
        <time>1970-01-01T02:18:05.000Z</time>
      </trkpt>
      <trkpt lat="43.22008" lon="6.60218">
        <ele>316.2</ele>
        <time>1970-01-01T02:18:07.000Z</time>
      </trkpt>
      <trkpt lat="43.22011" lon="6.60212">
        <ele>316</ele>
        <time>1970-01-01T02:18:09.000Z</time>
      </trkpt>
      <trkpt lat="43.22014" lon="6.60205">
        <ele>315.7</ele>
        <time>1970-01-01T02:18:11.000Z</time>
      </trkpt>
      <trkpt lat="43.22015" lon="6.60201">
        <ele>315.5</ele>
        <time>1970-01-01T02:18:12.000Z</time>
      </trkpt>
      <trkpt lat="43.22017" lon="6.60198">
        <ele>315.4</ele>
        <time>1970-01-01T02:18:13.000Z</time>
      </trkpt>
      <trkpt lat="43.22019" lon="6.60194">
        <ele>315.2</ele>
        <time>1970-01-01T02:18:14.000Z</time>
      </trkpt>
      <trkpt lat="43.22022" lon="6.60189">
        <ele>314.9</ele>
        <time>1970-01-01T02:18:16.000Z</time>
      </trkpt>
      <trkpt lat="43.22024" lon="6.60185">
        <ele>314.6</ele>
        <time>1970-01-01T02:18:19.000Z</time>
      </trkpt>
      <trkpt lat="43.22028" lon="6.60184">
        <ele>314.5</ele>
        <time>1970-01-01T02:20:21.000Z</time>
      </trkpt>
      <trkpt lat="43.22034" lon="6.60183">
        <ele>314.2</ele>
        <time>1970-01-01T02:20:23.000Z</time>
      </trkpt>
      <trkpt lat="43.22038" lon="6.60184">
        <ele>314.1</ele>
        <time>1970-01-01T02:20:24.000Z</time>
      </trkpt>
      <trkpt lat="43.22044" lon="6.60187">
        <ele>314</ele>
        <time>1970-01-01T02:20:25.000Z</time>
      </trkpt>
      <trkpt lat="43.22051" lon="6.6019">
        <ele>313</ele>
        <time>1970-01-01T02:20:26.000Z</time>
      </trkpt>
      <trkpt lat="43.22058" lon="6.60192">
        <ele>312.7</ele>
        <time>1970-01-01T02:20:27.000Z</time>
      </trkpt>
      <trkpt lat="43.22066" lon="6.60193">
        <ele>312.3</ele>
        <time>1970-01-01T02:20:28.000Z</time>
      </trkpt>
      <trkpt lat="43.22074" lon="6.60196">
        <ele>311.9</ele>
        <time>1970-01-01T02:20:29.000Z</time>
      </trkpt>
      <trkpt lat="43.22083" lon="6.60201">
        <ele>312</ele>
        <time>1970-01-01T02:20:30.000Z</time>
      </trkpt>
      <trkpt lat="43.22092" lon="6.60205">
        <ele>312.3</ele>
        <time>1970-01-01T02:20:31.000Z</time>
      </trkpt>
      <trkpt lat="43.221" lon="6.6021">
        <ele>312.3</ele>
        <time>1970-01-01T02:20:32.000Z</time>
      </trkpt>
      <trkpt lat="43.22108" lon="6.60215">
        <ele>312</ele>
        <time>1970-01-01T02:20:33.000Z</time>
      </trkpt>
      <trkpt lat="43.22117" lon="6.60219">
        <ele>311.5</ele>
        <time>1970-01-01T02:20:34.000Z</time>
      </trkpt>
      <trkpt lat="43.22124" lon="6.60222">
        <ele>311</ele>
        <time>1970-01-01T02:20:35.000Z</time>
      </trkpt>
      <trkpt lat="43.22129" lon="6.60225">
        <ele>310.2</ele>
        <time>1970-01-01T02:20:36.000Z</time>
      </trkpt>
      <trkpt lat="43.22133" lon="6.60227">
        <ele>309.7</ele>
        <time>1970-01-01T02:20:37.000Z</time>
      </trkpt>
      <trkpt lat="43.22137" lon="6.60229">
        <ele>309.3</ele>
        <time>1970-01-01T02:20:38.000Z</time>
      </trkpt>
      <trkpt lat="43.22141" lon="6.60229">
        <ele>308.8</ele>
        <time>1970-01-01T02:20:39.000Z</time>
      </trkpt>
      <trkpt lat="43.22146" lon="6.6023">
        <ele>307.7</ele>
        <time>1970-01-01T02:20:40.000Z</time>
      </trkpt>
      <trkpt lat="43.22151" lon="6.60228">
        <ele>306.4</ele>
        <time>1970-01-01T02:20:41.000Z</time>
      </trkpt>
      <trkpt lat="43.22157" lon="6.60226">
        <ele>305.2</ele>
        <time>1970-01-01T02:20:42.000Z</time>
      </trkpt>
      <trkpt lat="43.22163" lon="6.60225">
        <ele>304.2</ele>
        <time>1970-01-01T02:20:43.000Z</time>
      </trkpt>
      <trkpt lat="43.22168" lon="6.60221">
        <ele>303.9</ele>
        <time>1970-01-01T02:20:44.000Z</time>
      </trkpt>
      <trkpt lat="43.22174" lon="6.60219">
        <ele>303.4</ele>
        <time>1970-01-01T02:20:45.000Z</time>
      </trkpt>
      <trkpt lat="43.2218" lon="6.60215">
        <ele>302.9</ele>
        <time>1970-01-01T02:20:46.000Z</time>
      </trkpt>
      <trkpt lat="43.22188" lon="6.60208">
        <ele>301.8</ele>
        <time>1970-01-01T02:20:47.000Z</time>
      </trkpt>
      <trkpt lat="43.22195" lon="6.60199">
        <ele>299.4</ele>
        <time>1970-01-01T02:20:48.000Z</time>
      </trkpt>
      <trkpt lat="43.22201" lon="6.60192">
        <ele>296.7</ele>
        <time>1970-01-01T02:20:49.000Z</time>
      </trkpt>
      <trkpt lat="43.22207" lon="6.60192">
        <ele>294.8</ele>
        <time>1970-01-01T02:20:50.000Z</time>
      </trkpt>
      <trkpt lat="43.22214" lon="6.60195">
        <ele>293.3</ele>
        <time>1970-01-01T02:20:51.000Z</time>
      </trkpt>
      <trkpt lat="43.22221" lon="6.60198">
        <ele>291.9</ele>
        <time>1970-01-01T02:20:52.000Z</time>
      </trkpt>
      <trkpt lat="43.22229" lon="6.60201">
        <ele>289.7</ele>
        <time>1970-01-01T02:20:53.000Z</time>
      </trkpt>
      <trkpt lat="43.22238" lon="6.60203">
        <ele>288</ele>
        <time>1970-01-01T02:20:54.000Z</time>
      </trkpt>
      <trkpt lat="43.22249" lon="6.60205">
        <ele>286.7</ele>
        <time>1970-01-01T02:20:55.000Z</time>
      </trkpt>
      <trkpt lat="43.22258" lon="6.60205">
        <ele>285.6</ele>
        <time>1970-01-01T02:20:56.000Z</time>
      </trkpt>
      <trkpt lat="43.22266" lon="6.60203">
        <ele>284.7</ele>
        <time>1970-01-01T02:20:57.000Z</time>
      </trkpt>
      <trkpt lat="43.22274" lon="6.60202">
        <ele>283.5</ele>
        <time>1970-01-01T02:20:58.000Z</time>
      </trkpt>
      <trkpt lat="43.22281" lon="6.60196">
        <ele>283</ele>
        <time>1970-01-01T02:20:59.000Z</time>
      </trkpt>
      <trkpt lat="43.22286" lon="6.60189">
        <ele>282.4</ele>
        <time>1970-01-01T02:21:00.000Z</time>
      </trkpt>
      <trkpt lat="43.2229" lon="6.60181">
        <ele>281.4</ele>
        <time>1970-01-01T02:21:01.000Z</time>
      </trkpt>
      <trkpt lat="43.22297" lon="6.6018">
        <ele>280</ele>
        <time>1970-01-01T02:21:02.000Z</time>
      </trkpt>
      <trkpt lat="43.22304" lon="6.60179">
        <ele>278.8</ele>
        <time>1970-01-01T02:21:03.000Z</time>
      </trkpt>
      <trkpt lat="43.22312" lon="6.60178">
        <ele>278.1</ele>
        <time>1970-01-01T02:21:04.000Z</time>
      </trkpt>
      <trkpt lat="43.2232" lon="6.60174">
        <ele>276</ele>
        <time>1970-01-01T02:21:05.000Z</time>
      </trkpt>
      <trkpt lat="43.22328" lon="6.6017">
        <ele>274.5</ele>
        <time>1970-01-01T02:21:06.000Z</time>
      </trkpt>
      <trkpt lat="43.22335" lon="6.60167">
        <ele>273.1</ele>
        <time>1970-01-01T02:21:07.000Z</time>
      </trkpt>
      <trkpt lat="43.22341" lon="6.60167">
        <ele>271.7</ele>
        <time>1970-01-01T02:21:08.000Z</time>
      </trkpt>
      <trkpt lat="43.22347" lon="6.60167">
        <ele>270.1</ele>
        <time>1970-01-01T02:21:09.000Z</time>
      </trkpt>
      <trkpt lat="43.22353" lon="6.60166">
        <ele>268.9</ele>
        <time>1970-01-01T02:21:10.000Z</time>
      </trkpt>
      <trkpt lat="43.22357" lon="6.60167">
        <ele>268.3</ele>
        <time>1970-01-01T02:21:11.000Z</time>
      </trkpt>
      <trkpt lat="43.2236" lon="6.60171">
        <ele>266.5</ele>
        <time>1970-01-01T02:21:13.000Z</time>
      </trkpt>
      <trkpt lat="43.22361" lon="6.60175">
        <ele>266.5</ele>
        <time>1970-01-01T02:21:14.000Z</time>
      </trkpt>
      <trkpt lat="43.22364" lon="6.60178">
        <ele>265.4</ele>
        <time>1970-01-01T02:21:15.000Z</time>
      </trkpt>
      <trkpt lat="43.22366" lon="6.60183">
        <ele>264</ele>
        <time>1970-01-01T02:21:16.000Z</time>
      </trkpt>
      <trkpt lat="43.22368" lon="6.60188">
        <ele>263.3</ele>
        <time>1970-01-01T02:21:17.000Z</time>
      </trkpt>
      <trkpt lat="43.2237" lon="6.60197">
        <ele>261</ele>
        <time>1970-01-01T02:21:18.000Z</time>
      </trkpt>
      <trkpt lat="43.22375" lon="6.60203">
        <ele>259</ele>
        <time>1970-01-01T02:21:19.000Z</time>
      </trkpt>
      <trkpt lat="43.22381" lon="6.60206">
        <ele>255.7</ele>
        <time>1970-01-01T02:21:20.000Z</time>
      </trkpt>
      <trkpt lat="43.22389" lon="6.60207">
        <ele>252.7</ele>
        <time>1970-01-01T02:21:21.000Z</time>
      </trkpt>
      <trkpt lat="43.22396" lon="6.60205">
        <ele>251.6</ele>
        <time>1970-01-01T02:21:22.000Z</time>
      </trkpt>
      <trkpt lat="43.22404" lon="6.60202">
        <ele>249.1</ele>
        <time>1970-01-01T02:21:23.000Z</time>
      </trkpt>
      <trkpt lat="43.22413" lon="6.60199">
        <ele>247.4</ele>
        <time>1970-01-01T02:21:24.000Z</time>
      </trkpt>
      <trkpt lat="43.22421" lon="6.60191">
        <ele>247</ele>
        <time>1970-01-01T02:21:25.000Z</time>
      </trkpt>
      <trkpt lat="43.22425" lon="6.60184">
        <ele>246.9</ele>
        <time>1970-01-01T02:21:26.000Z</time>
      </trkpt>
      <trkpt lat="43.22427" lon="6.60179">
        <ele>246.2</ele>
        <time>1970-01-01T02:21:27.000Z</time>
      </trkpt>
      <trkpt lat="43.22433" lon="6.60175">
        <ele>244.3</ele>
        <time>1970-01-01T02:21:30.000Z</time>
      </trkpt>
      <trkpt lat="43.2244" lon="6.60175">
        <ele>241.9</ele>
        <time>1970-01-01T02:21:31.000Z</time>
      </trkpt>
      <trkpt lat="43.22446" lon="6.60175">
        <ele>239.5</ele>
        <time>1970-01-01T02:21:32.000Z</time>
      </trkpt>
      <trkpt lat="43.22451" lon="6.60177">
        <ele>236.2</ele>
        <time>1970-01-01T02:21:33.000Z</time>
      </trkpt>
      <trkpt lat="43.22458" lon="6.60176">
        <ele>232.8</ele>
        <time>1970-01-01T02:21:34.000Z</time>
      </trkpt>
      <trkpt lat="43.22463" lon="6.60173">
        <ele>229.9</ele>
        <time>1970-01-01T02:21:35.000Z</time>
      </trkpt>
      <trkpt lat="43.22467" lon="6.60169">
        <ele>228.7</ele>
        <time>1970-01-01T02:21:36.000Z</time>
      </trkpt>
      <trkpt lat="43.22471" lon="6.60168">
        <ele>227.1</ele>
        <time>1970-01-01T02:21:37.000Z</time>
      </trkpt>
      <trkpt lat="43.22477" lon="6.60164">
        <ele>224.4</ele>
        <time>1970-01-01T02:21:38.000Z</time>
      </trkpt>
      <trkpt lat="43.22482" lon="6.60159">
        <ele>221.4</ele>
        <time>1970-01-01T02:21:39.000Z</time>
      </trkpt>
      <trkpt lat="43.22488" lon="6.60153">
        <ele>218.6</ele>
        <time>1970-01-01T02:21:40.000Z</time>
      </trkpt>
      <trkpt lat="43.22496" lon="6.60148">
        <ele>216.3</ele>
        <time>1970-01-01T02:21:41.000Z</time>
      </trkpt>
      <trkpt lat="43.22506" lon="6.60145">
        <ele>212.9</ele>
        <time>1970-01-01T02:21:42.000Z</time>
      </trkpt>
      <trkpt lat="43.22516" lon="6.60143">
        <ele>209.9</ele>
        <time>1970-01-01T02:21:43.000Z</time>
      </trkpt>
      <trkpt lat="43.22525" lon="6.60141">
        <ele>207.5</ele>
        <time>1970-01-01T02:21:44.000Z</time>
      </trkpt>
      <trkpt lat="43.22534" lon="6.60136">
        <ele>206</ele>
        <time>1970-01-01T02:21:45.000Z</time>
      </trkpt>
      <trkpt lat="43.22544" lon="6.60136">
        <ele>204.2</ele>
        <time>1970-01-01T02:21:46.000Z</time>
      </trkpt>
      <trkpt lat="43.22553" lon="6.60136">
        <ele>202.7</ele>
        <time>1970-01-01T02:21:47.000Z</time>
      </trkpt>
      <trkpt lat="43.22561" lon="6.6014">
        <ele>200.8</ele>
        <time>1970-01-01T02:21:48.000Z</time>
      </trkpt>
      <trkpt lat="43.22565" lon="6.60146">
        <ele>199.2</ele>
        <time>1970-01-01T02:21:49.000Z</time>
      </trkpt>
      <trkpt lat="43.22572" lon="6.60154">
        <ele>196.8</ele>
        <time>1970-01-01T02:21:50.000Z</time>
      </trkpt>
      <trkpt lat="43.2258" lon="6.6016">
        <ele>194.7</ele>
        <time>1970-01-01T02:21:51.000Z</time>
      </trkpt>
      <trkpt lat="43.22587" lon="6.60161">
        <ele>194.1</ele>
        <time>1970-01-01T02:21:52.000Z</time>
      </trkpt>
      <trkpt lat="43.22593" lon="6.60161">
        <ele>193.6</ele>
        <time>1970-01-01T02:21:53.000Z</time>
      </trkpt>
      <trkpt lat="43.22598" lon="6.60165">
        <ele>192.4</ele>
        <time>1970-01-01T02:21:54.000Z</time>
      </trkpt>
      <trkpt lat="43.22604" lon="6.60169">
        <ele>191</ele>
        <time>1970-01-01T02:21:55.000Z</time>
      </trkpt>
      <trkpt lat="43.22611" lon="6.60173">
        <ele>189.3</ele>
        <time>1970-01-01T02:21:56.000Z</time>
      </trkpt>
      <trkpt lat="43.22618" lon="6.60176">
        <ele>187.3</ele>
        <time>1970-01-01T02:21:57.000Z</time>
      </trkpt>
      <trkpt lat="43.22627" lon="6.60177">
        <ele>185.5</ele>
        <time>1970-01-01T02:21:58.000Z</time>
      </trkpt>
      <trkpt lat="43.22634" lon="6.60178">
        <ele>184.4</ele>
        <time>1970-01-01T02:21:59.000Z</time>
      </trkpt>
      <trkpt lat="43.2264" lon="6.60182">
        <ele>182.6</ele>
        <time>1970-01-01T02:22:00.000Z</time>
      </trkpt>
      <trkpt lat="43.22646" lon="6.60187">
        <ele>180.9</ele>
        <time>1970-01-01T02:22:01.000Z</time>
      </trkpt>
      <trkpt lat="43.22651" lon="6.60191">
        <ele>179.1</ele>
        <time>1970-01-01T02:22:02.000Z</time>
      </trkpt>
      <trkpt lat="43.22654" lon="6.60197">
        <ele>177.9</ele>
        <time>1970-01-01T02:22:03.000Z</time>
      </trkpt>
      <trkpt lat="43.22659" lon="6.60199">
        <ele>176.9</ele>
        <time>1970-01-01T02:22:04.000Z</time>
      </trkpt>
      <trkpt lat="43.22662" lon="6.60199">
        <ele>176.3</ele>
        <time>1970-01-01T02:22:05.000Z</time>
      </trkpt>
      <trkpt lat="43.22669" lon="6.60197">
        <ele>175.7</ele>
        <time>1970-01-01T02:22:06.000Z</time>
      </trkpt>
      <trkpt lat="43.22677" lon="6.60195">
        <ele>174.1</ele>
        <time>1970-01-01T02:22:07.000Z</time>
      </trkpt>
      <trkpt lat="43.22686" lon="6.60195">
        <ele>172.3</ele>
        <time>1970-01-01T02:22:08.000Z</time>
      </trkpt>
      <trkpt lat="43.22695" lon="6.60192">
        <ele>171.2</ele>
        <time>1970-01-01T02:22:09.000Z</time>
      </trkpt>
      <trkpt lat="43.22705" lon="6.60187">
        <ele>169.9</ele>
        <time>1970-01-01T02:22:10.000Z</time>
      </trkpt>
      <trkpt lat="43.22716" lon="6.60187">
        <ele>168</ele>
        <time>1970-01-01T02:22:11.000Z</time>
      </trkpt>
      <trkpt lat="43.22727" lon="6.60189">
        <ele>166.5</ele>
        <time>1970-01-01T02:22:12.000Z</time>
      </trkpt>
      <trkpt lat="43.2274" lon="6.6019">
        <ele>165.5</ele>
        <time>1970-01-01T02:22:13.000Z</time>
      </trkpt>
      <trkpt lat="43.22753" lon="6.60191">
        <ele>165</ele>
        <time>1970-01-01T02:22:14.000Z</time>
      </trkpt>
      <trkpt lat="43.22765" lon="6.60191">
        <ele>164.2</ele>
        <time>1970-01-01T02:22:15.000Z</time>
      </trkpt>
      <trkpt lat="43.22778" lon="6.60191">
        <ele>162.5</ele>
        <time>1970-01-01T02:22:16.000Z</time>
      </trkpt>
      <trkpt lat="43.22791" lon="6.60189">
        <ele>161</ele>
        <time>1970-01-01T02:22:17.000Z</time>
      </trkpt>
      <trkpt lat="43.22803" lon="6.60188">
        <ele>159.9</ele>
        <time>1970-01-01T02:22:18.000Z</time>
      </trkpt>
      <trkpt lat="43.22815" lon="6.60187">
        <ele>158.7</ele>
        <time>1970-01-01T02:22:19.000Z</time>
      </trkpt>
      <trkpt lat="43.22827" lon="6.60185">
        <ele>157</ele>
        <time>1970-01-01T02:22:20.000Z</time>
      </trkpt>
      <trkpt lat="43.22838" lon="6.60184">
        <ele>155.3</ele>
        <time>1970-01-01T02:22:21.000Z</time>
      </trkpt>
      <trkpt lat="43.22849" lon="6.60187">
        <ele>153.6</ele>
        <time>1970-01-01T02:22:22.000Z</time>
      </trkpt>
      <trkpt lat="43.2286" lon="6.60189">
        <ele>152.2</ele>
        <time>1970-01-01T02:22:23.000Z</time>
      </trkpt>
      <trkpt lat="43.22871" lon="6.60188">
        <ele>150.2</ele>
        <time>1970-01-01T02:22:24.000Z</time>
      </trkpt>
      <trkpt lat="43.22882" lon="6.60186">
        <ele>148.3</ele>
        <time>1970-01-01T02:22:25.000Z</time>
      </trkpt>
      <trkpt lat="43.22894" lon="6.60185">
        <ele>147.1</ele>
        <time>1970-01-01T02:22:26.000Z</time>
      </trkpt>
      <trkpt lat="43.22905" lon="6.60186">
        <ele>145.8</ele>
        <time>1970-01-01T02:22:27.000Z</time>
      </trkpt>
      <trkpt lat="43.22917" lon="6.60187">
        <ele>144.7</ele>
        <time>1970-01-01T02:22:28.000Z</time>
      </trkpt>
      <trkpt lat="43.22928" lon="6.60187">
        <ele>143.1</ele>
        <time>1970-01-01T02:22:29.000Z</time>
      </trkpt>
      <trkpt lat="43.22938" lon="6.60187">
        <ele>141</ele>
        <time>1970-01-01T02:22:30.000Z</time>
      </trkpt>
      <trkpt lat="43.22947" lon="6.60189">
        <ele>139.5</ele>
        <time>1970-01-01T02:22:31.000Z</time>
      </trkpt>
      <trkpt lat="43.22957" lon="6.60193">
        <ele>138.8</ele>
        <time>1970-01-01T02:22:32.000Z</time>
      </trkpt>
      <trkpt lat="43.22968" lon="6.60194">
        <ele>138</ele>
        <time>1970-01-01T02:22:33.000Z</time>
      </trkpt>
      <trkpt lat="43.22979" lon="6.60192">
        <ele>136.8</ele>
        <time>1970-01-01T02:22:34.000Z</time>
      </trkpt>
      <trkpt lat="43.2299" lon="6.60188">
        <ele>136.2</ele>
        <time>1970-01-01T02:22:35.000Z</time>
      </trkpt>
      <trkpt lat="43.23001" lon="6.60186">
        <ele>136.3</ele>
        <time>1970-01-01T02:22:36.000Z</time>
      </trkpt>
      <trkpt lat="43.2301" lon="6.60184">
        <ele>137.2</ele>
        <time>1970-01-01T02:22:37.000Z</time>
      </trkpt>
      <trkpt lat="43.23021" lon="6.6018">
        <ele>138.3</ele>
        <time>1970-01-01T02:22:38.000Z</time>
      </trkpt>
      <trkpt lat="43.2303" lon="6.60172">
        <ele>139.4</ele>
        <time>1970-01-01T02:22:39.000Z</time>
      </trkpt>
      <trkpt lat="43.23039" lon="6.60164">
        <ele>140.1</ele>
        <time>1970-01-01T02:22:40.000Z</time>
      </trkpt>
      <trkpt lat="43.23046" lon="6.60158">
        <ele>140.8</ele>
        <time>1970-01-01T02:22:41.000Z</time>
      </trkpt>
      <trkpt lat="43.23053" lon="6.60152">
        <ele>140.9</ele>
        <time>1970-01-01T02:22:42.000Z</time>
      </trkpt>
      <trkpt lat="43.2306" lon="6.60144">
        <ele>140.7</ele>
        <time>1970-01-01T02:22:43.000Z</time>
      </trkpt>
      <trkpt lat="43.23067" lon="6.60137">
        <ele>140.1</ele>
        <time>1970-01-01T02:22:44.000Z</time>
      </trkpt>
      <trkpt lat="43.23076" lon="6.60134">
        <ele>139.2</ele>
        <time>1970-01-01T02:22:45.000Z</time>
      </trkpt>
      <trkpt lat="43.23084" lon="6.60129">
        <ele>137.7</ele>
        <time>1970-01-01T02:22:46.000Z</time>
      </trkpt>
      <trkpt lat="43.23093" lon="6.60124">
        <ele>136.4</ele>
        <time>1970-01-01T02:22:47.000Z</time>
      </trkpt>
      <trkpt lat="43.231" lon="6.60119">
        <ele>134.8</ele>
        <time>1970-01-01T02:22:48.000Z</time>
      </trkpt>
      <trkpt lat="43.23106" lon="6.60119">
        <ele>133.8</ele>
        <time>1970-01-01T02:22:49.000Z</time>
      </trkpt>
      <trkpt lat="43.23114" lon="6.60122">
        <ele>132.1</ele>
        <time>1970-01-01T02:22:50.000Z</time>
      </trkpt>
      <trkpt lat="43.23121" lon="6.60125">
        <ele>129.9</ele>
        <time>1970-01-01T02:22:51.000Z</time>
      </trkpt>
      <trkpt lat="43.23128" lon="6.60124">
        <ele>128.2</ele>
        <time>1970-01-01T02:22:52.000Z</time>
      </trkpt>
      <trkpt lat="43.23134" lon="6.6012">
        <ele>126.2</ele>
        <time>1970-01-01T02:22:53.000Z</time>
      </trkpt>
      <trkpt lat="43.23141" lon="6.60115">
        <ele>123.9</ele>
        <time>1970-01-01T02:22:54.000Z</time>
      </trkpt>
      <trkpt lat="43.23147" lon="6.60111">
        <ele>122.2</ele>
        <time>1970-01-01T02:22:55.000Z</time>
      </trkpt>
      <trkpt lat="43.23153" lon="6.60106">
        <ele>120.6</ele>
        <time>1970-01-01T02:22:56.000Z</time>
      </trkpt>
      <trkpt lat="43.23158" lon="6.60099">
        <ele>118.7</ele>
        <time>1970-01-01T02:22:57.000Z</time>
      </trkpt>
      <trkpt lat="43.23163" lon="6.60088">
        <ele>118.3</ele>
        <time>1970-01-01T02:22:58.000Z</time>
      </trkpt>
      <trkpt lat="43.23167" lon="6.60079">
        <ele>116.9</ele>
        <time>1970-01-01T02:22:59.000Z</time>
      </trkpt>
      <trkpt lat="43.2317" lon="6.60072">
        <ele>116</ele>
        <time>1970-01-01T02:23:00.000Z</time>
      </trkpt>
      <trkpt lat="43.23173" lon="6.60069">
        <ele>115.2</ele>
        <time>1970-01-01T02:23:01.000Z</time>
      </trkpt>
      <trkpt lat="43.23178" lon="6.60069">
        <ele>114.4</ele>
        <time>1970-01-01T02:23:02.000Z</time>
      </trkpt>
      <trkpt lat="43.23183" lon="6.6007">
        <ele>112.9</ele>
        <time>1970-01-01T02:23:03.000Z</time>
      </trkpt>
      <trkpt lat="43.23186" lon="6.60063">
        <ele>112.1</ele>
        <time>1970-01-01T02:23:04.000Z</time>
      </trkpt>
      <trkpt lat="43.2319" lon="6.60055">
        <ele>111.5</ele>
        <time>1970-01-01T02:23:05.000Z</time>
      </trkpt>
      <trkpt lat="43.23195" lon="6.60047">
        <ele>111.2</ele>
        <time>1970-01-01T02:23:06.000Z</time>
      </trkpt>
      <trkpt lat="43.232" lon="6.60044">
        <ele>110.9</ele>
        <time>1970-01-01T02:23:07.000Z</time>
      </trkpt>
      <trkpt lat="43.23206" lon="6.60044">
        <ele>110.6</ele>
        <time>1970-01-01T02:23:08.000Z</time>
      </trkpt>
      <trkpt lat="43.23215" lon="6.60043">
        <ele>110.9</ele>
        <time>1970-01-01T02:23:09.000Z</time>
      </trkpt>
      <trkpt lat="43.23223" lon="6.60037">
        <ele>110.3</ele>
        <time>1970-01-01T02:23:10.000Z</time>
      </trkpt>
      <trkpt lat="43.23229" lon="6.60027">
        <ele>109.6</ele>
        <time>1970-01-01T02:23:11.000Z</time>
      </trkpt>
      <trkpt lat="43.23235" lon="6.60016">
        <ele>108.5</ele>
        <time>1970-01-01T02:23:12.000Z</time>
      </trkpt>
      <trkpt lat="43.23242" lon="6.60006">
        <ele>107.3</ele>
        <time>1970-01-01T02:23:13.000Z</time>
      </trkpt>
      <trkpt lat="43.2325" lon="6.59998">
        <ele>106</ele>
        <time>1970-01-01T02:23:14.000Z</time>
      </trkpt>
      <trkpt lat="43.23257" lon="6.59992">
        <ele>105.1</ele>
        <time>1970-01-01T02:23:15.000Z</time>
      </trkpt>
      <trkpt lat="43.23265" lon="6.59988">
        <ele>104.6</ele>
        <time>1970-01-01T02:23:16.000Z</time>
      </trkpt>
      <trkpt lat="43.23274" lon="6.5998">
        <ele>103.8</ele>
        <time>1970-01-01T02:23:17.000Z</time>
      </trkpt>
      <trkpt lat="43.23282" lon="6.59971">
        <ele>102.6</ele>
        <time>1970-01-01T02:23:18.000Z</time>
      </trkpt>
      <trkpt lat="43.23289" lon="6.5996">
        <ele>101.5</ele>
        <time>1970-01-01T02:23:19.000Z</time>
      </trkpt>
      <trkpt lat="43.23296" lon="6.5995">
        <ele>100.4</ele>
        <time>1970-01-01T02:23:20.000Z</time>
      </trkpt>
      <trkpt lat="43.23302" lon="6.59938">
        <ele>98.8</ele>
        <time>1970-01-01T02:23:21.000Z</time>
      </trkpt>
      <trkpt lat="43.23308" lon="6.59927">
        <ele>97</ele>
        <time>1970-01-01T02:23:22.000Z</time>
      </trkpt>
      <trkpt lat="43.23315" lon="6.59915">
        <ele>94.8</ele>
        <time>1970-01-01T02:23:23.000Z</time>
      </trkpt>
      <trkpt lat="43.23321" lon="6.59904">
        <ele>92.3</ele>
        <time>1970-01-01T02:23:24.000Z</time>
      </trkpt>
      <trkpt lat="43.23328" lon="6.59892">
        <ele>89.8</ele>
        <time>1970-01-01T02:23:25.000Z</time>
      </trkpt>
      <trkpt lat="43.23334" lon="6.59881">
        <ele>87.8</ele>
        <time>1970-01-01T02:23:26.000Z</time>
      </trkpt>
      <trkpt lat="43.2334" lon="6.59869">
        <ele>85.9</ele>
        <time>1970-01-01T02:23:27.000Z</time>
      </trkpt>
      <trkpt lat="43.23348" lon="6.59863">
        <ele>84.4</ele>
        <time>1970-01-01T02:23:28.000Z</time>
      </trkpt>
      <trkpt lat="43.23355" lon="6.59857">
        <ele>82.8</ele>
        <time>1970-01-01T02:23:29.000Z</time>
      </trkpt>
      <trkpt lat="43.2336" lon="6.59849">
        <ele>81.2</ele>
        <time>1970-01-01T02:23:30.000Z</time>
      </trkpt>
      <trkpt lat="43.23367" lon="6.5984">
        <ele>79.3</ele>
        <time>1970-01-01T02:23:31.000Z</time>
      </trkpt>
      <trkpt lat="43.23375" lon="6.59832">
        <ele>77.6</ele>
        <time>1970-01-01T02:23:32.000Z</time>
      </trkpt>
      <trkpt lat="43.23383" lon="6.59825">
        <ele>76.1</ele>
        <time>1970-01-01T02:23:33.000Z</time>
      </trkpt>
      <trkpt lat="43.23391" lon="6.59818">
        <ele>74.1</ele>
        <time>1970-01-01T02:23:34.000Z</time>
      </trkpt>
      <trkpt lat="43.23398" lon="6.59812">
        <ele>72.9</ele>
        <time>1970-01-01T02:23:35.000Z</time>
      </trkpt>
      <trkpt lat="43.23402" lon="6.59804">
        <ele>71.8</ele>
        <time>1970-01-01T02:23:36.000Z</time>
      </trkpt>
      <trkpt lat="43.23405" lon="6.59793">
        <ele>70.1</ele>
        <time>1970-01-01T02:23:37.000Z</time>
      </trkpt>
      <trkpt lat="43.2341" lon="6.59783">
        <ele>68.8</ele>
        <time>1970-01-01T02:23:38.000Z</time>
      </trkpt>
      <trkpt lat="43.23418" lon="6.59776">
        <ele>67.6</ele>
        <time>1970-01-01T02:23:39.000Z</time>
      </trkpt>
      <trkpt lat="43.23426" lon="6.59768">
        <ele>66.2</ele>
        <time>1970-01-01T02:23:40.000Z</time>
      </trkpt>
      <trkpt lat="43.23434" lon="6.5976">
        <ele>64.9</ele>
        <time>1970-01-01T02:23:41.000Z</time>
      </trkpt>
      <trkpt lat="43.23441" lon="6.59752">
        <ele>64</ele>
        <time>1970-01-01T02:23:42.000Z</time>
      </trkpt>
      <trkpt lat="43.23448" lon="6.59744">
        <ele>63.7</ele>
        <time>1970-01-01T02:23:43.000Z</time>
      </trkpt>
      <trkpt lat="43.23454" lon="6.59736">
        <ele>63.4</ele>
        <time>1970-01-01T02:23:44.000Z</time>
      </trkpt>
      <trkpt lat="43.2346" lon="6.5973">
        <ele>62.6</ele>
        <time>1970-01-01T02:23:45.000Z</time>
      </trkpt>
      <trkpt lat="43.23463" lon="6.5972">
        <ele>62.5</ele>
        <time>1970-01-01T02:23:46.000Z</time>
      </trkpt>
      <trkpt lat="43.23459" lon="6.59708">
        <ele>61.1</ele>
        <time>1970-01-01T02:23:47.000Z</time>
      </trkpt>
      <trkpt lat="43.23453" lon="6.59698">
        <ele>59</ele>
        <time>1970-01-01T02:23:48.000Z</time>
      </trkpt>
      <trkpt lat="43.23448" lon="6.59686">
        <ele>56.8</ele>
        <time>1970-01-01T02:23:49.000Z</time>
      </trkpt>
      <trkpt lat="43.23447" lon="6.59676">
        <ele>55.2</ele>
        <time>1970-01-01T02:23:50.000Z</time>
      </trkpt>
      <trkpt lat="43.23448" lon="6.59666">
        <ele>53.7</ele>
        <time>1970-01-01T02:23:51.000Z</time>
      </trkpt>
      <trkpt lat="43.23453" lon="6.59655">
        <ele>51.4</ele>
        <time>1970-01-01T02:23:52.000Z</time>
      </trkpt>
      <trkpt lat="43.23459" lon="6.59646">
        <ele>49.4</ele>
        <time>1970-01-01T02:23:53.000Z</time>
      </trkpt>
      <trkpt lat="43.23465" lon="6.59638">
        <ele>47.8</ele>
        <time>1970-01-01T02:23:54.000Z</time>
      </trkpt>
      <trkpt lat="43.23471" lon="6.59627">
        <ele>46.3</ele>
        <time>1970-01-01T02:23:55.000Z</time>
      </trkpt>
      <trkpt lat="43.23475" lon="6.59614">
        <ele>44.7</ele>
        <time>1970-01-01T02:23:56.000Z</time>
      </trkpt>
      <trkpt lat="43.23474" lon="6.59603">
        <ele>44.8</ele>
        <time>1970-01-01T02:23:57.000Z</time>
      </trkpt>
      <trkpt lat="43.23471" lon="6.59595">
        <ele>44.9</ele>
        <time>1970-01-01T02:23:58.000Z</time>
      </trkpt>
      <trkpt lat="43.23466" lon="6.59597">
        <ele>44.9</ele>
        <time>1970-01-01T02:24:01.000Z</time>
      </trkpt>
      <trkpt lat="43.23462" lon="6.59598">
        <ele>45</ele>
        <time>1970-01-01T02:24:02.000Z</time>
      </trkpt>
      <trkpt lat="43.23458" lon="6.59598">
        <ele>45</ele>
        <time>1970-01-01T02:24:03.000Z</time>
      </trkpt>
      <trkpt lat="43.23452" lon="6.59598">
        <ele>45.1</ele>
        <time>1970-01-01T02:24:04.000Z</time>
      </trkpt>
      <trkpt lat="43.23447" lon="6.59598">
        <ele>45.2</ele>
        <time>1970-01-01T02:24:05.000Z</time>
      </trkpt>
      <trkpt lat="43.23442" lon="6.59597">
        <ele>45.2</ele>
        <time>1970-01-01T02:24:06.000Z</time>
      </trkpt>
      <trkpt lat="43.23438" lon="6.59593">
        <ele>45.3</ele>
        <time>1970-01-01T02:24:07.000Z</time>
      </trkpt>
      <trkpt lat="43.23435" lon="6.59591">
        <ele>45.3</ele>
        <time>1970-01-01T02:24:08.000Z</time>
      </trkpt>
      <trkpt lat="43.23431" lon="6.59591">
        <ele>45.4</ele>
        <time>1970-01-01T02:24:09.000Z</time>
      </trkpt>
      <trkpt lat="43.23428" lon="6.5959">
        <ele>45.4</ele>
        <time>1970-01-01T02:24:10.000Z</time>
      </trkpt>
    </trkseg>
  </trk>
</gpx>